<?xml version='1.0' encoding='UTF-8'?><gpx version="1.1" creator="JPX - https://github.com/jenetics/jpx" xmlns="http://www.topografix.com/GPX/1/1"><trk><trkseg><trkpt lat="41.5148832" lon="13.1049698"><ele>321.0</ele><time>2026-05-01T07:43:23.89Z</time></trkpt><trkpt lat="41.5149411" lon="13.1052399"><ele>321.0</ele><time>2026-05-01T07:43:25.006Z</time></trkpt><trkpt lat="41.5149666" lon="13.1053454"><ele>321.0</ele><time>2026-05-01T07:43:26.007Z</time></trkpt><trkpt lat="41.5149897" lon="13.1054537"><ele>321.0</ele><time>2026-05-01T07:43:27.006Z</time></trkpt><trkpt lat="41.5150121" lon="13.1055684"><ele>321.0</ele><time>2026-05-01T07:43:28.006Z</time></trkpt><trkpt lat="41.5150284" lon="13.1056913"><ele>321.0</ele><time>2026-05-01T07:43:29.006Z</time></trkpt><trkpt lat="41.5150252" lon="13.1058248"><ele>321.0</ele><time>2026-05-01T07:43:30.006Z</time></trkpt><trkpt lat="41.5149989" lon="13.1059682"><ele>321.0</ele><time>2026-05-01T07:43:31.007Z</time></trkpt><trkpt lat="41.5149582" lon="13.1061209"><ele>321.0</ele><time>2026-05-01T07:43:32.006Z</time></trkpt><trkpt lat="41.5148994" lon="13.1062848"><ele>320.25</ele><time>2026-05-01T07:43:33.006Z</time></trkpt><trkpt lat="41.5148389" lon="13.1064619"><ele>319.5</ele><time>2026-05-01T07:43:34.007Z</time></trkpt><trkpt lat="41.5147891" lon="13.1066427"><ele>318.75</ele><time>2026-05-01T07:43:35.006Z</time></trkpt><trkpt lat="41.5147381" lon="13.1068013"><ele>318.0</ele><time>2026-05-01T07:43:36.006Z</time></trkpt><trkpt lat="41.514685" lon="13.1069473"><ele>318.75</ele><time>2026-05-01T07:43:37.006Z</time></trkpt><trkpt lat="41.51462" lon="13.1070889"><ele>319.5</ele><time>2026-05-01T07:43:38.006Z</time></trkpt><trkpt lat="41.5145437" lon="13.1072197"><ele>320.25</ele><time>2026-05-01T07:43:39.006Z</time></trkpt><trkpt lat="41.5144508" lon="13.1073286"><ele>321.0</ele><time>2026-05-01T07:43:40.006Z</time></trkpt><trkpt lat="41.5143609" lon="13.1074286"><ele>319.8</ele><time>2026-05-01T07:43:41.005Z</time></trkpt><trkpt lat="41.5142797" lon="13.1075272"><ele>318.6</ele><time>2026-05-01T07:43:42.006Z</time></trkpt><trkpt lat="41.5142239" lon="13.1076454"><ele>317.4</ele><time>2026-05-01T07:43:43.006Z</time></trkpt><trkpt lat="41.5141848" lon="13.1077814"><ele>316.2</ele><time>2026-05-01T07:43:44.006Z</time></trkpt><trkpt lat="41.5141658" lon="13.1079207"><ele>315.0</ele><time>2026-05-01T07:43:45.006Z</time></trkpt><trkpt lat="41.5141466" lon="13.1080453"><ele>315.0</ele><time>2026-05-01T07:43:46.006Z</time></trkpt><trkpt lat="41.5141409" lon="13.1081723"><ele>315.0</ele><time>2026-05-01T07:43:47.006Z</time></trkpt><trkpt lat="41.5141325" lon="13.108283"><ele>315.0</ele><time>2026-05-01T07:43:48.005Z</time></trkpt><trkpt lat="41.5141416" lon="13.108383"><ele>315.0</ele><time>2026-05-01T07:43:49.006Z</time></trkpt><trkpt lat="41.514175" lon="13.1084719"><ele>315.0</ele><time>2026-05-01T07:43:50.006Z</time></trkpt><trkpt lat="41.5142314" lon="13.1085194"><ele>315.0</ele><time>2026-05-01T07:43:51.006Z</time></trkpt><trkpt lat="41.5143065" lon="13.108544"><ele>314.8</ele><time>2026-05-01T07:43:52.006Z</time></trkpt><trkpt lat="41.5143983" lon="13.1085667"><ele>314.6</ele><time>2026-05-01T07:43:53.006Z</time></trkpt><trkpt lat="41.514487" lon="13.1085778"><ele>314.4</ele><time>2026-05-01T07:43:54.006Z</time></trkpt><trkpt lat="41.5145683" lon="13.1085838"><ele>314.2</ele><time>2026-05-01T07:43:55.006Z</time></trkpt><trkpt lat="41.5146286" lon="13.1086334"><ele>314.0</ele><time>2026-05-01T07:43:56.006Z</time></trkpt><trkpt lat="41.514698" lon="13.1087589"><ele>313.8</ele><time>2026-05-01T07:43:58.007Z</time></trkpt><trkpt lat="41.5146933" lon="13.1088462"><ele>313.59999999999997</ele><time>2026-05-01T07:43:59.006Z</time></trkpt><trkpt lat="41.5146401" lon="13.1090587"><ele>313.4</ele><time>2026-05-01T07:44:01.006Z</time></trkpt><trkpt lat="41.5145957" lon="13.1091716"><ele>313.2</ele><time>2026-05-01T07:44:02.006Z</time></trkpt><trkpt lat="41.5145443" lon="13.109298"><ele>313.0</ele><time>2026-05-01T07:44:03.007Z</time></trkpt><trkpt lat="41.5144888" lon="13.1094157"><ele>313.0</ele><time>2026-05-01T07:44:04.006Z</time></trkpt><trkpt lat="41.5144374" lon="13.1095223"><ele>313.0</ele><time>2026-05-01T07:44:05.006Z</time></trkpt><trkpt lat="41.5143846" lon="13.1096461"><ele>313.0</ele><time>2026-05-01T07:44:06.006Z</time></trkpt><trkpt lat="41.5143267" lon="13.1097616"><ele>313.0</ele><time>2026-05-01T07:44:07.007Z</time></trkpt><trkpt lat="41.5142641" lon="13.1098686"><ele>313.0</ele><time>2026-05-01T07:44:08.006Z</time></trkpt><trkpt lat="41.5141741" lon="13.1099873"><ele>313.0</ele><time>2026-05-01T07:44:09.005Z</time></trkpt><trkpt lat="41.5140961" lon="13.1100953"><ele>313.0</ele><time>2026-05-01T07:44:10.007Z</time></trkpt><trkpt lat="41.5140249" lon="13.1102269"><ele>313.0</ele><time>2026-05-01T07:44:11.006Z</time></trkpt><trkpt lat="41.5139584" lon="13.1103359"><ele>313.0</ele><time>2026-05-01T07:44:12.005Z</time></trkpt><trkpt lat="41.5138912" lon="13.1104528"><ele>313.0</ele><time>2026-05-01T07:44:13.006Z</time></trkpt><trkpt lat="41.5138198" lon="13.1105264"><ele>313.0</ele><time>2026-05-01T07:44:14.006Z</time></trkpt><trkpt lat="41.5137273" lon="13.1105987"><ele>313.0</ele><time>2026-05-01T07:44:15.006Z</time></trkpt><trkpt lat="41.5136194" lon="13.110665"><ele>313.0</ele><time>2026-05-01T07:44:16.007Z</time></trkpt><trkpt lat="41.5135006" lon="13.1107251"><ele>313.0</ele><time>2026-05-01T07:44:17.006Z</time></trkpt><trkpt lat="41.5133798" lon="13.1107937"><ele>311.75</ele><time>2026-05-01T07:44:18.006Z</time></trkpt><trkpt lat="41.5132736" lon="13.1108815"><ele>310.5</ele><time>2026-05-01T07:44:19.006Z</time></trkpt><trkpt lat="41.5131777" lon="13.1110011"><ele>309.25</ele><time>2026-05-01T07:44:20.005Z</time></trkpt><trkpt lat="41.5130849" lon="13.1111336"><ele>308.0</ele><time>2026-05-01T07:44:21.006Z</time></trkpt><trkpt lat="41.5130046" lon="13.1112704"><ele>308.0</ele><time>2026-05-01T07:44:22.006Z</time></trkpt><trkpt lat="41.5129232" lon="13.1114116"><ele>308.0</ele><time>2026-05-01T07:44:23.006Z</time></trkpt><trkpt lat="41.5128488" lon="13.1115405"><ele>308.0</ele><time>2026-05-01T07:44:24.006Z</time></trkpt><trkpt lat="41.5127725" lon="13.1116754"><ele>308.0</ele><time>2026-05-01T07:44:25.005Z</time></trkpt><trkpt lat="41.5127044" lon="13.1118169"><ele>306.0</ele><time>2026-05-01T07:44:26.007Z</time></trkpt><trkpt lat="41.5126371" lon="13.1119535"><ele>304.0</ele><time>2026-05-01T07:44:27.006Z</time></trkpt><trkpt lat="41.5125834" lon="13.1121292"><ele>302.0</ele><time>2026-05-01T07:44:28.006Z</time></trkpt><trkpt lat="41.512516" lon="13.1122776"><ele>300.0</ele><time>2026-05-01T07:44:29.006Z</time></trkpt><trkpt lat="41.5124491" lon="13.1124302"><ele>297.75</ele><time>2026-05-01T07:44:30.006Z</time></trkpt><trkpt lat="41.5123739" lon="13.1125883"><ele>295.5</ele><time>2026-05-01T07:44:31.006Z</time></trkpt><trkpt lat="41.5123018" lon="13.1127481"><ele>293.25</ele><time>2026-05-01T07:44:32.007Z</time></trkpt><trkpt lat="41.5122349" lon="13.1129113"><ele>291.0</ele><time>2026-05-01T07:44:33.006Z</time></trkpt><trkpt lat="41.512158" lon="13.1130697"><ele>291.0</ele><time>2026-05-01T07:44:34.005Z</time></trkpt><trkpt lat="41.5120893" lon="13.1132335"><ele>291.0</ele><time>2026-05-01T07:44:35.006Z</time></trkpt><trkpt lat="41.5120181" lon="13.1133943"><ele>291.0</ele><time>2026-05-01T07:44:36.006Z</time></trkpt><trkpt lat="41.5119478" lon="13.1135591"><ele>291.0</ele><time>2026-05-01T07:44:37.007Z</time></trkpt><trkpt lat="41.5118737" lon="13.1137121"><ele>288.5</ele><time>2026-05-01T07:44:38.005Z</time></trkpt><trkpt lat="41.5118065" lon="13.1138645"><ele>286.0</ele><time>2026-05-01T07:44:39.005Z</time></trkpt><trkpt lat="41.5117263" lon="13.113994"><ele>283.5</ele><time>2026-05-01T07:44:40.007Z</time></trkpt><trkpt lat="41.5116298" lon="13.1141188"><ele>281.0</ele><time>2026-05-01T07:44:41.006Z</time></trkpt><trkpt lat="41.5115332" lon="13.1142245"><ele>280.0</ele><time>2026-05-01T07:44:42.006Z</time></trkpt><trkpt lat="41.5114362" lon="13.1143214"><ele>279.0</ele><time>2026-05-01T07:44:43.006Z</time></trkpt><trkpt lat="41.5113395" lon="13.1143876"><ele>278.0</ele><time>2026-05-01T07:44:44.006Z</time></trkpt><trkpt lat="41.5112353" lon="13.1144263"><ele>277.0</ele><time>2026-05-01T07:44:45.006Z</time></trkpt><trkpt lat="41.5111346" lon="13.1144459"><ele>276.0</ele><time>2026-05-01T07:44:46.006Z</time></trkpt><trkpt lat="41.5109995" lon="13.1144491"><ele>273.25</ele><time>2026-05-01T07:44:47.005Z</time></trkpt><trkpt lat="41.5108828" lon="13.1143718"><ele>270.5</ele><time>2026-05-01T07:44:48.006Z</time></trkpt><trkpt lat="41.510763" lon="13.1143514"><ele>267.75</ele><time>2026-05-01T07:44:49.006Z</time></trkpt><trkpt lat="41.5106346" lon="13.1143244"><ele>265.0</ele><time>2026-05-01T07:44:50.006Z</time></trkpt><trkpt lat="41.5104969" lon="13.1142928"><ele>265.25</ele><time>2026-05-01T07:44:51.006Z</time></trkpt><trkpt lat="41.5103745" lon="13.1142445"><ele>265.5</ele><time>2026-05-01T07:44:52.006Z</time></trkpt><trkpt lat="41.5102576" lon="13.1141775"><ele>265.75</ele><time>2026-05-01T07:44:53.006Z</time></trkpt><trkpt lat="41.5101418" lon="13.1141128"><ele>266.0</ele><time>2026-05-01T07:44:54.006Z</time></trkpt><trkpt lat="41.5100174" lon="13.1140636"><ele>266.0</ele><time>2026-05-01T07:44:55.006Z</time></trkpt><trkpt lat="41.5098842" lon="13.1140115"><ele>266.0</ele><time>2026-05-01T07:44:56.007Z</time></trkpt><trkpt lat="41.5097562" lon="13.1139624"><ele>266.0</ele><time>2026-05-01T07:44:57.006Z</time></trkpt><trkpt lat="41.5096432" lon="13.1139058"><ele>266.0</ele><time>2026-05-01T07:44:58.006Z</time></trkpt><trkpt lat="41.509541" lon="13.1138607"><ele>265.40000000000003</ele><time>2026-05-01T07:44:59.006Z</time></trkpt><trkpt lat="41.5094482" lon="13.1138318"><ele>264.8</ele><time>2026-05-01T07:45:00.006Z</time></trkpt><trkpt lat="41.5093644" lon="13.1138516"><ele>264.20000000000005</ele><time>2026-05-01T07:45:01.006Z</time></trkpt><trkpt lat="41.5092952" lon="13.1139129"><ele>263.6</ele><time>2026-05-01T07:45:02.006Z</time></trkpt><trkpt lat="41.5092424" lon="13.1140179"><ele>263.0</ele><time>2026-05-01T07:45:03.006Z</time></trkpt><trkpt lat="41.5091969" lon="13.1141606"><ele>261.0</ele><time>2026-05-01T07:45:04.005Z</time></trkpt><trkpt lat="41.5091276" lon="13.114307"><ele>259.0</ele><time>2026-05-01T07:45:05.005Z</time></trkpt><trkpt lat="41.5090795" lon="13.114461"><ele>257.0</ele><time>2026-05-01T07:45:06.007Z</time></trkpt><trkpt lat="41.5090241" lon="13.1146038"><ele>255.0</ele><time>2026-05-01T07:45:07.005Z</time></trkpt><trkpt lat="41.5089721" lon="13.1147541"><ele>255.0</ele><time>2026-05-01T07:45:08.006Z</time></trkpt><trkpt lat="41.508917" lon="13.1149034"><ele>255.0</ele><time>2026-05-01T07:45:09.006Z</time></trkpt><trkpt lat="41.5088649" lon="13.1150527"><ele>255.0</ele><time>2026-05-01T07:45:10.005Z</time></trkpt><trkpt lat="41.5088162" lon="13.115198"><ele>255.0</ele><time>2026-05-01T07:45:11.007Z</time></trkpt><trkpt lat="41.5087659" lon="13.1153472"><ele>253.5</ele><time>2026-05-01T07:45:12.006Z</time></trkpt><trkpt lat="41.5087182" lon="13.1154964"><ele>252.0</ele><time>2026-05-01T07:45:13.006Z</time></trkpt><trkpt lat="41.5086749" lon="13.1156412"><ele>250.5</ele><time>2026-05-01T07:45:14.006Z</time></trkpt><trkpt lat="41.5086276" lon="13.1157819"><ele>249.0</ele><time>2026-05-01T07:45:15.006Z</time></trkpt><trkpt lat="41.5085851" lon="13.1159075"><ele>247.0</ele><time>2026-05-01T07:45:16.006Z</time></trkpt><trkpt lat="41.5085351" lon="13.1160072"><ele>244.99999999999997</ele><time>2026-05-01T07:45:17.006Z</time></trkpt><trkpt lat="41.5084601" lon="13.1160804"><ele>242.99999999999997</ele><time>2026-05-01T07:45:18.006Z</time></trkpt><trkpt lat="41.5083588" lon="13.1161218"><ele>241.0</ele><time>2026-05-01T07:45:19.006Z</time></trkpt><trkpt lat="41.5082311" lon="13.1161425"><ele>239.0</ele><time>2026-05-01T07:45:20.006Z</time></trkpt><trkpt lat="41.5080969" lon="13.1161213"><ele>239.0</ele><time>2026-05-01T07:45:21.006Z</time></trkpt><trkpt lat="41.5079506" lon="13.1160782"><ele>239.0</ele><time>2026-05-01T07:45:22.006Z</time></trkpt><trkpt lat="41.5078137" lon="13.116028"><ele>239.0</ele><time>2026-05-01T07:45:23.006Z</time></trkpt><trkpt lat="41.5076809" lon="13.1159765"><ele>239.0</ele><time>2026-05-01T07:45:24.005Z</time></trkpt><trkpt lat="41.5075562" lon="13.1159226"><ele>239.75</ele><time>2026-05-01T07:45:25.006Z</time></trkpt><trkpt lat="41.5074355" lon="13.1158605"><ele>240.5</ele><time>2026-05-01T07:45:26.005Z</time></trkpt><trkpt lat="41.5073461" lon="13.1157538"><ele>241.25</ele><time>2026-05-01T07:45:27.006Z</time></trkpt><trkpt lat="41.5072529" lon="13.1156319"><ele>242.0</ele><time>2026-05-01T07:45:28.006Z</time></trkpt><trkpt lat="41.507159" lon="13.1154972"><ele>241.0</ele><time>2026-05-01T07:45:29.006Z</time></trkpt><trkpt lat="41.5070732" lon="13.1153655"><ele>240.0</ele><time>2026-05-01T07:45:30.006Z</time></trkpt><trkpt lat="41.506956" lon="13.1152673"><ele>239.0</ele><time>2026-05-01T07:45:31.006Z</time></trkpt><trkpt lat="41.5068555" lon="13.1151589"><ele>238.0</ele><time>2026-05-01T07:45:32.006Z</time></trkpt><trkpt lat="41.5067471" lon="13.1150805"><ele>238.0</ele><time>2026-05-01T07:45:33.004Z</time></trkpt><trkpt lat="41.5066443" lon="13.1150112"><ele>238.0</ele><time>2026-05-01T07:45:34.006Z</time></trkpt><trkpt lat="41.5065242" lon="13.1149894"><ele>238.0</ele><time>2026-05-01T07:45:35.004Z</time></trkpt><trkpt lat="41.5064043" lon="13.1150017"><ele>238.0</ele><time>2026-05-01T07:45:36.005Z</time></trkpt><trkpt lat="41.5062848" lon="13.1150089"><ele>236.4</ele><time>2026-05-01T07:45:37.005Z</time></trkpt><trkpt lat="41.5061806" lon="13.1149921"><ele>234.8</ele><time>2026-05-01T07:45:38.006Z</time></trkpt><trkpt lat="41.5060799" lon="13.1149787"><ele>233.2</ele><time>2026-05-01T07:45:39.004Z</time></trkpt><trkpt lat="41.5060012" lon="13.1149557"><ele>231.6</ele><time>2026-05-01T07:45:40.006Z</time></trkpt><trkpt lat="41.5059009" lon="13.1148669"><ele>230.0</ele><time>2026-05-01T07:45:42.005Z</time></trkpt><trkpt lat="41.5058929" lon="13.11473"><ele>227.8</ele><time>2026-05-01T07:45:44.005Z</time></trkpt><trkpt lat="41.5059296" lon="13.1146468"><ele>225.6</ele><time>2026-05-01T07:45:45.006Z</time></trkpt><trkpt lat="41.5059656" lon="13.1145116"><ele>223.39999999999998</ele><time>2026-05-01T07:45:46.005Z</time></trkpt><trkpt lat="41.506009" lon="13.1143991"><ele>221.2</ele><time>2026-05-01T07:45:47.005Z</time></trkpt><trkpt lat="41.5060773" lon="13.1142527"><ele>219.0</ele><time>2026-05-01T07:45:48.006Z</time></trkpt><trkpt lat="41.5061247" lon="13.1141286"><ele>218.79999999999998</ele><time>2026-05-01T07:45:49.006Z</time></trkpt><trkpt lat="41.5061829" lon="13.1140025"><ele>218.59999999999997</ele><time>2026-05-01T07:45:50.005Z</time></trkpt><trkpt lat="41.5062419" lon="13.1138783"><ele>218.4</ele><time>2026-05-01T07:45:51.004Z</time></trkpt><trkpt lat="41.5062696" lon="13.1137632"><ele>218.2</ele><time>2026-05-01T07:45:52.005Z</time></trkpt><trkpt lat="41.5062912" lon="13.1136535"><ele>218.0</ele><time>2026-05-01T07:45:53.004Z</time></trkpt><trkpt lat="41.5062728" lon="13.1135652"><ele>218.00000000000003</ele><time>2026-05-01T07:45:54.005Z</time></trkpt><trkpt lat="41.5062365" lon="13.113479"><ele>218.0</ele><time>2026-05-01T07:45:55.005Z</time></trkpt><trkpt lat="41.506169" lon="13.1134431"><ele>218.0</ele><time>2026-05-01T07:45:56.005Z</time></trkpt><trkpt lat="41.5061065" lon="13.1134601"><ele>218.0</ele><time>2026-05-01T07:45:57.004Z</time></trkpt><trkpt lat="41.5060148" lon="13.1134928"><ele>218.00000000000003</ele><time>2026-05-01T07:45:58.005Z</time></trkpt><trkpt lat="41.5059037" lon="13.1135147"><ele>218.0</ele><time>2026-05-01T07:45:59.005Z</time></trkpt><trkpt lat="41.5057675" lon="13.1135297"><ele>218.0</ele><time>2026-05-01T07:46:00.005Z</time></trkpt><trkpt lat="41.5056239" lon="13.1135407"><ele>218.0</ele><time>2026-05-01T07:46:01.004Z</time></trkpt><trkpt lat="41.5054685" lon="13.1135528"><ele>218.0</ele><time>2026-05-01T07:46:02.005Z</time></trkpt><trkpt lat="41.5052924" lon="13.1135698"><ele>218.33333333333334</ele><time>2026-05-01T07:46:03.006Z</time></trkpt><trkpt lat="41.5051261" lon="13.1135844"><ele>218.66666666666669</ele><time>2026-05-01T07:46:04.005Z</time></trkpt><trkpt lat="41.504966" lon="13.1135811"><ele>219.0</ele><time>2026-05-01T07:46:05.005Z</time></trkpt><trkpt lat="41.5048022" lon="13.113578"><ele>219.0</ele><time>2026-05-01T07:46:06.004Z</time></trkpt><trkpt lat="41.5046506" lon="13.113566"><ele>219.0</ele><time>2026-05-01T07:46:07.005Z</time></trkpt><trkpt lat="41.5045071" lon="13.1135523"><ele>219.0</ele><time>2026-05-01T07:46:08.006Z</time></trkpt><trkpt lat="41.5043846" lon="13.1135242"><ele>219.0</ele><time>2026-05-01T07:46:09.004Z</time></trkpt><trkpt lat="41.5042741" lon="13.1134841"><ele>219.5</ele><time>2026-05-01T07:46:10.005Z</time></trkpt><trkpt lat="41.5042006" lon="13.1133813"><ele>220.0</ele><time>2026-05-01T07:46:11.005Z</time></trkpt><trkpt lat="41.5041331" lon="13.1132499"><ele>220.5</ele><time>2026-05-01T07:46:12.005Z</time></trkpt><trkpt lat="41.5040588" lon="13.1131017"><ele>221.0</ele><time>2026-05-01T07:46:13.006Z</time></trkpt><trkpt lat="41.5039884" lon="13.1129654"><ele>221.0</ele><time>2026-05-01T07:46:14.004Z</time></trkpt><trkpt lat="41.503917" lon="13.1128233"><ele>221.00000000000003</ele><time>2026-05-01T07:46:15.005Z</time></trkpt><trkpt lat="41.5038615" lon="13.1127445"><ele>221.00000000000003</ele><time>2026-05-01T07:46:16.005Z</time></trkpt><trkpt lat="41.5037703" lon="13.1126723"><ele>221.0</ele><time>2026-05-01T07:46:17.005Z</time></trkpt><trkpt lat="41.5036728" lon="13.1126296"><ele>221.0</ele><time>2026-05-01T07:46:18.006Z</time></trkpt><trkpt lat="41.5035501" lon="13.1126522"><ele>216.33333333333334</ele><time>2026-05-01T07:46:19.005Z</time></trkpt><trkpt lat="41.5033965" lon="13.1127025"><ele>211.66666666666669</ele><time>2026-05-01T07:46:20.005Z</time></trkpt><trkpt lat="41.5032347" lon="13.1127054"><ele>207.0</ele><time>2026-05-01T07:46:21.006Z</time></trkpt><trkpt lat="41.5030816" lon="13.1126737"><ele>207.0</ele><time>2026-05-01T07:46:22.004Z</time></trkpt><trkpt lat="41.5029246" lon="13.1126184"><ele>207.0</ele><time>2026-05-01T07:46:23.005Z</time></trkpt><trkpt lat="41.5027612" lon="13.1125543"><ele>207.0</ele><time>2026-05-01T07:46:24.006Z</time></trkpt><trkpt lat="41.5026068" lon="13.1124848"><ele>207.0</ele><time>2026-05-01T07:46:25.004Z</time></trkpt><trkpt lat="41.5024623" lon="13.1124134"><ele>207.0</ele><time>2026-05-01T07:46:26.005Z</time></trkpt><trkpt lat="41.5023229" lon="13.1123414"><ele>207.0</ele><time>2026-05-01T07:46:27.006Z</time></trkpt><trkpt lat="41.5021822" lon="13.1122732"><ele>203.0</ele><time>2026-05-01T07:46:28.005Z</time></trkpt><trkpt lat="41.5020476" lon="13.1122154"><ele>199.0</ele><time>2026-05-01T07:46:29.005Z</time></trkpt><trkpt lat="41.5019235" lon="13.1121546"><ele>195.0</ele><time>2026-05-01T07:46:30.005Z</time></trkpt><trkpt lat="41.5017938" lon="13.1120949"><ele>191.0</ele><time>2026-05-01T07:46:31.005Z</time></trkpt><trkpt lat="41.5016583" lon="13.112032"><ele>191.0</ele><time>2026-05-01T07:46:32.006Z</time></trkpt><trkpt lat="41.5015259" lon="13.1119663"><ele>191.0</ele><time>2026-05-01T07:46:33.004Z</time></trkpt><trkpt lat="41.5013965" lon="13.1118885"><ele>191.0</ele><time>2026-05-01T07:46:34.004Z</time></trkpt><trkpt lat="41.5012595" lon="13.1118211"><ele>191.0</ele><time>2026-05-01T07:46:35.004Z</time></trkpt><trkpt lat="41.5011298" lon="13.1117412"><ele>190.0</ele><time>2026-05-01T07:46:36.005Z</time></trkpt><trkpt lat="41.5009998" lon="13.1116741"><ele>189.0</ele><time>2026-05-01T07:46:37.004Z</time></trkpt><trkpt lat="41.5008715" lon="13.1115934"><ele>188.0</ele><time>2026-05-01T07:46:38.005Z</time></trkpt><trkpt lat="41.5007453" lon="13.1115084"><ele>187.0</ele><time>2026-05-01T07:46:39.004Z</time></trkpt><trkpt lat="41.5006286" lon="13.1114224"><ele>187.0</ele><time>2026-05-01T07:46:40.006Z</time></trkpt><trkpt lat="41.5005275" lon="13.1113096"><ele>187.0</ele><time>2026-05-01T07:46:41.005Z</time></trkpt><trkpt lat="41.5004217" lon="13.111178"><ele>187.0</ele><time>2026-05-01T07:46:42.004Z</time></trkpt><trkpt lat="41.500349" lon="13.1110325"><ele>187.0</ele><time>2026-05-01T07:46:43.006Z</time></trkpt><trkpt lat="41.5002519" lon="13.1109078"><ele>183.25</ele><time>2026-05-01T07:46:44.005Z</time></trkpt><trkpt lat="41.500167" lon="13.1107732"><ele>179.5</ele><time>2026-05-01T07:46:45.005Z</time></trkpt><trkpt lat="41.5000948" lon="13.1106296"><ele>175.75</ele><time>2026-05-01T07:46:46.006Z</time></trkpt><trkpt lat="41.5000344" lon="13.1104869"><ele>172.0</ele><time>2026-05-01T07:46:47.005Z</time></trkpt><trkpt lat="41.4999728" lon="13.1103521"><ele>172.0</ele><time>2026-05-01T07:46:48.005Z</time></trkpt><trkpt lat="41.4998895" lon="13.1102418"><ele>172.0</ele><time>2026-05-01T07:46:49.005Z</time></trkpt><trkpt lat="41.4997908" lon="13.1101047"><ele>172.0</ele><time>2026-05-01T07:46:50.005Z</time></trkpt><trkpt lat="41.4996975" lon="13.1099506"><ele>172.0</ele><time>2026-05-01T07:46:51.005Z</time></trkpt><trkpt lat="41.499573" lon="13.1098027"><ele>169.0</ele><time>2026-05-01T07:46:52.005Z</time></trkpt><trkpt lat="41.4994534" lon="13.1096575"><ele>166.0</ele><time>2026-05-01T07:46:53.005Z</time></trkpt><trkpt lat="41.4993308" lon="13.1095062"><ele>163.0</ele><time>2026-05-01T07:46:54.005Z</time></trkpt><trkpt lat="41.4991944" lon="13.1093582"><ele>163.0</ele><time>2026-05-01T07:46:55.006Z</time></trkpt><trkpt lat="41.4990512" lon="13.1092274"><ele>163.0</ele><time>2026-05-01T07:46:56.005Z</time></trkpt><trkpt lat="41.4988983" lon="13.1091104"><ele>163.0</ele><time>2026-05-01T07:46:57.005Z</time></trkpt><trkpt lat="41.4987485" lon="13.1089947"><ele>160.66666666666669</ele><time>2026-05-01T07:46:58.005Z</time></trkpt><trkpt lat="41.4986114" lon="13.1088594"><ele>158.33333333333334</ele><time>2026-05-01T07:46:59.005Z</time></trkpt><trkpt lat="41.4984908" lon="13.10872"><ele>156.0</ele><time>2026-05-01T07:47:00.006Z</time></trkpt><trkpt lat="41.4983896" lon="13.1085608"><ele>156.0</ele><time>2026-05-01T07:47:01.005Z</time></trkpt><trkpt lat="41.4983033" lon="13.1083907"><ele>156.0</ele><time>2026-05-01T07:47:02.006Z</time></trkpt><trkpt lat="41.4982351" lon="13.1082104"><ele>156.0</ele><time>2026-05-01T07:47:03.005Z</time></trkpt><trkpt lat="41.4981705" lon="13.1080346"><ele>156.75</ele><time>2026-05-01T07:47:04.005Z</time></trkpt><trkpt lat="41.4981133" lon="13.107885"><ele>157.5</ele><time>2026-05-01T07:47:05.006Z</time></trkpt><trkpt lat="41.4980538" lon="13.1077566"><ele>158.25</ele><time>2026-05-01T07:47:06.004Z</time></trkpt><trkpt lat="41.4979722" lon="13.1076658"><ele>159.0</ele><time>2026-05-01T07:47:07.005Z</time></trkpt><trkpt lat="41.4978688" lon="13.1076154"><ele>159.0</ele><time>2026-05-01T07:47:08.005Z</time></trkpt><trkpt lat="41.4977445" lon="13.1075914"><ele>159.0</ele><time>2026-05-01T07:47:09.005Z</time></trkpt><trkpt lat="41.4976025" lon="13.1075501"><ele>159.0</ele><time>2026-05-01T07:47:10.006Z</time></trkpt><trkpt lat="41.4974382" lon="13.107492"><ele>159.0</ele><time>2026-05-01T07:47:11.005Z</time></trkpt><trkpt lat="41.4972718" lon="13.1074378"><ele>167.66666666666666</ele><time>2026-05-01T07:47:12.004Z</time></trkpt><trkpt lat="41.4970944" lon="13.1073825"><ele>176.33333333333331</ele><time>2026-05-01T07:47:13.005Z</time></trkpt><trkpt lat="41.4969239" lon="13.1073349"><ele>185.0</ele><time>2026-05-01T07:47:14.005Z</time></trkpt><trkpt lat="41.4967577" lon="13.1072915"><ele>185.0</ele><time>2026-05-01T07:47:15.004Z</time></trkpt><trkpt lat="41.4965926" lon="13.1072534"><ele>185.0</ele><time>2026-05-01T07:47:16.005Z</time></trkpt><trkpt lat="41.4964215" lon="13.1072329"><ele>185.0</ele><time>2026-05-01T07:47:17.005Z</time></trkpt><trkpt lat="41.496245" lon="13.1072374"><ele>181.33333333333331</ele><time>2026-05-01T07:47:18.005Z</time></trkpt><trkpt lat="41.4960627" lon="13.1072288"><ele>177.66666666666666</ele><time>2026-05-01T07:47:19.005Z</time></trkpt><trkpt lat="41.4958751" lon="13.1072168"><ele>174.0</ele><time>2026-05-01T07:47:20.004Z</time></trkpt><trkpt lat="41.4956889" lon="13.1071867"><ele>174.0</ele><time>2026-05-01T07:47:21.005Z</time></trkpt><trkpt lat="41.4955083" lon="13.1071482"><ele>174.0</ele><time>2026-05-01T07:47:22.006Z</time></trkpt><trkpt lat="41.4953302" lon="13.1071266"><ele>174.0</ele><time>2026-05-01T07:47:23.006Z</time></trkpt><trkpt lat="41.4951556" lon="13.1070824"><ele>169.33333333333334</ele><time>2026-05-01T07:47:24.005Z</time></trkpt><trkpt lat="41.494982" lon="13.1070302"><ele>164.66666666666669</ele><time>2026-05-01T07:47:25.004Z</time></trkpt><trkpt lat="41.4947999" lon="13.1069845"><ele>160.0</ele><time>2026-05-01T07:47:26.005Z</time></trkpt><trkpt lat="41.4946136" lon="13.1069495"><ele>158.0</ele><time>2026-05-01T07:47:27.005Z</time></trkpt><trkpt lat="41.4944321" lon="13.1069319"><ele>156.0</ele><time>2026-05-01T07:47:28.006Z</time></trkpt><trkpt lat="41.494258" lon="13.1069302"><ele>154.0</ele><time>2026-05-01T07:47:29.005Z</time></trkpt><trkpt lat="41.4940942" lon="13.1069378"><ele>154.0</ele><time>2026-05-01T07:47:30.004Z</time></trkpt><trkpt lat="41.4939407" lon="13.1069529"><ele>154.0</ele><time>2026-05-01T07:47:31.005Z</time></trkpt><trkpt lat="41.4937965" lon="13.1069772"><ele>154.0</ele><time>2026-05-01T07:47:32.005Z</time></trkpt><trkpt lat="41.4936599" lon="13.1070126"><ele>154.0</ele><time>2026-05-01T07:47:33.004Z</time></trkpt><trkpt lat="41.4935275" lon="13.1070492"><ele>153.0</ele><time>2026-05-01T07:47:34.005Z</time></trkpt><trkpt lat="41.4933901" lon="13.1070832"><ele>152.0</ele><time>2026-05-01T07:47:35.005Z</time></trkpt><trkpt lat="41.4932461" lon="13.1071271"><ele>151.0</ele><time>2026-05-01T07:47:36.005Z</time></trkpt><trkpt lat="41.4931052" lon="13.107163"><ele>150.0</ele><time>2026-05-01T07:47:37.006Z</time></trkpt><trkpt lat="41.4929717" lon="13.1071918"><ele>147.0</ele><time>2026-05-01T07:47:38.005Z</time></trkpt><trkpt lat="41.4928443" lon="13.1072128"><ele>144.0</ele><time>2026-05-01T07:47:39.005Z</time></trkpt><trkpt lat="41.4927181" lon="13.1072253"><ele>141.0</ele><time>2026-05-01T07:47:40.005Z</time></trkpt><trkpt lat="41.492588" lon="13.1072313"><ele>138.0</ele><time>2026-05-01T07:47:41.005Z</time></trkpt><trkpt lat="41.4924673" lon="13.1072404"><ele>138.0</ele><time>2026-05-01T07:47:42.005Z</time></trkpt><trkpt lat="41.4923506" lon="13.1072354"><ele>138.0</ele><time>2026-05-01T07:47:43.006Z</time></trkpt><trkpt lat="41.4922363" lon="13.1072091"><ele>138.0</ele><time>2026-05-01T07:47:44.004Z</time></trkpt><trkpt lat="41.4921291" lon="13.1071668"><ele>138.0</ele><time>2026-05-01T07:47:45.005Z</time></trkpt><trkpt lat="41.4920307" lon="13.107109"><ele>135.4</ele><time>2026-05-01T07:47:46.005Z</time></trkpt><trkpt lat="41.4919286" lon="13.1070643"><ele>132.8</ele><time>2026-05-01T07:47:47.004Z</time></trkpt><trkpt lat="41.491832" lon="13.10699"><ele>130.2</ele><time>2026-05-01T07:47:48.004Z</time></trkpt><trkpt lat="41.4917346" lon="13.1069142"><ele>127.6</ele><time>2026-05-01T07:47:49.006Z</time></trkpt><trkpt lat="41.4916585" lon="13.1068347"><ele>125.0</ele><time>2026-05-01T07:47:50.005Z</time></trkpt><trkpt lat="41.4915928" lon="13.1067622"><ele>125.0</ele><time>2026-05-01T07:47:51.005Z</time></trkpt><trkpt lat="41.491542" lon="13.1067012"><ele>125.0</ele><time>2026-05-01T07:47:52.005Z</time></trkpt><trkpt lat="41.4914676" lon="13.1066182"><ele>125.0</ele><time>2026-05-01T07:47:54.004Z</time></trkpt><trkpt lat="41.4913845" lon="13.1065845"><ele>125.0</ele><time>2026-05-01T07:47:56.005Z</time></trkpt><trkpt lat="41.4912667" lon="13.1066427"><ele>125.0</ele><time>2026-05-01T07:47:58.005Z</time></trkpt><trkpt lat="41.4911869" lon="13.1066951"><ele>123.0</ele><time>2026-05-01T07:47:59.005Z</time></trkpt><trkpt lat="41.4910958" lon="13.1067208"><ele>121.0</ele><time>2026-05-01T07:48:00.005Z</time></trkpt><trkpt lat="41.4910029" lon="13.106726"><ele>119.0</ele><time>2026-05-01T07:48:01.005Z</time></trkpt><trkpt lat="41.4909085" lon="13.1067101"><ele>117.0</ele><time>2026-05-01T07:48:02.005Z</time></trkpt><trkpt lat="41.4908192" lon="13.1066903"><ele>115.0</ele><time>2026-05-01T07:48:03.005Z</time></trkpt><trkpt lat="41.4907207" lon="13.1066719"><ele>115.0</ele><time>2026-05-01T07:48:04.006Z</time></trkpt><trkpt lat="41.4906161" lon="13.1066712"><ele>115.0</ele><time>2026-05-01T07:48:05.005Z</time></trkpt><trkpt lat="41.4905177" lon="13.1066773"><ele>115.0</ele><time>2026-05-01T07:48:06.005Z</time></trkpt><trkpt lat="41.4904137" lon="13.1067106"><ele>115.0</ele><time>2026-05-01T07:48:07.005Z</time></trkpt><trkpt lat="41.4903141" lon="13.1067461"><ele>115.0</ele><time>2026-05-01T07:48:08.004Z</time></trkpt><trkpt lat="41.4902142" lon="13.106797"><ele>113.2</ele><time>2026-05-01T07:48:09.005Z</time></trkpt><trkpt lat="41.4901117" lon="13.1068448"><ele>111.4</ele><time>2026-05-01T07:48:10.005Z</time></trkpt><trkpt lat="41.4900178" lon="13.1069008"><ele>109.6</ele><time>2026-05-01T07:48:11.005Z</time></trkpt><trkpt lat="41.489932" lon="13.1069745"><ele>107.8</ele><time>2026-05-01T07:48:12.005Z</time></trkpt><trkpt lat="41.489853" lon="13.1070496"><ele>106.0</ele><time>2026-05-01T07:48:13.005Z</time></trkpt><trkpt lat="41.4897923" lon="13.1071632"><ele>106.0</ele><time>2026-05-01T07:48:14.005Z</time></trkpt><trkpt lat="41.4897392" lon="13.1072998"><ele>106.0</ele><time>2026-05-01T07:48:15.006Z</time></trkpt><trkpt lat="41.4896808" lon="13.1074204"><ele>106.0</ele><time>2026-05-01T07:48:16.006Z</time></trkpt><trkpt lat="41.4896089" lon="13.1075347"><ele>106.0</ele><time>2026-05-01T07:48:17.005Z</time></trkpt><trkpt lat="41.4895189" lon="13.1076523"><ele>105.25</ele><time>2026-05-01T07:48:18.005Z</time></trkpt><trkpt lat="41.4894178" lon="13.1077773"><ele>104.5</ele><time>2026-05-01T07:48:19.006Z</time></trkpt><trkpt lat="41.4893158" lon="13.1078953"><ele>103.75</ele><time>2026-05-01T07:48:20.004Z</time></trkpt><trkpt lat="41.4892134" lon="13.1080173"><ele>103.0</ele><time>2026-05-01T07:48:21.005Z</time></trkpt><trkpt lat="41.4891161" lon="13.1081501"><ele>103.75</ele><time>2026-05-01T07:48:22.006Z</time></trkpt><trkpt lat="41.4890214" lon="13.1082902"><ele>104.5</ele><time>2026-05-01T07:48:23.005Z</time></trkpt><trkpt lat="41.4889431" lon="13.1084296"><ele>105.25</ele><time>2026-05-01T07:48:24.004Z</time></trkpt><trkpt lat="41.4888872" lon="13.1085768"><ele>106.0</ele><time>2026-05-01T07:48:25.005Z</time></trkpt><trkpt lat="41.4888492" lon="13.1087412"><ele>106.0</ele><time>2026-05-01T07:48:26.005Z</time></trkpt><trkpt lat="41.4888083" lon="13.1089263"><ele>106.0</ele><time>2026-05-01T07:48:27.004Z</time></trkpt><trkpt lat="41.488763" lon="13.1091089"><ele>106.0</ele><time>2026-05-01T07:48:28.005Z</time></trkpt><trkpt lat="41.4887382" lon="13.109293"><ele>106.0</ele><time>2026-05-01T07:48:29.004Z</time></trkpt><trkpt lat="41.4886998" lon="13.1094843"><ele>105.0</ele><time>2026-05-01T07:48:30.005Z</time></trkpt><trkpt lat="41.4886639" lon="13.1096673"><ele>104.0</ele><time>2026-05-01T07:48:31.005Z</time></trkpt><trkpt lat="41.4886352" lon="13.1098361"><ele>103.0</ele><time>2026-05-01T07:48:32.005Z</time></trkpt><trkpt lat="41.488613" lon="13.1099837"><ele>102.0</ele><time>2026-05-01T07:48:33.004Z</time></trkpt><trkpt lat="41.4885935" lon="13.1101302"><ele>101.75</ele><time>2026-05-01T07:48:34.006Z</time></trkpt><trkpt lat="41.4885579" lon="13.1102837"><ele>101.5</ele><time>2026-05-01T07:48:35.005Z</time></trkpt><trkpt lat="41.488522" lon="13.1104573"><ele>101.25</ele><time>2026-05-01T07:48:36.005Z</time></trkpt><trkpt lat="41.4884914" lon="13.1106393"><ele>101.0</ele><time>2026-05-01T07:48:37.005Z</time></trkpt><trkpt lat="41.4884561" lon="13.110814"><ele>100.75</ele><time>2026-05-01T07:48:38.006Z</time></trkpt><trkpt lat="41.4884224" lon="13.1109851"><ele>100.5</ele><time>2026-05-01T07:48:39.005Z</time></trkpt><trkpt lat="41.488389" lon="13.1111602"><ele>100.25</ele><time>2026-05-01T07:48:40.005Z</time></trkpt><trkpt lat="41.4883602" lon="13.1113333"><ele>100.0</ele><time>2026-05-01T07:48:41.006Z</time></trkpt><trkpt lat="41.4883169" lon="13.111511"><ele>99.75</ele><time>2026-05-01T07:48:42.004Z</time></trkpt><trkpt lat="41.4882876" lon="13.111688"><ele>99.5</ele><time>2026-05-01T07:48:43.004Z</time></trkpt><trkpt lat="41.4882484" lon="13.1118588"><ele>99.25</ele><time>2026-05-01T07:48:44.003Z</time></trkpt><trkpt lat="41.4882115" lon="13.1120264"><ele>99.0</ele><time>2026-05-01T07:48:45.005Z</time></trkpt><trkpt lat="41.4881693" lon="13.1122048"><ele>99.0</ele><time>2026-05-01T07:48:46.004Z</time></trkpt><trkpt lat="41.4881307" lon="13.1123647"><ele>99.0</ele><time>2026-05-01T07:48:47.004Z</time></trkpt><trkpt lat="41.4880866" lon="13.1125307"><ele>99.0</ele><time>2026-05-01T07:48:48.004Z</time></trkpt><trkpt lat="41.4880317" lon="13.1126957"><ele>99.0</ele><time>2026-05-01T07:48:49.004Z</time></trkpt><trkpt lat="41.4879862" lon="13.1128618"><ele>97.5</ele><time>2026-05-01T07:48:50.005Z</time></trkpt><trkpt lat="41.4879361" lon="13.1130178"><ele>96.0</ele><time>2026-05-01T07:48:51.005Z</time></trkpt><trkpt lat="41.4878968" lon="13.1131643"><ele>94.5</ele><time>2026-05-01T07:48:52.004Z</time></trkpt><trkpt lat="41.4878531" lon="13.1133034"><ele>93.0</ele><time>2026-05-01T07:48:53.004Z</time></trkpt><trkpt lat="41.4877913" lon="13.1134497"><ele>92.25</ele><time>2026-05-01T07:48:54.003Z</time></trkpt><trkpt lat="41.4877233" lon="13.1135804"><ele>91.5</ele><time>2026-05-01T07:48:55.005Z</time></trkpt><trkpt lat="41.4876532" lon="13.1137132"><ele>90.75</ele><time>2026-05-01T07:48:56.004Z</time></trkpt><trkpt lat="41.4875894" lon="13.1138518"><ele>90.0</ele><time>2026-05-01T07:48:57.004Z</time></trkpt><trkpt lat="41.4875339" lon="13.1139722"><ele>89.16666666666667</ele><time>2026-05-01T07:48:58.003Z</time></trkpt><trkpt lat="41.4874905" lon="13.1140795"><ele>88.33333333333333</ele><time>2026-05-01T07:48:59.004Z</time></trkpt><trkpt lat="41.4874549" lon="13.1141825"><ele>87.5</ele><time>2026-05-01T07:49:00.004Z</time></trkpt><trkpt lat="41.487436" lon="13.1142936"><ele>86.66666666666666</ele><time>2026-05-01T07:49:01.004Z</time></trkpt><trkpt lat="41.4874197" lon="13.1144108"><ele>85.83333333333333</ele><time>2026-05-01T07:49:02.004Z</time></trkpt><trkpt lat="41.4873955" lon="13.1145331"><ele>85.0</ele><time>2026-05-01T07:49:03.005Z</time></trkpt><trkpt lat="41.4873782" lon="13.1146715"><ele>85.0</ele><time>2026-05-01T07:49:04.004Z</time></trkpt><trkpt lat="41.4873611" lon="13.1148012"><ele>85.0</ele><time>2026-05-01T07:49:05.003Z</time></trkpt><trkpt lat="41.4873406" lon="13.1149375"><ele>85.0</ele><time>2026-05-01T07:49:06.004Z</time></trkpt><trkpt lat="41.487322" lon="13.1150865"><ele>85.0</ele><time>2026-05-01T07:49:07.005Z</time></trkpt><trkpt lat="41.4873048" lon="13.115236"><ele>85.0</ele><time>2026-05-01T07:49:08.004Z</time></trkpt><trkpt lat="41.4872898" lon="13.1153884"><ele>84.75</ele><time>2026-05-01T07:49:09.005Z</time></trkpt><trkpt lat="41.4872676" lon="13.1155436"><ele>84.5</ele><time>2026-05-01T07:49:10.004Z</time></trkpt><trkpt lat="41.4872562" lon="13.1157014"><ele>84.25</ele><time>2026-05-01T07:49:11.004Z</time></trkpt><trkpt lat="41.4872362" lon="13.1158436"><ele>84.0</ele><time>2026-05-01T07:49:12.003Z</time></trkpt><trkpt lat="41.4872166" lon="13.1159947"><ele>83.80000000000001</ele><time>2026-05-01T07:49:13.003Z</time></trkpt><trkpt lat="41.487191" lon="13.116132"><ele>83.60000000000001</ele><time>2026-05-01T07:49:14.004Z</time></trkpt><trkpt lat="41.4871597" lon="13.1162632"><ele>83.4</ele><time>2026-05-01T07:49:15.004Z</time></trkpt><trkpt lat="41.4871238" lon="13.1163898"><ele>83.2</ele><time>2026-05-01T07:49:16.004Z</time></trkpt><trkpt lat="41.4870808" lon="13.1165004"><ele>83.0</ele><time>2026-05-01T07:49:17.004Z</time></trkpt><trkpt lat="41.487046" lon="13.1166294"><ele>81.75</ele><time>2026-05-01T07:49:18.004Z</time></trkpt><trkpt lat="41.4870227" lon="13.116766"><ele>80.5</ele><time>2026-05-01T07:49:19.003Z</time></trkpt><trkpt lat="41.4870093" lon="13.1169141"><ele>79.25</ele><time>2026-05-01T07:49:20.005Z</time></trkpt><trkpt lat="41.486997" lon="13.1170736"><ele>78.0</ele><time>2026-05-01T07:49:21.004Z</time></trkpt><trkpt lat="41.4869755" lon="13.1172341"><ele>78.0</ele><time>2026-05-01T07:49:22.003Z</time></trkpt><trkpt lat="41.4869507" lon="13.1173944"><ele>78.0</ele><time>2026-05-01T07:49:23.004Z</time></trkpt><trkpt lat="41.4869188" lon="13.117552"><ele>78.0</ele><time>2026-05-01T07:49:24.005Z</time></trkpt><trkpt lat="41.4868913" lon="13.1177024"><ele>78.0</ele><time>2026-05-01T07:49:25.004Z</time></trkpt><trkpt lat="41.4868591" lon="13.1178389"><ele>77.5</ele><time>2026-05-01T07:49:26.004Z</time></trkpt><trkpt lat="41.486829" lon="13.1179596"><ele>77.0</ele><time>2026-05-01T07:49:27.004Z</time></trkpt><trkpt lat="41.4868124" lon="13.1180839"><ele>76.5</ele><time>2026-05-01T07:49:28.005Z</time></trkpt><trkpt lat="41.4868001" lon="13.1181967"><ele>76.0</ele><time>2026-05-01T07:49:29.003Z</time></trkpt><trkpt lat="41.4868008" lon="13.1183091"><ele>75.5</ele><time>2026-05-01T07:49:30.004Z</time></trkpt><trkpt lat="41.4868093" lon="13.1184073"><ele>75.0</ele><time>2026-05-01T07:49:31.004Z</time></trkpt><trkpt lat="41.4868246" lon="13.1185594"><ele>74.2</ele><time>2026-05-01T07:49:33.003Z</time></trkpt><trkpt lat="41.4868189" lon="13.1186872"><ele>73.4</ele><time>2026-05-01T07:49:35.004Z</time></trkpt><trkpt lat="41.4867584" lon="13.1188117"><ele>72.6</ele><time>2026-05-01T07:49:37.004Z</time></trkpt><trkpt lat="41.4866971" lon="13.1188765"><ele>71.8</ele><time>2026-05-01T07:49:38.004Z</time></trkpt><trkpt lat="41.4866373" lon="13.1189521"><ele>71.0</ele><time>2026-05-01T07:49:39.003Z</time></trkpt><trkpt lat="41.4865771" lon="13.1190279"><ele>70.39999999999999</ele><time>2026-05-01T07:49:40.003Z</time></trkpt><trkpt lat="41.486534" lon="13.1190924"><ele>69.8</ele><time>2026-05-01T07:49:41.003Z</time></trkpt><trkpt lat="41.4864275" lon="13.1191665"><ele>69.19999999999999</ele><time>2026-05-01T07:49:43.005Z</time></trkpt><trkpt lat="41.4863504" lon="13.1193047"><ele>68.6</ele><time>2026-05-01T07:49:45.003Z</time></trkpt><trkpt lat="41.4863418" lon="13.1194178"><ele>68.0</ele><time>2026-05-01T07:49:46.004Z</time></trkpt><trkpt lat="41.4863561" lon="13.119551"><ele>68.0</ele><time>2026-05-01T07:49:47.004Z</time></trkpt><trkpt lat="41.4863628" lon="13.1196772"><ele>68.0</ele><time>2026-05-01T07:49:48.004Z</time></trkpt><trkpt lat="41.4863965" lon="13.1198494"><ele>68.0</ele><time>2026-05-01T07:49:49.004Z</time></trkpt><trkpt lat="41.4864158" lon="13.1200194"><ele>68.0</ele><time>2026-05-01T07:49:50.004Z</time></trkpt><trkpt lat="41.4864402" lon="13.1201925"><ele>68.5</ele><time>2026-05-01T07:49:51.004Z</time></trkpt><trkpt lat="41.4864562" lon="13.1203665"><ele>69.0</ele><time>2026-05-01T07:49:52.005Z</time></trkpt><trkpt lat="41.4864696" lon="13.1205475"><ele>69.5</ele><time>2026-05-01T07:49:53.004Z</time></trkpt><trkpt lat="41.48648" lon="13.1207275"><ele>70.0</ele><time>2026-05-01T07:49:54.004Z</time></trkpt><trkpt lat="41.4864885" lon="13.1209187"><ele>70.25</ele><time>2026-05-01T07:49:55.004Z</time></trkpt><trkpt lat="41.48647" lon="13.1211132"><ele>70.5</ele><time>2026-05-01T07:49:56.004Z</time></trkpt><trkpt lat="41.4864435" lon="13.1213069"><ele>70.75</ele><time>2026-05-01T07:49:57.004Z</time></trkpt><trkpt lat="41.4864144" lon="13.121505"><ele>71.0</ele><time>2026-05-01T07:49:58.004Z</time></trkpt><trkpt lat="41.4863997" lon="13.1216994"><ele>71.0</ele><time>2026-05-01T07:49:59.005Z</time></trkpt><trkpt lat="41.486392" lon="13.121896"><ele>71.0</ele><time>2026-05-01T07:50:00.004Z</time></trkpt><trkpt lat="41.4863992" lon="13.1220875"><ele>71.0</ele><time>2026-05-01T07:50:01.004Z</time></trkpt><trkpt lat="41.4864172" lon="13.1222773"><ele>71.0</ele><time>2026-05-01T07:50:02.005Z</time></trkpt><trkpt lat="41.4864368" lon="13.1224694"><ele>69.25</ele><time>2026-05-01T07:50:03.004Z</time></trkpt><trkpt lat="41.4864696" lon="13.1226433"><ele>67.5</ele><time>2026-05-01T07:50:04.004Z</time></trkpt><trkpt lat="41.4865086" lon="13.1228035"><ele>65.75</ele><time>2026-05-01T07:50:05.005Z</time></trkpt><trkpt lat="41.4865358" lon="13.1229558"><ele>64.0</ele><time>2026-05-01T07:50:06.005Z</time></trkpt><trkpt lat="41.4865616" lon="13.1231106"><ele>62.5</ele><time>2026-05-01T07:50:07.005Z</time></trkpt><trkpt lat="41.4865675" lon="13.1232608"><ele>61.0</ele><time>2026-05-01T07:50:08.003Z</time></trkpt><trkpt lat="41.4865276" lon="13.1234053"><ele>59.5</ele><time>2026-05-01T07:50:09.004Z</time></trkpt><trkpt lat="41.4864706" lon="13.1235311"><ele>58.0</ele><time>2026-05-01T07:50:10.005Z</time></trkpt><trkpt lat="41.486418" lon="13.123675"><ele>58.0</ele><time>2026-05-01T07:50:11.004Z</time></trkpt><trkpt lat="41.4863602" lon="13.1238329"><ele>58.0</ele><time>2026-05-01T07:50:12.004Z</time></trkpt><trkpt lat="41.4862962" lon="13.1239946"><ele>58.0</ele><time>2026-05-01T07:50:13.004Z</time></trkpt><trkpt lat="41.4862483" lon="13.1241664"><ele>58.0</ele><time>2026-05-01T07:50:14.004Z</time></trkpt><trkpt lat="41.4861968" lon="13.1243395"><ele>56.75</ele><time>2026-05-01T07:50:15.005Z</time></trkpt><trkpt lat="41.4861481" lon="13.1245119"><ele>55.5</ele><time>2026-05-01T07:50:16.004Z</time></trkpt><trkpt lat="41.4860998" lon="13.1246783"><ele>54.25</ele><time>2026-05-01T07:50:17.003Z</time></trkpt><trkpt lat="41.486049" lon="13.1248366"><ele>53.0</ele><time>2026-05-01T07:50:18.004Z</time></trkpt><trkpt lat="41.4860336" lon="13.1249891"><ele>52.5</ele><time>2026-05-01T07:50:19.003Z</time></trkpt><trkpt lat="41.4860046" lon="13.1251444"><ele>52.0</ele><time>2026-05-01T07:50:20.004Z</time></trkpt><trkpt lat="41.4859894" lon="13.1252977"><ele>51.5</ele><time>2026-05-01T07:50:21.003Z</time></trkpt><trkpt lat="41.4859822" lon="13.125443"><ele>51.0</ele><time>2026-05-01T07:50:22.004Z</time></trkpt><trkpt lat="41.4859874" lon="13.1255914"><ele>51.0</ele><time>2026-05-01T07:50:23.004Z</time></trkpt><trkpt lat="41.485988" lon="13.1257283"><ele>51.0</ele><time>2026-05-01T07:50:24.003Z</time></trkpt><trkpt lat="41.4859913" lon="13.1258652"><ele>51.0</ele><time>2026-05-01T07:50:25.004Z</time></trkpt><trkpt lat="41.4860047" lon="13.126009"><ele>51.0</ele><time>2026-05-01T07:50:26.004Z</time></trkpt><trkpt lat="41.4860077" lon="13.1261511"><ele>51.0</ele><time>2026-05-01T07:50:27.004Z</time></trkpt><trkpt lat="41.4860225" lon="13.126302"><ele>50.25</ele><time>2026-05-01T07:50:28.004Z</time></trkpt><trkpt lat="41.4860283" lon="13.1264576"><ele>49.5</ele><time>2026-05-01T07:50:29.004Z</time></trkpt><trkpt lat="41.4860413" lon="13.1266153"><ele>48.75</ele><time>2026-05-01T07:50:30.003Z</time></trkpt><trkpt lat="41.4860447" lon="13.1267757"><ele>48.0</ele><time>2026-05-01T07:50:31.003Z</time></trkpt><trkpt lat="41.486051" lon="13.126927"><ele>47.8</ele><time>2026-05-01T07:50:32.003Z</time></trkpt><trkpt lat="41.4860557" lon="13.1270711"><ele>47.599999999999994</ele><time>2026-05-01T07:50:33.004Z</time></trkpt><trkpt lat="41.4860537" lon="13.1272068"><ele>47.400000000000006</ele><time>2026-05-01T07:50:34.005Z</time></trkpt><trkpt lat="41.4860588" lon="13.1273319"><ele>47.2</ele><time>2026-05-01T07:50:35.004Z</time></trkpt><trkpt lat="41.4860593" lon="13.1274542"><ele>47.0</ele><time>2026-05-01T07:50:36.003Z</time></trkpt><trkpt lat="41.48606" lon="13.1275719"><ele>47.0</ele><time>2026-05-01T07:50:37.004Z</time></trkpt><trkpt lat="41.4860517" lon="13.1276822"><ele>47.0</ele><time>2026-05-01T07:50:38.003Z</time></trkpt><trkpt lat="41.4860484" lon="13.1277859"><ele>47.0</ele><time>2026-05-01T07:50:39.004Z</time></trkpt><trkpt lat="41.4860472" lon="13.1278787"><ele>47.0</ele><time>2026-05-01T07:50:40.004Z</time></trkpt><trkpt lat="41.4860335" lon="13.127965"><ele>47.0</ele><time>2026-05-01T07:50:41.004Z</time></trkpt><trkpt lat="41.4860017" lon="13.1280424"><ele>47.0</ele><time>2026-05-01T07:50:42.004Z</time></trkpt><trkpt lat="41.4859076" lon="13.1281547"><ele>46.8</ele><time>2026-05-01T07:50:44.004Z</time></trkpt><trkpt lat="41.4858733" lon="13.1282815"><ele>46.6</ele><time>2026-05-01T07:50:47.003Z</time></trkpt><trkpt lat="41.4859327" lon="13.1284426"><ele>46.4</ele><time>2026-05-01T07:50:49.004Z</time></trkpt><trkpt lat="41.4859798" lon="13.1285419"><ele>46.199999999999996</ele><time>2026-05-01T07:50:50.004Z</time></trkpt><trkpt lat="41.4860273" lon="13.1286647"><ele>46.0</ele><time>2026-05-01T07:50:51.004Z</time></trkpt><trkpt lat="41.4860665" lon="13.1288124"><ele>46.0</ele><time>2026-05-01T07:50:52.004Z</time></trkpt><trkpt lat="41.4861004" lon="13.1289656"><ele>46.0</ele><time>2026-05-01T07:50:53.004Z</time></trkpt><trkpt lat="41.4861386" lon="13.1291275"><ele>46.0</ele><time>2026-05-01T07:50:54.005Z</time></trkpt><trkpt lat="41.4861679" lon="13.1292981"><ele>46.0</ele><time>2026-05-01T07:50:55.003Z</time></trkpt><trkpt lat="41.4862004" lon="13.1294529"><ele>46.0</ele><time>2026-05-01T07:50:56.004Z</time></trkpt><trkpt lat="41.4862337" lon="13.1296168"><ele>46.0</ele><time>2026-05-01T07:50:57.004Z</time></trkpt><trkpt lat="41.4862702" lon="13.129784"><ele>46.0</ele><time>2026-05-01T07:50:58.004Z</time></trkpt><trkpt lat="41.4863107" lon="13.1299623"><ele>46.0</ele><time>2026-05-01T07:50:59.004Z</time></trkpt><trkpt lat="41.4863546" lon="13.1301478"><ele>45.75</ele><time>2026-05-01T07:51:00.004Z</time></trkpt><trkpt lat="41.4863995" lon="13.130326"><ele>45.5</ele><time>2026-05-01T07:51:01.005Z</time></trkpt><trkpt lat="41.4864337" lon="13.1305082"><ele>45.25</ele><time>2026-05-01T07:51:02.005Z</time></trkpt><trkpt lat="41.4864699" lon="13.1306919"><ele>45.0</ele><time>2026-05-01T07:51:03.004Z</time></trkpt><trkpt lat="41.4864985" lon="13.1308635"><ele>44.5</ele><time>2026-05-01T07:51:04.004Z</time></trkpt><trkpt lat="41.486526" lon="13.1310225"><ele>44.0</ele><time>2026-05-01T07:51:05.005Z</time></trkpt><trkpt lat="41.4865537" lon="13.1311759"><ele>43.5</ele><time>2026-05-01T07:51:06.003Z</time></trkpt><trkpt lat="41.486588" lon="13.1313275"><ele>43.0</ele><time>2026-05-01T07:51:07.004Z</time></trkpt><trkpt lat="41.4866205" lon="13.1314765"><ele>42.833333333333336</ele><time>2026-05-01T07:51:08.005Z</time></trkpt><trkpt lat="41.4866489" lon="13.1316122"><ele>42.66666666666667</ele><time>2026-05-01T07:51:09.004Z</time></trkpt><trkpt lat="41.4866733" lon="13.1317286"><ele>42.5</ele><time>2026-05-01T07:51:10.004Z</time></trkpt><trkpt lat="41.4867006" lon="13.1318296"><ele>42.333333333333336</ele><time>2026-05-01T07:51:11.004Z</time></trkpt><trkpt lat="41.4867222" lon="13.1319247"><ele>42.166666666666664</ele><time>2026-05-01T07:51:12.004Z</time></trkpt><trkpt lat="41.4867433" lon="13.1320179"><ele>42.0</ele><time>2026-05-01T07:51:13.004Z</time></trkpt><trkpt lat="41.4867582" lon="13.1321121"><ele>42.0</ele><time>2026-05-01T07:51:14.004Z</time></trkpt><trkpt lat="41.4867759" lon="13.1322109"><ele>42.0</ele><time>2026-05-01T07:51:15.003Z</time></trkpt><trkpt lat="41.4868111" lon="13.1323324"><ele>42.0</ele><time>2026-05-01T07:51:16.004Z</time></trkpt><trkpt lat="41.4868431" lon="13.1324708"><ele>42.0</ele><time>2026-05-01T07:51:17.005Z</time></trkpt><trkpt lat="41.4868699" lon="13.1326037"><ele>42.0</ele><time>2026-05-01T07:51:18.003Z</time></trkpt><trkpt lat="41.4869002" lon="13.1327598"><ele>42.25</ele><time>2026-05-01T07:51:19.004Z</time></trkpt><trkpt lat="41.4869259" lon="13.132915"><ele>42.5</ele><time>2026-05-01T07:51:20.005Z</time></trkpt><trkpt lat="41.4869674" lon="13.133096"><ele>42.75</ele><time>2026-05-01T07:51:21.004Z</time></trkpt><trkpt lat="41.4870036" lon="13.1332747"><ele>43.0</ele><time>2026-05-01T07:51:22.004Z</time></trkpt><trkpt lat="41.4870473" lon="13.1334554"><ele>43.0</ele><time>2026-05-01T07:51:23.004Z</time></trkpt><trkpt lat="41.4870791" lon="13.1336232"><ele>43.0</ele><time>2026-05-01T07:51:24.005Z</time></trkpt><trkpt lat="41.4871114" lon="13.1337805"><ele>43.0</ele><time>2026-05-01T07:51:25.004Z</time></trkpt><trkpt lat="41.4871412" lon="13.1339285"><ele>43.0</ele><time>2026-05-01T07:51:26.004Z</time></trkpt><trkpt lat="41.4871732" lon="13.1340755"><ele>42.75</ele><time>2026-05-01T07:51:27.003Z</time></trkpt><trkpt lat="41.4872017" lon="13.1342326"><ele>42.5</ele><time>2026-05-01T07:51:28.005Z</time></trkpt><trkpt lat="41.4872171" lon="13.1343944"><ele>42.25</ele><time>2026-05-01T07:51:29.004Z</time></trkpt><trkpt lat="41.4872225" lon="13.1345629"><ele>42.0</ele><time>2026-05-01T07:51:30.004Z</time></trkpt><trkpt lat="41.4872204" lon="13.1347353"><ele>42.0</ele><time>2026-05-01T07:51:31.004Z</time></trkpt><trkpt lat="41.4872271" lon="13.1349153"><ele>42.0</ele><time>2026-05-01T07:51:32.004Z</time></trkpt><trkpt lat="41.4872279" lon="13.135098"><ele>42.0</ele><time>2026-05-01T07:51:33.004Z</time></trkpt><trkpt lat="41.4872343" lon="13.1352935"><ele>42.0</ele><time>2026-05-01T07:51:34.003Z</time></trkpt><trkpt lat="41.48724" lon="13.1354933"><ele>42.0</ele><time>2026-05-01T07:51:35.005Z</time></trkpt><trkpt lat="41.4872458" lon="13.1357004"><ele>42.0</ele><time>2026-05-01T07:51:36.004Z</time></trkpt><trkpt lat="41.4872566" lon="13.1359065"><ele>42.0</ele><time>2026-05-01T07:51:37.004Z</time></trkpt><trkpt lat="41.4872685" lon="13.1361137"><ele>42.0</ele><time>2026-05-01T07:51:38.003Z</time></trkpt><trkpt lat="41.4872787" lon="13.1363206"><ele>42.0</ele><time>2026-05-01T07:51:39.004Z</time></trkpt><trkpt lat="41.4872756" lon="13.1365179"><ele>42.0</ele><time>2026-05-01T07:51:40.004Z</time></trkpt><trkpt lat="41.4872776" lon="13.1367013"><ele>42.0</ele><time>2026-05-01T07:51:41.004Z</time></trkpt><trkpt lat="41.4872844" lon="13.1368715"><ele>41.8</ele><time>2026-05-01T07:51:42.005Z</time></trkpt><trkpt lat="41.4872737" lon="13.1370207"><ele>41.6</ele><time>2026-05-01T07:51:43.004Z</time></trkpt><trkpt lat="41.4872444" lon="13.1371712"><ele>41.4</ele><time>2026-05-01T07:51:44.004Z</time></trkpt><trkpt lat="41.4872104" lon="13.1373065"><ele>41.199999999999996</ele><time>2026-05-01T07:51:45.005Z</time></trkpt><trkpt lat="41.4871573" lon="13.1374183"><ele>41.0</ele><time>2026-05-01T07:51:46.004Z</time></trkpt><trkpt lat="41.4870901" lon="13.1375277"><ele>41.0</ele><time>2026-05-01T07:51:47.004Z</time></trkpt><trkpt lat="41.4870086" lon="13.1376285"><ele>41.0</ele><time>2026-05-01T07:51:48.003Z</time></trkpt><trkpt lat="41.4869133" lon="13.1377155"><ele>41.0</ele><time>2026-05-01T07:51:49.004Z</time></trkpt><trkpt lat="41.4868194" lon="13.1377741"><ele>41.0</ele><time>2026-05-01T07:51:50.003Z</time></trkpt><trkpt lat="41.4867502" lon="13.1378161"><ele>41.0</ele><time>2026-05-01T07:51:51.004Z</time></trkpt><trkpt lat="41.486656" lon="13.1378693"><ele>41.0</ele><time>2026-05-01T07:51:53.003Z</time></trkpt><trkpt lat="41.4865856" lon="13.1379099"><ele>41.0</ele><time>2026-05-01T07:52:20.004Z</time></trkpt><trkpt lat="41.4865587" lon="13.1380384"><ele>41.0</ele><time>2026-05-01T07:52:22.003Z</time></trkpt><trkpt lat="41.4865593" lon="13.1381667"><ele>41.0</ele><time>2026-05-01T07:52:23.003Z</time></trkpt><trkpt lat="41.4865754" lon="13.1383441"><ele>41.0</ele><time>2026-05-01T07:52:24.003Z</time></trkpt><trkpt lat="41.486599" lon="13.1385739"><ele>40.666666666666664</ele><time>2026-05-01T07:52:25.003Z</time></trkpt><trkpt lat="41.486629" lon="13.1388378"><ele>40.333333333333336</ele><time>2026-05-01T07:52:26.004Z</time></trkpt><trkpt lat="41.4866553" lon="13.1390722"><ele>40.0</ele><time>2026-05-01T07:52:27.004Z</time></trkpt><trkpt lat="41.4866789" lon="13.1392887"><ele>40.0</ele><time>2026-05-01T07:52:28.002Z</time></trkpt><trkpt lat="41.4867039" lon="13.1394884"><ele>40.0</ele><time>2026-05-01T07:52:29.003Z</time></trkpt><trkpt lat="41.4867206" lon="13.1396656"><ele>40.0</ele><time>2026-05-01T07:52:30.002Z</time></trkpt><trkpt lat="41.4867307" lon="13.1398307"><ele>40.0</ele><time>2026-05-01T07:52:31.003Z</time></trkpt><trkpt lat="41.4867443" lon="13.1399761"><ele>40.0</ele><time>2026-05-01T07:52:32.003Z</time></trkpt><trkpt lat="41.4867524" lon="13.1401013"><ele>40.0</ele><time>2026-05-01T07:52:33.003Z</time></trkpt><trkpt lat="41.4867655" lon="13.1401985"><ele>40.0</ele><time>2026-05-01T07:52:34.003Z</time></trkpt><trkpt lat="41.4867752" lon="13.1403357"><ele>40.0</ele><time>2026-05-01T07:52:36.003Z</time></trkpt><trkpt lat="41.4867849" lon="13.1404513"><ele>40.0</ele><time>2026-05-01T07:52:38.004Z</time></trkpt><trkpt lat="41.4867101" lon="13.1405529"><ele>40.0</ele><time>2026-05-01T07:52:40.003Z</time></trkpt><trkpt lat="41.4866439" lon="13.1405696"><ele>40.0</ele><time>2026-05-01T07:52:41.003Z</time></trkpt><trkpt lat="41.486569" lon="13.1405997"><ele>40.0</ele><time>2026-05-01T07:52:42.002Z</time></trkpt><trkpt lat="41.4864834" lon="13.1406114"><ele>40.0</ele><time>2026-05-01T07:52:43.003Z</time></trkpt><trkpt lat="41.4863677" lon="13.1406347"><ele>40.0</ele><time>2026-05-01T07:52:44.003Z</time></trkpt><trkpt lat="41.486258" lon="13.1406512"><ele>40.0</ele><time>2026-05-01T07:52:45.002Z</time></trkpt><trkpt lat="41.4861433" lon="13.1406598"><ele>40.0</ele><time>2026-05-01T07:52:46.004Z</time></trkpt><trkpt lat="41.4860347" lon="13.1406661"><ele>40.0</ele><time>2026-05-01T07:52:47.002Z</time></trkpt><trkpt lat="41.485907" lon="13.1406797"><ele>40.0</ele><time>2026-05-01T07:52:48.003Z</time></trkpt><trkpt lat="41.4857661" lon="13.1407024"><ele>40.0</ele><time>2026-05-01T07:52:49.004Z</time></trkpt><trkpt lat="41.4856132" lon="13.1407404"><ele>40.0</ele><time>2026-05-01T07:52:50.004Z</time></trkpt><trkpt lat="41.4854624" lon="13.1407763"><ele>40.0</ele><time>2026-05-01T07:52:51.003Z</time></trkpt><trkpt lat="41.4853256" lon="13.1408174"><ele>40.0</ele><time>2026-05-01T07:52:52.003Z</time></trkpt><trkpt lat="41.4852021" lon="13.1408506"><ele>40.0</ele><time>2026-05-01T07:52:53.003Z</time></trkpt><trkpt lat="41.4850824" lon="13.1408881"><ele>40.0</ele><time>2026-05-01T07:52:54.003Z</time></trkpt><trkpt lat="41.4849687" lon="13.1409201"><ele>40.0</ele><time>2026-05-01T07:52:55.003Z</time></trkpt><trkpt lat="41.4848824" lon="13.1409302"><ele>40.0</ele><time>2026-05-01T07:52:56.004Z</time></trkpt><trkpt lat="41.4847544" lon="13.140972"><ele>40.0</ele><time>2026-05-01T07:52:58.003Z</time></trkpt><trkpt lat="41.48468" lon="13.1409924"><ele>40.0</ele><time>2026-05-01T07:52:59.004Z</time></trkpt><trkpt lat="41.4846" lon="13.1410214"><ele>40.0</ele><time>2026-05-01T07:53:00.003Z</time></trkpt><trkpt lat="41.484507" lon="13.1410449"><ele>40.0</ele><time>2026-05-01T07:53:01.002Z</time></trkpt><trkpt lat="41.4844122" lon="13.1410724"><ele>40.0</ele><time>2026-05-01T07:53:02.003Z</time></trkpt><trkpt lat="41.4843313" lon="13.1410967"><ele>40.0</ele><time>2026-05-01T07:53:03.003Z</time></trkpt><trkpt lat="41.4842628" lon="13.1411133"><ele>40.0</ele><time>2026-05-01T07:53:04.003Z</time></trkpt><trkpt lat="41.4841813" lon="13.141169"><ele>40.0</ele><time>2026-05-01T07:53:06.003Z</time></trkpt><trkpt lat="41.4842667" lon="13.1411833"><ele>40.0</ele><time>2026-05-01T07:53:10.004Z</time></trkpt><trkpt lat="41.4843319" lon="13.1411484"><ele>40.0</ele><time>2026-05-01T07:53:11.002Z</time></trkpt><trkpt lat="41.4844336" lon="13.1411074"><ele>40.0</ele><time>2026-05-01T07:53:12.004Z</time></trkpt><trkpt lat="41.4845472" lon="13.1410648"><ele>40.0</ele><time>2026-05-01T07:53:13.003Z</time></trkpt><trkpt lat="41.4846476" lon="13.1410324"><ele>40.0</ele><time>2026-05-01T07:53:14.003Z</time></trkpt><trkpt lat="41.4847263" lon="13.1410142"><ele>40.0</ele><time>2026-05-01T07:53:15.003Z</time></trkpt><trkpt lat="41.4848194" lon="13.1410499"><ele>40.0</ele><time>2026-05-01T07:53:17.003Z</time></trkpt><trkpt lat="41.4848568" lon="13.1411894"><ele>40.0</ele><time>2026-05-01T07:53:19.002Z</time></trkpt><trkpt lat="41.484858" lon="13.1412909"><ele>40.0</ele><time>2026-05-01T07:53:20.004Z</time></trkpt><trkpt lat="41.4848528" lon="13.1414485"><ele>40.0</ele><time>2026-05-01T07:53:21.003Z</time></trkpt><trkpt lat="41.4848543" lon="13.1416171"><ele>40.0</ele><time>2026-05-01T07:53:22.003Z</time></trkpt><trkpt lat="41.4848439" lon="13.1417755"><ele>40.0</ele><time>2026-05-01T07:53:23.004Z</time></trkpt><trkpt lat="41.4848453" lon="13.1419234"><ele>39.75</ele><time>2026-05-01T07:53:24.003Z</time></trkpt><trkpt lat="41.4848437" lon="13.1420705"><ele>39.5</ele><time>2026-05-01T07:53:25.003Z</time></trkpt><trkpt lat="41.4848331" lon="13.1422218"><ele>39.25</ele><time>2026-05-01T07:53:26.003Z</time></trkpt><trkpt lat="41.4848226" lon="13.1423914"><ele>39.0</ele><time>2026-05-01T07:53:27.004Z</time></trkpt><trkpt lat="41.4848111" lon="13.1425624"><ele>39.0</ele><time>2026-05-01T07:53:28.002Z</time></trkpt><trkpt lat="41.4847956" lon="13.1427368"><ele>39.0</ele><time>2026-05-01T07:53:29.003Z</time></trkpt><trkpt lat="41.484784" lon="13.14291"><ele>39.0</ele><time>2026-05-01T07:53:30.004Z</time></trkpt><trkpt lat="41.484779" lon="13.143059"><ele>39.0</ele><time>2026-05-01T07:53:31.003Z</time></trkpt><trkpt lat="41.4847813" lon="13.1432112"><ele>39.25</ele><time>2026-05-01T07:53:32.003Z</time></trkpt><trkpt lat="41.4847674" lon="13.143367"><ele>39.5</ele><time>2026-05-01T07:53:33.003Z</time></trkpt><trkpt lat="41.4847649" lon="13.1435183"><ele>39.75</ele><time>2026-05-01T07:53:34.003Z</time></trkpt><trkpt lat="41.4847563" lon="13.1436835"><ele>40.0</ele><time>2026-05-01T07:53:35.004Z</time></trkpt><trkpt lat="41.4847427" lon="13.1438558"><ele>40.0</ele><time>2026-05-01T07:53:36.004Z</time></trkpt><trkpt lat="41.4847214" lon="13.1440309"><ele>40.0</ele><time>2026-05-01T07:53:37.003Z</time></trkpt><trkpt lat="41.4847131" lon="13.1441901"><ele>40.0</ele><time>2026-05-01T07:53:38.003Z</time></trkpt><trkpt lat="41.4847016" lon="13.1443728"><ele>40.0</ele><time>2026-05-01T07:53:39.003Z</time></trkpt><trkpt lat="41.4846883" lon="13.1445704"><ele>39.75</ele><time>2026-05-01T07:53:40.003Z</time></trkpt><trkpt lat="41.4846732" lon="13.1447685"><ele>39.5</ele><time>2026-05-01T07:53:41.003Z</time></trkpt><trkpt lat="41.4846579" lon="13.1449657"><ele>39.25</ele><time>2026-05-01T07:53:42.003Z</time></trkpt><trkpt lat="41.4846392" lon="13.145152"><ele>39.0</ele><time>2026-05-01T07:53:43.004Z</time></trkpt><trkpt lat="41.4846296" lon="13.1453368"><ele>39.0</ele><time>2026-05-01T07:53:44.003Z</time></trkpt><trkpt lat="41.4846201" lon="13.1455147"><ele>39.0</ele><time>2026-05-01T07:53:45.003Z</time></trkpt><trkpt lat="41.4846032" lon="13.145694"><ele>39.0</ele><time>2026-05-01T07:53:46.002Z</time></trkpt><trkpt lat="41.4845941" lon="13.1458704"><ele>39.0</ele><time>2026-05-01T07:53:47.004Z</time></trkpt><trkpt lat="41.4845838" lon="13.1460484"><ele>39.0</ele><time>2026-05-01T07:53:48.003Z</time></trkpt><trkpt lat="41.4845639" lon="13.1462352"><ele>39.0</ele><time>2026-05-01T07:53:49.003Z</time></trkpt><trkpt lat="41.4845354" lon="13.1464276"><ele>39.0</ele><time>2026-05-01T07:53:50.003Z</time></trkpt><trkpt lat="41.4845238" lon="13.1466326"><ele>39.0</ele><time>2026-05-01T07:53:51.003Z</time></trkpt><trkpt lat="41.4845077" lon="13.1468377"><ele>39.0</ele><time>2026-05-01T07:53:52.003Z</time></trkpt><trkpt lat="41.4844909" lon="13.1470368"><ele>39.0</ele><time>2026-05-01T07:53:53.002Z</time></trkpt><trkpt lat="41.484469" lon="13.1472559"><ele>39.0</ele><time>2026-05-01T07:53:54.004Z</time></trkpt><trkpt lat="41.4844479" lon="13.1474616"><ele>39.25</ele><time>2026-05-01T07:53:55.003Z</time></trkpt><trkpt lat="41.4844313" lon="13.1476609"><ele>39.5</ele><time>2026-05-01T07:53:56.003Z</time></trkpt><trkpt lat="41.4844112" lon="13.1478583"><ele>39.75</ele><time>2026-05-01T07:53:57.003Z</time></trkpt><trkpt lat="41.484387" lon="13.1480525"><ele>40.0</ele><time>2026-05-01T07:53:58.003Z</time></trkpt><trkpt lat="41.4843735" lon="13.1482497"><ele>39.5</ele><time>2026-05-01T07:53:59.003Z</time></trkpt><trkpt lat="41.4843581" lon="13.1484386"><ele>39.0</ele><time>2026-05-01T07:54:00.004Z</time></trkpt><trkpt lat="41.4843384" lon="13.1486407"><ele>38.5</ele><time>2026-05-01T07:54:01.003Z</time></trkpt><trkpt lat="41.4843232" lon="13.1488441"><ele>38.0</ele><time>2026-05-01T07:54:02.002Z</time></trkpt><trkpt lat="41.4843036" lon="13.1490451"><ele>37.33333333333333</ele><time>2026-05-01T07:54:03.004Z</time></trkpt><trkpt lat="41.4842842" lon="13.1492427"><ele>36.666666666666664</ele><time>2026-05-01T07:54:04.003Z</time></trkpt><trkpt lat="41.4842702" lon="13.1494521"><ele>36.0</ele><time>2026-05-01T07:54:05.002Z</time></trkpt><trkpt lat="41.4842543" lon="13.1496746"><ele>36.333333333333336</ele><time>2026-05-01T07:54:06.003Z</time></trkpt><trkpt lat="41.4842422" lon="13.1499062"><ele>36.66666666666667</ele><time>2026-05-01T07:54:07.004Z</time></trkpt><trkpt lat="41.4842416" lon="13.1501258"><ele>37.0</ele><time>2026-05-01T07:54:08.003Z</time></trkpt><trkpt lat="41.48423" lon="13.150295"><ele>37.0</ele><time>2026-05-01T07:54:09.002Z</time></trkpt><trkpt lat="41.4842221" lon="13.1504682"><ele>37.0</ele><time>2026-05-01T07:54:10.003Z</time></trkpt><trkpt lat="41.4842186" lon="13.1506139"><ele>37.0</ele><time>2026-05-01T07:54:11.004Z</time></trkpt><trkpt lat="41.4842178" lon="13.1507345"><ele>37.0</ele><time>2026-05-01T07:54:12.003Z</time></trkpt><trkpt lat="41.4842067" lon="13.1508255"><ele>37.0</ele><time>2026-05-01T07:54:13.003Z</time></trkpt><trkpt lat="41.4841374" lon="13.1509245"><ele>37.2</ele><time>2026-05-01T07:54:15.003Z</time></trkpt><trkpt lat="41.4840333" lon="13.1509573"><ele>37.400000000000006</ele><time>2026-05-01T07:54:17.004Z</time></trkpt><trkpt lat="41.4839587" lon="13.1509596"><ele>37.599999999999994</ele><time>2026-05-01T07:54:18.003Z</time></trkpt><trkpt lat="41.4838723" lon="13.1509541"><ele>37.8</ele><time>2026-05-01T07:54:19.003Z</time></trkpt><trkpt lat="41.4837775" lon="13.1509515"><ele>38.0</ele><time>2026-05-01T07:54:20.003Z</time></trkpt><trkpt lat="41.483683" lon="13.1509608"><ele>38.0</ele><time>2026-05-01T07:54:21.002Z</time></trkpt><trkpt lat="41.4835973" lon="13.150994"><ele>38.0</ele><time>2026-05-01T07:54:22.002Z</time></trkpt><trkpt lat="41.483532" lon="13.1510514"><ele>38.0</ele><time>2026-05-01T07:54:23.003Z</time></trkpt><trkpt lat="41.4834841" lon="13.1511188"><ele>38.0</ele><time>2026-05-01T07:54:24.003Z</time></trkpt><trkpt lat="41.4834456" lon="13.151193"><ele>38.0</ele><time>2026-05-01T07:54:26.003Z</time></trkpt><trkpt lat="41.4834964" lon="13.1512802"><ele>38.0</ele><time>2026-05-01T07:54:34.004Z</time></trkpt><trkpt lat="41.4835895" lon="13.1513167"><ele>38.0</ele><time>2026-05-01T07:54:36.004Z</time></trkpt><trkpt lat="41.4836678" lon="13.1513349"><ele>38.0</ele><time>2026-05-01T07:54:39.003Z</time></trkpt><trkpt lat="41.4835447" lon="13.1512679"><ele>38.0</ele><time>2026-05-01T07:54:44.003Z</time></trkpt><trkpt lat="41.4834729" lon="13.1512482"><ele>38.0</ele><time>2026-05-01T07:54:45.004Z</time></trkpt><trkpt lat="41.4833836" lon="13.1512464"><ele>38.0</ele><time>2026-05-01T07:54:46.003Z</time></trkpt><trkpt lat="41.4832913" lon="13.1512352"><ele>38.0</ele><time>2026-05-01T07:54:47.003Z</time></trkpt><trkpt lat="41.4832088" lon="13.1512241"><ele>38.0</ele><time>2026-05-01T07:54:48.003Z</time></trkpt><trkpt lat="41.4830986" lon="13.1512439"><ele>38.0</ele><time>2026-05-01T07:54:50.002Z</time></trkpt><trkpt lat="41.4830635" lon="13.1513396"><ele>38.0</ele><time>2026-05-01T07:54:52.004Z</time></trkpt><trkpt lat="41.4831128" lon="13.1514505"><ele>38.0</ele><time>2026-05-01T07:54:54.002Z</time></trkpt><trkpt lat="41.4831862" lon="13.1514933"><ele>38.0</ele><time>2026-05-01T07:54:55.003Z</time></trkpt><trkpt lat="41.4832619" lon="13.1515464"><ele>38.0</ele><time>2026-05-01T07:54:56.003Z</time></trkpt><trkpt lat="41.483364" lon="13.1515815"><ele>38.0</ele><time>2026-05-01T07:54:57.003Z</time></trkpt><trkpt lat="41.4834442" lon="13.1515862"><ele>38.0</ele><time>2026-05-01T07:54:58.003Z</time></trkpt><trkpt lat="41.4835306" lon="13.1515707"><ele>38.0</ele><time>2026-05-01T07:54:59.004Z</time></trkpt><trkpt lat="41.4836194" lon="13.1515672"><ele>38.0</ele><time>2026-05-01T07:55:00.002Z</time></trkpt><trkpt lat="41.4837106" lon="13.1515861"><ele>37.83333333333333</ele><time>2026-05-01T07:55:01.003Z</time></trkpt><trkpt lat="41.4838082" lon="13.1516102"><ele>37.666666666666664</ele><time>2026-05-01T07:55:02.004Z</time></trkpt><trkpt lat="41.4839046" lon="13.1516467"><ele>37.5</ele><time>2026-05-01T07:55:03.002Z</time></trkpt><trkpt lat="41.4839896" lon="13.151662"><ele>37.333333333333336</ele><time>2026-05-01T07:55:04.003Z</time></trkpt><trkpt lat="41.4840712" lon="13.1516733"><ele>37.16666666666667</ele><time>2026-05-01T07:55:05.002Z</time></trkpt><trkpt lat="41.484133" lon="13.1516983"><ele>37.0</ele><time>2026-05-01T07:55:06.003Z</time></trkpt><trkpt lat="41.4842203" lon="13.1518018"><ele>37.0</ele><time>2026-05-01T07:55:08.003Z</time></trkpt><trkpt lat="41.4842385" lon="13.1518917"><ele>37.0</ele><time>2026-05-01T07:55:09.004Z</time></trkpt><trkpt lat="41.4842458" lon="13.1520105"><ele>37.0</ele><time>2026-05-01T07:55:10.003Z</time></trkpt><trkpt lat="41.4842552" lon="13.1521509"><ele>37.0</ele><time>2026-05-01T07:55:11.003Z</time></trkpt><trkpt lat="41.4842667" lon="13.1523043"><ele>37.0</ele><time>2026-05-01T07:55:12.004Z</time></trkpt><trkpt lat="41.4842704" lon="13.1524775"><ele>37.5</ele><time>2026-05-01T07:55:13.003Z</time></trkpt><trkpt lat="41.4842839" lon="13.1526463"><ele>38.0</ele><time>2026-05-01T07:55:14.003Z</time></trkpt><trkpt lat="41.4842902" lon="13.1528154"><ele>38.5</ele><time>2026-05-01T07:55:15.003Z</time></trkpt><trkpt lat="41.4843012" lon="13.1529675"><ele>39.0</ele><time>2026-05-01T07:55:16.003Z</time></trkpt><trkpt lat="41.4843192" lon="13.1531212"><ele>39.0</ele><time>2026-05-01T07:55:17.003Z</time></trkpt><trkpt lat="41.4843377" lon="13.1532944"><ele>39.0</ele><time>2026-05-01T07:55:18.003Z</time></trkpt><trkpt lat="41.4843627" lon="13.1534873"><ele>39.0</ele><time>2026-05-01T07:55:19.003Z</time></trkpt><trkpt lat="41.4843822" lon="13.1536791"><ele>39.0</ele><time>2026-05-01T07:55:20.003Z</time></trkpt><trkpt lat="41.4844" lon="13.1538814"><ele>39.0</ele><time>2026-05-01T07:55:21.002Z</time></trkpt><trkpt lat="41.484425" lon="13.1540866"><ele>39.0</ele><time>2026-05-01T07:55:22.003Z</time></trkpt><trkpt lat="41.4844538" lon="13.1543249"><ele>39.0</ele><time>2026-05-01T07:55:23.004Z</time></trkpt><trkpt lat="41.4844882" lon="13.1546027"><ele>38.5</ele><time>2026-05-01T07:55:24.003Z</time></trkpt><trkpt lat="41.4845258" lon="13.1549021"><ele>38.0</ele><time>2026-05-01T07:55:25.003Z</time></trkpt><trkpt lat="41.4845647" lon="13.1552193"><ele>38.0</ele><time>2026-05-01T07:55:26.003Z</time></trkpt><trkpt lat="41.4845938" lon="13.1554799"><ele>38.0</ele><time>2026-05-01T07:55:27.004Z</time></trkpt><trkpt lat="41.4846135" lon="13.1557171"><ele>38.0</ele><time>2026-05-01T07:55:28.003Z</time></trkpt><trkpt lat="41.4846307" lon="13.1559518"><ele>38.666666666666664</ele><time>2026-05-01T07:55:29.003Z</time></trkpt><trkpt lat="41.4846518" lon="13.1561567"><ele>39.333333333333336</ele><time>2026-05-01T07:55:30.004Z</time></trkpt><trkpt lat="41.4847031" lon="13.1563651"><ele>40.0</ele><time>2026-05-01T07:55:31.004Z</time></trkpt><trkpt lat="41.4847462" lon="13.1565672"><ele>40.0</ele><time>2026-05-01T07:55:32.003Z</time></trkpt><trkpt lat="41.484779" lon="13.1567843"><ele>40.0</ele><time>2026-05-01T07:55:33.003Z</time></trkpt><trkpt lat="41.4848082" lon="13.1570242"><ele>40.0</ele><time>2026-05-01T07:55:34.004Z</time></trkpt><trkpt lat="41.4848379" lon="13.1572834"><ele>39.5</ele><time>2026-05-01T07:55:35.003Z</time></trkpt><trkpt lat="41.4848675" lon="13.1575761"><ele>39.0</ele><time>2026-05-01T07:55:36.004Z</time></trkpt><trkpt lat="41.4848977" lon="13.1578834"><ele>39.0</ele><time>2026-05-01T07:55:37.002Z</time></trkpt><trkpt lat="41.4849197" lon="13.1581503"><ele>39.0</ele><time>2026-05-01T07:55:38.002Z</time></trkpt><trkpt lat="41.4849389" lon="13.1583813"><ele>39.0</ele><time>2026-05-01T07:55:39.003Z</time></trkpt><trkpt lat="41.4849598" lon="13.1585969"><ele>39.333333333333336</ele><time>2026-05-01T07:55:40.002Z</time></trkpt><trkpt lat="41.4849765" lon="13.1588012"><ele>39.66666666666667</ele><time>2026-05-01T07:55:41.001Z</time></trkpt><trkpt lat="41.484983" lon="13.1590314"><ele>40.0</ele><time>2026-05-01T07:55:42.003Z</time></trkpt><trkpt lat="41.4849962" lon="13.1592868"><ele>40.0</ele><time>2026-05-01T07:55:43.001Z</time></trkpt><trkpt lat="41.4850095" lon="13.15957"><ele>40.0</ele><time>2026-05-01T07:55:44.002Z</time></trkpt><trkpt lat="41.4850186" lon="13.159861"><ele>40.0</ele><time>2026-05-01T07:55:45.002Z</time></trkpt><trkpt lat="41.4850221" lon="13.1601518"><ele>40.5</ele><time>2026-05-01T07:55:46.002Z</time></trkpt><trkpt lat="41.4850215" lon="13.160457"><ele>41.0</ele><time>2026-05-01T07:55:47.002Z</time></trkpt><trkpt lat="41.4850206" lon="13.1607793"><ele>41.33333333333333</ele><time>2026-05-01T07:55:48.003Z</time></trkpt><trkpt lat="41.4850153" lon="13.1610927"><ele>41.666666666666664</ele><time>2026-05-01T07:55:49.002Z</time></trkpt><trkpt lat="41.4849986" lon="13.1613521"><ele>42.0</ele><time>2026-05-01T07:55:50.002Z</time></trkpt><trkpt lat="41.4849906" lon="13.1616043"><ele>41.333333333333336</ele><time>2026-05-01T07:55:51.001Z</time></trkpt><trkpt lat="41.4849771" lon="13.1618732"><ele>40.66666666666667</ele><time>2026-05-01T07:55:52.002Z</time></trkpt><trkpt lat="41.4849602" lon="13.1621665"><ele>40.0</ele><time>2026-05-01T07:55:53.002Z</time></trkpt><trkpt lat="41.4849471" lon="13.1624155"><ele>40.0</ele><time>2026-05-01T07:55:54.002Z</time></trkpt><trkpt lat="41.484933" lon="13.1626382"><ele>40.0</ele><time>2026-05-01T07:55:55.003Z</time></trkpt><trkpt lat="41.4849234" lon="13.1628218"><ele>40.0</ele><time>2026-05-01T07:55:56.002Z</time></trkpt><trkpt lat="41.4849083" lon="13.1629744"><ele>40.0</ele><time>2026-05-01T07:55:57.002Z</time></trkpt><trkpt lat="41.4848881" lon="13.1630906"><ele>40.0</ele><time>2026-05-01T07:55:58.002Z</time></trkpt><trkpt lat="41.4848602" lon="13.1631932"><ele>40.0</ele><time>2026-05-01T07:55:59.002Z</time></trkpt><trkpt lat="41.4848301" lon="13.1632768"><ele>40.0</ele><time>2026-05-01T07:56:00.002Z</time></trkpt><trkpt lat="41.484776" lon="13.1634065"><ele>40.0</ele><time>2026-05-01T07:56:02.002Z</time></trkpt><trkpt lat="41.4847412" lon="13.1635324"><ele>40.0</ele><time>2026-05-01T07:56:04.002Z</time></trkpt><trkpt lat="41.4847222" lon="13.163619"><ele>40.0</ele><time>2026-05-01T07:56:06.002Z</time></trkpt><trkpt lat="41.4847103" lon="13.1637084"><ele>39.833333333333336</ele><time>2026-05-01T07:56:11.002Z</time></trkpt><trkpt lat="41.4846912" lon="13.1638143"><ele>39.66666666666667</ele><time>2026-05-01T07:56:13.002Z</time></trkpt><trkpt lat="41.4846704" lon="13.1639242"><ele>39.5</ele><time>2026-05-01T07:56:15.001Z</time></trkpt><trkpt lat="41.4846509" lon="13.1640452"><ele>39.333333333333336</ele><time>2026-05-01T07:56:17.002Z</time></trkpt><trkpt lat="41.4846325" lon="13.16416"><ele>39.166666666666664</ele><time>2026-05-01T07:56:19.003Z</time></trkpt><trkpt lat="41.4846234" lon="13.1642468"><ele>39.0</ele><time>2026-05-01T07:56:21.002Z</time></trkpt><trkpt lat="41.4846379" lon="13.1643362"><ele>39.0</ele><time>2026-05-01T07:56:23.001Z</time></trkpt><trkpt lat="41.4846623" lon="13.1644379"><ele>39.0</ele><time>2026-05-01T07:56:25.003Z</time></trkpt><trkpt lat="41.4846813" lon="13.164562"><ele>39.0</ele><time>2026-05-01T07:56:27.002Z</time></trkpt><trkpt lat="41.4846924" lon="13.1646923"><ele>39.0</ele><time>2026-05-01T07:56:29.003Z</time></trkpt><trkpt lat="41.4847012" lon="13.1648338"><ele>39.0</ele><time>2026-05-01T07:56:31.002Z</time></trkpt><trkpt lat="41.4847158" lon="13.1649798"><ele>39.4</ele><time>2026-05-01T07:56:33.002Z</time></trkpt><trkpt lat="41.4847212" lon="13.165124"><ele>39.8</ele><time>2026-05-01T07:56:35.002Z</time></trkpt><trkpt lat="41.4847263" lon="13.1652652"><ele>40.199999999999996</ele><time>2026-05-01T07:56:37.002Z</time></trkpt><trkpt lat="41.4847252" lon="13.1654078"><ele>40.599999999999994</ele><time>2026-05-01T07:56:39.002Z</time></trkpt><trkpt lat="41.4847279" lon="13.1655429"><ele>41.0</ele><time>2026-05-01T07:56:41.001Z</time></trkpt><trkpt lat="41.4847284" lon="13.1656914"><ele>41.0</ele><time>2026-05-01T07:56:43.002Z</time></trkpt><trkpt lat="41.4847364" lon="13.1658457"><ele>41.0</ele><time>2026-05-01T07:56:45.002Z</time></trkpt><trkpt lat="41.4847393" lon="13.1659753"><ele>41.0</ele><time>2026-05-01T07:56:47.002Z</time></trkpt><trkpt lat="41.4846942" lon="13.1660573"><ele>41.0</ele><time>2026-05-01T07:56:49.002Z</time></trkpt><trkpt lat="41.4846009" lon="13.1660809"><ele>41.0</ele><time>2026-05-01T07:56:51.002Z</time></trkpt><trkpt lat="41.4845357" lon="13.1662218"><ele>42.166666666666664</ele><time>2026-05-01T07:56:53.001Z</time></trkpt><trkpt lat="41.4845343" lon="13.1663152"><ele>43.33333333333333</ele><time>2026-05-01T07:56:54.002Z</time></trkpt><trkpt lat="41.4845513" lon="13.1664239"><ele>44.5</ele><time>2026-05-01T07:56:55.002Z</time></trkpt><trkpt lat="41.4845517" lon="13.1665517"><ele>45.666666666666664</ele><time>2026-05-01T07:56:56.002Z</time></trkpt><trkpt lat="41.4845445" lon="13.1666727"><ele>46.833333333333336</ele><time>2026-05-01T07:56:57.002Z</time></trkpt><trkpt lat="41.4845262" lon="13.1667993"><ele>48.0</ele><time>2026-05-01T07:56:58.003Z</time></trkpt><trkpt lat="41.4845003" lon="13.1669268"><ele>48.0</ele><time>2026-05-01T07:56:59.002Z</time></trkpt><trkpt lat="41.4844714" lon="13.1670581"><ele>48.0</ele><time>2026-05-01T07:57:00.001Z</time></trkpt><trkpt lat="41.4844512" lon="13.16718"><ele>48.0</ele><time>2026-05-01T07:57:01.002Z</time></trkpt><trkpt lat="41.4844218" lon="13.1672615"><ele>48.0</ele><time>2026-05-01T07:57:02.002Z</time></trkpt><trkpt lat="41.4843137" lon="13.1673535"><ele>48.0</ele><time>2026-05-01T07:57:04.001Z</time></trkpt><trkpt lat="41.4842511" lon="13.1673385"><ele>48.0</ele><time>2026-05-01T07:57:06.002Z</time></trkpt><trkpt lat="41.4842551" lon="13.1672143"><ele>48.0</ele><time>2026-05-01T07:57:09.002Z</time></trkpt><trkpt lat="41.4842749" lon="13.1671283"><ele>48.0</ele><time>2026-05-01T07:57:10.003Z</time></trkpt><trkpt lat="41.4842931" lon="13.1670285"><ele>48.0</ele><time>2026-05-01T07:57:11.002Z</time></trkpt><trkpt lat="41.484315" lon="13.1668963"><ele>48.0</ele><time>2026-05-01T07:57:12.002Z</time></trkpt><trkpt lat="41.4843312" lon="13.1667408"><ele>48.0</ele><time>2026-05-01T07:57:13.002Z</time></trkpt><trkpt lat="41.4843228" lon="13.1665725"><ele>48.0</ele><time>2026-05-01T07:57:14.002Z</time></trkpt><trkpt lat="41.4843071" lon="13.1664206"><ele>48.0</ele><time>2026-05-01T07:57:15.001Z</time></trkpt><trkpt lat="41.4842898" lon="13.166266"><ele>48.0</ele><time>2026-05-01T07:57:16.002Z</time></trkpt><trkpt lat="41.4842928" lon="13.1661358"><ele>48.2</ele><time>2026-05-01T07:57:17.002Z</time></trkpt><trkpt lat="41.4843171" lon="13.1660234"><ele>48.4</ele><time>2026-05-01T07:57:18.003Z</time></trkpt><trkpt lat="41.4843678" lon="13.1659116"><ele>48.6</ele><time>2026-05-01T07:57:19.001Z</time></trkpt><trkpt lat="41.4844359" lon="13.165824"><ele>48.800000000000004</ele><time>2026-05-01T07:57:20.002Z</time></trkpt><trkpt lat="41.4845246" lon="13.1657728"><ele>49.0</ele><time>2026-05-01T07:57:21.002Z</time></trkpt><trkpt lat="41.4846314" lon="13.1657524"><ele>47.0</ele><time>2026-05-01T07:57:22.002Z</time></trkpt><trkpt lat="41.4847496" lon="13.1657639"><ele>45.0</ele><time>2026-05-01T07:57:23.001Z</time></trkpt><trkpt lat="41.4848645" lon="13.1658025"><ele>43.0</ele><time>2026-05-01T07:57:24.002Z</time></trkpt><trkpt lat="41.4849798" lon="13.1658322"><ele>41.0</ele><time>2026-05-01T07:57:25.003Z</time></trkpt><trkpt lat="41.4850958" lon="13.1658523"><ele>41.0</ele><time>2026-05-01T07:57:26.001Z</time></trkpt><trkpt lat="41.4852074" lon="13.165872"><ele>41.0</ele><time>2026-05-01T07:57:27.002Z</time></trkpt><trkpt lat="41.4853292" lon="13.1658687"><ele>41.0</ele><time>2026-05-01T07:57:28.003Z</time></trkpt><trkpt lat="41.4854396" lon="13.1658544"><ele>41.0</ele><time>2026-05-01T07:57:29.001Z</time></trkpt><trkpt lat="41.4855466" lon="13.1658387"><ele>41.0</ele><time>2026-05-01T07:57:30.002Z</time></trkpt><trkpt lat="41.4856497" lon="13.1658184"><ele>41.0</ele><time>2026-05-01T07:57:31.003Z</time></trkpt><trkpt lat="41.4857429" lon="13.1658025"><ele>41.0</ele><time>2026-05-01T07:57:32.002Z</time></trkpt><trkpt lat="41.4858401" lon="13.1657749"><ele>41.0</ele><time>2026-05-01T07:57:33.002Z</time></trkpt><trkpt lat="41.4859114" lon="13.1657555"><ele>41.0</ele><time>2026-05-01T07:57:34.002Z</time></trkpt><trkpt lat="41.4859848" lon="13.1657328"><ele>41.0</ele><time>2026-05-01T07:57:35.002Z</time></trkpt><trkpt lat="41.4860526" lon="13.1657078"><ele>40.83333333333333</ele><time>2026-05-01T07:57:36.002Z</time></trkpt><trkpt lat="41.4861206" lon="13.1656945"><ele>40.666666666666664</ele><time>2026-05-01T07:57:37.003Z</time></trkpt><trkpt lat="41.4861933" lon="13.1656824"><ele>40.5</ele><time>2026-05-01T07:57:39.002Z</time></trkpt><trkpt lat="41.486291" lon="13.1656537"><ele>40.333333333333336</ele><time>2026-05-01T07:57:41.001Z</time></trkpt><trkpt lat="41.4863588" lon="13.1656393"><ele>40.16666666666667</ele><time>2026-05-01T07:57:42.002Z</time></trkpt><trkpt lat="41.4864319" lon="13.16562"><ele>40.0</ele><time>2026-05-01T07:57:43.002Z</time></trkpt><trkpt lat="41.4865055" lon="13.1656035"><ele>39.6</ele><time>2026-05-01T07:57:44.002Z</time></trkpt><trkpt lat="41.4865902" lon="13.1655885"><ele>39.2</ele><time>2026-05-01T07:57:45.002Z</time></trkpt><trkpt lat="41.4866794" lon="13.1655683"><ele>38.8</ele><time>2026-05-01T07:57:46.002Z</time></trkpt><trkpt lat="41.4867747" lon="13.1655475"><ele>38.4</ele><time>2026-05-01T07:57:47.003Z</time></trkpt><trkpt lat="41.4868762" lon="13.1655253"><ele>38.0</ele><time>2026-05-01T07:57:48.002Z</time></trkpt><trkpt lat="41.4869787" lon="13.1654986"><ele>38.0</ele><time>2026-05-01T07:57:49.002Z</time></trkpt><trkpt lat="41.4870825" lon="13.165467"><ele>38.0</ele><time>2026-05-01T07:57:50.002Z</time></trkpt><trkpt lat="41.4871753" lon="13.1654393"><ele>38.0</ele><time>2026-05-01T07:57:51.002Z</time></trkpt><trkpt lat="41.4872714" lon="13.1654075"><ele>38.0</ele><time>2026-05-01T07:57:52.003Z</time></trkpt><trkpt lat="41.4873632" lon="13.1653754"><ele>38.0</ele><time>2026-05-01T07:57:53.002Z</time></trkpt><trkpt lat="41.4874574" lon="13.1653447"><ele>38.4</ele><time>2026-05-01T07:57:54.002Z</time></trkpt><trkpt lat="41.4875512" lon="13.1653094"><ele>38.8</ele><time>2026-05-01T07:57:55.002Z</time></trkpt><trkpt lat="41.4876497" lon="13.1652828"><ele>39.2</ele><time>2026-05-01T07:57:56.002Z</time></trkpt><trkpt lat="41.4877439" lon="13.1652563"><ele>39.6</ele><time>2026-05-01T07:57:57.003Z</time></trkpt><trkpt lat="41.487838" lon="13.1652376"><ele>40.0</ele><time>2026-05-01T07:57:58.001Z</time></trkpt><trkpt lat="41.4879287" lon="13.1652261"><ele>40.0</ele><time>2026-05-01T07:57:59.002Z</time></trkpt><trkpt lat="41.488008" lon="13.1652157"><ele>40.0</ele><time>2026-05-01T07:58:00.003Z</time></trkpt><trkpt lat="41.4881233" lon="13.1651959"><ele>40.0</ele><time>2026-05-01T07:58:02.002Z</time></trkpt><trkpt lat="41.4880547" lon="13.1651658"><ele>40.0</ele><time>2026-05-01T07:58:16.002Z</time></trkpt><trkpt lat="41.4879426" lon="13.1651872"><ele>40.0</ele><time>2026-05-01T07:58:17.003Z</time></trkpt><trkpt lat="41.4877981" lon="13.1652235"><ele>40.0</ele><time>2026-05-01T07:58:18.002Z</time></trkpt><trkpt lat="41.487641" lon="13.1652702"><ele>40.0</ele><time>2026-05-01T07:58:19.002Z</time></trkpt><trkpt lat="41.4874925" lon="13.1653171"><ele>40.0</ele><time>2026-05-01T07:58:20.001Z</time></trkpt><trkpt lat="41.4873489" lon="13.1653651"><ele>40.0</ele><time>2026-05-01T07:58:21.002Z</time></trkpt><trkpt lat="41.4872004" lon="13.1654076"><ele>40.0</ele><time>2026-05-01T07:58:22.001Z</time></trkpt><trkpt lat="41.4870801" lon="13.1654394"><ele>40.0</ele><time>2026-05-01T07:58:23.002Z</time></trkpt><trkpt lat="41.4869505" lon="13.1654825"><ele>40.0</ele><time>2026-05-01T07:58:24.002Z</time></trkpt><trkpt lat="41.4868389" lon="13.1655099"><ele>39.6</ele><time>2026-05-01T07:58:25.002Z</time></trkpt><trkpt lat="41.4867242" lon="13.1655387"><ele>39.2</ele><time>2026-05-01T07:58:26.002Z</time></trkpt><trkpt lat="41.4866139" lon="13.1655659"><ele>38.8</ele><time>2026-05-01T07:58:27.002Z</time></trkpt><trkpt lat="41.4865116" lon="13.1655905"><ele>38.4</ele><time>2026-05-01T07:58:28.003Z</time></trkpt><trkpt lat="41.4864084" lon="13.1656084"><ele>38.0</ele><time>2026-05-01T07:58:29.001Z</time></trkpt><trkpt lat="41.4863432" lon="13.1656312"><ele>38.4</ele><time>2026-05-01T07:58:30.002Z</time></trkpt><trkpt lat="41.4862579" lon="13.1656711"><ele>38.8</ele><time>2026-05-01T07:58:32.002Z</time></trkpt><trkpt lat="41.4861561" lon="13.1656998"><ele>39.2</ele><time>2026-05-01T07:58:34.003Z</time></trkpt><trkpt lat="41.4860685" lon="13.1657069"><ele>39.6</ele><time>2026-05-01T07:58:35.002Z</time></trkpt><trkpt lat="41.485993" lon="13.1657223"><ele>40.0</ele><time>2026-05-01T07:58:36.002Z</time></trkpt><trkpt lat="41.4859127" lon="13.1657957"><ele>40.2</ele><time>2026-05-01T07:58:38.003Z</time></trkpt><trkpt lat="41.485902" lon="13.1659444"><ele>40.4</ele><time>2026-05-01T07:58:40.002Z</time></trkpt><trkpt lat="41.4858902" lon="13.1660518"><ele>40.599999999999994</ele><time>2026-05-01T07:58:41.002Z</time></trkpt><trkpt lat="41.4858694" lon="13.166194"><ele>40.8</ele><time>2026-05-01T07:58:42.003Z</time></trkpt><trkpt lat="41.4858576" lon="13.1663531"><ele>41.0</ele><time>2026-05-01T07:58:43.002Z</time></trkpt><trkpt lat="41.4858376" lon="13.1665293"><ele>40.33333333333333</ele><time>2026-05-01T07:58:44.001Z</time></trkpt><trkpt lat="41.4858227" lon="13.1667193"><ele>39.666666666666664</ele><time>2026-05-01T07:58:45.003Z</time></trkpt><trkpt lat="41.4858282" lon="13.1669277"><ele>39.0</ele><time>2026-05-01T07:58:46.002Z</time></trkpt><trkpt lat="41.4858243" lon="13.1671445"><ele>38.666666666666664</ele><time>2026-05-01T07:58:47.002Z</time></trkpt><trkpt lat="41.4858203" lon="13.1673649"><ele>38.33333333333333</ele><time>2026-05-01T07:58:48.002Z</time></trkpt><trkpt lat="41.4858182" lon="13.1675939"><ele>38.0</ele><time>2026-05-01T07:58:49.002Z</time></trkpt><trkpt lat="41.4858142" lon="13.1678212"><ele>38.0</ele><time>2026-05-01T07:58:50.002Z</time></trkpt><trkpt lat="41.485807" lon="13.1680505"><ele>38.0</ele><time>2026-05-01T07:58:51.001Z</time></trkpt><trkpt lat="41.4858063" lon="13.1682864"><ele>38.0</ele><time>2026-05-01T07:58:52.002Z</time></trkpt><trkpt lat="41.4858033" lon="13.1685221"><ele>38.33333333333333</ele><time>2026-05-01T07:58:53.001Z</time></trkpt><trkpt lat="41.4858021" lon="13.1687595"><ele>38.666666666666664</ele><time>2026-05-01T07:58:54.001Z</time></trkpt><trkpt lat="41.4857974" lon="13.1689978"><ele>39.0</ele><time>2026-05-01T07:58:55Z</time></trkpt><trkpt lat="41.4857963" lon="13.1692365"><ele>39.0</ele><time>2026-05-01T07:58:56.001Z</time></trkpt><trkpt lat="41.4857913" lon="13.1694703"><ele>39.0</ele><time>2026-05-01T07:58:57.001Z</time></trkpt><trkpt lat="41.4857844" lon="13.1697039"><ele>39.0</ele><time>2026-05-01T07:58:58.001Z</time></trkpt><trkpt lat="41.485781" lon="13.1699351"><ele>39.0</ele><time>2026-05-01T07:58:59.001Z</time></trkpt><trkpt lat="41.4857779" lon="13.1701651"><ele>39.0</ele><time>2026-05-01T07:59:00.001Z</time></trkpt><trkpt lat="41.4857746" lon="13.1703912"><ele>39.0</ele><time>2026-05-01T07:59:01.002Z</time></trkpt><trkpt lat="41.4857675" lon="13.1706202"><ele>38.333333333333336</ele><time>2026-05-01T07:59:02.002Z</time></trkpt><trkpt lat="41.485755" lon="13.1708478"><ele>37.66666666666667</ele><time>2026-05-01T07:59:03.001Z</time></trkpt><trkpt lat="41.4857369" lon="13.1710746"><ele>37.0</ele><time>2026-05-01T07:59:04.001Z</time></trkpt><trkpt lat="41.4857173" lon="13.1712851"><ele>37.0</ele><time>2026-05-01T07:59:05.001Z</time></trkpt><trkpt lat="41.4856898" lon="13.1714824"><ele>37.0</ele><time>2026-05-01T07:59:06.002Z</time></trkpt><trkpt lat="41.4856499" lon="13.1716603"><ele>37.0</ele><time>2026-05-01T07:59:07.001Z</time></trkpt><trkpt lat="41.4856008" lon="13.1718327"><ele>37.0</ele><time>2026-05-01T07:59:08.001Z</time></trkpt><trkpt lat="41.48553" lon="13.1719978"><ele>37.0</ele><time>2026-05-01T07:59:09.001Z</time></trkpt><trkpt lat="41.4854484" lon="13.1721644"><ele>37.0</ele><time>2026-05-01T07:59:10Z</time></trkpt><trkpt lat="41.4853514" lon="13.1723272"><ele>37.0</ele><time>2026-05-01T07:59:11.001Z</time></trkpt><trkpt lat="41.4852436" lon="13.1724915"><ele>36.75</ele><time>2026-05-01T07:59:12.002Z</time></trkpt><trkpt lat="41.4851441" lon="13.1726644"><ele>36.5</ele><time>2026-05-01T07:59:13.001Z</time></trkpt><trkpt lat="41.4850571" lon="13.1728012"><ele>36.25</ele><time>2026-05-01T07:59:14.001Z</time></trkpt><trkpt lat="41.4849662" lon="13.1729224"><ele>36.0</ele><time>2026-05-01T07:59:15.001Z</time></trkpt><trkpt lat="41.4848657" lon="13.1730366"><ele>36.0</ele><time>2026-05-01T07:59:16Z</time></trkpt><trkpt lat="41.484758" lon="13.1731386"><ele>36.0</ele><time>2026-05-01T07:59:17Z</time></trkpt><trkpt lat="41.4846605" lon="13.1732459"><ele>36.0</ele><time>2026-05-01T07:59:18Z</time></trkpt><trkpt lat="41.4846014" lon="13.173373"><ele>36.0</ele><time>2026-05-01T07:59:19.001Z</time></trkpt><trkpt lat="41.4845475" lon="13.1735166"><ele>35.75</ele><time>2026-05-01T07:59:20.001Z</time></trkpt><trkpt lat="41.4844807" lon="13.1736706"><ele>35.5</ele><time>2026-05-01T07:59:21Z</time></trkpt><trkpt lat="41.484405" lon="13.1738157"><ele>35.25</ele><time>2026-05-01T07:59:22.002Z</time></trkpt><trkpt lat="41.4843173" lon="13.1739664"><ele>35.0</ele><time>2026-05-01T07:59:23.001Z</time></trkpt><trkpt lat="41.4842301" lon="13.1741138"><ele>34.5</ele><time>2026-05-01T07:59:24.001Z</time></trkpt><trkpt lat="41.4841333" lon="13.1742563"><ele>34.0</ele><time>2026-05-01T07:59:25Z</time></trkpt><trkpt lat="41.484042" lon="13.1744101"><ele>33.5</ele><time>2026-05-01T07:59:26.001Z</time></trkpt><trkpt lat="41.4839525" lon="13.1745466"><ele>33.0</ele><time>2026-05-01T07:59:27.001Z</time></trkpt><trkpt lat="41.4838671" lon="13.1746741"><ele>33.0</ele><time>2026-05-01T07:59:28Z</time></trkpt><trkpt lat="41.4837928" lon="13.1747961"><ele>33.0</ele><time>2026-05-01T07:59:29.001Z</time></trkpt><trkpt lat="41.4837317" lon="13.1748892"><ele>33.0</ele><time>2026-05-01T07:59:30.002Z</time></trkpt><trkpt lat="41.4836816" lon="13.1749669"><ele>33.0</ele><time>2026-05-01T07:59:31.001Z</time></trkpt><trkpt lat="41.4836185" lon="13.1750656"><ele>33.0</ele><time>2026-05-01T07:59:33.001Z</time></trkpt><trkpt lat="41.483569" lon="13.1751178"><ele>33.0</ele><time>2026-05-01T07:59:37Z</time></trkpt><trkpt lat="41.4836043" lon="13.1751902"><ele>33.5</ele><time>2026-05-01T07:59:43.001Z</time></trkpt><trkpt lat="41.483719" lon="13.1751868"><ele>34.0</ele><time>2026-05-01T07:59:45.001Z</time></trkpt><trkpt lat="41.4837934" lon="13.1751856"><ele>34.5</ele><time>2026-05-01T07:59:46.001Z</time></trkpt><trkpt lat="41.4838672" lon="13.1751932"><ele>35.0</ele><time>2026-05-01T07:59:47.002Z</time></trkpt><trkpt lat="41.4839804" lon="13.1752154"><ele>35.5</ele><time>2026-05-01T07:59:49.001Z</time></trkpt><trkpt lat="41.4839511" lon="13.1752987"><ele>36.0</ele><time>2026-05-01T07:59:51.001Z</time></trkpt><trkpt lat="41.4838898" lon="13.1754104"><ele>36.0</ele><time>2026-05-01T07:59:53Z</time></trkpt><trkpt lat="41.4838469" lon="13.1754889"><ele>36.0</ele><time>2026-05-01T07:59:54.002Z</time></trkpt><trkpt lat="41.483792" lon="13.1755749"><ele>36.0</ele><time>2026-05-01T07:59:55Z</time></trkpt><trkpt lat="41.4837317" lon="13.1756659"><ele>36.0</ele><time>2026-05-01T07:59:56.001Z</time></trkpt><trkpt lat="41.4836746" lon="13.175753"><ele>36.0</ele><time>2026-05-01T07:59:57.002Z</time></trkpt><trkpt lat="41.4836227" lon="13.1758333"><ele>36.0</ele><time>2026-05-01T07:59:58.001Z</time></trkpt><trkpt lat="41.4835725" lon="13.175913"><ele>35.8</ele><time>2026-05-01T07:59:59.001Z</time></trkpt><trkpt lat="41.4835163" lon="13.1759968"><ele>35.6</ele><time>2026-05-01T08:00:00.001Z</time></trkpt><trkpt lat="41.4834544" lon="13.1761005"><ele>35.4</ele><time>2026-05-01T08:00:01.002Z</time></trkpt><trkpt lat="41.4833905" lon="13.1761948"><ele>35.2</ele><time>2026-05-01T08:00:02.001Z</time></trkpt><trkpt lat="41.4833325" lon="13.1762877"><ele>35.0</ele><time>2026-05-01T08:00:03.001Z</time></trkpt><trkpt lat="41.4832793" lon="13.1763695"><ele>35.0</ele><time>2026-05-01T08:00:04Z</time></trkpt><trkpt lat="41.4832312" lon="13.1764442"><ele>35.0</ele><time>2026-05-01T08:00:05.001Z</time></trkpt><trkpt lat="41.4831643" lon="13.1765485"><ele>35.0</ele><time>2026-05-01T08:00:07.001Z</time></trkpt><trkpt lat="41.4831614" lon="13.1766434"><ele>35.0</ele><time>2026-05-01T08:00:11.001Z</time></trkpt><trkpt lat="41.4832499" lon="13.1767086"><ele>35.0</ele><time>2026-05-01T08:00:14.001Z</time></trkpt><trkpt lat="41.4833744" lon="13.176778"><ele>35.0</ele><time>2026-05-01T08:00:16.001Z</time></trkpt><trkpt lat="41.4834479" lon="13.1768162"><ele>35.0</ele><time>2026-05-01T08:00:17.001Z</time></trkpt><trkpt lat="41.4835246" lon="13.1768621"><ele>35.0</ele><time>2026-05-01T08:00:18.001Z</time></trkpt><trkpt lat="41.4836116" lon="13.1769075"><ele>35.0</ele><time>2026-05-01T08:00:19.001Z</time></trkpt><trkpt lat="41.483693" lon="13.1769561"><ele>35.0</ele><time>2026-05-01T08:00:20Z</time></trkpt><trkpt lat="41.4837725" lon="13.1770014"><ele>35.0</ele><time>2026-05-01T08:00:21.001Z</time></trkpt><trkpt lat="41.4838494" lon="13.1770494"><ele>35.2</ele><time>2026-05-01T08:00:22.002Z</time></trkpt><trkpt lat="41.4839257" lon="13.1770935"><ele>35.4</ele><time>2026-05-01T08:00:23.001Z</time></trkpt><trkpt lat="41.4840012" lon="13.1771362"><ele>35.6</ele><time>2026-05-01T08:00:24.001Z</time></trkpt><trkpt lat="41.4840591" lon="13.1771697"><ele>35.8</ele><time>2026-05-01T08:00:25.002Z</time></trkpt><trkpt lat="41.484164" lon="13.1772122"><ele>36.0</ele><time>2026-05-01T08:00:27.001Z</time></trkpt><trkpt lat="41.4842801" lon="13.1772723"><ele>36.0</ele><time>2026-05-01T08:00:29.001Z</time></trkpt><trkpt lat="41.4843891" lon="13.1772995"><ele>36.0</ele><time>2026-05-01T08:00:31.001Z</time></trkpt><trkpt lat="41.4844546" lon="13.1773176"><ele>36.0</ele><time>2026-05-01T08:00:32.001Z</time></trkpt><trkpt lat="41.4845758" lon="13.1773534"><ele>36.0</ele><time>2026-05-01T08:00:34.001Z</time></trkpt><trkpt lat="41.4846322" lon="13.1774029"><ele>36.0</ele><time>2026-05-01T08:00:35.001Z</time></trkpt><trkpt lat="41.484695" lon="13.177447"><ele>36.0</ele><time>2026-05-01T08:00:36.002Z</time></trkpt><trkpt lat="41.4847526" lon="13.1775094"><ele>36.166666666666664</ele><time>2026-05-01T08:00:37.001Z</time></trkpt><trkpt lat="41.4848162" lon="13.1775539"><ele>36.333333333333336</ele><time>2026-05-01T08:00:38Z</time></trkpt><trkpt lat="41.4848828" lon="13.1775963"><ele>36.5</ele><time>2026-05-01T08:00:39.001Z</time></trkpt><trkpt lat="41.4849471" lon="13.177632"><ele>36.66666666666667</ele><time>2026-05-01T08:00:40.002Z</time></trkpt><trkpt lat="41.4850698" lon="13.1776574"><ele>36.833333333333336</ele><time>2026-05-01T08:00:42.001Z</time></trkpt><trkpt lat="41.4851323" lon="13.1776678"><ele>37.0</ele><time>2026-05-01T08:00:43.002Z</time></trkpt><trkpt lat="41.4852482" lon="13.1776617"><ele>37.0</ele><time>2026-05-01T08:00:45.001Z</time></trkpt><trkpt lat="41.4853656" lon="13.1776156"><ele>37.0</ele><time>2026-05-01T08:00:47.001Z</time></trkpt><trkpt lat="41.485426" lon="13.1775809"><ele>37.0</ele><time>2026-05-01T08:00:48Z</time></trkpt><trkpt lat="41.4855387" lon="13.1774974"><ele>37.0</ele><time>2026-05-01T08:00:50.001Z</time></trkpt><trkpt lat="41.4856139" lon="13.177451"><ele>37.0</ele><time>2026-05-01T08:00:52.001Z</time></trkpt><trkpt lat="41.485638" lon="13.1773669"><ele>37.0</ele><time>2026-05-01T08:00:56.001Z</time></trkpt><trkpt lat="41.4855687" lon="13.1773619"><ele>37.0</ele><time>2026-05-01T08:01:00.001Z</time></trkpt><trkpt lat="41.485552" lon="13.1774465"><ele>37.0</ele><time>2026-05-01T08:01:02Z</time></trkpt><trkpt lat="41.4855207" lon="13.1775314"><ele>37.0</ele><time>2026-05-01T08:01:04Z</time></trkpt><trkpt lat="41.4854126" lon="13.1775964"><ele>37.0</ele><time>2026-05-01T08:01:06Z</time></trkpt><trkpt lat="41.4853015" lon="13.1776505"><ele>37.0</ele><time>2026-05-01T08:01:08.001Z</time></trkpt><trkpt lat="41.4851802" lon="13.1776761"><ele>37.0</ele><time>2026-05-01T08:01:10.002Z</time></trkpt><trkpt lat="41.4851115" lon="13.1776725"><ele>37.0</ele><time>2026-05-01T08:01:11.001Z</time></trkpt><trkpt lat="41.4850451" lon="13.1776638"><ele>37.0</ele><time>2026-05-01T08:01:12Z</time></trkpt><trkpt lat="41.4849799" lon="13.1776446"><ele>37.0</ele><time>2026-05-01T08:01:13Z</time></trkpt><trkpt lat="41.4849142" lon="13.1776228"><ele>37.0</ele><time>2026-05-01T08:01:14.001Z</time></trkpt><trkpt lat="41.4848516" lon="13.1775913"><ele>37.0</ele><time>2026-05-01T08:01:15.002Z</time></trkpt><trkpt lat="41.484788" lon="13.1775463"><ele>37.0</ele><time>2026-05-01T08:01:16.001Z</time></trkpt><trkpt lat="41.4847293" lon="13.1774914"><ele>37.0</ele><time>2026-05-01T08:01:17.001Z</time></trkpt><trkpt lat="41.484671" lon="13.1774497"><ele>37.0</ele><time>2026-05-01T08:01:18.002Z</time></trkpt><trkpt lat="41.4846058" lon="13.1774103"><ele>37.0</ele><time>2026-05-01T08:01:19.001Z</time></trkpt><trkpt lat="41.4845437" lon="13.1773733"><ele>37.0</ele><time>2026-05-01T08:01:20.001Z</time></trkpt><trkpt lat="41.4844764" lon="13.1773367"><ele>37.0</ele><time>2026-05-01T08:01:21.002Z</time></trkpt><trkpt lat="41.4843957" lon="13.1773204"><ele>37.0</ele><time>2026-05-01T08:01:22.001Z</time></trkpt><trkpt lat="41.4842788" lon="13.1772709"><ele>36.85714285714286</ele><time>2026-05-01T08:01:24Z</time></trkpt><trkpt lat="41.4842169" lon="13.1772374"><ele>36.714285714285715</ele><time>2026-05-01T08:01:25.001Z</time></trkpt><trkpt lat="41.4841575" lon="13.1772065"><ele>36.57142857142857</ele><time>2026-05-01T08:01:26.001Z</time></trkpt><trkpt lat="41.4840931" lon="13.1771826"><ele>36.42857142857143</ele><time>2026-05-01T08:01:27.001Z</time></trkpt><trkpt lat="41.4840274" lon="13.1771505"><ele>36.285714285714285</ele><time>2026-05-01T08:01:28.001Z</time></trkpt><trkpt lat="41.4839606" lon="13.1771128"><ele>36.142857142857146</ele><time>2026-05-01T08:01:29Z</time></trkpt><trkpt lat="41.48389" lon="13.177073"><ele>36.0</ele><time>2026-05-01T08:01:30.001Z</time></trkpt><trkpt lat="41.4838237" lon="13.1770343"><ele>35.833333333333336</ele><time>2026-05-01T08:01:31Z</time></trkpt><trkpt lat="41.4837543" lon="13.1769955"><ele>35.666666666666664</ele><time>2026-05-01T08:01:32.002Z</time></trkpt><trkpt lat="41.4836798" lon="13.1769538"><ele>35.5</ele><time>2026-05-01T08:01:33.001Z</time></trkpt><trkpt lat="41.4836003" lon="13.1769076"><ele>35.33333333333333</ele><time>2026-05-01T08:01:34.001Z</time></trkpt><trkpt lat="41.4835243" lon="13.176863"><ele>35.166666666666664</ele><time>2026-05-01T08:01:35.002Z</time></trkpt><trkpt lat="41.4834517" lon="13.1768202"><ele>35.0</ele><time>2026-05-01T08:01:36.001Z</time></trkpt><trkpt lat="41.4833716" lon="13.1767787"><ele>35.0</ele><time>2026-05-01T08:01:37.001Z</time></trkpt><trkpt lat="41.4832979" lon="13.1767383"><ele>35.0</ele><time>2026-05-01T08:01:38.001Z</time></trkpt><trkpt lat="41.4832354" lon="13.1767071"><ele>35.0</ele><time>2026-05-01T08:01:39Z</time></trkpt><trkpt lat="41.4831735" lon="13.1766694"><ele>35.0</ele><time>2026-05-01T08:01:40.001Z</time></trkpt><trkpt lat="41.4831463" lon="13.176576"><ele>35.0</ele><time>2026-05-01T08:01:50.001Z</time></trkpt><trkpt lat="41.4832178" lon="13.1764448"><ele>35.0</ele><time>2026-05-01T08:01:57.002Z</time></trkpt><trkpt lat="41.4832711" lon="13.1763576"><ele>35.0</ele><time>2026-05-01T08:01:58.001Z</time></trkpt><trkpt lat="41.4833414" lon="13.1762479"><ele>35.0</ele><time>2026-05-01T08:01:59.001Z</time></trkpt><trkpt lat="41.4834234" lon="13.176125"><ele>35.0</ele><time>2026-05-01T08:02:00.001Z</time></trkpt><trkpt lat="41.4835041" lon="13.1760032"><ele>35.0</ele><time>2026-05-01T08:02:00.999Z</time></trkpt><trkpt lat="41.4835769" lon="13.175888"><ele>35.0</ele><time>2026-05-01T08:02:01.999Z</time></trkpt><trkpt lat="41.4836482" lon="13.1757726"><ele>35.0</ele><time>2026-05-01T08:02:03Z</time></trkpt><trkpt lat="41.4837236" lon="13.1756602"><ele>35.0</ele><time>2026-05-01T08:02:04.001Z</time></trkpt><trkpt lat="41.4837948" lon="13.1755559"><ele>35.0</ele><time>2026-05-01T08:02:05Z</time></trkpt><trkpt lat="41.4838539" lon="13.1754605"><ele>35.0</ele><time>2026-05-01T08:02:06.001Z</time></trkpt><trkpt lat="41.4839001" lon="13.17538"><ele>35.2</ele><time>2026-05-01T08:02:07.001Z</time></trkpt><trkpt lat="41.483956" lon="13.1752691"><ele>35.4</ele><time>2026-05-01T08:02:09Z</time></trkpt><trkpt lat="41.48401" lon="13.175213"><ele>35.6</ele><time>2026-05-01T08:02:11Z</time></trkpt><trkpt lat="41.4841449" lon="13.175209"><ele>35.8</ele><time>2026-05-01T08:02:13Z</time></trkpt><trkpt lat="41.4842373" lon="13.1752129"><ele>36.0</ele><time>2026-05-01T08:02:13.999Z</time></trkpt><trkpt lat="41.4843413" lon="13.1752178"><ele>36.0</ele><time>2026-05-01T08:02:15.001Z</time></trkpt><trkpt lat="41.484462" lon="13.1752206"><ele>36.0</ele><time>2026-05-01T08:02:16Z</time></trkpt><trkpt lat="41.4845787" lon="13.1752207"><ele>36.0</ele><time>2026-05-01T08:02:17Z</time></trkpt><trkpt lat="41.4847027" lon="13.1752427"><ele>36.0</ele><time>2026-05-01T08:02:18Z</time></trkpt><trkpt lat="41.484817" lon="13.1752397"><ele>36.0</ele><time>2026-05-01T08:02:19.001Z</time></trkpt><trkpt lat="41.4849369" lon="13.1752472"><ele>36.0</ele><time>2026-05-01T08:02:19.999Z</time></trkpt><trkpt lat="41.4850695" lon="13.1752484"><ele>36.0</ele><time>2026-05-01T08:02:20.999Z</time></trkpt><trkpt lat="41.485209" lon="13.1752505"><ele>36.0</ele><time>2026-05-01T08:02:22.001Z</time></trkpt><trkpt lat="41.4853371" lon="13.175255"><ele>36.25</ele><time>2026-05-01T08:02:23.001Z</time></trkpt><trkpt lat="41.4854651" lon="13.1752642"><ele>36.5</ele><time>2026-05-01T08:02:24Z</time></trkpt><trkpt lat="41.4855918" lon="13.175275"><ele>36.75</ele><time>2026-05-01T08:02:25Z</time></trkpt><trkpt lat="41.4857194" lon="13.1752809"><ele>37.0</ele><time>2026-05-01T08:02:26.001Z</time></trkpt><trkpt lat="41.485847" lon="13.1752864"><ele>37.0</ele><time>2026-05-01T08:02:27Z</time></trkpt><trkpt lat="41.4859734" lon="13.175295"><ele>37.0</ele><time>2026-05-01T08:02:28Z</time></trkpt><trkpt lat="41.4860975" lon="13.1753052"><ele>37.0</ele><time>2026-05-01T08:02:29Z</time></trkpt><trkpt lat="41.4862284" lon="13.1753097"><ele>37.0</ele><time>2026-05-01T08:02:30Z</time></trkpt><trkpt lat="41.4863566" lon="13.1753148"><ele>37.0</ele><time>2026-05-01T08:02:31Z</time></trkpt><trkpt lat="41.4864797" lon="13.1753237"><ele>37.0</ele><time>2026-05-01T08:02:31.999Z</time></trkpt><trkpt lat="41.4865962" lon="13.1753293"><ele>37.0</ele><time>2026-05-01T08:02:33Z</time></trkpt><trkpt lat="41.4867136" lon="13.175327"><ele>37.0</ele><time>2026-05-01T08:02:34Z</time></trkpt><trkpt lat="41.4868335" lon="13.1753337"><ele>37.0</ele><time>2026-05-01T08:02:35.001Z</time></trkpt><trkpt lat="41.4869596" lon="13.1753428"><ele>37.0</ele><time>2026-05-01T08:02:36Z</time></trkpt><trkpt lat="41.4870863" lon="13.1753467"><ele>37.0</ele><time>2026-05-01T08:02:37Z</time></trkpt><trkpt lat="41.4871994" lon="13.1753475"><ele>37.0</ele><time>2026-05-01T08:02:38Z</time></trkpt><trkpt lat="41.4873039" lon="13.1753508"><ele>37.4</ele><time>2026-05-01T08:02:39Z</time></trkpt><trkpt lat="41.4874034" lon="13.1753552"><ele>37.800000000000004</ele><time>2026-05-01T08:02:40Z</time></trkpt><trkpt lat="41.4874981" lon="13.1753568"><ele>38.2</ele><time>2026-05-01T08:02:41.001Z</time></trkpt><trkpt lat="41.4875752" lon="13.1753633"><ele>38.6</ele><time>2026-05-01T08:02:42.001Z</time></trkpt><trkpt lat="41.4876731" lon="13.1753888"><ele>39.0</ele><time>2026-05-01T08:02:44Z</time></trkpt><trkpt lat="41.4876544" lon="13.1755043"><ele>39.0</ele><time>2026-05-01T08:02:46.999Z</time></trkpt><trkpt lat="41.4876039" lon="13.1755897"><ele>39.0</ele><time>2026-05-01T08:02:47.999Z</time></trkpt><trkpt lat="41.4875247" lon="13.1757056"><ele>39.0</ele><time>2026-05-01T08:02:49Z</time></trkpt><trkpt lat="41.4874213" lon="13.1758346"><ele>39.0</ele><time>2026-05-01T08:02:50Z</time></trkpt><trkpt lat="41.4873331" lon="13.1759602"><ele>39.0</ele><time>2026-05-01T08:02:51Z</time></trkpt><trkpt lat="41.4872496" lon="13.1760715"><ele>39.0</ele><time>2026-05-01T08:02:52.001Z</time></trkpt><trkpt lat="41.4871564" lon="13.1761886"><ele>39.0</ele><time>2026-05-01T08:02:53Z</time></trkpt><trkpt lat="41.4870478" lon="13.1763261"><ele>39.0</ele><time>2026-05-01T08:02:54Z</time></trkpt><trkpt lat="41.4869535" lon="13.1764773"><ele>38.75</ele><time>2026-05-01T08:02:54.999Z</time></trkpt><trkpt lat="41.4868681" lon="13.1766443"><ele>38.5</ele><time>2026-05-01T08:02:56Z</time></trkpt><trkpt lat="41.486799" lon="13.1767722"><ele>38.25</ele><time>2026-05-01T08:02:57.001Z</time></trkpt><trkpt lat="41.4867235" lon="13.1768911"><ele>38.0</ele><time>2026-05-01T08:02:58Z</time></trkpt><trkpt lat="41.4866372" lon="13.1770081"><ele>38.0</ele><time>2026-05-01T08:02:59Z</time></trkpt><trkpt lat="41.486531" lon="13.177125"><ele>38.0</ele><time>2026-05-01T08:03:00Z</time></trkpt><trkpt lat="41.4864084" lon="13.1772401"><ele>38.0</ele><time>2026-05-01T08:03:01.001Z</time></trkpt><trkpt lat="41.4862871" lon="13.1773425"><ele>38.0</ele><time>2026-05-01T08:03:02Z</time></trkpt><trkpt lat="41.4861485" lon="13.1774445"><ele>37.33333333333333</ele><time>2026-05-01T08:03:03.001Z</time></trkpt><trkpt lat="41.486011" lon="13.177549"><ele>36.666666666666664</ele><time>2026-05-01T08:03:03.999Z</time></trkpt><trkpt lat="41.4858717" lon="13.177657"><ele>36.0</ele><time>2026-05-01T08:03:04.999Z</time></trkpt><trkpt lat="41.485743" lon="13.1777643"><ele>36.0</ele><time>2026-05-01T08:03:06Z</time></trkpt><trkpt lat="41.4856227" lon="13.177863"><ele>36.0</ele><time>2026-05-01T08:03:06.999Z</time></trkpt><trkpt lat="41.4855153" lon="13.1779355"><ele>36.0</ele><time>2026-05-01T08:03:08Z</time></trkpt><trkpt lat="41.4853981" lon="13.1779847"><ele>36.0</ele><time>2026-05-01T08:03:09Z</time></trkpt><trkpt lat="41.48529" lon="13.1780159"><ele>36.2</ele><time>2026-05-01T08:03:09.999Z</time></trkpt><trkpt lat="41.4851884" lon="13.1780317"><ele>36.400000000000006</ele><time>2026-05-01T08:03:11Z</time></trkpt><trkpt lat="41.4850777" lon="13.1780297"><ele>36.6</ele><time>2026-05-01T08:03:12Z</time></trkpt><trkpt lat="41.4849656" lon="13.1780079"><ele>36.800000000000004</ele><time>2026-05-01T08:03:13Z</time></trkpt><trkpt lat="41.48485" lon="13.1779707"><ele>37.0</ele><time>2026-05-01T08:03:14Z</time></trkpt><trkpt lat="41.4847402" lon="13.177927"><ele>37.0</ele><time>2026-05-01T08:03:15Z</time></trkpt><trkpt lat="41.4846346" lon="13.177884"><ele>37.0</ele><time>2026-05-01T08:03:16.001Z</time></trkpt><trkpt lat="41.484524" lon="13.1778495"><ele>37.0</ele><time>2026-05-01T08:03:17Z</time></trkpt><trkpt lat="41.4844076" lon="13.1777819"><ele>37.0</ele><time>2026-05-01T08:03:18Z</time></trkpt><trkpt lat="41.4843101" lon="13.1776605"><ele>36.75</ele><time>2026-05-01T08:03:19Z</time></trkpt><trkpt lat="41.4841934" lon="13.177586"><ele>36.5</ele><time>2026-05-01T08:03:20.001Z</time></trkpt><trkpt lat="41.4840819" lon="13.1775196"><ele>36.25</ele><time>2026-05-01T08:03:21Z</time></trkpt><trkpt lat="41.4839625" lon="13.1774511"><ele>36.0</ele><time>2026-05-01T08:03:22Z</time></trkpt><trkpt lat="41.4838442" lon="13.1773848"><ele>35.75</ele><time>2026-05-01T08:03:23Z</time></trkpt><trkpt lat="41.4837191" lon="13.1773103"><ele>35.5</ele><time>2026-05-01T08:03:24Z</time></trkpt><trkpt lat="41.4835933" lon="13.1772423"><ele>35.25</ele><time>2026-05-01T08:03:25Z</time></trkpt><trkpt lat="41.4834702" lon="13.1771715"><ele>35.0</ele><time>2026-05-01T08:03:26Z</time></trkpt><trkpt lat="41.4833487" lon="13.1770994"><ele>35.0</ele><time>2026-05-01T08:03:27Z</time></trkpt><trkpt lat="41.4832282" lon="13.1770339"><ele>35.0</ele><time>2026-05-01T08:03:28Z</time></trkpt><trkpt lat="41.4831302" lon="13.1769719"><ele>35.0</ele><time>2026-05-01T08:03:29Z</time></trkpt><trkpt lat="41.4830453" lon="13.176943"><ele>35.0</ele><time>2026-05-01T08:03:29.999Z</time></trkpt><trkpt lat="41.4829768" lon="13.1769398"><ele>35.0</ele><time>2026-05-01T08:03:31Z</time></trkpt><trkpt lat="41.482913" lon="13.1769775"><ele>35.0</ele><time>2026-05-01T08:03:31.999Z</time></trkpt><trkpt lat="41.4828508" lon="13.1770524"><ele>35.0</ele><time>2026-05-01T08:03:33Z</time></trkpt><trkpt lat="41.482792" lon="13.1771504"><ele>35.0</ele><time>2026-05-01T08:03:34.001Z</time></trkpt><trkpt lat="41.4827141" lon="13.1772619"><ele>35.0</ele><time>2026-05-01T08:03:35Z</time></trkpt><trkpt lat="41.4826325" lon="13.1773872"><ele>35.0</ele><time>2026-05-01T08:03:36Z</time></trkpt><trkpt lat="41.4825528" lon="13.1775121"><ele>35.0</ele><time>2026-05-01T08:03:37.001Z</time></trkpt><trkpt lat="41.4824761" lon="13.1776372"><ele>35.0</ele><time>2026-05-01T08:03:37.999Z</time></trkpt><trkpt lat="41.4824003" lon="13.1777648"><ele>35.0</ele><time>2026-05-01T08:03:39Z</time></trkpt><trkpt lat="41.4823171" lon="13.1778943"><ele>35.0</ele><time>2026-05-01T08:03:40Z</time></trkpt><trkpt lat="41.4822361" lon="13.178016"><ele>35.0</ele><time>2026-05-01T08:03:41Z</time></trkpt><trkpt lat="41.4821725" lon="13.1781243"><ele>35.0</ele><time>2026-05-01T08:03:42.001Z</time></trkpt><trkpt lat="41.4821071" lon="13.1782227"><ele>35.0</ele><time>2026-05-01T08:03:43.001Z</time></trkpt><trkpt lat="41.4820303" lon="13.1783295"><ele>35.0</ele><time>2026-05-01T08:03:45Z</time></trkpt><trkpt lat="41.4819951" lon="13.1784017"><ele>35.0</ele><time>2026-05-01T08:03:47.999Z</time></trkpt><trkpt lat="41.4819199" lon="13.1785044"><ele>34.8</ele><time>2026-05-01T08:05:30.999Z</time></trkpt><trkpt lat="41.4818714" lon="13.1785823"><ele>34.6</ele><time>2026-05-01T08:05:31.999Z</time></trkpt><trkpt lat="41.4818114" lon="13.1786822"><ele>34.4</ele><time>2026-05-01T08:05:32.999Z</time></trkpt><trkpt lat="41.4817341" lon="13.1788066"><ele>34.2</ele><time>2026-05-01T08:05:33.999Z</time></trkpt><trkpt lat="41.4816456" lon="13.1789459"><ele>34.0</ele><time>2026-05-01T08:05:34.999Z</time></trkpt><trkpt lat="41.4815561" lon="13.1790983"><ele>34.0</ele><time>2026-05-01T08:05:35.999Z</time></trkpt><trkpt lat="41.4814203" lon="13.1793107"><ele>34.0</ele><time>2026-05-01T08:05:36.999Z</time></trkpt><trkpt lat="41.4813036" lon="13.179489"><ele>34.0</ele><time>2026-05-01T08:05:38Z</time></trkpt><trkpt lat="41.4811964" lon="13.179655"><ele>33.333333333333336</ele><time>2026-05-01T08:05:38.999Z</time></trkpt><trkpt lat="41.4810952" lon="13.1798134"><ele>32.666666666666664</ele><time>2026-05-01T08:05:39.999Z</time></trkpt><trkpt lat="41.4810016" lon="13.179969"><ele>32.0</ele><time>2026-05-01T08:05:40.999Z</time></trkpt><trkpt lat="41.4809066" lon="13.1801149"><ele>32.0</ele><time>2026-05-01T08:05:41.998Z</time></trkpt><trkpt lat="41.4808086" lon="13.1802662"><ele>32.0</ele><time>2026-05-01T08:05:43Z</time></trkpt><trkpt lat="41.4807115" lon="13.180417"><ele>32.0</ele><time>2026-05-01T08:05:44Z</time></trkpt><trkpt lat="41.4806213" lon="13.1805579"><ele>32.0</ele><time>2026-05-01T08:05:44.999Z</time></trkpt><trkpt lat="41.4805391" lon="13.1806912"><ele>32.0</ele><time>2026-05-01T08:05:45.999Z</time></trkpt><trkpt lat="41.4804493" lon="13.1808284"><ele>32.0</ele><time>2026-05-01T08:05:47Z</time></trkpt><trkpt lat="41.4803611" lon="13.1809678"><ele>32.0</ele><time>2026-05-01T08:05:47.998Z</time></trkpt><trkpt lat="41.4802863" lon="13.1810827"><ele>32.0</ele><time>2026-05-01T08:05:48.999Z</time></trkpt><trkpt lat="41.4802329" lon="13.1811724"><ele>32.0</ele><time>2026-05-01T08:05:49.999Z</time></trkpt><trkpt lat="41.4801862" lon="13.1812428"><ele>32.0</ele><time>2026-05-01T08:05:50.999Z</time></trkpt><trkpt lat="41.4801266" lon="13.181348"><ele>32.0</ele><time>2026-05-01T08:05:53Z</time></trkpt><trkpt lat="41.4800704" lon="13.1814391"><ele>32.0</ele><time>2026-05-01T08:05:55.999Z</time></trkpt><trkpt lat="41.4799719" lon="13.1815925"><ele>32.0</ele><time>2026-05-01T08:05:58Z</time></trkpt><trkpt lat="41.4799089" lon="13.1816951"><ele>31.75</ele><time>2026-05-01T08:05:58.999Z</time></trkpt><trkpt lat="41.4798459" lon="13.181824"><ele>31.5</ele><time>2026-05-01T08:05:59.999Z</time></trkpt><trkpt lat="41.4797855" lon="13.1819694"><ele>31.25</ele><time>2026-05-01T08:06:00.999Z</time></trkpt><trkpt lat="41.479723" lon="13.1821396"><ele>31.0</ele><time>2026-05-01T08:06:01.998Z</time></trkpt><trkpt lat="41.4796593" lon="13.1823228"><ele>31.0</ele><time>2026-05-01T08:06:02.999Z</time></trkpt><trkpt lat="41.4795882" lon="13.1825128"><ele>31.0</ele><time>2026-05-01T08:06:03.999Z</time></trkpt><trkpt lat="41.479521" lon="13.1827155"><ele>31.0</ele><time>2026-05-01T08:06:04.999Z</time></trkpt><trkpt lat="41.4794539" lon="13.1829047"><ele>31.0</ele><time>2026-05-01T08:06:05.998Z</time></trkpt><trkpt lat="41.4793933" lon="13.1830815"><ele>31.0</ele><time>2026-05-01T08:06:06.999Z</time></trkpt><trkpt lat="41.4793328" lon="13.1832504"><ele>31.0</ele><time>2026-05-01T08:06:07.999Z</time></trkpt><trkpt lat="41.4792698" lon="13.1834242"><ele>31.0</ele><time>2026-05-01T08:06:08.998Z</time></trkpt><trkpt lat="41.4792067" lon="13.1835993"><ele>31.0</ele><time>2026-05-01T08:06:09.999Z</time></trkpt><trkpt lat="41.4791452" lon="13.1837755"><ele>31.0</ele><time>2026-05-01T08:06:10.999Z</time></trkpt><trkpt lat="41.4790788" lon="13.1839596"><ele>31.0</ele><time>2026-05-01T08:06:11.999Z</time></trkpt><trkpt lat="41.4790136" lon="13.1841471"><ele>31.0</ele><time>2026-05-01T08:06:12.999Z</time></trkpt><trkpt lat="41.4789507" lon="13.1843287"><ele>31.0</ele><time>2026-05-01T08:06:13.999Z</time></trkpt><trkpt lat="41.4788857" lon="13.1845116"><ele>31.0</ele><time>2026-05-01T08:06:14.998Z</time></trkpt><trkpt lat="41.4788264" lon="13.1846885"><ele>31.0</ele><time>2026-05-01T08:06:15.999Z</time></trkpt><trkpt lat="41.478749" lon="13.1848794"><ele>31.0</ele><time>2026-05-01T08:06:16.999Z</time></trkpt><trkpt lat="41.4786883" lon="13.1850668"><ele>31.0</ele><time>2026-05-01T08:06:17.999Z</time></trkpt><trkpt lat="41.478625" lon="13.1852554"><ele>31.0</ele><time>2026-05-01T08:06:18.999Z</time></trkpt><trkpt lat="41.4785552" lon="13.1854421"><ele>31.0</ele><time>2026-05-01T08:06:20Z</time></trkpt><trkpt lat="41.478487" lon="13.1856316"><ele>31.0</ele><time>2026-05-01T08:06:20.999Z</time></trkpt><trkpt lat="41.4784195" lon="13.1858241"><ele>31.0</ele><time>2026-05-01T08:06:21.998Z</time></trkpt><trkpt lat="41.4783523" lon="13.1860162"><ele>30.666666666666668</ele><time>2026-05-01T08:06:22.999Z</time></trkpt><trkpt lat="41.4782842" lon="13.1862131"><ele>30.333333333333336</ele><time>2026-05-01T08:06:23.999Z</time></trkpt><trkpt lat="41.4782139" lon="13.1864147"><ele>30.0</ele><time>2026-05-01T08:06:25Z</time></trkpt><trkpt lat="41.4781455" lon="13.1866131"><ele>29.666666666666664</ele><time>2026-05-01T08:06:25.999Z</time></trkpt><trkpt lat="41.4780733" lon="13.186815"><ele>29.333333333333332</ele><time>2026-05-01T08:06:26.999Z</time></trkpt><trkpt lat="41.4780036" lon="13.1870101"><ele>29.0</ele><time>2026-05-01T08:06:27.999Z</time></trkpt><trkpt lat="41.4779429" lon="13.1871938"><ele>29.0</ele><time>2026-05-01T08:06:28.999Z</time></trkpt><trkpt lat="41.4778817" lon="13.187371"><ele>29.0</ele><time>2026-05-01T08:06:29.999Z</time></trkpt><trkpt lat="41.4778207" lon="13.1875364"><ele>29.0</ele><time>2026-05-01T08:06:31Z</time></trkpt><trkpt lat="41.4777586" lon="13.1877039"><ele>29.0</ele><time>2026-05-01T08:06:31.998Z</time></trkpt><trkpt lat="41.4776984" lon="13.187881"><ele>29.0</ele><time>2026-05-01T08:06:32.999Z</time></trkpt><trkpt lat="41.477637" lon="13.1880573"><ele>29.0</ele><time>2026-05-01T08:06:33.999Z</time></trkpt><trkpt lat="41.4775716" lon="13.1882414"><ele>29.0</ele><time>2026-05-01T08:06:34.999Z</time></trkpt><trkpt lat="41.4775053" lon="13.1884257"><ele>28.75</ele><time>2026-05-01T08:06:36Z</time></trkpt><trkpt lat="41.4774403" lon="13.1886037"><ele>28.5</ele><time>2026-05-01T08:06:36.999Z</time></trkpt><trkpt lat="41.4773775" lon="13.1887772"><ele>28.25</ele><time>2026-05-01T08:06:37.999Z</time></trkpt><trkpt lat="41.477325" lon="13.18893"><ele>28.0</ele><time>2026-05-01T08:06:39Z</time></trkpt><trkpt lat="41.4772832" lon="13.1890512"><ele>28.000000000000004</ele><time>2026-05-01T08:06:39.999Z</time></trkpt><trkpt lat="41.4772447" lon="13.1891543"><ele>28.0</ele><time>2026-05-01T08:06:40.998Z</time></trkpt><trkpt lat="41.4772082" lon="13.1892528"><ele>28.0</ele><time>2026-05-01T08:06:41.999Z</time></trkpt><trkpt lat="41.4771803" lon="13.1893304"><ele>28.0</ele><time>2026-05-01T08:06:42.998Z</time></trkpt><trkpt lat="41.4771359" lon="13.1894779"><ele>28.000000000000004</ele><time>2026-05-01T08:06:44.998Z</time></trkpt><trkpt lat="41.4770909" lon="13.1895517"><ele>28.0</ele><time>2026-05-01T08:06:46.999Z</time></trkpt><trkpt lat="41.4770013" lon="13.1895204"><ele>28.0</ele><time>2026-05-01T08:06:49.998Z</time></trkpt><trkpt lat="41.4769377" lon="13.1893955"><ele>27.999999999999996</ele><time>2026-05-01T08:06:52Z</time></trkpt><trkpt lat="41.4768858" lon="13.1892871"><ele>27.999999999999996</ele><time>2026-05-01T08:06:53.999Z</time></trkpt><trkpt lat="41.4768241" lon="13.1892457"><ele>28.0</ele><time>2026-05-01T08:06:57.998Z</time></trkpt><trkpt lat="41.4767828" lon="13.1893295"><ele>28.0</ele><time>2026-05-01T08:06:59.998Z</time></trkpt><trkpt lat="41.4766909" lon="13.1894553"><ele>28.000000000000004</ele><time>2026-05-01T08:07:01.998Z</time></trkpt><trkpt lat="41.4766183" lon="13.1895716"><ele>28.0</ele><time>2026-05-01T08:07:02.999Z</time></trkpt><trkpt lat="41.4765735" lon="13.1896502"><ele>28.0</ele><time>2026-05-01T08:07:03.999Z</time></trkpt><trkpt lat="41.4765427" lon="13.1897317"><ele>28.0</ele><time>2026-05-01T08:07:04.999Z</time></trkpt><trkpt lat="41.4765144" lon="13.1898852"><ele>28.000000000000004</ele><time>2026-05-01T08:07:07Z</time></trkpt><trkpt lat="41.4765264" lon="13.1899686"><ele>28.0</ele><time>2026-05-01T08:07:07.999Z</time></trkpt><trkpt lat="41.476513" lon="13.1900805"><ele>28.0</ele><time>2026-05-01T08:07:08.999Z</time></trkpt><trkpt lat="41.4764806" lon="13.1901963"><ele>27.999999999999996</ele><time>2026-05-01T08:07:10Z</time></trkpt><trkpt lat="41.4764361" lon="13.1903143"><ele>27.999999999999996</ele><time>2026-05-01T08:07:10.999Z</time></trkpt><trkpt lat="41.4763868" lon="13.1904494"><ele>28.0</ele><time>2026-05-01T08:07:11.999Z</time></trkpt><trkpt lat="41.4763387" lon="13.190581"><ele>28.0</ele><time>2026-05-01T08:07:12.999Z</time></trkpt><trkpt lat="41.4762912" lon="13.1907236"><ele>28.0</ele><time>2026-05-01T08:07:13.999Z</time></trkpt><trkpt lat="41.4762409" lon="13.1908656"><ele>28.0</ele><time>2026-05-01T08:07:14.999Z</time></trkpt><trkpt lat="41.4761913" lon="13.1910029"><ele>28.0</ele><time>2026-05-01T08:07:15.999Z</time></trkpt><trkpt lat="41.4761462" lon="13.1911386"><ele>28.0</ele><time>2026-05-01T08:07:16.999Z</time></trkpt><trkpt lat="41.4760875" lon="13.1912782"><ele>28.0</ele><time>2026-05-01T08:07:17.999Z</time></trkpt><trkpt lat="41.4760324" lon="13.191414"><ele>27.999999999999996</ele><time>2026-05-01T08:07:18.999Z</time></trkpt><trkpt lat="41.4759818" lon="13.1915411"><ele>27.999999999999996</ele><time>2026-05-01T08:07:19.998Z</time></trkpt><trkpt lat="41.4759486" lon="13.1916751"><ele>28.0</ele><time>2026-05-01T08:07:21Z</time></trkpt><trkpt lat="41.4759153" lon="13.1918096"><ele>28.0</ele><time>2026-05-01T08:07:21.998Z</time></trkpt><trkpt lat="41.4758712" lon="13.1919435"><ele>28.0</ele><time>2026-05-01T08:07:22.998Z</time></trkpt><trkpt lat="41.4758253" lon="13.1920762"><ele>27.999999999999996</ele><time>2026-05-01T08:07:23.999Z</time></trkpt><trkpt lat="41.4757672" lon="13.1921946"><ele>27.999999999999996</ele><time>2026-05-01T08:07:25Z</time></trkpt><trkpt lat="41.4757314" lon="13.1923162"><ele>28.0</ele><time>2026-05-01T08:07:25.999Z</time></trkpt><trkpt lat="41.4756978" lon="13.1924156"><ele>28.0</ele><time>2026-05-01T08:07:26.999Z</time></trkpt><trkpt lat="41.4756704" lon="13.192495"><ele>28.000000000000004</ele><time>2026-05-01T08:07:28Z</time></trkpt><trkpt lat="41.4756355" lon="13.192616"><ele>28.0</ele><time>2026-05-01T08:07:29.999Z</time></trkpt><trkpt lat="41.47559" lon="13.1927258"><ele>28.0</ele><time>2026-05-01T08:07:32Z</time></trkpt><trkpt lat="41.4755483" lon="13.1928671"><ele>28.0</ele><time>2026-05-01T08:07:33.999Z</time></trkpt><trkpt lat="41.4755257" lon="13.192948"><ele>28.000000000000004</ele><time>2026-05-01T08:07:34.999Z</time></trkpt><trkpt lat="41.4754954" lon="13.1930355"><ele>28.0</ele><time>2026-05-01T08:07:35.999Z</time></trkpt><trkpt lat="41.4754598" lon="13.1931339"><ele>27.799999999999997</ele><time>2026-05-01T08:07:36.998Z</time></trkpt><trkpt lat="41.4754209" lon="13.1932313"><ele>27.599999999999998</ele><time>2026-05-01T08:07:37.999Z</time></trkpt><trkpt lat="41.4753832" lon="13.1933502"><ele>27.400000000000002</ele><time>2026-05-01T08:07:38.999Z</time></trkpt><trkpt lat="41.4753456" lon="13.1934694"><ele>27.200000000000003</ele><time>2026-05-01T08:07:40Z</time></trkpt><trkpt lat="41.4753032" lon="13.193584"><ele>27.0</ele><time>2026-05-01T08:07:40.999Z</time></trkpt><trkpt lat="41.4752684" lon="13.1937084"><ele>27.0</ele><time>2026-05-01T08:07:41.999Z</time></trkpt><trkpt lat="41.475232" lon="13.1938241"><ele>27.000000000000004</ele><time>2026-05-01T08:07:42.999Z</time></trkpt><trkpt lat="41.4751866" lon="13.1939332"><ele>27.000000000000004</ele><time>2026-05-01T08:07:43.998Z</time></trkpt><trkpt lat="41.4751425" lon="13.194051"><ele>27.0</ele><time>2026-05-01T08:07:44.999Z</time></trkpt><trkpt lat="41.4750971" lon="13.1941834"><ele>27.0</ele><time>2026-05-01T08:07:45.999Z</time></trkpt><trkpt lat="41.4750676" lon="13.1943086"><ele>27.0</ele><time>2026-05-01T08:07:46.999Z</time></trkpt><trkpt lat="41.4750242" lon="13.1944138"><ele>27.000000000000004</ele><time>2026-05-01T08:07:48Z</time></trkpt><trkpt lat="41.4749726" lon="13.1945063"><ele>27.000000000000004</ele><time>2026-05-01T08:07:48.999Z</time></trkpt><trkpt lat="41.4749009" lon="13.1945893"><ele>27.0</ele><time>2026-05-01T08:07:49.998Z</time></trkpt><trkpt lat="41.4748325" lon="13.1946677"><ele>27.0</ele><time>2026-05-01T08:07:50.999Z</time></trkpt><trkpt lat="41.4747485" lon="13.1947388"><ele>27.0</ele><time>2026-05-01T08:07:51.999Z</time></trkpt><trkpt lat="41.4746709" lon="13.1948298"><ele>27.000000000000004</ele><time>2026-05-01T08:07:52.999Z</time></trkpt><trkpt lat="41.4745988" lon="13.194919"><ele>27.000000000000004</ele><time>2026-05-01T08:07:53.999Z</time></trkpt><trkpt lat="41.4745197" lon="13.1950078"><ele>27.0</ele><time>2026-05-01T08:07:55Z</time></trkpt><trkpt lat="41.4744395" lon="13.1950943"><ele>27.0</ele><time>2026-05-01T08:07:55.999Z</time></trkpt><trkpt lat="41.4743582" lon="13.1951936"><ele>26.6</ele><time>2026-05-01T08:07:56.999Z</time></trkpt><trkpt lat="41.4742747" lon="13.1952905"><ele>26.200000000000003</ele><time>2026-05-01T08:07:58Z</time></trkpt><trkpt lat="41.4741929" lon="13.1953914"><ele>25.8</ele><time>2026-05-01T08:07:58.998Z</time></trkpt><trkpt lat="41.4741056" lon="13.1954909"><ele>25.4</ele><time>2026-05-01T08:07:59.998Z</time></trkpt><trkpt lat="41.4740217" lon="13.1955884"><ele>25.0</ele><time>2026-05-01T08:08:00.999Z</time></trkpt><trkpt lat="41.4739445" lon="13.1956746"><ele>25.0</ele><time>2026-05-01T08:08:01.998Z</time></trkpt><trkpt lat="41.4738588" lon="13.1957674"><ele>25.0</ele><time>2026-05-01T08:08:02.997Z</time></trkpt><trkpt lat="41.4737734" lon="13.1958562"><ele>25.0</ele><time>2026-05-01T08:08:03.999Z</time></trkpt><trkpt lat="41.4736922" lon="13.195934"><ele>25.0</ele><time>2026-05-01T08:08:04.998Z</time></trkpt><trkpt lat="41.4736032" lon="13.1959953"><ele>25.0</ele><time>2026-05-01T08:08:05.998Z</time></trkpt><trkpt lat="41.4735123" lon="13.1960404"><ele>25.2</ele><time>2026-05-01T08:08:06.998Z</time></trkpt><trkpt lat="41.4734153" lon="13.1960851"><ele>25.4</ele><time>2026-05-01T08:08:07.998Z</time></trkpt><trkpt lat="41.4733138" lon="13.1961186"><ele>25.6</ele><time>2026-05-01T08:08:08.998Z</time></trkpt><trkpt lat="41.4732128" lon="13.196151"><ele>25.8</ele><time>2026-05-01T08:08:09.997Z</time></trkpt><trkpt lat="41.473115" lon="13.1961775"><ele>26.0</ele><time>2026-05-01T08:08:10.997Z</time></trkpt><trkpt lat="41.4730282" lon="13.1961963"><ele>25.8</ele><time>2026-05-01T08:08:11.998Z</time></trkpt><trkpt lat="41.4729365" lon="13.1962157"><ele>25.6</ele><time>2026-05-01T08:08:12.998Z</time></trkpt><trkpt lat="41.4728503" lon="13.196207"><ele>25.4</ele><time>2026-05-01T08:08:13.998Z</time></trkpt><trkpt lat="41.4727588" lon="13.1962084"><ele>25.2</ele><time>2026-05-01T08:08:14.998Z</time></trkpt><trkpt lat="41.472658" lon="13.1962345"><ele>25.0</ele><time>2026-05-01T08:08:15.997Z</time></trkpt><trkpt lat="41.472551" lon="13.1962477"><ele>25.0</ele><time>2026-05-01T08:08:16.998Z</time></trkpt><trkpt lat="41.4724488" lon="13.1962664"><ele>25.0</ele><time>2026-05-01T08:08:17.998Z</time></trkpt><trkpt lat="41.4723455" lon="13.1962616"><ele>25.0</ele><time>2026-05-01T08:08:18.998Z</time></trkpt><trkpt lat="41.4722388" lon="13.1962579"><ele>25.0</ele><time>2026-05-01T08:08:19.998Z</time></trkpt><trkpt lat="41.4721319" lon="13.1962635"><ele>25.0</ele><time>2026-05-01T08:08:20.997Z</time></trkpt><trkpt lat="41.4720366" lon="13.1962759"><ele>25.166666666666668</ele><time>2026-05-01T08:08:21.998Z</time></trkpt><trkpt lat="41.4719392" lon="13.1962792"><ele>25.333333333333336</ele><time>2026-05-01T08:08:22.997Z</time></trkpt><trkpt lat="41.4718524" lon="13.1962905"><ele>25.5</ele><time>2026-05-01T08:08:23.998Z</time></trkpt><trkpt lat="41.4717717" lon="13.1962937"><ele>25.666666666666664</ele><time>2026-05-01T08:08:24.998Z</time></trkpt><trkpt lat="41.471689" lon="13.1963055"><ele>25.833333333333332</ele><time>2026-05-01T08:08:25.999Z</time></trkpt><trkpt lat="41.4716026" lon="13.1963133"><ele>26.0</ele><time>2026-05-01T08:08:26.998Z</time></trkpt><trkpt lat="41.4715187" lon="13.1963161"><ele>26.0</ele><time>2026-05-01T08:08:27.998Z</time></trkpt><trkpt lat="41.4714321" lon="13.196324"><ele>26.0</ele><time>2026-05-01T08:08:28.999Z</time></trkpt><trkpt lat="41.4713555" lon="13.1963413"><ele>26.0</ele><time>2026-05-01T08:08:29.997Z</time></trkpt><trkpt lat="41.4712794" lon="13.1963615"><ele>26.0</ele><time>2026-05-01T08:08:30.998Z</time></trkpt><trkpt lat="41.4712104" lon="13.1963712"><ele>26.0</ele><time>2026-05-01T08:08:31.998Z</time></trkpt><trkpt lat="41.471142" lon="13.1963788"><ele>26.0</ele><time>2026-05-01T08:08:32.997Z</time></trkpt><trkpt lat="41.4710741" lon="13.1963801"><ele>26.0</ele><time>2026-05-01T08:08:33.998Z</time></trkpt><trkpt lat="41.4709518" lon="13.1963777"><ele>26.166666666666664</ele><time>2026-05-01T08:08:35.998Z</time></trkpt><trkpt lat="41.4708895" lon="13.1963955"><ele>26.333333333333332</ele><time>2026-05-01T08:08:36.998Z</time></trkpt><trkpt lat="41.4707961" lon="13.196469"><ele>26.5</ele><time>2026-05-01T08:08:38.998Z</time></trkpt><trkpt lat="41.4707637" lon="13.1965852"><ele>26.666666666666664</ele><time>2026-05-01T08:08:40.999Z</time></trkpt><trkpt lat="41.4707822" lon="13.1966831"><ele>26.833333333333332</ele><time>2026-05-01T08:08:42.998Z</time></trkpt><trkpt lat="41.4707942" lon="13.1967925"><ele>27.0</ele><time>2026-05-01T08:15:55.995Z</time></trkpt><trkpt lat="41.4707826" lon="13.1969014"><ele>27.0</ele><time>2026-05-01T08:15:57.996Z</time></trkpt><trkpt lat="41.4707988" lon="13.1970315"><ele>27.0</ele><time>2026-05-01T08:15:59.996Z</time></trkpt><trkpt lat="41.4708023" lon="13.1971296"><ele>27.0</ele><time>2026-05-01T08:16:00.997Z</time></trkpt><trkpt lat="41.4708087" lon="13.1972294"><ele>27.0</ele><time>2026-05-01T08:16:01.996Z</time></trkpt><trkpt lat="41.4708144" lon="13.1973745"><ele>27.0</ele><time>2026-05-01T08:16:03.996Z</time></trkpt><trkpt lat="41.47081" lon="13.197472"><ele>27.0</ele><time>2026-05-01T08:16:05.996Z</time></trkpt><trkpt lat="41.4708371" lon="13.1973769"><ele>26.666666666666668</ele><time>2026-05-01T08:16:17.995Z</time></trkpt><trkpt lat="41.4707734" lon="13.1973114"><ele>26.333333333333336</ele><time>2026-05-01T08:16:21.996Z</time></trkpt><trkpt lat="41.4706936" lon="13.1973111"><ele>26.0</ele><time>2026-05-01T08:16:23.997Z</time></trkpt><trkpt lat="41.4706366" lon="13.1972706"><ele>25.666666666666668</ele><time>2026-05-01T08:16:25.995Z</time></trkpt><trkpt lat="41.4705096" lon="13.197258"><ele>25.333333333333336</ele><time>2026-05-01T08:16:28.996Z</time></trkpt><trkpt lat="41.4704435" lon="13.1972629"><ele>25.0</ele><time>2026-05-01T08:16:29.996Z</time></trkpt><trkpt lat="41.4703164" lon="13.1972776"><ele>25.000000000000004</ele><time>2026-05-01T08:16:31.996Z</time></trkpt><trkpt lat="41.4702446" lon="13.1972858"><ele>25.0</ele><time>2026-05-01T08:16:32.996Z</time></trkpt><trkpt lat="41.4701646" lon="13.1972892"><ele>25.0</ele><time>2026-05-01T08:16:33.995Z</time></trkpt><trkpt lat="41.4701005" lon="13.1972965"><ele>25.0</ele><time>2026-05-01T08:16:34.995Z</time></trkpt><trkpt lat="41.4699951" lon="13.1972999"><ele>25.000000000000004</ele><time>2026-05-01T08:16:36.995Z</time></trkpt><trkpt lat="41.469884" lon="13.1972987"><ele>25.0</ele><time>2026-05-01T08:16:38.997Z</time></trkpt><trkpt lat="41.4697723" lon="13.1973072"><ele>25.000000000000004</ele><time>2026-05-01T08:16:40.996Z</time></trkpt><trkpt lat="41.4696975" lon="13.1973124"><ele>25.0</ele><time>2026-05-01T08:16:42.996Z</time></trkpt><trkpt lat="41.4696107" lon="13.1973191"><ele>25.0</ele><time>2026-05-01T08:16:45.996Z</time></trkpt><trkpt lat="41.4695378" lon="13.1973263"><ele>25.0</ele><time>2026-05-01T08:16:47.997Z</time></trkpt><trkpt lat="41.4694601" lon="13.197333"><ele>25.000000000000004</ele><time>2026-05-01T08:16:49.996Z</time></trkpt><trkpt lat="41.4693874" lon="13.1973388"><ele>25.0</ele><time>2026-05-01T08:16:51.996Z</time></trkpt><trkpt lat="41.4693019" lon="13.1973432"><ele>25.000000000000004</ele><time>2026-05-01T08:16:53.996Z</time></trkpt><trkpt lat="41.4692009" lon="13.1973536"><ele>25.0</ele><time>2026-05-01T08:16:55.996Z</time></trkpt><trkpt lat="41.4690843" lon="13.1973622"><ele>25.0</ele><time>2026-05-01T08:16:57.996Z</time></trkpt><trkpt lat="41.4690208" lon="13.1973698"><ele>25.0</ele><time>2026-05-01T08:16:58.996Z</time></trkpt><trkpt lat="41.4689579" lon="13.197376"><ele>25.000000000000004</ele><time>2026-05-01T08:16:59.996Z</time></trkpt><trkpt lat="41.4688913" lon="13.1973835"><ele>25.0</ele><time>2026-05-01T08:17:00.995Z</time></trkpt><trkpt lat="41.4688249" lon="13.1973882"><ele>25.0</ele><time>2026-05-01T08:17:01.997Z</time></trkpt><trkpt lat="41.4687609" lon="13.197393"><ele>25.0</ele><time>2026-05-01T08:17:02.996Z</time></trkpt><trkpt lat="41.4686931" lon="13.1974046"><ele>25.0</ele><time>2026-05-01T08:17:03.995Z</time></trkpt><trkpt lat="41.4685726" lon="13.1974129"><ele>25.0</ele><time>2026-05-01T08:17:05.996Z</time></trkpt><trkpt lat="41.4684511" lon="13.1974292"><ele>25.0</ele><time>2026-05-01T08:17:07.997Z</time></trkpt><trkpt lat="41.468323" lon="13.1974481"><ele>25.000000000000004</ele><time>2026-05-01T08:17:09.996Z</time></trkpt><trkpt lat="41.4682497" lon="13.1974562"><ele>25.0</ele><time>2026-05-01T08:17:10.995Z</time></trkpt><trkpt lat="41.4681748" lon="13.1974628"><ele>25.0</ele><time>2026-05-01T08:17:11.995Z</time></trkpt><trkpt lat="41.4680985" lon="13.1974748"><ele>25.0</ele><time>2026-05-01T08:17:12.996Z</time></trkpt><trkpt lat="41.4680348" lon="13.1974817"><ele>25.0</ele><time>2026-05-01T08:17:13.997Z</time></trkpt><trkpt lat="41.4679718" lon="13.1974843"><ele>25.000000000000004</ele><time>2026-05-01T08:17:14.997Z</time></trkpt><trkpt lat="41.4679076" lon="13.1974895"><ele>25.0</ele><time>2026-05-01T08:17:15.996Z</time></trkpt><trkpt lat="41.4677813" lon="13.197506"><ele>24.8</ele><time>2026-05-01T08:17:17.996Z</time></trkpt><trkpt lat="41.4677175" lon="13.1975077"><ele>24.6</ele><time>2026-05-01T08:17:18.996Z</time></trkpt><trkpt lat="41.4675918" lon="13.1975163"><ele>24.4</ele><time>2026-05-01T08:17:20.997Z</time></trkpt><trkpt lat="41.4674737" lon="13.1975317"><ele>24.2</ele><time>2026-05-01T08:17:22.997Z</time></trkpt><trkpt lat="41.4673522" lon="13.197547"><ele>24.0</ele><time>2026-05-01T08:17:24.996Z</time></trkpt><trkpt lat="41.4672893" lon="13.1975525"><ele>24.0</ele><time>2026-05-01T08:17:25.995Z</time></trkpt><trkpt lat="41.4672248" lon="13.1975617"><ele>24.0</ele><time>2026-05-01T08:17:26.996Z</time></trkpt><trkpt lat="41.467105" lon="13.1975768"><ele>24.0</ele><time>2026-05-01T08:17:28.996Z</time></trkpt><trkpt lat="41.4670403" lon="13.1975856"><ele>24.0</ele><time>2026-05-01T08:17:29.997Z</time></trkpt><trkpt lat="41.4669723" lon="13.1975946"><ele>24.0</ele><time>2026-05-01T08:17:30.995Z</time></trkpt><trkpt lat="41.4669069" lon="13.1975925"><ele>24.0</ele><time>2026-05-01T08:17:31.996Z</time></trkpt><trkpt lat="41.4667906" lon="13.1975897"><ele>24.2</ele><time>2026-05-01T08:17:33.996Z</time></trkpt><trkpt lat="41.4666835" lon="13.1975809"><ele>24.4</ele><time>2026-05-01T08:17:35.995Z</time></trkpt><trkpt lat="41.4665929" lon="13.1975648"><ele>24.6</ele><time>2026-05-01T08:17:37.997Z</time></trkpt><trkpt lat="41.4665059" lon="13.1975389"><ele>24.8</ele><time>2026-05-01T08:17:39.996Z</time></trkpt><trkpt lat="41.4664192" lon="13.1975178"><ele>25.0</ele><time>2026-05-01T08:17:41.996Z</time></trkpt><trkpt lat="41.4663164" lon="13.1974823"><ele>25.0</ele><time>2026-05-01T08:17:43.996Z</time></trkpt><trkpt lat="41.4662178" lon="13.1974369"><ele>25.0</ele><time>2026-05-01T08:17:45.996Z</time></trkpt><trkpt lat="41.4661563" lon="13.1974011"><ele>25.0</ele><time>2026-05-01T08:18:35.996Z</time></trkpt><trkpt lat="41.4660359" lon="13.1973309"><ele>25.0</ele><time>2026-05-01T08:18:37.995Z</time></trkpt><trkpt lat="41.4659456" lon="13.1972741"><ele>25.0</ele><time>2026-05-01T08:18:38.995Z</time></trkpt><trkpt lat="41.4658617" lon="13.1972216"><ele>24.75</ele><time>2026-05-01T08:18:39.995Z</time></trkpt><trkpt lat="41.4657725" lon="13.1971704"><ele>24.5</ele><time>2026-05-01T08:18:40.995Z</time></trkpt><trkpt lat="41.4656828" lon="13.1971074"><ele>24.25</ele><time>2026-05-01T08:18:41.995Z</time></trkpt><trkpt lat="41.4655568" lon="13.1970401"><ele>24.0</ele><time>2026-05-01T08:18:42.996Z</time></trkpt><trkpt lat="41.4654426" lon="13.1969678"><ele>24.0</ele><time>2026-05-01T08:18:43.995Z</time></trkpt><trkpt lat="41.4653354" lon="13.1968976"><ele>24.0</ele><time>2026-05-01T08:18:44.995Z</time></trkpt><trkpt lat="41.4652235" lon="13.196825"><ele>24.0</ele><time>2026-05-01T08:18:45.996Z</time></trkpt><trkpt lat="41.4651221" lon="13.1967634"><ele>24.0</ele><time>2026-05-01T08:18:46.994Z</time></trkpt><trkpt lat="41.4650218" lon="13.1967095"><ele>24.0</ele><time>2026-05-01T08:18:47.995Z</time></trkpt><trkpt lat="41.4649263" lon="13.1966671"><ele>24.0</ele><time>2026-05-01T08:18:48.995Z</time></trkpt><trkpt lat="41.4648295" lon="13.1966315"><ele>24.0</ele><time>2026-05-01T08:18:49.995Z</time></trkpt><trkpt lat="41.4647371" lon="13.1965998"><ele>24.0</ele><time>2026-05-01T08:18:50.995Z</time></trkpt><trkpt lat="41.4646383" lon="13.1965821"><ele>24.0</ele><time>2026-05-01T08:18:51.995Z</time></trkpt><trkpt lat="41.4645425" lon="13.1965754"><ele>24.0</ele><time>2026-05-01T08:18:52.995Z</time></trkpt><trkpt lat="41.4644522" lon="13.1965848"><ele>24.0</ele><time>2026-05-01T08:18:53.995Z</time></trkpt><trkpt lat="41.464361" lon="13.1966036"><ele>24.0</ele><time>2026-05-01T08:18:54.995Z</time></trkpt><trkpt lat="41.4642767" lon="13.1966373"><ele>24.0</ele><time>2026-05-01T08:18:55.996Z</time></trkpt><trkpt lat="41.4641954" lon="13.196677"><ele>24.0</ele><time>2026-05-01T08:18:56.994Z</time></trkpt><trkpt lat="41.4641137" lon="13.1967207"><ele>24.0</ele><time>2026-05-01T08:18:57.995Z</time></trkpt><trkpt lat="41.4640326" lon="13.1967745"><ele>24.0</ele><time>2026-05-01T08:18:58.994Z</time></trkpt><trkpt lat="41.4639535" lon="13.196844"><ele>24.0</ele><time>2026-05-01T08:18:59.994Z</time></trkpt><trkpt lat="41.4638781" lon="13.1969127"><ele>24.0</ele><time>2026-05-01T08:19:00.995Z</time></trkpt><trkpt lat="41.4638113" lon="13.1969897"><ele>24.0</ele><time>2026-05-01T08:19:01.996Z</time></trkpt><trkpt lat="41.4637509" lon="13.1970677"><ele>24.0</ele><time>2026-05-01T08:19:02.995Z</time></trkpt><trkpt lat="41.4637005" lon="13.1971475"><ele>24.0</ele><time>2026-05-01T08:19:03.995Z</time></trkpt><trkpt lat="41.463644" lon="13.1972343"><ele>24.0</ele><time>2026-05-01T08:19:04.995Z</time></trkpt><trkpt lat="41.4635898" lon="13.197321"><ele>24.0</ele><time>2026-05-01T08:19:05.995Z</time></trkpt><trkpt lat="41.4635363" lon="13.1974038"><ele>24.0</ele><time>2026-05-01T08:19:06.996Z</time></trkpt><trkpt lat="41.4634833" lon="13.1974862"><ele>24.0</ele><time>2026-05-01T08:19:07.995Z</time></trkpt><trkpt lat="41.4634253" lon="13.1975866"><ele>24.0</ele><time>2026-05-01T08:19:08.995Z</time></trkpt><trkpt lat="41.4633575" lon="13.1976826"><ele>24.0</ele><time>2026-05-01T08:19:09.996Z</time></trkpt><trkpt lat="41.4632939" lon="13.1977764"><ele>23.833333333333332</ele><time>2026-05-01T08:19:10.995Z</time></trkpt><trkpt lat="41.4632367" lon="13.197862"><ele>23.666666666666668</ele><time>2026-05-01T08:19:11.995Z</time></trkpt><trkpt lat="41.4631948" lon="13.1979319"><ele>23.5</ele><time>2026-05-01T08:19:12.996Z</time></trkpt><trkpt lat="41.4631456" lon="13.1980055"><ele>23.333333333333336</ele><time>2026-05-01T08:19:13.995Z</time></trkpt><trkpt lat="41.4630918" lon="13.1980875"><ele>23.166666666666668</ele><time>2026-05-01T08:19:14.994Z</time></trkpt><trkpt lat="41.4630382" lon="13.1981676"><ele>23.0</ele><time>2026-05-01T08:19:15.996Z</time></trkpt><trkpt lat="41.4629808" lon="13.1982504"><ele>23.0</ele><time>2026-05-01T08:19:16.996Z</time></trkpt><trkpt lat="41.4629226" lon="13.1983391"><ele>23.0</ele><time>2026-05-01T08:19:17.995Z</time></trkpt><trkpt lat="41.4628637" lon="13.1984351"><ele>23.0</ele><time>2026-05-01T08:19:18.995Z</time></trkpt><trkpt lat="41.4627977" lon="13.1985388"><ele>23.0</ele><time>2026-05-01T08:19:19.996Z</time></trkpt><trkpt lat="41.462728" lon="13.1986408"><ele>23.0</ele><time>2026-05-01T08:19:20.994Z</time></trkpt><trkpt lat="41.4626577" lon="13.1987521"><ele>23.0</ele><time>2026-05-01T08:19:21.995Z</time></trkpt><trkpt lat="41.462588" lon="13.1988635"><ele>23.0</ele><time>2026-05-01T08:19:22.996Z</time></trkpt><trkpt lat="41.462526" lon="13.1989618"><ele>23.0</ele><time>2026-05-01T08:19:23.996Z</time></trkpt><trkpt lat="41.4624696" lon="13.1990524"><ele>23.0</ele><time>2026-05-01T08:19:24.995Z</time></trkpt><trkpt lat="41.4624073" lon="13.1991543"><ele>23.0</ele><time>2026-05-01T08:19:25.995Z</time></trkpt><trkpt lat="41.4623388" lon="13.1992606"><ele>23.2</ele><time>2026-05-01T08:19:26.996Z</time></trkpt><trkpt lat="41.4622725" lon="13.1993661"><ele>23.4</ele><time>2026-05-01T08:19:27.995Z</time></trkpt><trkpt lat="41.4622073" lon="13.1994641"><ele>23.599999999999998</ele><time>2026-05-01T08:19:28.995Z</time></trkpt><trkpt lat="41.4621431" lon="13.1995596"><ele>23.799999999999997</ele><time>2026-05-01T08:19:29.995Z</time></trkpt><trkpt lat="41.4620804" lon="13.1996507"><ele>24.0</ele><time>2026-05-01T08:19:30.996Z</time></trkpt><trkpt lat="41.4620089" lon="13.199739"><ele>23.666666666666668</ele><time>2026-05-01T08:19:31.994Z</time></trkpt><trkpt lat="41.4619348" lon="13.1998136"><ele>23.333333333333332</ele><time>2026-05-01T08:19:32.995Z</time></trkpt><trkpt lat="41.4618637" lon="13.1998865"><ele>23.0</ele><time>2026-05-01T08:19:33.995Z</time></trkpt><trkpt lat="41.4617922" lon="13.1999491"><ele>22.666666666666664</ele><time>2026-05-01T08:19:34.995Z</time></trkpt><trkpt lat="41.4617161" lon="13.2000176"><ele>22.333333333333332</ele><time>2026-05-01T08:19:35.996Z</time></trkpt><trkpt lat="41.4616431" lon="13.2000775"><ele>22.0</ele><time>2026-05-01T08:19:36.995Z</time></trkpt><trkpt lat="41.4615689" lon="13.2001291"><ele>22.0</ele><time>2026-05-01T08:19:37.995Z</time></trkpt><trkpt lat="41.4614918" lon="13.200179"><ele>22.0</ele><time>2026-05-01T08:19:38.996Z</time></trkpt><trkpt lat="41.4614117" lon="13.2002269"><ele>22.0</ele><time>2026-05-01T08:19:39.995Z</time></trkpt><trkpt lat="41.4613271" lon="13.2002671"><ele>22.0</ele><time>2026-05-01T08:19:40.995Z</time></trkpt><trkpt lat="41.4612412" lon="13.200299"><ele>22.0</ele><time>2026-05-01T08:19:41.996Z</time></trkpt><trkpt lat="41.4611579" lon="13.2003209"><ele>22.0</ele><time>2026-05-01T08:19:42.995Z</time></trkpt><trkpt lat="41.4610792" lon="13.2003433"><ele>22.0</ele><time>2026-05-01T08:19:43.995Z</time></trkpt><trkpt lat="41.4610057" lon="13.2003626"><ele>22.0</ele><time>2026-05-01T08:19:44.996Z</time></trkpt><trkpt lat="41.460938" lon="13.2003729"><ele>22.0</ele><time>2026-05-01T08:19:45.995Z</time></trkpt><trkpt lat="41.4608751" lon="13.2003798"><ele>22.0</ele><time>2026-05-01T08:19:46.995Z</time></trkpt><trkpt lat="41.4607681" lon="13.2004156"><ele>22.0</ele><time>2026-05-01T08:19:48.995Z</time></trkpt><trkpt lat="41.4606656" lon="13.2004413"><ele>22.0</ele><time>2026-05-01T08:19:50.995Z</time></trkpt><trkpt lat="41.4606033" lon="13.2004534"><ele>22.0</ele><time>2026-05-01T08:19:51.995Z</time></trkpt><trkpt lat="41.4605328" lon="13.2004676"><ele>22.0</ele><time>2026-05-01T08:19:52.995Z</time></trkpt><trkpt lat="41.4604567" lon="13.200487"><ele>22.0</ele><time>2026-05-01T08:19:53.995Z</time></trkpt><trkpt lat="41.4603778" lon="13.2005067"><ele>22.0</ele><time>2026-05-01T08:19:54.995Z</time></trkpt><trkpt lat="41.4602935" lon="13.2005224"><ele>22.0</ele><time>2026-05-01T08:19:55.995Z</time></trkpt><trkpt lat="41.460206" lon="13.2005443"><ele>22.0</ele><time>2026-05-01T08:19:56.995Z</time></trkpt><trkpt lat="41.460118" lon="13.2005648"><ele>22.0</ele><time>2026-05-01T08:19:57.995Z</time></trkpt><trkpt lat="41.4600301" lon="13.200587"><ele>22.0</ele><time>2026-05-01T08:19:58.995Z</time></trkpt><trkpt lat="41.4599419" lon="13.200607"><ele>22.0</ele><time>2026-05-01T08:19:59.995Z</time></trkpt><trkpt lat="41.4598544" lon="13.200631"><ele>22.0</ele><time>2026-05-01T08:20:00.996Z</time></trkpt><trkpt lat="41.4597787" lon="13.2006512"><ele>22.0</ele><time>2026-05-01T08:20:01.995Z</time></trkpt><trkpt lat="41.4597069" lon="13.2006846"><ele>22.0</ele><time>2026-05-01T08:20:02.995Z</time></trkpt><trkpt lat="41.4596502" lon="13.2007291"><ele>22.0</ele><time>2026-05-01T08:20:03.994Z</time></trkpt><trkpt lat="41.4595916" lon="13.2007753"><ele>22.0</ele><time>2026-05-01T08:20:05.995Z</time></trkpt><trkpt lat="41.4595117" lon="13.2007918"><ele>22.0</ele><time>2026-05-01T08:20:36.995Z</time></trkpt><trkpt lat="41.459442" lon="13.2008049"><ele>22.0</ele><time>2026-05-01T08:20:38.995Z</time></trkpt><trkpt lat="41.4593865" lon="13.200739"><ele>22.0</ele><time>2026-05-01T08:20:40.994Z</time></trkpt><trkpt lat="41.4593134" lon="13.2007314"><ele>22.0</ele><time>2026-05-01T08:20:42.995Z</time></trkpt><trkpt lat="41.4592503" lon="13.2007507"><ele>22.0</ele><time>2026-05-01T08:20:43.994Z</time></trkpt><trkpt lat="41.4591654" lon="13.200786"><ele>22.0</ele><time>2026-05-01T08:20:44.995Z</time></trkpt><trkpt lat="41.4591036" lon="13.200808"><ele>22.0</ele><time>2026-05-01T08:20:45.993Z</time></trkpt><trkpt lat="41.4590027" lon="13.2008342"><ele>22.0</ele><time>2026-05-01T08:20:47.993Z</time></trkpt><trkpt lat="41.4589085" lon="13.2008333"><ele>22.0</ele><time>2026-05-01T08:20:49.995Z</time></trkpt><trkpt lat="41.4588037" lon="13.2008982"><ele>22.0</ele><time>2026-05-01T08:20:51.994Z</time></trkpt><trkpt lat="41.4587356" lon="13.2009581"><ele>22.166666666666664</ele><time>2026-05-01T08:20:52.994Z</time></trkpt><trkpt lat="41.4586632" lon="13.2010193"><ele>22.333333333333332</ele><time>2026-05-01T08:20:53.994Z</time></trkpt><trkpt lat="41.4585923" lon="13.2010835"><ele>22.5</ele><time>2026-05-01T08:20:54.994Z</time></trkpt><trkpt lat="41.4585286" lon="13.2011654"><ele>22.666666666666668</ele><time>2026-05-01T08:20:55.994Z</time></trkpt><trkpt lat="41.4584636" lon="13.2012484"><ele>22.833333333333336</ele><time>2026-05-01T08:20:56.994Z</time></trkpt><trkpt lat="41.4583991" lon="13.2013336"><ele>23.0</ele><time>2026-05-01T08:20:57.994Z</time></trkpt><trkpt lat="41.4583433" lon="13.2014296"><ele>23.0</ele><time>2026-05-01T08:20:58.994Z</time></trkpt><trkpt lat="41.4582898" lon="13.2015308"><ele>23.0</ele><time>2026-05-01T08:20:59.995Z</time></trkpt><trkpt lat="41.4582285" lon="13.2016228"><ele>23.0</ele><time>2026-05-01T08:21:00.994Z</time></trkpt><trkpt lat="41.4581694" lon="13.2017278"><ele>23.0</ele><time>2026-05-01T08:21:01.993Z</time></trkpt><trkpt lat="41.4581144" lon="13.201825"><ele>23.0</ele><time>2026-05-01T08:21:02.994Z</time></trkpt><trkpt lat="41.4580587" lon="13.2019337"><ele>23.0</ele><time>2026-05-01T08:21:03.994Z</time></trkpt><trkpt lat="41.4579991" lon="13.2020483"><ele>23.0</ele><time>2026-05-01T08:21:04.994Z</time></trkpt><trkpt lat="41.4579379" lon="13.2021487"><ele>23.0</ele><time>2026-05-01T08:21:05.994Z</time></trkpt><trkpt lat="41.4578782" lon="13.2022627"><ele>23.0</ele><time>2026-05-01T08:21:06.994Z</time></trkpt><trkpt lat="41.4578159" lon="13.2023707"><ele>23.0</ele><time>2026-05-01T08:21:07.994Z</time></trkpt><trkpt lat="41.4577641" lon="13.2024723"><ele>22.799999999999997</ele><time>2026-05-01T08:21:08.995Z</time></trkpt><trkpt lat="41.4577161" lon="13.2025755"><ele>22.6</ele><time>2026-05-01T08:21:09.994Z</time></trkpt><trkpt lat="41.4576642" lon="13.2026784"><ele>22.4</ele><time>2026-05-01T08:21:10.993Z</time></trkpt><trkpt lat="41.4576059" lon="13.2027823"><ele>22.200000000000003</ele><time>2026-05-01T08:21:11.995Z</time></trkpt><trkpt lat="41.4575474" lon="13.2028894"><ele>22.0</ele><time>2026-05-01T08:21:12.993Z</time></trkpt><trkpt lat="41.4574894" lon="13.2030011"><ele>22.0</ele><time>2026-05-01T08:21:13.995Z</time></trkpt><trkpt lat="41.4574389" lon="13.2030941"><ele>22.0</ele><time>2026-05-01T08:21:14.994Z</time></trkpt><trkpt lat="41.4573854" lon="13.2031973"><ele>22.0</ele><time>2026-05-01T08:21:16.994Z</time></trkpt><trkpt lat="41.4573415" lon="13.2032859"><ele>22.0</ele><time>2026-05-01T08:21:18.994Z</time></trkpt><trkpt lat="41.4572704" lon="13.2034112"><ele>22.0</ele><time>2026-05-01T08:21:20.995Z</time></trkpt><trkpt lat="41.4571993" lon="13.2035413"><ele>22.0</ele><time>2026-05-01T08:21:22.994Z</time></trkpt><trkpt lat="41.4571414" lon="13.2036577"><ele>22.0</ele><time>2026-05-01T08:21:24.994Z</time></trkpt><trkpt lat="41.4570719" lon="13.2037994"><ele>22.0</ele><time>2026-05-01T08:21:26.993Z</time></trkpt><trkpt lat="41.4570242" lon="13.2038851"><ele>22.0</ele><time>2026-05-01T08:21:27.995Z</time></trkpt><trkpt lat="41.4569636" lon="13.20397"><ele>22.0</ele><time>2026-05-01T08:21:28.995Z</time></trkpt><trkpt lat="41.4569164" lon="13.2040638"><ele>22.0</ele><time>2026-05-01T08:21:29.994Z</time></trkpt><trkpt lat="41.4568672" lon="13.2041641"><ele>22.0</ele><time>2026-05-01T08:21:30.993Z</time></trkpt><trkpt lat="41.4568098" lon="13.2042618"><ele>22.0</ele><time>2026-05-01T08:21:31.994Z</time></trkpt><trkpt lat="41.456756" lon="13.2043625"><ele>22.0</ele><time>2026-05-01T08:21:32.995Z</time></trkpt><trkpt lat="41.4566991" lon="13.2044642"><ele>22.0</ele><time>2026-05-01T08:21:33.993Z</time></trkpt><trkpt lat="41.4566406" lon="13.2045488"><ele>22.0</ele><time>2026-05-01T08:21:34.994Z</time></trkpt><trkpt lat="41.4565788" lon="13.2046382"><ele>22.0</ele><time>2026-05-01T08:21:35.995Z</time></trkpt><trkpt lat="41.4565279" lon="13.2047109"><ele>22.0</ele><time>2026-05-01T08:21:36.994Z</time></trkpt><trkpt lat="41.4564508" lon="13.2047897"><ele>22.0</ele><time>2026-05-01T08:21:38.994Z</time></trkpt><trkpt lat="41.4563986" lon="13.2048381"><ele>22.0</ele><time>2026-05-01T08:21:40.994Z</time></trkpt><trkpt lat="41.4562807" lon="13.2049296"><ele>21.8</ele><time>2026-05-01T08:21:42.995Z</time></trkpt><trkpt lat="41.4562069" lon="13.2049717"><ele>21.6</ele><time>2026-05-01T08:21:43.994Z</time></trkpt><trkpt lat="41.4561404" lon="13.2050075"><ele>21.400000000000002</ele><time>2026-05-01T08:21:44.994Z</time></trkpt><trkpt lat="41.4560789" lon="13.2050435"><ele>21.200000000000003</ele><time>2026-05-01T08:21:45.994Z</time></trkpt><trkpt lat="41.4559664" lon="13.2051331"><ele>21.0</ele><time>2026-05-01T08:21:47.993Z</time></trkpt><trkpt lat="41.4558617" lon="13.2051646"><ele>21.0</ele><time>2026-05-01T08:21:49.994Z</time></trkpt><trkpt lat="41.4557932" lon="13.2051621"><ele>21.0</ele><time>2026-05-01T08:21:50.994Z</time></trkpt><trkpt lat="41.4557239" lon="13.2051503"><ele>21.0</ele><time>2026-05-01T08:21:51.994Z</time></trkpt><trkpt lat="41.4556416" lon="13.2051414"><ele>21.0</ele><time>2026-05-01T08:21:52.994Z</time></trkpt><trkpt lat="41.4555565" lon="13.20513"><ele>21.0</ele><time>2026-05-01T08:21:53.994Z</time></trkpt><trkpt lat="41.4554658" lon="13.2051211"><ele>21.0</ele><time>2026-05-01T08:21:54.994Z</time></trkpt><trkpt lat="41.4553708" lon="13.2051097"><ele>20.6</ele><time>2026-05-01T08:21:55.994Z</time></trkpt><trkpt lat="41.4552711" lon="13.2050961"><ele>20.200000000000003</ele><time>2026-05-01T08:21:56.994Z</time></trkpt><trkpt lat="41.4551656" lon="13.2050864"><ele>19.799999999999997</ele><time>2026-05-01T08:21:57.994Z</time></trkpt><trkpt lat="41.4550669" lon="13.2050753"><ele>19.4</ele><time>2026-05-01T08:21:58.995Z</time></trkpt><trkpt lat="41.4549793" lon="13.2050616"><ele>19.0</ele><time>2026-05-01T08:21:59.994Z</time></trkpt><trkpt lat="41.4548913" lon="13.2050373"><ele>19.0</ele><time>2026-05-01T08:22:00.994Z</time></trkpt><trkpt lat="41.4548093" lon="13.2049899"><ele>19.0</ele><time>2026-05-01T08:22:01.993Z</time></trkpt><trkpt lat="41.4547312" lon="13.2049346"><ele>19.0</ele><time>2026-05-01T08:22:02.994Z</time></trkpt><trkpt lat="41.454661" lon="13.2048741"><ele>19.0</ele><time>2026-05-01T08:22:03.994Z</time></trkpt><trkpt lat="41.4545926" lon="13.204812"><ele>19.0</ele><time>2026-05-01T08:22:04.994Z</time></trkpt><trkpt lat="41.4545251" lon="13.2047478"><ele>19.0</ele><time>2026-05-01T08:22:05.995Z</time></trkpt><trkpt lat="41.4544575" lon="13.2046871"><ele>19.57142857142857</ele><time>2026-05-01T08:22:06.995Z</time></trkpt><trkpt lat="41.4543946" lon="13.2046354"><ele>20.142857142857146</ele><time>2026-05-01T08:22:07.994Z</time></trkpt><trkpt lat="41.4543396" lon="13.2045897"><ele>20.714285714285715</ele><time>2026-05-01T08:22:08.994Z</time></trkpt><trkpt lat="41.4542854" lon="13.2045453"><ele>21.285714285714285</ele><time>2026-05-01T08:22:09.995Z</time></trkpt><trkpt lat="41.4542313" lon="13.2044907"><ele>21.857142857142854</ele><time>2026-05-01T08:22:10.994Z</time></trkpt><trkpt lat="41.4541785" lon="13.2044265"><ele>22.42857142857143</ele><time>2026-05-01T08:22:11.994Z</time></trkpt><trkpt lat="41.4541241" lon="13.2043818"><ele>23.0</ele><time>2026-05-01T08:22:12.994Z</time></trkpt><trkpt lat="41.4540048" lon="13.2043093"><ele>23.0</ele><time>2026-05-01T08:22:14.994Z</time></trkpt><trkpt lat="41.4539314" lon="13.204249"><ele>23.0</ele><time>2026-05-01T08:22:15.994Z</time></trkpt><trkpt lat="41.4538605" lon="13.2041967"><ele>23.0</ele><time>2026-05-01T08:22:16.994Z</time></trkpt><trkpt lat="41.4537797" lon="13.2041742"><ele>23.0</ele><time>2026-05-01T08:22:17.994Z</time></trkpt><trkpt lat="41.4536883" lon="13.2041742"><ele>23.0</ele><time>2026-05-01T08:22:18.994Z</time></trkpt><trkpt lat="41.4535884" lon="13.2042027"><ele>23.0</ele><time>2026-05-01T08:22:19.994Z</time></trkpt><trkpt lat="41.4534831" lon="13.2042552"><ele>23.799999999999997</ele><time>2026-05-01T08:22:20.994Z</time></trkpt><trkpt lat="41.453377" lon="13.2042983"><ele>24.6</ele><time>2026-05-01T08:22:21.994Z</time></trkpt><trkpt lat="41.453279" lon="13.2043382"><ele>25.400000000000002</ele><time>2026-05-01T08:22:22.993Z</time></trkpt><trkpt lat="41.4531873" lon="13.204378"><ele>26.200000000000003</ele><time>2026-05-01T08:22:23.994Z</time></trkpt><trkpt lat="41.4531045" lon="13.2044094"><ele>27.0</ele><time>2026-05-01T08:22:24.994Z</time></trkpt><trkpt lat="41.4530422" lon="13.2043872"><ele>27.0</ele><time>2026-05-01T08:22:25.995Z</time></trkpt><trkpt lat="41.453007" lon="13.2042921"><ele>27.0</ele><time>2026-05-01T08:22:27.994Z</time></trkpt><trkpt lat="41.4530068" lon="13.2041108"><ele>27.0</ele><time>2026-05-01T08:22:29.994Z</time></trkpt><trkpt lat="41.453026" lon="13.2040013"><ele>27.0</ele><time>2026-05-01T08:22:30.994Z</time></trkpt><trkpt lat="41.4530402" lon="13.2039051"><ele>27.0</ele><time>2026-05-01T08:22:31.994Z</time></trkpt><trkpt lat="41.4530506" lon="13.2038166"><ele>27.0</ele><time>2026-05-01T08:22:32.995Z</time></trkpt><trkpt lat="41.4530419" lon="13.2036612"><ele>27.0</ele><time>2026-05-01T08:22:34.993Z</time></trkpt><trkpt lat="41.453018" lon="13.2035697"><ele>27.0</ele><time>2026-05-01T08:22:35.995Z</time></trkpt><trkpt lat="41.4529965" lon="13.2034727"><ele>27.0</ele><time>2026-05-01T08:22:36.994Z</time></trkpt><trkpt lat="41.452963" lon="13.2033798"><ele>27.0</ele><time>2026-05-01T08:22:37.994Z</time></trkpt><trkpt lat="41.4529062" lon="13.2033085"><ele>27.0</ele><time>2026-05-01T08:22:38.994Z</time></trkpt><trkpt lat="41.4528296" lon="13.2032692"><ele>27.0</ele><time>2026-05-01T08:22:39.994Z</time></trkpt><trkpt lat="41.4527382" lon="13.2032489"><ele>27.0</ele><time>2026-05-01T08:22:40.994Z</time></trkpt><trkpt lat="41.4526425" lon="13.203247"><ele>27.0</ele><time>2026-05-01T08:22:41.995Z</time></trkpt><trkpt lat="41.4525518" lon="13.2032347"><ele>27.0</ele><time>2026-05-01T08:22:42.994Z</time></trkpt><trkpt lat="41.4524786" lon="13.2032011"><ele>27.0</ele><time>2026-05-01T08:22:43.993Z</time></trkpt><trkpt lat="41.4524221" lon="13.2031426"><ele>27.0</ele><time>2026-05-01T08:22:44.995Z</time></trkpt><trkpt lat="41.4523665" lon="13.203071"><ele>27.0</ele><time>2026-05-01T08:22:45.994Z</time></trkpt><trkpt lat="41.4523154" lon="13.2029751"><ele>28.0</ele><time>2026-05-01T08:22:46.994Z</time></trkpt><trkpt lat="41.4522796" lon="13.202883"><ele>29.0</ele><time>2026-05-01T08:22:47.994Z</time></trkpt><trkpt lat="41.4522468" lon="13.2028095"><ele>30.0</ele><time>2026-05-01T08:22:48.994Z</time></trkpt><trkpt lat="41.452179" lon="13.202746"><ele>31.0</ele><time>2026-05-01T08:22:50.993Z</time></trkpt><trkpt lat="41.4521259" lon="13.2026943"><ele>32.0</ele><time>2026-05-01T08:22:52.994Z</time></trkpt><trkpt lat="41.4520168" lon="13.202628"><ele>33.0</ele><time>2026-05-01T08:22:54.994Z</time></trkpt><trkpt lat="41.4519277" lon="13.2026142"><ele>34.25</ele><time>2026-05-01T08:22:55.993Z</time></trkpt><trkpt lat="41.4518206" lon="13.2025915"><ele>35.5</ele><time>2026-05-01T08:22:56.995Z</time></trkpt><trkpt lat="41.451696" lon="13.2025665"><ele>36.75</ele><time>2026-05-01T08:22:57.994Z</time></trkpt><trkpt lat="41.4515734" lon="13.2025211"><ele>38.0</ele><time>2026-05-01T08:22:58.994Z</time></trkpt><trkpt lat="41.45144" lon="13.2024584"><ele>38.0</ele><time>2026-05-01T08:22:59.993Z</time></trkpt><trkpt lat="41.451301" lon="13.2023815"><ele>38.0</ele><time>2026-05-01T08:23:00.994Z</time></trkpt><trkpt lat="41.4511675" lon="13.2022787"><ele>38.0</ele><time>2026-05-01T08:23:01.994Z</time></trkpt><trkpt lat="41.4510436" lon="13.202163"><ele>39.33333333333333</ele><time>2026-05-01T08:23:02.994Z</time></trkpt><trkpt lat="41.4509272" lon="13.2020252"><ele>40.666666666666664</ele><time>2026-05-01T08:23:03.993Z</time></trkpt><trkpt lat="41.4508083" lon="13.2018793"><ele>42.0</ele><time>2026-05-01T08:23:04.995Z</time></trkpt><trkpt lat="41.4506867" lon="13.2017187"><ele>42.0</ele><time>2026-05-01T08:23:05.994Z</time></trkpt><trkpt lat="41.4505581" lon="13.2015446"><ele>42.0</ele><time>2026-05-01T08:23:06.994Z</time></trkpt><trkpt lat="41.4504413" lon="13.2013572"><ele>42.0</ele><time>2026-05-01T08:23:07.995Z</time></trkpt><trkpt lat="41.4503334" lon="13.2012068"><ele>38.5</ele><time>2026-05-01T08:23:08.994Z</time></trkpt><trkpt lat="41.450246" lon="13.2010824"><ele>35.0</ele><time>2026-05-01T08:23:09.994Z</time></trkpt><trkpt lat="41.4501879" lon="13.2009905"><ele>31.5</ele><time>2026-05-01T08:23:10.994Z</time></trkpt><trkpt lat="41.4501469" lon="13.2008374"><ele>28.0</ele><time>2026-05-01T08:23:12.994Z</time></trkpt><trkpt lat="41.4502041" lon="13.2006908"><ele>28.5</ele><time>2026-05-01T08:23:14.994Z</time></trkpt><trkpt lat="41.4502701" lon="13.2006067"><ele>29.0</ele><time>2026-05-01T08:23:15.993Z</time></trkpt><trkpt lat="41.4503503" lon="13.2005154"><ele>29.5</ele><time>2026-05-01T08:23:16.994Z</time></trkpt><trkpt lat="41.4504463" lon="13.2004037"><ele>30.0</ele><time>2026-05-01T08:23:17.993Z</time></trkpt><trkpt lat="41.4505543" lon="13.2002831"><ele>31.333333333333336</ele><time>2026-05-01T08:23:18.995Z</time></trkpt><trkpt lat="41.4506704" lon="13.200152"><ele>32.66666666666667</ele><time>2026-05-01T08:23:19.994Z</time></trkpt><trkpt lat="41.4507946" lon="13.2000092"><ele>34.0</ele><time>2026-05-01T08:23:20.994Z</time></trkpt><trkpt lat="41.4509281" lon="13.1998599"><ele>33.333333333333336</ele><time>2026-05-01T08:23:21.994Z</time></trkpt><trkpt lat="41.4510579" lon="13.1997184"><ele>32.666666666666664</ele><time>2026-05-01T08:23:22.992Z</time></trkpt><trkpt lat="41.4511873" lon="13.1995717"><ele>32.0</ele><time>2026-05-01T08:23:23.994Z</time></trkpt><trkpt lat="41.4513179" lon="13.199426"><ele>33.666666666666664</ele><time>2026-05-01T08:23:24.992Z</time></trkpt><trkpt lat="41.4514507" lon="13.1992763"><ele>35.333333333333336</ele><time>2026-05-01T08:23:25.994Z</time></trkpt><trkpt lat="41.451586" lon="13.1991259"><ele>37.0</ele><time>2026-05-01T08:23:26.993Z</time></trkpt><trkpt lat="41.4517215" lon="13.1989711"><ele>38.0</ele><time>2026-05-01T08:23:27.992Z</time></trkpt><trkpt lat="41.4518443" lon="13.1988261"><ele>39.0</ele><time>2026-05-01T08:23:28.992Z</time></trkpt><trkpt lat="41.451965" lon="13.1986938"><ele>40.0</ele><time>2026-05-01T08:23:29.993Z</time></trkpt><trkpt lat="41.4520904" lon="13.1985602"><ele>40.66666666666667</ele><time>2026-05-01T08:23:30.994Z</time></trkpt><trkpt lat="41.4522282" lon="13.1984395"><ele>41.333333333333336</ele><time>2026-05-01T08:23:31.993Z</time></trkpt><trkpt lat="41.4523739" lon="13.1983358"><ele>42.0</ele><time>2026-05-01T08:23:32.992Z</time></trkpt><trkpt lat="41.4525235" lon="13.1982239"><ele>43.666666666666664</ele><time>2026-05-01T08:23:33.994Z</time></trkpt><trkpt lat="41.4526691" lon="13.1980978"><ele>45.33333333333333</ele><time>2026-05-01T08:23:34.993Z</time></trkpt><trkpt lat="41.4528086" lon="13.1979564"><ele>47.0</ele><time>2026-05-01T08:23:35.994Z</time></trkpt><trkpt lat="41.4529403" lon="13.1978003"><ele>46.666666666666664</ele><time>2026-05-01T08:23:36.993Z</time></trkpt><trkpt lat="41.4530774" lon="13.1976408"><ele>46.333333333333336</ele><time>2026-05-01T08:23:37.993Z</time></trkpt><trkpt lat="41.4531989" lon="13.1974825"><ele>46.0</ele><time>2026-05-01T08:23:38.993Z</time></trkpt><trkpt lat="41.4533168" lon="13.1973284"><ele>47.66666666666667</ele><time>2026-05-01T08:23:39.993Z</time></trkpt><trkpt lat="41.4534308" lon="13.1971704"><ele>49.333333333333336</ele><time>2026-05-01T08:23:40.994Z</time></trkpt><trkpt lat="41.4535429" lon="13.1970043"><ele>51.0</ele><time>2026-05-01T08:23:41.992Z</time></trkpt><trkpt lat="41.4536553" lon="13.1968316"><ele>51.0</ele><time>2026-05-01T08:23:42.992Z</time></trkpt><trkpt lat="41.4537615" lon="13.1966474"><ele>51.0</ele><time>2026-05-01T08:23:43.993Z</time></trkpt><trkpt lat="41.4538662" lon="13.1964548"><ele>51.0</ele><time>2026-05-01T08:23:44.993Z</time></trkpt><trkpt lat="41.453978" lon="13.1962643"><ele>50.0</ele><time>2026-05-01T08:23:45.994Z</time></trkpt><trkpt lat="41.4540791" lon="13.1960522"><ele>49.0</ele><time>2026-05-01T08:23:46.993Z</time></trkpt><trkpt lat="41.4541808" lon="13.1958432"><ele>48.0</ele><time>2026-05-01T08:23:47.992Z</time></trkpt><trkpt lat="41.4542824" lon="13.1956513"><ele>47.333333333333336</ele><time>2026-05-01T08:23:48.993Z</time></trkpt><trkpt lat="41.4543765" lon="13.1954739"><ele>46.66666666666667</ele><time>2026-05-01T08:23:49.993Z</time></trkpt><trkpt lat="41.454471" lon="13.1952972"><ele>46.0</ele><time>2026-05-01T08:23:50.994Z</time></trkpt><trkpt lat="41.4545739" lon="13.1951135"><ele>47.333333333333336</ele><time>2026-05-01T08:23:51.994Z</time></trkpt><trkpt lat="41.4546864" lon="13.1949305"><ele>48.66666666666667</ele><time>2026-05-01T08:23:52.993Z</time></trkpt><trkpt lat="41.4548012" lon="13.1947443"><ele>50.0</ele><time>2026-05-01T08:23:53.993Z</time></trkpt><trkpt lat="41.454918" lon="13.19456"><ele>50.0</ele><time>2026-05-01T08:23:54.993Z</time></trkpt><trkpt lat="41.4550353" lon="13.1943776"><ele>50.0</ele><time>2026-05-01T08:23:55.993Z</time></trkpt><trkpt lat="41.455147" lon="13.1942043"><ele>50.0</ele><time>2026-05-01T08:23:56.993Z</time></trkpt><trkpt lat="41.4552475" lon="13.1940352"><ele>50.75</ele><time>2026-05-01T08:23:57.992Z</time></trkpt><trkpt lat="41.4553401" lon="13.1938726"><ele>51.5</ele><time>2026-05-01T08:23:58.993Z</time></trkpt><trkpt lat="41.4554256" lon="13.1937099"><ele>52.25</ele><time>2026-05-01T08:23:59.993Z</time></trkpt><trkpt lat="41.4555095" lon="13.1935644"><ele>53.0</ele><time>2026-05-01T08:24:00.993Z</time></trkpt><trkpt lat="41.4555873" lon="13.1934536"><ele>53.00000000000001</ele><time>2026-05-01T08:24:01.992Z</time></trkpt><trkpt lat="41.4556718" lon="13.1933652"><ele>53.0</ele><time>2026-05-01T08:24:02.994Z</time></trkpt><trkpt lat="41.4557488" lon="13.1932959"><ele>53.0</ele><time>2026-05-01T08:24:03.993Z</time></trkpt><trkpt lat="41.4558206" lon="13.1932274"><ele>53.0</ele><time>2026-05-01T08:24:04.993Z</time></trkpt><trkpt lat="41.455881" lon="13.19317"><ele>53.00000000000001</ele><time>2026-05-01T08:24:05.992Z</time></trkpt><trkpt lat="41.4559456" lon="13.1931215"><ele>53.0</ele><time>2026-05-01T08:24:07.993Z</time></trkpt><trkpt lat="41.455998" lon="13.1930427"><ele>52.4</ele><time>2026-05-01T08:24:09.993Z</time></trkpt><trkpt lat="41.4559962" lon="13.1929125"><ele>51.8</ele><time>2026-05-01T08:24:11.993Z</time></trkpt><trkpt lat="41.4559534" lon="13.1928324"><ele>51.2</ele><time>2026-05-01T08:24:12.994Z</time></trkpt><trkpt lat="41.4558796" lon="13.1927702"><ele>50.6</ele><time>2026-05-01T08:24:13.992Z</time></trkpt><trkpt lat="41.4557779" lon="13.1926982"><ele>50.0</ele><time>2026-05-01T08:24:14.993Z</time></trkpt><trkpt lat="41.4556664" lon="13.1926228"><ele>50.00000000000001</ele><time>2026-05-01T08:24:15.993Z</time></trkpt><trkpt lat="41.4555644" lon="13.1925634"><ele>50.0</ele><time>2026-05-01T08:24:16.993Z</time></trkpt><trkpt lat="41.4554886" lon="13.1924957"><ele>50.0</ele><time>2026-05-01T08:24:17.993Z</time></trkpt><trkpt lat="41.4554354" lon="13.1924317"><ele>50.0</ele><time>2026-05-01T08:24:18.993Z</time></trkpt><trkpt lat="41.45541" lon="13.1923534"><ele>50.00000000000001</ele><time>2026-05-01T08:24:19.993Z</time></trkpt><trkpt lat="41.455392" lon="13.1922501"><ele>50.0</ele><time>2026-05-01T08:24:20.993Z</time></trkpt><trkpt lat="41.4553602" lon="13.1921364"><ele>49.6</ele><time>2026-05-01T08:24:21.994Z</time></trkpt><trkpt lat="41.4552982" lon="13.1920404"><ele>49.2</ele><time>2026-05-01T08:24:22.992Z</time></trkpt><trkpt lat="41.4552321" lon="13.1919468"><ele>48.8</ele><time>2026-05-01T08:24:23.993Z</time></trkpt><trkpt lat="41.4551509" lon="13.1918298"><ele>48.4</ele><time>2026-05-01T08:24:24.994Z</time></trkpt><trkpt lat="41.4550635" lon="13.191705"><ele>48.0</ele><time>2026-05-01T08:24:25.993Z</time></trkpt><trkpt lat="41.4549681" lon="13.1915969"><ele>48.75</ele><time>2026-05-01T08:24:26.993Z</time></trkpt><trkpt lat="41.4548583" lon="13.1914915"><ele>49.5</ele><time>2026-05-01T08:24:27.993Z</time></trkpt><trkpt lat="41.454759" lon="13.1914056"><ele>50.25</ele><time>2026-05-01T08:24:28.993Z</time></trkpt><trkpt lat="41.4546664" lon="13.191315"><ele>51.0</ele><time>2026-05-01T08:24:29.994Z</time></trkpt><trkpt lat="41.4545731" lon="13.1912254"><ele>51.199999999999996</ele><time>2026-05-01T08:24:30.993Z</time></trkpt><trkpt lat="41.454477" lon="13.1911489"><ele>51.4</ele><time>2026-05-01T08:24:31.993Z</time></trkpt><trkpt lat="41.4543838" lon="13.1910743"><ele>51.6</ele><time>2026-05-01T08:24:32.993Z</time></trkpt><trkpt lat="41.4542966" lon="13.1910074"><ele>51.8</ele><time>2026-05-01T08:24:33.993Z</time></trkpt><trkpt lat="41.454224" lon="13.1909392"><ele>52.0</ele><time>2026-05-01T08:24:34.993Z</time></trkpt><trkpt lat="41.4541678" lon="13.1908655"><ele>51.99999999999999</ele><time>2026-05-01T08:24:35.993Z</time></trkpt><trkpt lat="41.4541368" lon="13.1907788"><ele>52.0</ele><time>2026-05-01T08:24:36.993Z</time></trkpt><trkpt lat="41.4541238" lon="13.1906831"><ele>52.0</ele><time>2026-05-01T08:24:37.994Z</time></trkpt><trkpt lat="41.4541397" lon="13.1905667"><ele>52.0</ele><time>2026-05-01T08:24:38.993Z</time></trkpt><trkpt lat="41.4541673" lon="13.1904358"><ele>51.99999999999999</ele><time>2026-05-01T08:24:39.994Z</time></trkpt><trkpt lat="41.4542179" lon="13.1903114"><ele>52.0</ele><time>2026-05-01T08:24:40.993Z</time></trkpt><trkpt lat="41.4542624" lon="13.1902022"><ele>52.8</ele><time>2026-05-01T08:24:41.993Z</time></trkpt><trkpt lat="41.4542997" lon="13.1900802"><ele>53.6</ele><time>2026-05-01T08:24:42.994Z</time></trkpt><trkpt lat="41.4543275" lon="13.1899715"><ele>54.39999999999999</ele><time>2026-05-01T08:24:43.993Z</time></trkpt><trkpt lat="41.4543317" lon="13.1898586"><ele>55.199999999999996</ele><time>2026-05-01T08:24:44.994Z</time></trkpt><trkpt lat="41.4543141" lon="13.1897328"><ele>56.0</ele><time>2026-05-01T08:24:45.992Z</time></trkpt><trkpt lat="41.45429" lon="13.1895976"><ele>57.4</ele><time>2026-05-01T08:24:46.993Z</time></trkpt><trkpt lat="41.4542863" lon="13.1894633"><ele>58.8</ele><time>2026-05-01T08:24:47.993Z</time></trkpt><trkpt lat="41.4543038" lon="13.1893193"><ele>60.199999999999996</ele><time>2026-05-01T08:24:48.993Z</time></trkpt><trkpt lat="41.4543412" lon="13.1891711"><ele>61.599999999999994</ele><time>2026-05-01T08:24:49.994Z</time></trkpt><trkpt lat="41.454385" lon="13.1890248"><ele>63.0</ele><time>2026-05-01T08:24:50.993Z</time></trkpt><trkpt lat="41.4544047" lon="13.1888856"><ele>63.8</ele><time>2026-05-01T08:24:51.992Z</time></trkpt><trkpt lat="41.4544176" lon="13.1887353"><ele>64.6</ele><time>2026-05-01T08:24:52.992Z</time></trkpt><trkpt lat="41.4544377" lon="13.1886047"><ele>65.4</ele><time>2026-05-01T08:24:53.992Z</time></trkpt><trkpt lat="41.4544594" lon="13.1884833"><ele>66.2</ele><time>2026-05-01T08:24:54.993Z</time></trkpt><trkpt lat="41.4544832" lon="13.1883699"><ele>67.0</ele><time>2026-05-01T08:24:55.993Z</time></trkpt><trkpt lat="41.4544817" lon="13.1882371"><ele>68.5</ele><time>2026-05-01T08:24:56.994Z</time></trkpt><trkpt lat="41.4544759" lon="13.1880929"><ele>70.0</ele><time>2026-05-01T08:24:57.993Z</time></trkpt><trkpt lat="41.4544536" lon="13.187946"><ele>71.5</ele><time>2026-05-01T08:24:58.993Z</time></trkpt><trkpt lat="41.4544226" lon="13.1878082"><ele>73.0</ele><time>2026-05-01T08:24:59.992Z</time></trkpt><trkpt lat="41.4543714" lon="13.1876603"><ele>73.0</ele><time>2026-05-01T08:25:00.993Z</time></trkpt><trkpt lat="41.4543013" lon="13.1875066"><ele>73.0</ele><time>2026-05-01T08:25:01.993Z</time></trkpt><trkpt lat="41.4542488" lon="13.1873713"><ele>73.0</ele><time>2026-05-01T08:25:02.993Z</time></trkpt><trkpt lat="41.4542004" lon="13.1872227"><ele>73.0</ele><time>2026-05-01T08:25:03.993Z</time></trkpt><trkpt lat="41.4541582" lon="13.1870782"><ele>73.8</ele><time>2026-05-01T08:25:04.992Z</time></trkpt><trkpt lat="41.4541238" lon="13.186949"><ele>74.6</ele><time>2026-05-01T08:25:05.993Z</time></trkpt><trkpt lat="41.454089" lon="13.1868326"><ele>75.4</ele><time>2026-05-01T08:25:06.994Z</time></trkpt><trkpt lat="41.4540459" lon="13.1867185"><ele>76.2</ele><time>2026-05-01T08:25:07.992Z</time></trkpt><trkpt lat="41.4539887" lon="13.1865966"><ele>77.0</ele><time>2026-05-01T08:25:08.992Z</time></trkpt><trkpt lat="41.4539462" lon="13.1864756"><ele>78.16666666666667</ele><time>2026-05-01T08:25:09.993Z</time></trkpt><trkpt lat="41.4539073" lon="13.1863628"><ele>79.33333333333334</ele><time>2026-05-01T08:25:10.993Z</time></trkpt><trkpt lat="41.4538742" lon="13.1862502"><ele>80.5</ele><time>2026-05-01T08:25:11.994Z</time></trkpt><trkpt lat="41.4538537" lon="13.1861349"><ele>81.66666666666667</ele><time>2026-05-01T08:25:12.993Z</time></trkpt><trkpt lat="41.4538406" lon="13.1860278"><ele>82.83333333333333</ele><time>2026-05-01T08:25:13.994Z</time></trkpt><trkpt lat="41.4538257" lon="13.1859259"><ele>84.0</ele><time>2026-05-01T08:25:14.993Z</time></trkpt><trkpt lat="41.453808" lon="13.1858439"><ele>84.80000000000001</ele><time>2026-05-01T08:25:15.993Z</time></trkpt><trkpt lat="41.4537784" lon="13.1857406"><ele>85.60000000000001</ele><time>2026-05-01T08:25:17.993Z</time></trkpt><trkpt lat="41.4537414" lon="13.1856337"><ele>86.4</ele><time>2026-05-01T08:25:19.993Z</time></trkpt><trkpt lat="41.4536904" lon="13.1855318"><ele>87.2</ele><time>2026-05-01T08:25:21.993Z</time></trkpt><trkpt lat="41.4536269" lon="13.1854324"><ele>88.0</ele><time>2026-05-01T08:25:23.994Z</time></trkpt><trkpt lat="41.4535485" lon="13.1853477"><ele>88.33333333333333</ele><time>2026-05-01T08:25:25.992Z</time></trkpt><trkpt lat="41.4534589" lon="13.1852414"><ele>88.66666666666666</ele><time>2026-05-01T08:25:27.993Z</time></trkpt><trkpt lat="41.4534121" lon="13.1851703"><ele>89.0</ele><time>2026-05-01T08:25:28.993Z</time></trkpt><trkpt lat="41.4533676" lon="13.1850931"><ele>89.33333333333333</ele><time>2026-05-01T08:25:29.992Z</time></trkpt><trkpt lat="41.4533073" lon="13.1850076"><ele>89.66666666666667</ele><time>2026-05-01T08:25:30.993Z</time></trkpt><trkpt lat="41.4532388" lon="13.184916"><ele>90.0</ele><time>2026-05-01T08:25:31.992Z</time></trkpt><trkpt lat="41.4531831" lon="13.1848175"><ele>90.8</ele><time>2026-05-01T08:25:32.992Z</time></trkpt><trkpt lat="41.4531317" lon="13.1847198"><ele>91.6</ele><time>2026-05-01T08:25:33.994Z</time></trkpt><trkpt lat="41.453077" lon="13.1846515"><ele>92.4</ele><time>2026-05-01T08:25:34.993Z</time></trkpt><trkpt lat="41.4530013" lon="13.1845733"><ele>93.2</ele><time>2026-05-01T08:25:35.994Z</time></trkpt><trkpt lat="41.4529072" lon="13.1844938"><ele>94.0</ele><time>2026-05-01T08:25:36.994Z</time></trkpt><trkpt lat="41.4528348" lon="13.1844302"><ele>94.0</ele><time>2026-05-01T08:25:37.992Z</time></trkpt><trkpt lat="41.4527739" lon="13.1843826"><ele>94.0</ele><time>2026-05-01T08:25:38.993Z</time></trkpt><trkpt lat="41.4526615" lon="13.1843548"><ele>94.0</ele><time>2026-05-01T08:25:40.993Z</time></trkpt><trkpt lat="41.4525536" lon="13.1843666"><ele>94.0</ele><time>2026-05-01T08:25:42.993Z</time></trkpt><trkpt lat="41.4524881" lon="13.1843047"><ele>94.0</ele><time>2026-05-01T08:25:44.992Z</time></trkpt><trkpt lat="41.4524048" lon="13.1842625"><ele>94.0</ele><time>2026-05-01T08:25:46.994Z</time></trkpt><trkpt lat="41.4523646" lon="13.1843584"><ele>94.0</ele><time>2026-05-01T08:25:56.994Z</time></trkpt><trkpt lat="41.452378" lon="13.1844408"><ele>94.0</ele><time>2026-05-01T08:25:57.993Z</time></trkpt><trkpt lat="41.4523621" lon="13.1845809"><ele>94.0</ele><time>2026-05-01T08:25:59.993Z</time></trkpt><trkpt lat="41.4523719" lon="13.1846995"><ele>94.0</ele><time>2026-05-01T08:26:01.993Z</time></trkpt><trkpt lat="41.4523948" lon="13.1847808"><ele>94.0</ele><time>2026-05-01T08:26:02.993Z</time></trkpt><trkpt lat="41.4524216" lon="13.1848686"><ele>94.0</ele><time>2026-05-01T08:26:03.993Z</time></trkpt><trkpt lat="41.4524746" lon="13.1849899"><ele>94.0</ele><time>2026-05-01T08:26:05.992Z</time></trkpt><trkpt lat="41.452542" lon="13.1850529"><ele>94.0</ele><time>2026-05-01T08:26:07.993Z</time></trkpt><trkpt lat="41.4525929" lon="13.1851205"><ele>94.0</ele><time>2026-05-01T08:26:09.993Z</time></trkpt><trkpt lat="41.4526348" lon="13.1852161"><ele>94.0</ele><time>2026-05-01T08:26:11.992Z</time></trkpt><trkpt lat="41.4526594" lon="13.1853916"><ele>94.0</ele><time>2026-05-01T08:26:13.991Z</time></trkpt><trkpt lat="41.4526697" lon="13.185502"><ele>94.0</ele><time>2026-05-01T08:26:14.992Z</time></trkpt><trkpt lat="41.4526712" lon="13.1856526"><ele>94.0</ele><time>2026-05-01T08:26:16.992Z</time></trkpt><trkpt lat="41.4526522" lon="13.1857871"><ele>94.0</ele><time>2026-05-01T08:26:18.993Z</time></trkpt><trkpt lat="41.4526598" lon="13.1858732"><ele>94.0</ele><time>2026-05-01T08:26:19.992Z</time></trkpt><trkpt lat="41.452654" lon="13.1859814"><ele>94.0</ele><time>2026-05-01T08:26:20.993Z</time></trkpt><trkpt lat="41.452637" lon="13.1860724"><ele>94.66666666666666</ele><time>2026-05-01T08:26:21.992Z</time></trkpt><trkpt lat="41.452619" lon="13.1861695"><ele>95.33333333333333</ele><time>2026-05-01T08:26:22.992Z</time></trkpt><trkpt lat="41.4525921" lon="13.1862656"><ele>96.0</ele><time>2026-05-01T08:26:23.992Z</time></trkpt><trkpt lat="41.4525482" lon="13.186351"><ele>96.66666666666666</ele><time>2026-05-01T08:26:24.991Z</time></trkpt><trkpt lat="41.4524902" lon="13.186409"><ele>97.33333333333333</ele><time>2026-05-01T08:26:25.992Z</time></trkpt><trkpt lat="41.4523745" lon="13.1864257"><ele>98.0</ele><time>2026-05-01T08:26:27.991Z</time></trkpt><trkpt lat="41.4523094" lon="13.1864057"><ele>98.0</ele><time>2026-05-01T08:26:28.991Z</time></trkpt><trkpt lat="41.4522488" lon="13.186363"><ele>98.0</ele><time>2026-05-01T08:26:29.992Z</time></trkpt><trkpt lat="41.4521731" lon="13.1863042"><ele>98.0</ele><time>2026-05-01T08:26:30.991Z</time></trkpt><trkpt lat="41.4520937" lon="13.1862528"><ele>98.0</ele><time>2026-05-01T08:26:31.992Z</time></trkpt><trkpt lat="41.4520021" lon="13.1861682"><ele>98.0</ele><time>2026-05-01T08:26:32.993Z</time></trkpt><trkpt lat="41.4519094" lon="13.1860983"><ele>98.2</ele><time>2026-05-01T08:26:33.992Z</time></trkpt><trkpt lat="41.4518261" lon="13.1860276"><ele>98.4</ele><time>2026-05-01T08:26:34.992Z</time></trkpt><trkpt lat="41.4517604" lon="13.1859688"><ele>98.60000000000001</ele><time>2026-05-01T08:26:35.993Z</time></trkpt><trkpt lat="41.4516727" lon="13.1859165"><ele>98.80000000000001</ele><time>2026-05-01T08:26:37.991Z</time></trkpt><trkpt lat="41.4515799" lon="13.1859466"><ele>99.0</ele><time>2026-05-01T08:26:39.991Z</time></trkpt><trkpt lat="41.4514674" lon="13.1860269"><ele>99.0</ele><time>2026-05-01T08:26:41.993Z</time></trkpt><trkpt lat="41.4513259" lon="13.1860135"><ele>99.0</ele><time>2026-05-01T08:26:43.992Z</time></trkpt><trkpt lat="41.4512259" lon="13.1859828"><ele>99.0</ele><time>2026-05-01T08:26:44.992Z</time></trkpt><trkpt lat="41.4511397" lon="13.1859427"><ele>99.0</ele><time>2026-05-01T08:26:45.991Z</time></trkpt><trkpt lat="41.451056" lon="13.1858989"><ele>99.0</ele><time>2026-05-01T08:26:46.993Z</time></trkpt><trkpt lat="41.450975" lon="13.1858442"><ele>99.33333333333333</ele><time>2026-05-01T08:26:47.992Z</time></trkpt><trkpt lat="41.4509025" lon="13.1857827"><ele>99.66666666666666</ele><time>2026-05-01T08:26:48.992Z</time></trkpt><trkpt lat="41.4508183" lon="13.1857537"><ele>100.0</ele><time>2026-05-01T08:26:49.991Z</time></trkpt><trkpt lat="41.450747" lon="13.185731"><ele>100.33333333333333</ele><time>2026-05-01T08:26:50.992Z</time></trkpt><trkpt lat="41.4506664" lon="13.1856989"><ele>100.66666666666666</ele><time>2026-05-01T08:26:52.992Z</time></trkpt><trkpt lat="41.4506053" lon="13.1856328"><ele>101.0</ele><time>2026-05-01T08:26:55.992Z</time></trkpt><trkpt lat="41.4506697" lon="13.1856805"><ele>100.99999999999999</ele><time>2026-05-01T08:27:09.992Z</time></trkpt><trkpt lat="41.450706" lon="13.1856059"><ele>101.0</ele><time>2026-05-01T08:27:12.992Z</time></trkpt><trkpt lat="41.4507084" lon="13.1855004"><ele>101.0</ele><time>2026-05-01T08:27:26.993Z</time></trkpt><trkpt lat="41.4507122" lon="13.1853501"><ele>101.0</ele><time>2026-05-01T08:27:28.991Z</time></trkpt><trkpt lat="41.4507043" lon="13.1852591"><ele>100.99999999999999</ele><time>2026-05-01T08:27:30.992Z</time></trkpt><trkpt lat="41.450729" lon="13.1851471"><ele>101.0</ele><time>2026-05-01T08:27:32.992Z</time></trkpt><trkpt lat="41.4507567" lon="13.185049"><ele>100.99999999999999</ele><time>2026-05-01T08:27:35.992Z</time></trkpt><trkpt lat="41.4507964" lon="13.1849541"><ele>101.0</ele><time>2026-05-01T08:27:39.991Z</time></trkpt><trkpt lat="41.4508235" lon="13.1848737"><ele>101.0</ele><time>2026-05-01T08:27:41.993Z</time></trkpt><trkpt lat="41.4508753" lon="13.1848018"><ele>101.0</ele><time>2026-05-01T08:27:43.992Z</time></trkpt><trkpt lat="41.4509651" lon="13.1847655"><ele>100.99999999999999</ele><time>2026-05-01T08:27:45.992Z</time></trkpt><trkpt lat="41.4510391" lon="13.1847841"><ele>101.0</ele><time>2026-05-01T08:27:48.991Z</time></trkpt><trkpt lat="41.4510078" lon="13.1849186"><ele>101.0</ele><time>2026-05-01T08:27:52.992Z</time></trkpt><trkpt lat="41.4509729" lon="13.1849942"><ele>101.0</ele><time>2026-05-01T08:27:53.993Z</time></trkpt><trkpt lat="41.4509248" lon="13.1850612"><ele>101.0</ele><time>2026-05-01T08:27:54.991Z</time></trkpt><trkpt lat="41.4508651" lon="13.1851024"><ele>101.0</ele><time>2026-05-01T08:27:55.993Z</time></trkpt><trkpt lat="41.4508084" lon="13.1851437"><ele>101.0</ele><time>2026-05-01T08:27:56.992Z</time></trkpt><trkpt lat="41.4507486" lon="13.1852568"><ele>101.0</ele><time>2026-05-01T08:27:58.992Z</time></trkpt><trkpt lat="41.4507247" lon="13.1853532"><ele>101.0</ele><time>2026-05-01T08:28:00.992Z</time></trkpt><trkpt lat="41.4507185" lon="13.185465"><ele>100.99999999999999</ele><time>2026-05-01T08:28:02.992Z</time></trkpt><trkpt lat="41.450711" lon="13.18561"><ele>101.0</ele><time>2026-05-01T08:28:04.992Z</time></trkpt><trkpt lat="41.4506818" lon="13.1857128"><ele>101.0</ele><time>2026-05-01T08:28:06.992Z</time></trkpt><trkpt lat="41.4506273" lon="13.1857623"><ele>101.0</ele><time>2026-05-01T08:28:08.992Z</time></trkpt><trkpt lat="41.450666" lon="13.1856834"><ele>100.99999999999999</ele><time>2026-05-01T08:28:15.992Z</time></trkpt><trkpt lat="41.4507115" lon="13.1855856"><ele>101.0</ele><time>2026-05-01T08:39:32.988Z</time></trkpt><trkpt lat="41.4507068" lon="13.1854709"><ele>100.99999999999999</ele><time>2026-05-01T08:39:38.987Z</time></trkpt><trkpt lat="41.4507199" lon="13.1853487"><ele>101.0</ele><time>2026-05-01T08:39:39.987Z</time></trkpt><trkpt lat="41.4507182" lon="13.185244"><ele>101.0</ele><time>2026-05-01T08:39:41.988Z</time></trkpt><trkpt lat="41.4507436" lon="13.1851506"><ele>101.0</ele><time>2026-05-01T08:39:43.987Z</time></trkpt><trkpt lat="41.4507787" lon="13.1850112"><ele>100.99999999999999</ele><time>2026-05-01T08:39:45.987Z</time></trkpt><trkpt lat="41.4508186" lon="13.1849053"><ele>101.0</ele><time>2026-05-01T08:39:47.987Z</time></trkpt><trkpt lat="41.4508781" lon="13.1848146"><ele>101.0</ele><time>2026-05-01T08:39:49.988Z</time></trkpt><trkpt lat="41.4509609" lon="13.1847628"><ele>101.0</ele><time>2026-05-01T08:39:51.987Z</time></trkpt><trkpt lat="41.4510262" lon="13.1847644"><ele>101.0</ele><time>2026-05-01T08:39:53.987Z</time></trkpt><trkpt lat="41.4510458" lon="13.1848513"><ele>101.0</ele><time>2026-05-01T08:39:57.987Z</time></trkpt><trkpt lat="41.4509832" lon="13.1849075"><ele>101.0</ele><time>2026-05-01T08:40:01.987Z</time></trkpt><trkpt lat="41.4509204" lon="13.1848931"><ele>101.0</ele><time>2026-05-01T08:40:03.987Z</time></trkpt><trkpt lat="41.4508698" lon="13.1849781"><ele>101.0</ele><time>2026-05-01T08:40:23.987Z</time></trkpt><trkpt lat="41.4508122" lon="13.18512"><ele>101.0</ele><time>2026-05-01T08:40:25.987Z</time></trkpt><trkpt lat="41.4507687" lon="13.1852175"><ele>101.0</ele><time>2026-05-01T08:40:26.987Z</time></trkpt><trkpt lat="41.4507069" lon="13.1853546"><ele>101.0</ele><time>2026-05-01T08:40:28.987Z</time></trkpt><trkpt lat="41.4506967" lon="13.1855"><ele>101.0</ele><time>2026-05-01T08:40:30.987Z</time></trkpt><trkpt lat="41.4507074" lon="13.1856159"><ele>101.0</ele><time>2026-05-01T08:40:32.988Z</time></trkpt><trkpt lat="41.4506477" lon="13.1857278"><ele>101.0</ele><time>2026-05-01T08:40:34.987Z</time></trkpt><trkpt lat="41.4505849" lon="13.1856863"><ele>101.0</ele><time>2026-05-01T08:40:38.986Z</time></trkpt><trkpt lat="41.4505845" lon="13.1855912"><ele>101.0</ele><time>2026-05-01T08:40:50.988Z</time></trkpt><trkpt lat="41.4506028" lon="13.1856765"><ele>101.0</ele><time>2026-05-01T08:40:53.987Z</time></trkpt><trkpt lat="41.4506885" lon="13.1857074"><ele>101.0</ele><time>2026-05-01T08:40:55.987Z</time></trkpt><trkpt lat="41.4507322" lon="13.185623"><ele>101.0</ele><time>2026-05-01T08:40:59.988Z</time></trkpt><trkpt lat="41.4506655" lon="13.1855866"><ele>101.0</ele><time>2026-05-01T08:41:26.987Z</time></trkpt><trkpt lat="41.4506227" lon="13.1856849"><ele>101.0</ele><time>2026-05-01T08:41:30.987Z</time></trkpt><trkpt lat="41.450558" lon="13.1855901"><ele>101.0</ele><time>2026-05-01T08:41:33.986Z</time></trkpt><trkpt lat="41.4504841" lon="13.1854062"><ele>101.0</ele><time>2026-05-01T08:41:35.988Z</time></trkpt><trkpt lat="41.4504393" lon="13.185328"><ele>101.0</ele><time>2026-05-01T08:41:36.987Z</time></trkpt><trkpt lat="41.4504153" lon="13.1852106"><ele>101.0</ele><time>2026-05-01T08:41:38.987Z</time></trkpt><trkpt lat="41.4504411" lon="13.1853059"><ele>100.99999999999999</ele><time>2026-05-01T08:41:52.986Z</time></trkpt><trkpt lat="41.450488" lon="13.1853882"><ele>101.0</ele><time>2026-05-01T08:41:53.986Z</time></trkpt><trkpt lat="41.4505314" lon="13.1854609"><ele>101.0</ele><time>2026-05-01T08:41:54.986Z</time></trkpt><trkpt lat="41.4505787" lon="13.1855917"><ele>101.0</ele><time>2026-05-01T08:41:56.985Z</time></trkpt><trkpt lat="41.4505469" lon="13.1856718"><ele>100.99999999999999</ele><time>2026-05-01T08:42:00.985Z</time></trkpt><trkpt lat="41.4504731" lon="13.1856393"><ele>101.0</ele><time>2026-05-01T08:42:01.987Z</time></trkpt><trkpt lat="41.4503639" lon="13.1855642"><ele>100.99999999999999</ele><time>2026-05-01T08:42:03.986Z</time></trkpt><trkpt lat="41.4502572" lon="13.1855537"><ele>101.0</ele><time>2026-05-01T08:42:05.986Z</time></trkpt><trkpt lat="41.4502012" lon="13.1855966"><ele>101.0</ele><time>2026-05-01T08:42:06.987Z</time></trkpt><trkpt lat="41.4501288" lon="13.1856278"><ele>101.0</ele><time>2026-05-01T08:42:07.986Z</time></trkpt><trkpt lat="41.4500677" lon="13.1856564"><ele>100.99999999999999</ele><time>2026-05-01T08:42:08.986Z</time></trkpt><trkpt lat="41.4500063" lon="13.1856832"><ele>101.0</ele><time>2026-05-01T08:42:09.986Z</time></trkpt><trkpt lat="41.4498939" lon="13.1857421"><ele>101.0</ele><time>2026-05-01T08:42:11.985Z</time></trkpt><trkpt lat="41.4497887" lon="13.1858009"><ele>101.0</ele><time>2026-05-01T08:42:13.986Z</time></trkpt><trkpt lat="41.449707" lon="13.1858116"><ele>101.0</ele><time>2026-05-01T08:42:15.985Z</time></trkpt><trkpt lat="41.4496448" lon="13.185748"><ele>101.0</ele><time>2026-05-01T08:42:17.985Z</time></trkpt><trkpt lat="41.4495793" lon="13.1856607"><ele>101.0</ele><time>2026-05-01T08:42:19.986Z</time></trkpt><trkpt lat="41.4495085" lon="13.1855638"><ele>100.0</ele><time>2026-05-01T08:42:21.986Z</time></trkpt><trkpt lat="41.4494332" lon="13.1855127"><ele>99.0</ele><time>2026-05-01T08:42:23.986Z</time></trkpt><trkpt lat="41.4493591" lon="13.185485"><ele>98.0</ele><time>2026-05-01T08:42:27.986Z</time></trkpt><trkpt lat="41.4493062" lon="13.1853341"><ele>97.0</ele><time>2026-05-01T08:42:30.987Z</time></trkpt><trkpt lat="41.4492374" lon="13.1851807"><ele>96.0</ele><time>2026-05-01T08:42:32.986Z</time></trkpt><trkpt lat="41.4492116" lon="13.1850376"><ele>96.0</ele><time>2026-05-01T08:42:33.986Z</time></trkpt><trkpt lat="41.4491706" lon="13.184917"><ele>96.0</ele><time>2026-05-01T08:42:34.986Z</time></trkpt><trkpt lat="41.4491263" lon="13.1847936"><ele>96.0</ele><time>2026-05-01T08:42:35.986Z</time></trkpt><trkpt lat="41.4490797" lon="13.1846787"><ele>96.0</ele><time>2026-05-01T08:42:36.986Z</time></trkpt><trkpt lat="41.449033" lon="13.1845874"><ele>96.0</ele><time>2026-05-01T08:42:37.987Z</time></trkpt><trkpt lat="41.448986" lon="13.1845075"><ele>96.33333333333333</ele><time>2026-05-01T08:42:38.986Z</time></trkpt><trkpt lat="41.4489397" lon="13.1844249"><ele>96.66666666666666</ele><time>2026-05-01T08:42:39.985Z</time></trkpt><trkpt lat="41.4488777" lon="13.1843236"><ele>97.0</ele><time>2026-05-01T08:42:40.986Z</time></trkpt><trkpt lat="41.4488065" lon="13.1842601"><ele>97.33333333333333</ele><time>2026-05-01T08:42:41.985Z</time></trkpt><trkpt lat="41.4487464" lon="13.1841895"><ele>97.66666666666666</ele><time>2026-05-01T08:42:42.986Z</time></trkpt><trkpt lat="41.4486947" lon="13.1841359"><ele>98.0</ele><time>2026-05-01T08:42:43.986Z</time></trkpt><trkpt lat="41.4486356" lon="13.1840729"><ele>97.99999999999999</ele><time>2026-05-01T08:42:44.986Z</time></trkpt><trkpt lat="41.4485735" lon="13.1840063"><ele>98.0</ele><time>2026-05-01T08:42:45.986Z</time></trkpt><trkpt lat="41.4485013" lon="13.1839353"><ele>98.0</ele><time>2026-05-01T08:42:46.985Z</time></trkpt><trkpt lat="41.4484243" lon="13.1838728"><ele>98.0</ele><time>2026-05-01T08:42:47.986Z</time></trkpt><trkpt lat="41.4483478" lon="13.1838048"><ele>97.99999999999999</ele><time>2026-05-01T08:42:48.986Z</time></trkpt><trkpt lat="41.4482695" lon="13.1837391"><ele>98.0</ele><time>2026-05-01T08:42:49.986Z</time></trkpt><trkpt lat="41.4481899" lon="13.1836722"><ele>98.0</ele><time>2026-05-01T08:42:50.986Z</time></trkpt><trkpt lat="41.4481107" lon="13.1835985"><ele>98.0</ele><time>2026-05-01T08:42:51.986Z</time></trkpt><trkpt lat="41.4480275" lon="13.183517"><ele>98.0</ele><time>2026-05-01T08:42:52.987Z</time></trkpt><trkpt lat="41.4479412" lon="13.1834356"><ele>98.0</ele><time>2026-05-01T08:42:53.986Z</time></trkpt><trkpt lat="41.4478531" lon="13.1833457"><ele>98.0</ele><time>2026-05-01T08:42:54.986Z</time></trkpt><trkpt lat="41.4477667" lon="13.1832564"><ele>97.49999999999999</ele><time>2026-05-01T08:42:55.986Z</time></trkpt><trkpt lat="41.4476843" lon="13.1831745"><ele>97.0</ele><time>2026-05-01T08:42:56.986Z</time></trkpt><trkpt lat="41.4476064" lon="13.1830932"><ele>96.5</ele><time>2026-05-01T08:42:57.986Z</time></trkpt><trkpt lat="41.4475324" lon="13.1830252"><ele>96.0</ele><time>2026-05-01T08:42:58.986Z</time></trkpt><trkpt lat="41.4474701" lon="13.1829575"><ele>95.5</ele><time>2026-05-01T08:42:59.986Z</time></trkpt><trkpt lat="41.4474101" lon="13.1828936"><ele>95.0</ele><time>2026-05-01T08:43:00.986Z</time></trkpt><trkpt lat="41.447349" lon="13.1828308"><ele>95.0</ele><time>2026-05-01T08:43:01.986Z</time></trkpt><trkpt lat="41.4472814" lon="13.1827635"><ele>95.0</ele><time>2026-05-01T08:43:02.986Z</time></trkpt><trkpt lat="41.4472237" lon="13.1827054"><ele>95.0</ele><time>2026-05-01T08:43:03.986Z</time></trkpt><trkpt lat="41.4471779" lon="13.1826426"><ele>95.0</ele><time>2026-05-01T08:43:04.986Z</time></trkpt><trkpt lat="41.4470908" lon="13.1826175"><ele>95.0</ele><time>2026-05-01T08:43:06.987Z</time></trkpt><trkpt lat="41.4470059" lon="13.1826621"><ele>95.0</ele><time>2026-05-01T08:43:08.986Z</time></trkpt><trkpt lat="41.4470066" lon="13.1827519"><ele>95.0</ele><time>2026-05-01T08:43:09.987Z</time></trkpt><trkpt lat="41.4470016" lon="13.1828437"><ele>95.0</ele><time>2026-05-01T08:43:10.986Z</time></trkpt><trkpt lat="41.446974" lon="13.1829537"><ele>95.0</ele><time>2026-05-01T08:43:11.987Z</time></trkpt><trkpt lat="41.4469452" lon="13.1830341"><ele>95.0</ele><time>2026-05-01T08:43:12.986Z</time></trkpt><trkpt lat="41.4469079" lon="13.1832039"><ele>95.0</ele><time>2026-05-01T08:43:14.985Z</time></trkpt><trkpt lat="41.4468998" lon="13.18329"><ele>95.0</ele><time>2026-05-01T08:43:15.985Z</time></trkpt><trkpt lat="41.4469312" lon="13.1834164"><ele>95.0</ele><time>2026-05-01T08:43:16.987Z</time></trkpt><trkpt lat="41.4469125" lon="13.183512"><ele>95.0</ele><time>2026-05-01T08:43:17.986Z</time></trkpt><trkpt lat="41.4469445" lon="13.1836175"><ele>95.0</ele><time>2026-05-01T08:43:18.986Z</time></trkpt><trkpt lat="41.4469561" lon="13.1837555"><ele>95.0</ele><time>2026-05-01T08:43:19.986Z</time></trkpt><trkpt lat="41.4469642" lon="13.1838665"><ele>95.0</ele><time>2026-05-01T08:43:20.986Z</time></trkpt><trkpt lat="41.4469459" lon="13.1839526"><ele>95.0</ele><time>2026-05-01T08:43:21.985Z</time></trkpt><trkpt lat="41.4469513" lon="13.1840439"><ele>95.0</ele><time>2026-05-01T08:43:23.986Z</time></trkpt><trkpt lat="41.4469482" lon="13.1841429"><ele>95.0</ele><time>2026-05-01T08:43:25.986Z</time></trkpt><trkpt lat="41.4469039" lon="13.1842696"><ele>95.0</ele><time>2026-05-01T08:43:27.986Z</time></trkpt><trkpt lat="41.446901" lon="13.1843814"><ele>95.0</ele><time>2026-05-01T08:43:29.986Z</time></trkpt><trkpt lat="41.4469207" lon="13.1844895"><ele>95.0</ele><time>2026-05-01T08:43:31.987Z</time></trkpt><trkpt lat="41.4469176" lon="13.184603"><ele>95.0</ele><time>2026-05-01T08:43:33.986Z</time></trkpt><trkpt lat="41.4469447" lon="13.1846969"><ele>95.0</ele><time>2026-05-01T08:43:35.986Z</time></trkpt><trkpt lat="41.4469809" lon="13.1847789"><ele>95.0</ele><time>2026-05-01T08:43:38.986Z</time></trkpt><trkpt lat="41.4470018" lon="13.1848666"><ele>95.0</ele><time>2026-05-01T08:43:40.986Z</time></trkpt><trkpt lat="41.4469445" lon="13.1850374"><ele>95.0</ele><time>2026-05-01T08:43:42.986Z</time></trkpt><trkpt lat="41.4469284" lon="13.1851628"><ele>95.0</ele><time>2026-05-01T08:43:44.986Z</time></trkpt><trkpt lat="41.4469024" lon="13.1852886"><ele>94.2</ele><time>2026-05-01T08:43:46.985Z</time></trkpt><trkpt lat="41.4468639" lon="13.1853887"><ele>93.4</ele><time>2026-05-01T08:43:47.987Z</time></trkpt><trkpt lat="41.4467688" lon="13.1854724"><ele>92.6</ele><time>2026-05-01T08:43:49.986Z</time></trkpt><trkpt lat="41.4466933" lon="13.1855432"><ele>91.8</ele><time>2026-05-01T08:43:51.986Z</time></trkpt><trkpt lat="41.4466098" lon="13.1856333"><ele>91.0</ele><time>2026-05-01T08:43:53.986Z</time></trkpt><trkpt lat="41.4465194" lon="13.1856905"><ele>90.0</ele><time>2026-05-01T08:43:55.986Z</time></trkpt><trkpt lat="41.4464247" lon="13.1857124"><ele>89.0</ele><time>2026-05-01T08:43:57.986Z</time></trkpt><trkpt lat="41.4463754" lon="13.1858688"><ele>88.0</ele><time>2026-05-01T08:43:59.985Z</time></trkpt><trkpt lat="41.4463508" lon="13.1859609"><ele>87.0</ele><time>2026-05-01T08:44:00.986Z</time></trkpt><trkpt lat="41.4463285" lon="13.1860524"><ele>86.0</ele><time>2026-05-01T08:44:01.986Z</time></trkpt><trkpt lat="41.4462975" lon="13.186138"><ele>85.0</ele><time>2026-05-01T08:44:02.986Z</time></trkpt><trkpt lat="41.4462648" lon="13.1862232"><ele>85.0</ele><time>2026-05-01T08:44:03.986Z</time></trkpt><trkpt lat="41.4462187" lon="13.186336"><ele>85.0</ele><time>2026-05-01T08:44:05.986Z</time></trkpt><trkpt lat="41.446163" lon="13.1864791"><ele>85.0</ele><time>2026-05-01T08:44:07.986Z</time></trkpt><trkpt lat="41.4461212" lon="13.1865503"><ele>85.0</ele><time>2026-05-01T08:44:08.985Z</time></trkpt><trkpt lat="41.4460886" lon="13.1866334"><ele>85.0</ele><time>2026-05-01T08:44:09.985Z</time></trkpt><trkpt lat="41.4460538" lon="13.1867212"><ele>85.0</ele><time>2026-05-01T08:44:10.984Z</time></trkpt><trkpt lat="41.4460409" lon="13.1868167"><ele>83.0</ele><time>2026-05-01T08:44:11.985Z</time></trkpt><trkpt lat="41.4460357" lon="13.1869652"><ele>81.0</ele><time>2026-05-01T08:44:13.985Z</time></trkpt><trkpt lat="41.4460044" lon="13.1871077"><ele>79.0</ele><time>2026-05-01T08:44:15.985Z</time></trkpt><trkpt lat="41.4459553" lon="13.1871851"><ele>77.0</ele><time>2026-05-01T08:44:16.985Z</time></trkpt><trkpt lat="41.4459134" lon="13.1872494"><ele>75.0</ele><time>2026-05-01T08:44:17.985Z</time></trkpt><trkpt lat="41.4458164" lon="13.187345"><ele>73.71428571428571</ele><time>2026-05-01T08:44:19.986Z</time></trkpt><trkpt lat="41.4457631" lon="13.1873986"><ele>72.42857142857143</ele><time>2026-05-01T08:44:20.985Z</time></trkpt><trkpt lat="41.4456935" lon="13.1874264"><ele>71.14285714285714</ele><time>2026-05-01T08:44:21.985Z</time></trkpt><trkpt lat="41.445627" lon="13.1874538"><ele>69.85714285714286</ele><time>2026-05-01T08:44:22.985Z</time></trkpt><trkpt lat="41.4455542" lon="13.1874555"><ele>68.57142857142857</ele><time>2026-05-01T08:44:23.985Z</time></trkpt><trkpt lat="41.4454809" lon="13.1874472"><ele>67.28571428571428</ele><time>2026-05-01T08:44:24.984Z</time></trkpt><trkpt lat="41.445407" lon="13.1874188"><ele>66.0</ele><time>2026-05-01T08:44:25.985Z</time></trkpt><trkpt lat="41.445331" lon="13.1874551"><ele>66.0</ele><time>2026-05-01T08:44:26.984Z</time></trkpt><trkpt lat="41.4452327" lon="13.1874656"><ele>66.0</ele><time>2026-05-01T08:44:28.985Z</time></trkpt><trkpt lat="41.4450933" lon="13.187469"><ele>66.0</ele><time>2026-05-01T08:44:30.984Z</time></trkpt><trkpt lat="41.4450179" lon="13.1874777"><ele>66.0</ele><time>2026-05-01T08:44:31.985Z</time></trkpt><trkpt lat="41.4449563" lon="13.1875087"><ele>66.0</ele><time>2026-05-01T08:44:32.985Z</time></trkpt><trkpt lat="41.4448791" lon="13.1875106"><ele>66.0</ele><time>2026-05-01T08:44:33.986Z</time></trkpt><trkpt lat="41.4448151" lon="13.1875446"><ele>66.0</ele><time>2026-05-01T08:44:34.985Z</time></trkpt><trkpt lat="41.4447467" lon="13.1875772"><ele>66.0</ele><time>2026-05-01T08:44:35.985Z</time></trkpt><trkpt lat="41.4446742" lon="13.1876234"><ele>66.0</ele><time>2026-05-01T08:44:36.986Z</time></trkpt><trkpt lat="41.444608" lon="13.1876449"><ele>66.0</ele><time>2026-05-01T08:44:37.985Z</time></trkpt><trkpt lat="41.4445384" lon="13.1876795"><ele>66.0</ele><time>2026-05-01T08:44:38.985Z</time></trkpt><trkpt lat="41.4444646" lon="13.1877203"><ele>66.0</ele><time>2026-05-01T08:44:39.985Z</time></trkpt><trkpt lat="41.4443911" lon="13.1877556"><ele>66.0</ele><time>2026-05-01T08:44:40.985Z</time></trkpt><trkpt lat="41.4443274" lon="13.1877569"><ele>66.0</ele><time>2026-05-01T08:44:41.986Z</time></trkpt><trkpt lat="41.4442442" lon="13.1877685"><ele>66.0</ele><time>2026-05-01T08:44:42.985Z</time></trkpt><trkpt lat="41.444162" lon="13.187769"><ele>66.0</ele><time>2026-05-01T08:44:43.986Z</time></trkpt><trkpt lat="41.4440821" lon="13.1877578"><ele>66.0</ele><time>2026-05-01T08:44:44.985Z</time></trkpt><trkpt lat="41.4440183" lon="13.1877592"><ele>66.0</ele><time>2026-05-01T08:44:45.986Z</time></trkpt><trkpt lat="41.4439288" lon="13.1877516"><ele>66.0</ele><time>2026-05-01T08:44:46.985Z</time></trkpt><trkpt lat="41.4438562" lon="13.1877612"><ele>66.0</ele><time>2026-05-01T08:44:47.986Z</time></trkpt><trkpt lat="41.4437807" lon="13.1878231"><ele>66.0</ele><time>2026-05-01T08:44:48.985Z</time></trkpt><trkpt lat="41.4437064" lon="13.1878778"><ele>66.0</ele><time>2026-05-01T08:44:49.985Z</time></trkpt><trkpt lat="41.4436297" lon="13.1879246"><ele>66.0</ele><time>2026-05-01T08:44:50.985Z</time></trkpt><trkpt lat="41.4435692" lon="13.1879625"><ele>66.0</ele><time>2026-05-01T08:44:51.985Z</time></trkpt><trkpt lat="41.4434265" lon="13.1880189"><ele>65.5</ele><time>2026-05-01T08:44:53.984Z</time></trkpt><trkpt lat="41.443352" lon="13.1880462"><ele>65.0</ele><time>2026-05-01T08:44:54.984Z</time></trkpt><trkpt lat="41.4432786" lon="13.1880738"><ele>64.5</ele><time>2026-05-01T08:44:55.986Z</time></trkpt><trkpt lat="41.443201" lon="13.1881001"><ele>64.0</ele><time>2026-05-01T08:44:56.985Z</time></trkpt><trkpt lat="41.443112" lon="13.1881356"><ele>63.5</ele><time>2026-05-01T08:44:57.986Z</time></trkpt><trkpt lat="41.4430187" lon="13.1881773"><ele>63.0</ele><time>2026-05-01T08:44:58.985Z</time></trkpt><trkpt lat="41.4429216" lon="13.1882351"><ele>61.599999999999994</ele><time>2026-05-01T08:44:59.984Z</time></trkpt><trkpt lat="41.4428434" lon="13.1882686"><ele>60.199999999999996</ele><time>2026-05-01T08:45:00.985Z</time></trkpt><trkpt lat="41.4427494" lon="13.188306"><ele>58.8</ele><time>2026-05-01T08:45:01.985Z</time></trkpt><trkpt lat="41.4426535" lon="13.1883312"><ele>57.4</ele><time>2026-05-01T08:45:02.985Z</time></trkpt><trkpt lat="41.4425719" lon="13.1883376"><ele>56.0</ele><time>2026-05-01T08:45:03.984Z</time></trkpt><trkpt lat="41.4424721" lon="13.1883922"><ele>56.00000000000001</ele><time>2026-05-01T08:45:04.984Z</time></trkpt><trkpt lat="41.4423948" lon="13.1884069"><ele>56.0</ele><time>2026-05-01T08:45:06.985Z</time></trkpt><trkpt lat="41.4422758" lon="13.1884425"><ele>56.0</ele><time>2026-05-01T08:45:08.985Z</time></trkpt><trkpt lat="41.442208" lon="13.1884654"><ele>56.0</ele><time>2026-05-01T08:45:09.984Z</time></trkpt><trkpt lat="41.4421363" lon="13.1884724"><ele>56.00000000000001</ele><time>2026-05-01T08:45:10.985Z</time></trkpt><trkpt lat="41.4420575" lon="13.1884426"><ele>56.0</ele><time>2026-05-01T08:46:05.986Z</time></trkpt><trkpt lat="41.4419698" lon="13.1883886"><ele>55.66666666666667</ele><time>2026-05-01T08:46:07.984Z</time></trkpt><trkpt lat="41.4418714" lon="13.1883355"><ele>55.333333333333336</ele><time>2026-05-01T08:46:08.985Z</time></trkpt><trkpt lat="41.4417727" lon="13.1882701"><ele>55.0</ele><time>2026-05-01T08:46:09.985Z</time></trkpt><trkpt lat="41.4417017" lon="13.1882296"><ele>54.66666666666667</ele><time>2026-05-01T08:46:10.985Z</time></trkpt><trkpt lat="41.4416328" lon="13.1882028"><ele>54.333333333333336</ele><time>2026-05-01T08:46:11.986Z</time></trkpt><trkpt lat="41.4415772" lon="13.1881628"><ele>54.0</ele><time>2026-05-01T08:47:23.984Z</time></trkpt><trkpt lat="41.4415112" lon="13.188157"><ele>55.833333333333336</ele><time>2026-05-01T08:47:27.983Z</time></trkpt><trkpt lat="41.4414571" lon="13.1881049"><ele>57.66666666666667</ele><time>2026-05-01T08:52:05.982Z</time></trkpt><trkpt lat="41.4413232" lon="13.1880945"><ele>59.5</ele><time>2026-05-01T08:52:07.982Z</time></trkpt><trkpt lat="41.4412582" lon="13.1880981"><ele>61.333333333333336</ele><time>2026-05-01T08:52:08.982Z</time></trkpt><trkpt lat="41.4411666" lon="13.1881076"><ele>63.16666666666667</ele><time>2026-05-01T08:52:11.982Z</time></trkpt><trkpt lat="41.4410838" lon="13.1881142"><ele>65.0</ele><time>2026-05-01T08:52:13.982Z</time></trkpt><trkpt lat="41.4410165" lon="13.1881032"><ele>65.5</ele><time>2026-05-01T08:52:15.982Z</time></trkpt><trkpt lat="41.4409366" lon="13.188142"><ele>66.0</ele><time>2026-05-01T08:52:17.983Z</time></trkpt><trkpt lat="41.4408383" lon="13.1882273"><ele>66.5</ele><time>2026-05-01T08:52:19.982Z</time></trkpt><trkpt lat="41.4407753" lon="13.1882888"><ele>67.0</ele><time>2026-05-01T08:52:20.982Z</time></trkpt><trkpt lat="41.4407182" lon="13.1883372"><ele>67.5</ele><time>2026-05-01T08:52:21.982Z</time></trkpt><trkpt lat="41.4406652" lon="13.1883987"><ele>68.0</ele><time>2026-05-01T08:52:22.982Z</time></trkpt><trkpt lat="41.4406051" lon="13.1884567"><ele>67.0</ele><time>2026-05-01T08:52:23.983Z</time></trkpt><trkpt lat="41.440547" lon="13.1885044"><ele>66.0</ele><time>2026-05-01T08:52:24.982Z</time></trkpt><trkpt lat="41.4404726" lon="13.1885394"><ele>65.0</ele><time>2026-05-01T08:52:25.983Z</time></trkpt><trkpt lat="41.4404084" lon="13.1885706"><ele>64.0</ele><time>2026-05-01T08:52:26.981Z</time></trkpt><trkpt lat="41.4403189" lon="13.1885967"><ele>63.00000000000001</ele><time>2026-05-01T08:52:27.983Z</time></trkpt><trkpt lat="41.4402604" lon="13.188649"><ele>62.0</ele><time>2026-05-01T08:52:28.981Z</time></trkpt><trkpt lat="41.4401401" lon="13.1886793"><ele>62.0</ele><time>2026-05-01T08:52:30.981Z</time></trkpt><trkpt lat="41.4400588" lon="13.1887386"><ele>62.0</ele><time>2026-05-01T08:52:33.982Z</time></trkpt><trkpt lat="41.4399973" lon="13.1888195"><ele>62.0</ele><time>2026-05-01T08:52:36.982Z</time></trkpt><trkpt lat="41.4399622" lon="13.1889189"><ele>62.0</ele><time>2026-05-01T08:52:38.982Z</time></trkpt><trkpt lat="41.4399185" lon="13.1890642"><ele>62.0</ele><time>2026-05-01T08:52:40.982Z</time></trkpt><trkpt lat="41.4398261" lon="13.1891299"><ele>60.50000000000001</ele><time>2026-05-01T08:52:42.981Z</time></trkpt><trkpt lat="41.4397612" lon="13.189221"><ele>59.0</ele><time>2026-05-01T08:52:44.982Z</time></trkpt><trkpt lat="41.4397234" lon="13.1893143"><ele>57.5</ele><time>2026-05-01T08:52:46.982Z</time></trkpt><trkpt lat="41.4396715" lon="13.1893871"><ele>56.0</ele><time>2026-05-01T08:52:48.982Z</time></trkpt><trkpt lat="41.4396033" lon="13.1894453"><ele>54.50000000000001</ele><time>2026-05-01T08:52:50.982Z</time></trkpt><trkpt lat="41.4395441" lon="13.1894748"><ele>53.0</ele><time>2026-05-01T08:52:51.982Z</time></trkpt><trkpt lat="41.4394242" lon="13.1895094"><ele>52.66666666666667</ele><time>2026-05-01T08:52:53.981Z</time></trkpt><trkpt lat="41.4393582" lon="13.1895329"><ele>52.333333333333336</ele><time>2026-05-01T08:52:54.982Z</time></trkpt><trkpt lat="41.4392897" lon="13.1895446"><ele>52.0</ele><time>2026-05-01T08:52:55.982Z</time></trkpt><trkpt lat="41.4392171" lon="13.1895548"><ele>51.66666666666667</ele><time>2026-05-01T08:52:56.982Z</time></trkpt><trkpt lat="41.4391344" lon="13.1895659"><ele>51.333333333333336</ele><time>2026-05-01T08:52:57.983Z</time></trkpt><trkpt lat="41.4390592" lon="13.1895695"><ele>51.0</ele><time>2026-05-01T08:52:58.982Z</time></trkpt><trkpt lat="41.438904" lon="13.1895963"><ele>51.0</ele><time>2026-05-01T08:53:00.982Z</time></trkpt><trkpt lat="41.4388308" lon="13.1896045"><ele>51.0</ele><time>2026-05-01T08:53:01.982Z</time></trkpt><trkpt lat="41.4387482" lon="13.1896465"><ele>51.0</ele><time>2026-05-01T08:53:02.981Z</time></trkpt><trkpt lat="41.4386844" lon="13.1896363"><ele>51.0</ele><time>2026-05-01T08:53:03.982Z</time></trkpt><trkpt lat="41.4386183" lon="13.1896755"><ele>51.0</ele><time>2026-05-01T08:53:05.982Z</time></trkpt><trkpt lat="41.4385495" lon="13.1897025"><ele>51.0</ele><time>2026-05-01T08:53:06.982Z</time></trkpt><trkpt lat="41.4384927" lon="13.1897432"><ele>51.0</ele><time>2026-05-01T08:53:07.982Z</time></trkpt><trkpt lat="41.4384088" lon="13.1897979"><ele>49.599999999999994</ele><time>2026-05-01T08:53:08.982Z</time></trkpt><trkpt lat="41.4383289" lon="13.1898425"><ele>48.2</ele><time>2026-05-01T08:53:09.982Z</time></trkpt><trkpt lat="41.4382511" lon="13.1898781"><ele>46.8</ele><time>2026-05-01T08:53:10.983Z</time></trkpt><trkpt lat="41.4381363" lon="13.1899364"><ele>45.400000000000006</ele><time>2026-05-01T08:53:12.982Z</time></trkpt><trkpt lat="41.4380613" lon="13.1899859"><ele>44.0</ele><time>2026-05-01T08:53:13.981Z</time></trkpt><trkpt lat="41.437968" lon="13.1900928"><ele>43.5</ele><time>2026-05-01T08:53:15.982Z</time></trkpt><trkpt lat="41.4378656" lon="13.1901559"><ele>43.0</ele><time>2026-05-01T08:53:17.982Z</time></trkpt><trkpt lat="41.4378017" lon="13.1901628"><ele>42.5</ele><time>2026-05-01T08:53:18.982Z</time></trkpt><trkpt lat="41.437738" lon="13.1901851"><ele>42.0</ele><time>2026-05-01T08:53:19.981Z</time></trkpt><trkpt lat="41.4376696" lon="13.1902133"><ele>41.5</ele><time>2026-05-01T08:53:20.982Z</time></trkpt><trkpt lat="41.437601" lon="13.1902223"><ele>41.0</ele><time>2026-05-01T08:53:21.981Z</time></trkpt><trkpt lat="41.4375067" lon="13.1902427"><ele>41.0</ele><time>2026-05-01T08:53:23.983Z</time></trkpt><trkpt lat="41.4374315" lon="13.190279"><ele>41.0</ele><time>2026-05-01T08:53:35.982Z</time></trkpt><trkpt lat="41.4373606" lon="13.1903133"><ele>41.0</ele><time>2026-05-01T08:53:36.981Z</time></trkpt><trkpt lat="41.437273" lon="13.1903712"><ele>41.0</ele><time>2026-05-01T08:53:39.982Z</time></trkpt><trkpt lat="41.4372126" lon="13.1904306"><ele>41.0</ele><time>2026-05-01T08:53:41.982Z</time></trkpt><trkpt lat="41.4371532" lon="13.1904833"><ele>41.0</ele><time>2026-05-01T08:53:43.981Z</time></trkpt><trkpt lat="41.4370736" lon="13.1905657"><ele>40.83333333333333</ele><time>2026-05-01T08:53:45.982Z</time></trkpt><trkpt lat="41.4369752" lon="13.1906435"><ele>40.666666666666664</ele><time>2026-05-01T08:53:47.981Z</time></trkpt><trkpt lat="41.4369356" lon="13.190721"><ele>40.5</ele><time>2026-05-01T08:53:49.981Z</time></trkpt><trkpt lat="41.4368335" lon="13.1907521"><ele>40.333333333333336</ele><time>2026-05-01T08:53:52.981Z</time></trkpt><trkpt lat="41.4367713" lon="13.1907776"><ele>40.16666666666667</ele><time>2026-05-01T08:54:01.981Z</time></trkpt><trkpt lat="41.4367142" lon="13.1908197"><ele>40.0</ele><time>2026-05-01T08:54:04.981Z</time></trkpt><trkpt lat="41.4366688" lon="13.1909285"><ele>38.8</ele><time>2026-05-01T08:54:06.981Z</time></trkpt><trkpt lat="41.4366284" lon="13.1910648"><ele>37.6</ele><time>2026-05-01T08:54:08.981Z</time></trkpt><trkpt lat="41.4366249" lon="13.1912501"><ele>36.4</ele><time>2026-05-01T08:54:10.981Z</time></trkpt><trkpt lat="41.4366707" lon="13.1913968"><ele>35.2</ele><time>2026-05-01T08:54:12.981Z</time></trkpt><trkpt lat="41.4366811" lon="13.1914907"><ele>34.0</ele><time>2026-05-01T08:54:14.981Z</time></trkpt><trkpt lat="41.4366842" lon="13.1914017"><ele>34.0</ele><time>2026-05-01T08:55:09.981Z</time></trkpt><trkpt lat="41.4366541" lon="13.191253"><ele>34.0</ele><time>2026-05-01T08:55:11.981Z</time></trkpt><trkpt lat="41.4366503" lon="13.1910932"><ele>34.0</ele><time>2026-05-01T08:55:13.981Z</time></trkpt><trkpt lat="41.4366798" lon="13.1909522"><ele>34.0</ele><time>2026-05-01T08:55:15.981Z</time></trkpt><trkpt lat="41.4367345" lon="13.1908343"><ele>34.0</ele><time>2026-05-01T08:55:17.981Z</time></trkpt><trkpt lat="41.4367675" lon="13.1907499"><ele>35.0</ele><time>2026-05-01T08:55:19.981Z</time></trkpt><trkpt lat="41.4367524" lon="13.1906654"><ele>36.0</ele><time>2026-05-01T08:55:21.98Z</time></trkpt><trkpt lat="41.4367002" lon="13.19057"><ele>37.0</ele><time>2026-05-01T08:55:23.981Z</time></trkpt><trkpt lat="41.4366229" lon="13.1904962"><ele>38.0</ele><time>2026-05-01T08:55:24.981Z</time></trkpt><trkpt lat="41.4365325" lon="13.1903942"><ele>39.0</ele><time>2026-05-01T08:55:26.982Z</time></trkpt><trkpt lat="41.4364987" lon="13.1903153"><ele>40.0</ele><time>2026-05-01T08:55:27.981Z</time></trkpt><trkpt lat="41.4364656" lon="13.190241"><ele>40.0</ele><time>2026-05-01T08:55:28.981Z</time></trkpt><trkpt lat="41.4364076" lon="13.1901831"><ele>40.0</ele><time>2026-05-01T08:55:30.98Z</time></trkpt><trkpt lat="41.4362973" lon="13.1901175"><ele>40.0</ele><time>2026-05-01T08:55:32.981Z</time></trkpt><trkpt lat="41.4362011" lon="13.1900989"><ele>40.0</ele><time>2026-05-01T08:55:34.982Z</time></trkpt><trkpt lat="41.4361321" lon="13.190079"><ele>40.0</ele><time>2026-05-01T08:55:35.98Z</time></trkpt><trkpt lat="41.4359838" lon="13.189984"><ele>40.6</ele><time>2026-05-01T08:55:37.981Z</time></trkpt><trkpt lat="41.4359054" lon="13.1899145"><ele>41.2</ele><time>2026-05-01T08:55:38.982Z</time></trkpt><trkpt lat="41.4358256" lon="13.1898391"><ele>41.8</ele><time>2026-05-01T08:55:39.98Z</time></trkpt><trkpt lat="41.4357315" lon="13.1897625"><ele>42.4</ele><time>2026-05-01T08:55:40.981Z</time></trkpt><trkpt lat="41.4356488" lon="13.1896752"><ele>43.0</ele><time>2026-05-01T08:55:41.98Z</time></trkpt><trkpt lat="41.4355637" lon="13.1896126"><ele>43.0</ele><time>2026-05-01T08:55:42.981Z</time></trkpt><trkpt lat="41.4354791" lon="13.1895404"><ele>43.0</ele><time>2026-05-01T08:55:43.982Z</time></trkpt><trkpt lat="41.4354119" lon="13.189439"><ele>43.0</ele><time>2026-05-01T08:55:44.981Z</time></trkpt><trkpt lat="41.4353646" lon="13.1893557"><ele>43.0</ele><time>2026-05-01T08:55:45.981Z</time></trkpt><trkpt lat="41.4353155" lon="13.1892807"><ele>43.0</ele><time>2026-05-01T08:55:46.981Z</time></trkpt><trkpt lat="41.4352681" lon="13.1891952"><ele>43.0</ele><time>2026-05-01T08:55:47.981Z</time></trkpt><trkpt lat="41.435254" lon="13.1891113"><ele>43.0</ele><time>2026-05-01T08:55:48.981Z</time></trkpt><trkpt lat="41.4352305" lon="13.189013"><ele>43.0</ele><time>2026-05-01T08:55:49.981Z</time></trkpt><trkpt lat="41.4352049" lon="13.1889102"><ele>43.0</ele><time>2026-05-01T08:55:50.981Z</time></trkpt><trkpt lat="41.4351728" lon="13.1888102"><ele>43.0</ele><time>2026-05-01T08:55:51.981Z</time></trkpt><trkpt lat="41.4351259" lon="13.1887203"><ele>43.0</ele><time>2026-05-01T08:55:52.981Z</time></trkpt><trkpt lat="41.4351014" lon="13.1886047"><ele>43.0</ele><time>2026-05-01T08:55:53.98Z</time></trkpt><trkpt lat="41.4350776" lon="13.1884632"><ele>44.4</ele><time>2026-05-01T08:55:54.98Z</time></trkpt><trkpt lat="41.4350377" lon="13.1883415"><ele>45.8</ele><time>2026-05-01T08:55:55.981Z</time></trkpt><trkpt lat="41.4349571" lon="13.1882259"><ele>47.2</ele><time>2026-05-01T08:55:56.982Z</time></trkpt><trkpt lat="41.4348836" lon="13.1881084"><ele>48.6</ele><time>2026-05-01T08:55:57.981Z</time></trkpt><trkpt lat="41.4348524" lon="13.1880232"><ele>50.0</ele><time>2026-05-01T08:55:58.98Z</time></trkpt><trkpt lat="41.4348178" lon="13.1879375"><ele>50.6</ele><time>2026-05-01T08:55:59.982Z</time></trkpt><trkpt lat="41.4348476" lon="13.18785"><ele>51.2</ele><time>2026-05-01T08:56:01.981Z</time></trkpt><trkpt lat="41.4349057" lon="13.1877264"><ele>51.8</ele><time>2026-05-01T08:56:03.981Z</time></trkpt><trkpt lat="41.4349886" lon="13.187617"><ele>52.4</ele><time>2026-05-01T08:56:05.981Z</time></trkpt><trkpt lat="41.4350558" lon="13.1875501"><ele>53.0</ele><time>2026-05-01T08:56:06.981Z</time></trkpt><trkpt lat="41.4351411" lon="13.187516"><ele>53.0</ele><time>2026-05-01T08:56:07.981Z</time></trkpt><trkpt lat="41.4352322" lon="13.1874875"><ele>53.0</ele><time>2026-05-01T08:56:08.981Z</time></trkpt><trkpt lat="41.435308" lon="13.1873878"><ele>53.0</ele><time>2026-05-01T08:56:09.981Z</time></trkpt><trkpt lat="41.4353775" lon="13.1873381"><ele>53.0</ele><time>2026-05-01T08:56:10.98Z</time></trkpt><trkpt lat="41.4354726" lon="13.1872353"><ele>53.0</ele><time>2026-05-01T08:56:11.98Z</time></trkpt><trkpt lat="41.4355527" lon="13.187148"><ele>54.0</ele><time>2026-05-01T08:56:12.98Z</time></trkpt><trkpt lat="41.4356128" lon="13.187078"><ele>55.0</ele><time>2026-05-01T08:56:13.981Z</time></trkpt><trkpt lat="41.435723" lon="13.1870206"><ele>56.0</ele><time>2026-05-01T08:56:15.98Z</time></trkpt><trkpt lat="41.4358188" lon="13.1870328"><ele>57.0</ele><time>2026-05-01T08:56:16.98Z</time></trkpt><trkpt lat="41.4359005" lon="13.1870133"><ele>58.0</ele><time>2026-05-01T08:56:17.98Z</time></trkpt><trkpt lat="41.4359979" lon="13.1869841"><ele>57.99999999999999</ele><time>2026-05-01T08:56:18.98Z</time></trkpt><trkpt lat="41.4360717" lon="13.1869526"><ele>58.0</ele><time>2026-05-01T08:56:19.98Z</time></trkpt><trkpt lat="41.4361289" lon="13.1869059"><ele>58.0</ele><time>2026-05-01T08:56:20.98Z</time></trkpt><trkpt lat="41.4361918" lon="13.1868138"><ele>58.0</ele><time>2026-05-01T08:56:21.98Z</time></trkpt><trkpt lat="41.4362546" lon="13.1867368"><ele>57.99999999999999</ele><time>2026-05-01T08:56:22.98Z</time></trkpt><trkpt lat="41.4363263" lon="13.1866642"><ele>58.0</ele><time>2026-05-01T08:56:23.98Z</time></trkpt><trkpt lat="41.4363911" lon="13.1866106"><ele>58.0</ele><time>2026-05-01T08:56:24.979Z</time></trkpt><trkpt lat="41.436448" lon="13.1865601"><ele>58.0</ele><time>2026-05-01T08:56:25.98Z</time></trkpt><trkpt lat="41.4365343" lon="13.1864184"><ele>58.0</ele><time>2026-05-01T08:56:27.98Z</time></trkpt><trkpt lat="41.4366025" lon="13.1863165"><ele>58.0</ele><time>2026-05-01T08:56:29.98Z</time></trkpt><trkpt lat="41.4366977" lon="13.1863348"><ele>58.0</ele><time>2026-05-01T08:56:31.98Z</time></trkpt><trkpt lat="41.4367739" lon="13.1864269"><ele>58.0</ele><time>2026-05-01T08:56:33.98Z</time></trkpt><trkpt lat="41.4368546" lon="13.1865002"><ele>58.0</ele><time>2026-05-01T08:56:35.98Z</time></trkpt><trkpt lat="41.4369405" lon="13.1865794"><ele>58.0</ele><time>2026-05-01T08:56:37.981Z</time></trkpt><trkpt lat="41.4370392" lon="13.1866548"><ele>58.0</ele><time>2026-05-01T08:56:39.98Z</time></trkpt><trkpt lat="41.4371169" lon="13.1867069"><ele>58.0</ele><time>2026-05-01T08:56:41.979Z</time></trkpt><trkpt lat="41.4371739" lon="13.1867441"><ele>59.0</ele><time>2026-05-01T08:56:44.98Z</time></trkpt><trkpt lat="41.4372842" lon="13.1868715"><ele>60.0</ele><time>2026-05-01T08:56:53.98Z</time></trkpt><trkpt lat="41.4373433" lon="13.1869389"><ele>61.0</ele><time>2026-05-01T08:56:54.981Z</time></trkpt><trkpt lat="41.4374142" lon="13.1870036"><ele>62.0</ele><time>2026-05-01T08:56:55.98Z</time></trkpt><trkpt lat="41.4374826" lon="13.1870737"><ele>63.0</ele><time>2026-05-01T08:56:56.98Z</time></trkpt><trkpt lat="41.4375416" lon="13.1871473"><ele>63.0</ele><time>2026-05-01T08:56:57.98Z</time></trkpt><trkpt lat="41.4375991" lon="13.1872179"><ele>63.0</ele><time>2026-05-01T08:56:58.98Z</time></trkpt><trkpt lat="41.4376636" lon="13.1872783"><ele>63.0</ele><time>2026-05-01T08:56:59.981Z</time></trkpt><trkpt lat="41.4377331" lon="13.1873363"><ele>63.0</ele><time>2026-05-01T08:57:00.98Z</time></trkpt><trkpt lat="41.4378067" lon="13.1873934"><ele>63.0</ele><time>2026-05-01T08:57:01.98Z</time></trkpt><trkpt lat="41.4378744" lon="13.1874642"><ele>63.0</ele><time>2026-05-01T08:57:02.979Z</time></trkpt><trkpt lat="41.4379557" lon="13.1875292"><ele>62.5</ele><time>2026-05-01T08:57:03.98Z</time></trkpt><trkpt lat="41.4380239" lon="13.1875963"><ele>62.0</ele><time>2026-05-01T08:57:04.981Z</time></trkpt><trkpt lat="41.4380932" lon="13.187651"><ele>61.5</ele><time>2026-05-01T08:57:05.979Z</time></trkpt><trkpt lat="41.4381612" lon="13.1877126"><ele>61.0</ele><time>2026-05-01T08:57:06.98Z</time></trkpt><trkpt lat="41.4382353" lon="13.1877843"><ele>60.5</ele><time>2026-05-01T08:57:07.98Z</time></trkpt><trkpt lat="41.438303" lon="13.1878555"><ele>60.0</ele><time>2026-05-01T08:57:08.98Z</time></trkpt><trkpt lat="41.438376" lon="13.1879287"><ele>60.0</ele><time>2026-05-01T08:57:09.98Z</time></trkpt><trkpt lat="41.438433" lon="13.1880002"><ele>60.0</ele><time>2026-05-01T08:57:10.98Z</time></trkpt><trkpt lat="41.4384873" lon="13.1880635"><ele>60.0</ele><time>2026-05-01T08:57:11.98Z</time></trkpt><trkpt lat="41.4385612" lon="13.1881232"><ele>60.0</ele><time>2026-05-01T08:57:12.98Z</time></trkpt><trkpt lat="41.4386346" lon="13.1881847"><ele>60.0</ele><time>2026-05-01T08:57:13.98Z</time></trkpt><trkpt lat="41.4387081" lon="13.1882414"><ele>60.0</ele><time>2026-05-01T08:57:14.981Z</time></trkpt><trkpt lat="41.438788" lon="13.1882924"><ele>59.666666666666664</ele><time>2026-05-01T08:57:15.98Z</time></trkpt><trkpt lat="41.4388596" lon="13.1883535"><ele>59.33333333333333</ele><time>2026-05-01T08:57:16.979Z</time></trkpt><trkpt lat="41.4389305" lon="13.1884196"><ele>59.0</ele><time>2026-05-01T08:57:17.981Z</time></trkpt><trkpt lat="41.4389989" lon="13.1884845"><ele>58.666666666666664</ele><time>2026-05-01T08:57:18.981Z</time></trkpt><trkpt lat="41.4390637" lon="13.1885504"><ele>58.33333333333333</ele><time>2026-05-01T08:57:19.979Z</time></trkpt><trkpt lat="41.4391215" lon="13.1885988"><ele>58.0</ele><time>2026-05-01T08:57:20.98Z</time></trkpt><trkpt lat="41.4391969" lon="13.1886721"><ele>57.99999999999999</ele><time>2026-05-01T08:57:22.98Z</time></trkpt><trkpt lat="41.4393014" lon="13.1887795"><ele>58.0</ele><time>2026-05-01T08:57:24.981Z</time></trkpt><trkpt lat="41.4393605" lon="13.1888461"><ele>58.0</ele><time>2026-05-01T08:57:25.979Z</time></trkpt><trkpt lat="41.439419" lon="13.188912"><ele>58.0</ele><time>2026-05-01T08:57:26.979Z</time></trkpt><trkpt lat="41.4394858" lon="13.1889782"><ele>57.99999999999999</ele><time>2026-05-01T08:57:27.981Z</time></trkpt><trkpt lat="41.4395516" lon="13.1890377"><ele>58.0</ele><time>2026-05-01T08:57:28.98Z</time></trkpt><trkpt lat="41.4396184" lon="13.1890925"><ele>58.666666666666664</ele><time>2026-05-01T08:57:29.98Z</time></trkpt><trkpt lat="41.4396768" lon="13.1891431"><ele>59.33333333333333</ele><time>2026-05-01T08:57:30.98Z</time></trkpt><trkpt lat="41.4397572" lon="13.1891914"><ele>60.0</ele><time>2026-05-01T08:57:32.98Z</time></trkpt><trkpt lat="41.4398275" lon="13.1891801"><ele>60.66666666666667</ele><time>2026-05-01T08:57:34.98Z</time></trkpt><trkpt lat="41.4399137" lon="13.1891081"><ele>61.333333333333336</ele><time>2026-05-01T08:57:36.98Z</time></trkpt><trkpt lat="41.4399716" lon="13.189002"><ele>62.0</ele><time>2026-05-01T08:57:38.98Z</time></trkpt><trkpt lat="41.440003" lon="13.1889283"><ele>62.0</ele><time>2026-05-01T08:57:39.979Z</time></trkpt><trkpt lat="41.4400731" lon="13.1887653"><ele>62.0</ele><time>2026-05-01T08:57:41.981Z</time></trkpt><trkpt lat="41.4401602" lon="13.1886564"><ele>62.0</ele><time>2026-05-01T08:57:43.979Z</time></trkpt><trkpt lat="41.4402714" lon="13.18863"><ele>62.0</ele><time>2026-05-01T08:57:45.98Z</time></trkpt><trkpt lat="41.4403473" lon="13.1885925"><ele>62.0</ele><time>2026-05-01T08:57:46.98Z</time></trkpt><trkpt lat="41.4404206" lon="13.1885578"><ele>62.0</ele><time>2026-05-01T08:57:47.98Z</time></trkpt><trkpt lat="41.4404823" lon="13.1885196"><ele>62.0</ele><time>2026-05-01T08:57:48.979Z</time></trkpt><trkpt lat="41.4405687" lon="13.1884808"><ele>62.0</ele><time>2026-05-01T08:57:49.98Z</time></trkpt><trkpt lat="41.4406667" lon="13.1883146"><ele>62.0</ele><time>2026-05-01T08:57:51.98Z</time></trkpt><trkpt lat="41.4407434" lon="13.1882537"><ele>61.833333333333336</ele><time>2026-05-01T08:57:52.979Z</time></trkpt><trkpt lat="41.4408371" lon="13.1881934"><ele>61.66666666666667</ele><time>2026-05-01T08:57:53.98Z</time></trkpt><trkpt lat="41.4409276" lon="13.1881201"><ele>61.5</ele><time>2026-05-01T08:57:54.98Z</time></trkpt><trkpt lat="41.4409985" lon="13.1880705"><ele>61.33333333333333</ele><time>2026-05-01T08:57:55.98Z</time></trkpt><trkpt lat="41.4410617" lon="13.1880163"><ele>61.166666666666664</ele><time>2026-05-01T08:57:56.98Z</time></trkpt><trkpt lat="41.4411267" lon="13.1879526"><ele>61.0</ele><time>2026-05-01T08:57:57.98Z</time></trkpt><trkpt lat="41.4411939" lon="13.1878993"><ele>61.666666666666664</ele><time>2026-05-01T08:57:58.98Z</time></trkpt><trkpt lat="41.4412497" lon="13.1878331"><ele>62.33333333333333</ele><time>2026-05-01T08:57:59.98Z</time></trkpt><trkpt lat="41.441291" lon="13.1877421"><ele>63.0</ele><time>2026-05-01T08:58:00.98Z</time></trkpt><trkpt lat="41.4413334" lon="13.1876658"><ele>63.66666666666667</ele><time>2026-05-01T08:58:01.98Z</time></trkpt><trkpt lat="41.4413671" lon="13.1875269"><ele>64.33333333333334</ele><time>2026-05-01T08:58:03.979Z</time></trkpt><trkpt lat="41.4414253" lon="13.1874338"><ele>65.0</ele><time>2026-05-01T08:58:05.981Z</time></trkpt><trkpt lat="41.4415206" lon="13.1873309"><ele>67.0</ele><time>2026-05-01T08:58:07.98Z</time></trkpt><trkpt lat="41.4416193" lon="13.1871742"><ele>69.0</ele><time>2026-05-01T08:58:08.981Z</time></trkpt><trkpt lat="41.4416742" lon="13.1870896"><ele>71.0</ele><time>2026-05-01T08:58:09.981Z</time></trkpt><trkpt lat="41.4417125" lon="13.1869871"><ele>73.0</ele><time>2026-05-01T08:58:10.98Z</time></trkpt><trkpt lat="41.4417636" lon="13.1868916"><ele>75.0</ele><time>2026-05-01T08:58:11.98Z</time></trkpt><trkpt lat="41.4417997" lon="13.18679"><ele>75.0</ele><time>2026-05-01T08:58:12.98Z</time></trkpt><trkpt lat="41.4418431" lon="13.1866667"><ele>75.0</ele><time>2026-05-01T08:58:13.981Z</time></trkpt><trkpt lat="41.4419347" lon="13.1865771"><ele>75.0</ele><time>2026-05-01T08:58:15.979Z</time></trkpt><trkpt lat="41.442008" lon="13.1865513"><ele>75.0</ele><time>2026-05-01T08:58:16.98Z</time></trkpt><trkpt lat="41.4420668" lon="13.1865156"><ele>75.0</ele><time>2026-05-01T08:58:17.98Z</time></trkpt><trkpt lat="41.4421349" lon="13.1864669"><ele>75.0</ele><time>2026-05-01T08:58:18.979Z</time></trkpt><trkpt lat="41.442212" lon="13.1864302"><ele>74.5</ele><time>2026-05-01T08:58:19.98Z</time></trkpt><trkpt lat="41.4422842" lon="13.186398"><ele>74.0</ele><time>2026-05-01T08:58:20.98Z</time></trkpt><trkpt lat="41.442345" lon="13.186372"><ele>73.5</ele><time>2026-05-01T08:58:21.979Z</time></trkpt><trkpt lat="41.4424193" lon="13.1863591"><ele>73.0</ele><time>2026-05-01T08:58:24.98Z</time></trkpt><trkpt lat="41.4424815" lon="13.1864171"><ele>72.5</ele><time>2026-05-01T08:58:25.98Z</time></trkpt><trkpt lat="41.4425998" lon="13.1864941"><ele>72.0</ele><time>2026-05-01T08:58:27.98Z</time></trkpt><trkpt lat="41.4426814" lon="13.1865294"><ele>71.8</ele><time>2026-05-01T08:58:28.98Z</time></trkpt><trkpt lat="41.442785" lon="13.1865547"><ele>71.6</ele><time>2026-05-01T08:58:29.98Z</time></trkpt><trkpt lat="41.4428555" lon="13.1865666"><ele>71.39999999999999</ele><time>2026-05-01T08:58:30.98Z</time></trkpt><trkpt lat="41.4429255" lon="13.1865838"><ele>71.2</ele><time>2026-05-01T08:58:31.98Z</time></trkpt><trkpt lat="41.4430218" lon="13.186596"><ele>71.0</ele><time>2026-05-01T08:58:32.98Z</time></trkpt><trkpt lat="41.4431316" lon="13.1865854"><ele>71.0</ele><time>2026-05-01T08:58:33.981Z</time></trkpt><trkpt lat="41.443199" lon="13.1865816"><ele>71.0</ele><time>2026-05-01T08:58:34.98Z</time></trkpt><trkpt lat="41.4432827" lon="13.1865911"><ele>71.0</ele><time>2026-05-01T08:58:35.981Z</time></trkpt><trkpt lat="41.4433474" lon="13.1865951"><ele>71.0</ele><time>2026-05-01T08:58:36.98Z</time></trkpt><trkpt lat="41.443412" lon="13.1865961"><ele>71.0</ele><time>2026-05-01T08:58:37.98Z</time></trkpt><trkpt lat="41.4434983" lon="13.1865821"><ele>71.0</ele><time>2026-05-01T08:58:38.98Z</time></trkpt><trkpt lat="41.4435834" lon="13.1865671"><ele>71.0</ele><time>2026-05-01T08:58:39.979Z</time></trkpt><trkpt lat="41.4436937" lon="13.1865133"><ele>71.0</ele><time>2026-05-01T08:58:40.979Z</time></trkpt><trkpt lat="41.4437933" lon="13.1865"><ele>71.0</ele><time>2026-05-01T08:58:41.98Z</time></trkpt><trkpt lat="41.4438873" lon="13.1864881"><ele>71.0</ele><time>2026-05-01T08:58:42.979Z</time></trkpt><trkpt lat="41.4439664" lon="13.1864774"><ele>71.0</ele><time>2026-05-01T08:58:43.978Z</time></trkpt><trkpt lat="41.4440842" lon="13.1864532"><ele>71.83333333333334</ele><time>2026-05-01T08:58:44.978Z</time></trkpt><trkpt lat="41.444164" lon="13.1864528"><ele>72.66666666666667</ele><time>2026-05-01T08:58:46.978Z</time></trkpt><trkpt lat="41.4442578" lon="13.1864201"><ele>73.5</ele><time>2026-05-01T08:58:48.98Z</time></trkpt><trkpt lat="41.444331" lon="13.1864086"><ele>74.33333333333333</ele><time>2026-05-01T08:58:49.979Z</time></trkpt><trkpt lat="41.4444023" lon="13.1863995"><ele>75.16666666666666</ele><time>2026-05-01T08:58:50.978Z</time></trkpt><trkpt lat="41.444518" lon="13.186421"><ele>76.0</ele><time>2026-05-01T08:58:52.978Z</time></trkpt><trkpt lat="41.4446057" lon="13.1864584"><ele>76.5</ele><time>2026-05-01T08:58:54.979Z</time></trkpt><trkpt lat="41.4446877" lon="13.1864453"><ele>77.0</ele><time>2026-05-01T08:58:56.98Z</time></trkpt><trkpt lat="41.4447714" lon="13.1863853"><ele>77.5</ele><time>2026-05-01T08:58:58.979Z</time></trkpt><trkpt lat="41.4448834" lon="13.186327"><ele>78.0</ele><time>2026-05-01T08:59:00.979Z</time></trkpt><trkpt lat="41.4449453" lon="13.1863073"><ele>78.5</ele><time>2026-05-01T08:59:01.978Z</time></trkpt><trkpt lat="41.4450216" lon="13.1862719"><ele>79.0</ele><time>2026-05-01T08:59:02.98Z</time></trkpt><trkpt lat="41.4450989" lon="13.1862367"><ele>79.0</ele><time>2026-05-01T08:59:03.98Z</time></trkpt><trkpt lat="41.4451493" lon="13.1861588"><ele>79.0</ele><time>2026-05-01T08:59:07.979Z</time></trkpt><trkpt lat="41.4452107" lon="13.1860821"><ele>79.0</ele><time>2026-05-01T08:59:08.978Z</time></trkpt><trkpt lat="41.4452824" lon="13.1859978"><ele>79.0</ele><time>2026-05-01T08:59:09.98Z</time></trkpt><trkpt lat="41.445345" lon="13.1859522"><ele>79.0</ele><time>2026-05-01T08:59:10.979Z</time></trkpt><trkpt lat="41.4454167" lon="13.1859243"><ele>79.0</ele><time>2026-05-01T09:02:10.977Z</time></trkpt><trkpt lat="41.4454902" lon="13.1858848"><ele>80.0</ele><time>2026-05-01T09:02:30.978Z</time></trkpt><trkpt lat="41.4455492" lon="13.1858406"><ele>81.0</ele><time>2026-05-01T09:02:32.979Z</time></trkpt><trkpt lat="41.4456367" lon="13.1857682"><ele>82.0</ele><time>2026-05-01T09:02:34.978Z</time></trkpt><trkpt lat="41.4457402" lon="13.1857333"><ele>83.0</ele><time>2026-05-01T09:02:36.978Z</time></trkpt><trkpt lat="41.4458102" lon="13.1857097"><ele>84.0</ele><time>2026-05-01T09:02:37.979Z</time></trkpt><trkpt lat="41.4458847" lon="13.1856806"><ele>85.0</ele><time>2026-05-01T09:02:40.978Z</time></trkpt><trkpt lat="41.4459476" lon="13.1855642"><ele>86.8</ele><time>2026-05-01T09:02:42.978Z</time></trkpt><trkpt lat="41.4460147" lon="13.1854434"><ele>88.6</ele><time>2026-05-01T09:02:44.978Z</time></trkpt><trkpt lat="41.4460688" lon="13.1853401"><ele>90.4</ele><time>2026-05-01T09:02:45.978Z</time></trkpt><trkpt lat="41.4461141" lon="13.1852355"><ele>92.2</ele><time>2026-05-01T09:02:46.978Z</time></trkpt><trkpt lat="41.4461667" lon="13.1850842"><ele>94.0</ele><time>2026-05-01T09:02:48.978Z</time></trkpt><trkpt lat="41.4462093" lon="13.1850032"><ele>94.0</ele><time>2026-05-01T09:02:49.977Z</time></trkpt><trkpt lat="41.4462337" lon="13.1849231"><ele>94.0</ele><time>2026-05-01T09:02:50.978Z</time></trkpt><trkpt lat="41.4462645" lon="13.1848394"><ele>94.0</ele><time>2026-05-01T09:02:51.978Z</time></trkpt><trkpt lat="41.4463091" lon="13.1847753"><ele>94.0</ele><time>2026-05-01T09:02:52.978Z</time></trkpt><trkpt lat="41.4463986" lon="13.1846741"><ele>94.0</ele><time>2026-05-01T09:02:54.978Z</time></trkpt><trkpt lat="41.4464113" lon="13.1845913"><ele>94.0</ele><time>2026-05-01T09:02:55.978Z</time></trkpt><trkpt lat="41.4464066" lon="13.184502"><ele>94.0</ele><time>2026-05-01T09:02:56.979Z</time></trkpt><trkpt lat="41.4463925" lon="13.1844142"><ele>94.2</ele><time>2026-05-01T09:02:57.978Z</time></trkpt><trkpt lat="41.4463745" lon="13.1843145"><ele>94.4</ele><time>2026-05-01T09:02:58.978Z</time></trkpt><trkpt lat="41.4463662" lon="13.1842178"><ele>94.6</ele><time>2026-05-01T09:02:59.978Z</time></trkpt><trkpt lat="41.446359" lon="13.1840533"><ele>94.8</ele><time>2026-05-01T09:03:01.979Z</time></trkpt><trkpt lat="41.4463427" lon="13.1839184"><ele>95.0</ele><time>2026-05-01T09:03:03.979Z</time></trkpt><trkpt lat="41.4462684" lon="13.1838153"><ele>96.4</ele><time>2026-05-01T09:03:05.978Z</time></trkpt><trkpt lat="41.4461858" lon="13.183762"><ele>97.8</ele><time>2026-05-01T09:03:08.978Z</time></trkpt><trkpt lat="41.4461082" lon="13.1837249"><ele>99.19999999999999</ele><time>2026-05-01T09:03:10.978Z</time></trkpt><trkpt lat="41.4460027" lon="13.1836665"><ele>100.6</ele><time>2026-05-01T09:03:12.979Z</time></trkpt><trkpt lat="41.4458935" lon="13.1836016"><ele>102.0</ele><time>2026-05-01T09:03:14.977Z</time></trkpt><trkpt lat="41.4458233" lon="13.1835203"><ele>102.0</ele><time>2026-05-01T09:03:16.978Z</time></trkpt><trkpt lat="41.4458265" lon="13.1834089"><ele>102.0</ele><time>2026-05-01T09:03:18.978Z</time></trkpt><trkpt lat="41.4458629" lon="13.1832751"><ele>102.0</ele><time>2026-05-01T09:03:20.978Z</time></trkpt><trkpt lat="41.4458919" lon="13.1831936"><ele>102.0</ele><time>2026-05-01T09:03:21.978Z</time></trkpt><trkpt lat="41.4459184" lon="13.1831063"><ele>102.0</ele><time>2026-05-01T09:03:22.978Z</time></trkpt><trkpt lat="41.4459449" lon="13.1830187"><ele>102.0</ele><time>2026-05-01T09:03:23.977Z</time></trkpt><trkpt lat="41.4459705" lon="13.1829397"><ele>102.28571428571429</ele><time>2026-05-01T09:03:24.978Z</time></trkpt><trkpt lat="41.4459921" lon="13.1828577"><ele>102.57142857142858</ele><time>2026-05-01T09:03:25.979Z</time></trkpt><trkpt lat="41.4460165" lon="13.1827757"><ele>102.85714285714286</ele><time>2026-05-01T09:03:26.978Z</time></trkpt><trkpt lat="41.4460436" lon="13.1826936"><ele>103.14285714285714</ele><time>2026-05-01T09:03:27.978Z</time></trkpt><trkpt lat="41.4460688" lon="13.1826123"><ele>103.42857142857143</ele><time>2026-05-01T09:03:28.978Z</time></trkpt><trkpt lat="41.4460912" lon="13.1825271"><ele>103.71428571428571</ele><time>2026-05-01T09:03:29.978Z</time></trkpt><trkpt lat="41.4461069" lon="13.1824035"><ele>104.0</ele><time>2026-05-01T09:03:31.978Z</time></trkpt><trkpt lat="41.4460559" lon="13.1823363"><ele>103.2</ele><time>2026-05-01T09:03:33.978Z</time></trkpt><trkpt lat="41.4459586" lon="13.1822934"><ele>102.4</ele><time>2026-05-01T09:03:35.978Z</time></trkpt><trkpt lat="41.4458934" lon="13.1822601"><ele>101.6</ele><time>2026-05-01T09:03:37.978Z</time></trkpt><trkpt lat="41.4457922" lon="13.1822447"><ele>100.8</ele><time>2026-05-01T09:03:39.979Z</time></trkpt><trkpt lat="41.4456909" lon="13.1822318"><ele>100.0</ele><time>2026-05-01T09:03:41.978Z</time></trkpt><trkpt lat="41.4455932" lon="13.1822196"><ele>100.00000000000001</ele><time>2026-05-01T09:03:43.977Z</time></trkpt><trkpt lat="41.4455044" lon="13.1822142"><ele>100.0</ele><time>2026-05-01T09:03:45.977Z</time></trkpt><trkpt lat="41.4454238" lon="13.1822206"><ele>100.0</ele><time>2026-05-01T09:03:47.977Z</time></trkpt><trkpt lat="41.4453429" lon="13.1822424"><ele>100.0</ele><time>2026-05-01T09:03:49.976Z</time></trkpt><trkpt lat="41.4452176" lon="13.1822645"><ele>100.00000000000001</ele><time>2026-05-01T09:03:51.976Z</time></trkpt><trkpt lat="41.4451556" lon="13.1822797"><ele>100.0</ele><time>2026-05-01T09:03:52.977Z</time></trkpt><trkpt lat="41.4450923" lon="13.1822996"><ele>99.85714285714286</ele><time>2026-05-01T09:03:53.977Z</time></trkpt><trkpt lat="41.4450264" lon="13.182313"><ele>99.71428571428572</ele><time>2026-05-01T09:03:54.976Z</time></trkpt><trkpt lat="41.4449595" lon="13.1823338"><ele>99.57142857142858</ele><time>2026-05-01T09:03:55.977Z</time></trkpt><trkpt lat="41.4448943" lon="13.1823517"><ele>99.42857142857143</ele><time>2026-05-01T09:03:56.976Z</time></trkpt><trkpt lat="41.4447998" lon="13.182373"><ele>99.28571428571428</ele><time>2026-05-01T09:03:58.976Z</time></trkpt><trkpt lat="41.4447293" lon="13.1824073"><ele>99.14285714285715</ele><time>2026-05-01T09:04:01.977Z</time></trkpt><trkpt lat="41.4447897" lon="13.1823813"><ele>99.0</ele><time>2026-05-01T09:04:16.976Z</time></trkpt><trkpt lat="41.4448739" lon="13.1823579"><ele>99.0</ele><time>2026-05-01T09:04:20.977Z</time></trkpt><trkpt lat="41.4449518" lon="13.1823447"><ele>99.0</ele><time>2026-05-01T09:04:22.976Z</time></trkpt><trkpt lat="41.4450345" lon="13.1823197"><ele>99.0</ele><time>2026-05-01T09:04:24.977Z</time></trkpt><trkpt lat="41.4451496" lon="13.1822823"><ele>99.0</ele><time>2026-05-01T09:04:26.977Z</time></trkpt><trkpt lat="41.4452126" lon="13.1822671"><ele>99.0</ele><time>2026-05-01T09:04:27.977Z</time></trkpt><trkpt lat="41.445326" lon="13.1822371"><ele>99.0</ele><time>2026-05-01T09:04:29.976Z</time></trkpt><trkpt lat="41.4454311" lon="13.1822149"><ele>99.0</ele><time>2026-05-01T09:04:31.977Z</time></trkpt><trkpt lat="41.4455295" lon="13.1822076"><ele>99.0</ele><time>2026-05-01T09:04:33.977Z</time></trkpt><trkpt lat="41.4456496" lon="13.1822174"><ele>99.0</ele><time>2026-05-01T09:04:35.977Z</time></trkpt><trkpt lat="41.4457133" lon="13.1822194"><ele>99.0</ele><time>2026-05-01T09:04:36.977Z</time></trkpt><trkpt lat="41.4458396" lon="13.1822488"><ele>99.16666666666667</ele><time>2026-05-01T09:04:38.977Z</time></trkpt><trkpt lat="41.4459254" lon="13.1822645"><ele>99.33333333333334</ele><time>2026-05-01T09:04:40.977Z</time></trkpt><trkpt lat="41.4459903" lon="13.1822927"><ele>99.5</ele><time>2026-05-01T09:04:42.976Z</time></trkpt><trkpt lat="41.4460833" lon="13.1823413"><ele>99.66666666666667</ele><time>2026-05-01T09:04:44.977Z</time></trkpt><trkpt lat="41.4461102" lon="13.1824203"><ele>99.83333333333334</ele><time>2026-05-01T09:04:46.977Z</time></trkpt><trkpt lat="41.4460876" lon="13.182535"><ele>100.0</ele><time>2026-05-01T09:04:48.977Z</time></trkpt><trkpt lat="41.446052" lon="13.1826705"><ele>100.5</ele><time>2026-05-01T09:04:50.978Z</time></trkpt><trkpt lat="41.4460101" lon="13.1828025"><ele>101.0</ele><time>2026-05-01T09:04:52.976Z</time></trkpt><trkpt lat="41.4459722" lon="13.1829503"><ele>101.5</ele><time>2026-05-01T09:04:54.976Z</time></trkpt><trkpt lat="41.4459284" lon="13.183087"><ele>102.0</ele><time>2026-05-01T09:04:56.977Z</time></trkpt><trkpt lat="41.445883" lon="13.1832336"><ele>102.0</ele><time>2026-05-01T09:04:58.977Z</time></trkpt><trkpt lat="41.4458372" lon="13.1833658"><ele>102.0</ele><time>2026-05-01T09:05:00.977Z</time></trkpt><trkpt lat="41.4458283" lon="13.1834893"><ele>102.0</ele><time>2026-05-01T09:05:02.977Z</time></trkpt><trkpt lat="41.4458912" lon="13.1835801"><ele>102.0</ele><time>2026-05-01T09:05:04.976Z</time></trkpt><trkpt lat="41.4459932" lon="13.1836583"><ele>102.0</ele><time>2026-05-01T09:05:06.977Z</time></trkpt><trkpt lat="41.44611" lon="13.1837164"><ele>102.0</ele><time>2026-05-01T09:05:08.977Z</time></trkpt><trkpt lat="41.4461743" lon="13.1837436"><ele>102.0</ele><time>2026-05-01T09:05:09.977Z</time></trkpt><trkpt lat="41.4462796" lon="13.1838162"><ele>102.0</ele><time>2026-05-01T09:05:11.978Z</time></trkpt><trkpt lat="41.4463444" lon="13.1838981"><ele>102.0</ele><time>2026-05-01T09:05:13.977Z</time></trkpt><trkpt lat="41.4463954" lon="13.1840035"><ele>102.0</ele><time>2026-05-01T09:05:15.977Z</time></trkpt><trkpt lat="41.4463638" lon="13.1841158"><ele>100.83333333333333</ele><time>2026-05-01T09:05:18.977Z</time></trkpt><trkpt lat="41.4463945" lon="13.1841932"><ele>99.66666666666667</ele><time>2026-05-01T09:05:28.977Z</time></trkpt><trkpt lat="41.4464088" lon="13.1843055"><ele>98.5</ele><time>2026-05-01T09:05:32.977Z</time></trkpt><trkpt lat="41.4464162" lon="13.1843899"><ele>97.33333333333334</ele><time>2026-05-01T09:05:34.977Z</time></trkpt><trkpt lat="41.446405" lon="13.1844921"><ele>96.16666666666667</ele><time>2026-05-01T09:05:36.978Z</time></trkpt><trkpt lat="41.4463933" lon="13.1845848"><ele>95.0</ele><time>2026-05-01T09:05:38.977Z</time></trkpt><trkpt lat="41.4463404" lon="13.1846793"><ele>94.83333333333334</ele><time>2026-05-01T09:05:41.976Z</time></trkpt><trkpt lat="41.4462934" lon="13.1847677"><ele>94.66666666666667</ele><time>2026-05-01T09:05:43.976Z</time></trkpt><trkpt lat="41.4462907" lon="13.1848723"><ele>94.5</ele><time>2026-05-01T09:05:44.978Z</time></trkpt><trkpt lat="41.4462255" lon="13.1849838"><ele>94.33333333333333</ele><time>2026-05-01T09:05:46.977Z</time></trkpt><trkpt lat="41.4462654" lon="13.185062"><ele>94.16666666666666</ele><time>2026-05-01T09:05:51.977Z</time></trkpt><trkpt lat="41.446337" lon="13.1850702"><ele>94.0</ele><time>2026-05-01T09:05:53.977Z</time></trkpt><trkpt lat="41.4464123" lon="13.1850626"><ele>94.2</ele><time>2026-05-01T09:05:54.977Z</time></trkpt><trkpt lat="41.4465043" lon="13.1850234"><ele>94.4</ele><time>2026-05-01T09:05:56.976Z</time></trkpt><trkpt lat="41.4465623" lon="13.1849807"><ele>94.6</ele><time>2026-05-01T09:05:57.977Z</time></trkpt><trkpt lat="41.44664" lon="13.184879"><ele>94.8</ele><time>2026-05-01T09:05:59.977Z</time></trkpt><trkpt lat="41.44669" lon="13.1847967"><ele>95.0</ele><time>2026-05-01T09:06:01.977Z</time></trkpt><trkpt lat="41.4467602" lon="13.1846962"><ele>95.0</ele><time>2026-05-01T09:06:03.977Z</time></trkpt><trkpt lat="41.4467949" lon="13.1846177"><ele>95.0</ele><time>2026-05-01T09:06:05.977Z</time></trkpt><trkpt lat="41.4468514" lon="13.1845516"><ele>95.0</ele><time>2026-05-01T09:06:07.977Z</time></trkpt><trkpt lat="41.4469191" lon="13.1844958"><ele>95.0</ele><time>2026-05-01T09:06:17.977Z</time></trkpt><trkpt lat="41.446901" lon="13.184361"><ele>95.0</ele><time>2026-05-01T09:06:20.976Z</time></trkpt><trkpt lat="41.4469067" lon="13.1842772"><ele>95.0</ele><time>2026-05-01T09:06:22.976Z</time></trkpt><trkpt lat="41.4469151" lon="13.1841759"><ele>95.0</ele><time>2026-05-01T09:06:25.976Z</time></trkpt><trkpt lat="41.4469506" lon="13.1840684"><ele>95.0</ele><time>2026-05-01T09:06:33.976Z</time></trkpt><trkpt lat="41.4469484" lon="13.1839194"><ele>95.0</ele><time>2026-05-01T09:06:35.977Z</time></trkpt><trkpt lat="41.4469327" lon="13.1837291"><ele>95.0</ele><time>2026-05-01T09:06:37.976Z</time></trkpt><trkpt lat="41.4469281" lon="13.1836068"><ele>95.0</ele><time>2026-05-01T09:06:38.977Z</time></trkpt><trkpt lat="41.4469199" lon="13.1834977"><ele>95.0</ele><time>2026-05-01T09:06:39.976Z</time></trkpt><trkpt lat="41.4469193" lon="13.1833667"><ele>95.0</ele><time>2026-05-01T09:06:40.976Z</time></trkpt><trkpt lat="41.4469463" lon="13.1831944"><ele>95.0</ele><time>2026-05-01T09:06:42.975Z</time></trkpt><trkpt lat="41.4469404" lon="13.1831044"><ele>95.0</ele><time>2026-05-01T09:06:43.975Z</time></trkpt><trkpt lat="41.4469527" lon="13.1830205"><ele>95.0</ele><time>2026-05-01T09:06:44.976Z</time></trkpt><trkpt lat="41.4469621" lon="13.1829305"><ele>95.0</ele><time>2026-05-01T09:06:45.976Z</time></trkpt><trkpt lat="41.447001" lon="13.1828145"><ele>95.0</ele><time>2026-05-01T09:06:46.976Z</time></trkpt><trkpt lat="41.4470454" lon="13.182669"><ele>95.0</ele><time>2026-05-01T09:06:48.976Z</time></trkpt><trkpt lat="41.4471154" lon="13.1826433"><ele>95.0</ele><time>2026-05-01T09:07:04.977Z</time></trkpt><trkpt lat="41.4471871" lon="13.1827265"><ele>95.0</ele><time>2026-05-01T09:07:06.977Z</time></trkpt><trkpt lat="41.4472692" lon="13.1827892"><ele>95.0</ele><time>2026-05-01T09:07:07.976Z</time></trkpt><trkpt lat="41.4473333" lon="13.1828489"><ele>95.0</ele><time>2026-05-01T09:07:08.977Z</time></trkpt><trkpt lat="41.4474089" lon="13.1829378"><ele>95.0</ele><time>2026-05-01T09:07:09.976Z</time></trkpt><trkpt lat="41.4474961" lon="13.1829816"><ele>95.0</ele><time>2026-05-01T09:07:10.977Z</time></trkpt><trkpt lat="41.4475556" lon="13.1830597"><ele>95.0</ele><time>2026-05-01T09:07:11.976Z</time></trkpt><trkpt lat="41.4476231" lon="13.1831357"><ele>95.0</ele><time>2026-05-01T09:07:12.976Z</time></trkpt><trkpt lat="41.4476961" lon="13.1832058"><ele>94.4</ele><time>2026-05-01T09:07:13.975Z</time></trkpt><trkpt lat="41.4477734" lon="13.1832831"><ele>93.8</ele><time>2026-05-01T09:07:14.976Z</time></trkpt><trkpt lat="41.4478504" lon="13.1833648"><ele>93.19999999999999</ele><time>2026-05-01T09:07:15.975Z</time></trkpt><trkpt lat="41.4479236" lon="13.1834427"><ele>92.6</ele><time>2026-05-01T09:07:16.976Z</time></trkpt><trkpt lat="41.4479969" lon="13.1835096"><ele>92.0</ele><time>2026-05-01T09:07:17.976Z</time></trkpt><trkpt lat="41.4480597" lon="13.1835705"><ele>93.0</ele><time>2026-05-01T09:07:18.976Z</time></trkpt><trkpt lat="41.4481211" lon="13.1836232"><ele>94.0</ele><time>2026-05-01T09:07:19.976Z</time></trkpt><trkpt lat="41.44818" lon="13.1836689"><ele>95.0</ele><time>2026-05-01T09:07:20.976Z</time></trkpt><trkpt lat="41.4482326" lon="13.1837166"><ele>96.0</ele><time>2026-05-01T09:07:21.976Z</time></trkpt><trkpt lat="41.4483311" lon="13.1838054"><ele>96.99999999999999</ele><time>2026-05-01T09:07:23.976Z</time></trkpt><trkpt lat="41.448416" lon="13.1838906"><ele>98.0</ele><time>2026-05-01T09:07:25.976Z</time></trkpt><trkpt lat="41.4484967" lon="13.1839667"><ele>98.0</ele><time>2026-05-01T09:07:27.976Z</time></trkpt><trkpt lat="41.448573" lon="13.1840333"><ele>98.0</ele><time>2026-05-01T09:07:29.976Z</time></trkpt><trkpt lat="41.4486256" lon="13.184096"><ele>98.0</ele><time>2026-05-01T09:07:42.976Z</time></trkpt><trkpt lat="41.4487241" lon="13.184193"><ele>98.0</ele><time>2026-05-01T09:07:44.976Z</time></trkpt><trkpt lat="41.4487889" lon="13.1842731"><ele>98.0</ele><time>2026-05-01T09:07:45.976Z</time></trkpt><trkpt lat="41.4488572" lon="13.1843607"><ele>98.0</ele><time>2026-05-01T09:07:46.976Z</time></trkpt><trkpt lat="41.4489336" lon="13.1844404"><ele>98.0</ele><time>2026-05-01T09:07:47.975Z</time></trkpt><trkpt lat="41.4490157" lon="13.18455"><ele>98.0</ele><time>2026-05-01T09:07:48.975Z</time></trkpt><trkpt lat="41.4490746" lon="13.1846657"><ele>98.0</ele><time>2026-05-01T09:07:49.976Z</time></trkpt><trkpt lat="41.4491174" lon="13.1848095"><ele>98.0</ele><time>2026-05-01T09:07:50.976Z</time></trkpt><trkpt lat="41.4491658" lon="13.1849556"><ele>97.66666666666666</ele><time>2026-05-01T09:07:51.977Z</time></trkpt><trkpt lat="41.4491951" lon="13.1851036"><ele>97.33333333333333</ele><time>2026-05-01T09:07:52.976Z</time></trkpt><trkpt lat="41.4492325" lon="13.185231"><ele>97.0</ele><time>2026-05-01T09:07:53.976Z</time></trkpt><trkpt lat="41.4492613" lon="13.1853283"><ele>96.66666666666666</ele><time>2026-05-01T09:07:54.975Z</time></trkpt><trkpt lat="41.4492959" lon="13.1854065"><ele>96.33333333333333</ele><time>2026-05-01T09:07:55.976Z</time></trkpt><trkpt lat="41.4493561" lon="13.1854481"><ele>96.0</ele><time>2026-05-01T09:07:56.976Z</time></trkpt><trkpt lat="41.4494264" lon="13.1854912"><ele>96.0</ele><time>2026-05-01T09:07:57.976Z</time></trkpt><trkpt lat="41.449488" lon="13.1855362"><ele>96.0</ele><time>2026-05-01T09:07:58.976Z</time></trkpt><trkpt lat="41.4495453" lon="13.1856116"><ele>96.0</ele><time>2026-05-01T09:07:59.976Z</time></trkpt><trkpt lat="41.4496109" lon="13.1856977"><ele>96.0</ele><time>2026-05-01T09:08:00.975Z</time></trkpt><trkpt lat="41.4496634" lon="13.1857572"><ele>96.0</ele><time>2026-05-01T09:08:01.975Z</time></trkpt><trkpt lat="41.4497199" lon="13.1858038"><ele>96.0</ele><time>2026-05-01T09:08:02.976Z</time></trkpt><trkpt lat="41.4498396" lon="13.1857947"><ele>97.0</ele><time>2026-05-01T09:08:04.976Z</time></trkpt><trkpt lat="41.4499088" lon="13.1857539"><ele>98.0</ele><time>2026-05-01T09:08:05.977Z</time></trkpt><trkpt lat="41.4500004" lon="13.1857106"><ele>99.0</ele><time>2026-05-01T09:08:06.976Z</time></trkpt><trkpt lat="41.4501044" lon="13.1856616"><ele>100.0</ele><time>2026-05-01T09:08:07.977Z</time></trkpt><trkpt lat="41.4502123" lon="13.1856113"><ele>101.0</ele><time>2026-05-01T09:08:08.976Z</time></trkpt><trkpt lat="41.4503045" lon="13.1855645"><ele>101.0</ele><time>2026-05-01T09:08:09.976Z</time></trkpt><trkpt lat="41.4504128" lon="13.1855512"><ele>101.0</ele><time>2026-05-01T09:08:11.976Z</time></trkpt><trkpt lat="41.4505145" lon="13.1856062"><ele>101.0</ele><time>2026-05-01T09:08:13.976Z</time></trkpt><trkpt lat="41.4506221" lon="13.1856853"><ele>101.0</ele><time>2026-05-01T09:08:15.976Z</time></trkpt><trkpt lat="41.4506995" lon="13.1857222"><ele>101.0</ele><time>2026-05-01T09:08:17.976Z</time></trkpt><trkpt lat="41.4506285" lon="13.185681"><ele>100.99999999999999</ele><time>2026-05-01T09:08:22.976Z</time></trkpt><trkpt lat="41.4505235" lon="13.185665"><ele>101.0</ele><time>2026-05-01T09:08:24.976Z</time></trkpt><trkpt lat="41.4504361" lon="13.1856299"><ele>101.0</ele><time>2026-05-01T09:08:26.975Z</time></trkpt><trkpt lat="41.4503726" lon="13.1855779"><ele>101.0</ele><time>2026-05-01T09:08:28.977Z</time></trkpt><trkpt lat="41.4503264" lon="13.1855036"><ele>100.99999999999999</ele><time>2026-05-01T09:09:21.975Z</time></trkpt><trkpt lat="41.4502881" lon="13.1853842"><ele>101.0</ele><time>2026-05-01T09:09:23.975Z</time></trkpt><trkpt lat="41.4502611" lon="13.1852929"><ele>101.57142857142857</ele><time>2026-05-01T09:09:24.975Z</time></trkpt><trkpt lat="41.4502469" lon="13.1851899"><ele>102.14285714285714</ele><time>2026-05-01T09:09:25.975Z</time></trkpt><trkpt lat="41.4502351" lon="13.1850877"><ele>102.71428571428572</ele><time>2026-05-01T09:09:26.974Z</time></trkpt><trkpt lat="41.4502158" lon="13.1849953"><ele>103.28571428571428</ele><time>2026-05-01T09:09:27.975Z</time></trkpt><trkpt lat="41.4501885" lon="13.184908"><ele>103.85714285714286</ele><time>2026-05-01T09:09:28.975Z</time></trkpt><trkpt lat="41.4501604" lon="13.1848243"><ele>104.42857142857143</ele><time>2026-05-01T09:09:29.975Z</time></trkpt><trkpt lat="41.4501301" lon="13.184738"><ele>105.0</ele><time>2026-05-01T09:09:30.975Z</time></trkpt><trkpt lat="41.4501053" lon="13.1846571"><ele>106.0</ele><time>2026-05-01T09:09:31.974Z</time></trkpt><trkpt lat="41.4500794" lon="13.1845707"><ele>107.0</ele><time>2026-05-01T09:09:32.975Z</time></trkpt><trkpt lat="41.4500625" lon="13.1844855"><ele>108.0</ele><time>2026-05-01T09:09:33.976Z</time></trkpt><trkpt lat="41.4500189" lon="13.1844099"><ele>109.0</ele><time>2026-05-01T09:09:34.975Z</time></trkpt><trkpt lat="41.4499846" lon="13.1843248"><ele>110.0</ele><time>2026-05-01T09:09:35.976Z</time></trkpt><trkpt lat="41.4499432" lon="13.1842009"><ele>111.0</ele><time>2026-05-01T09:09:37.976Z</time></trkpt><trkpt lat="41.4499899" lon="13.1841425"><ele>112.0</ele><time>2026-05-01T09:09:47.976Z</time></trkpt><trkpt lat="41.4500469" lon="13.1841005"><ele>112.00000000000001</ele><time>2026-05-01T09:09:49.975Z</time></trkpt><trkpt lat="41.4501211" lon="13.1840929"><ele>112.0</ele><time>2026-05-01T09:09:50.975Z</time></trkpt><trkpt lat="41.4501748" lon="13.1840402"><ele>112.0</ele><time>2026-05-01T09:09:51.974Z</time></trkpt><trkpt lat="41.4502361" lon="13.1839914"><ele>112.0</ele><time>2026-05-01T09:09:52.975Z</time></trkpt><trkpt lat="41.4502801" lon="13.1838983"><ele>112.00000000000001</ele><time>2026-05-01T09:09:54.976Z</time></trkpt><trkpt lat="41.450354" lon="13.1838262"><ele>112.0</ele><time>2026-05-01T09:09:56.975Z</time></trkpt><trkpt lat="41.4504237" lon="13.1837116"><ele>113.33333333333334</ele><time>2026-05-01T09:09:58.974Z</time></trkpt><trkpt lat="41.4504804" lon="13.1836228"><ele>114.66666666666667</ele><time>2026-05-01T09:09:59.976Z</time></trkpt><trkpt lat="41.4505199" lon="13.1835443"><ele>116.0</ele><time>2026-05-01T09:10:00.975Z</time></trkpt><trkpt lat="41.4505608" lon="13.1834708"><ele>117.33333333333334</ele><time>2026-05-01T09:10:01.975Z</time></trkpt><trkpt lat="41.4506101" lon="13.183387"><ele>118.66666666666667</ele><time>2026-05-01T09:10:02.975Z</time></trkpt><trkpt lat="41.4506497" lon="13.1833021"><ele>120.0</ele><time>2026-05-01T09:10:03.976Z</time></trkpt><trkpt lat="41.450715" lon="13.1832061"><ele>120.83333333333333</ele><time>2026-05-01T09:10:04.975Z</time></trkpt><trkpt lat="41.45077" lon="13.1831242"><ele>121.66666666666666</ele><time>2026-05-01T09:10:05.975Z</time></trkpt><trkpt lat="41.4508302" lon="13.1830601"><ele>122.5</ele><time>2026-05-01T09:10:06.974Z</time></trkpt><trkpt lat="41.4509048" lon="13.1830275"><ele>123.33333333333333</ele><time>2026-05-01T09:10:07.975Z</time></trkpt><trkpt lat="41.4509632" lon="13.1829716"><ele>124.16666666666666</ele><time>2026-05-01T09:10:08.975Z</time></trkpt><trkpt lat="41.4510566" lon="13.1828494"><ele>125.0</ele><time>2026-05-01T09:10:10.976Z</time></trkpt><trkpt lat="41.4511408" lon="13.1827544"><ele>125.0</ele><time>2026-05-01T09:10:12.975Z</time></trkpt><trkpt lat="41.4511519" lon="13.1826158"><ele>125.0</ele><time>2026-05-01T09:10:14.975Z</time></trkpt><trkpt lat="41.4511603" lon="13.1825132"><ele>125.0</ele><time>2026-05-01T09:10:15.974Z</time></trkpt><trkpt lat="41.4511672" lon="13.1824213"><ele>125.0</ele><time>2026-05-01T09:10:16.975Z</time></trkpt><trkpt lat="41.4511481" lon="13.1822039"><ele>125.0</ele><time>2026-05-01T09:10:18.975Z</time></trkpt><trkpt lat="41.4511341" lon="13.1820998"><ele>125.33333333333333</ele><time>2026-05-01T09:10:19.976Z</time></trkpt><trkpt lat="41.4511319" lon="13.1820016"><ele>125.66666666666666</ele><time>2026-05-01T09:10:20.975Z</time></trkpt><trkpt lat="41.4511301" lon="13.1819074"><ele>126.0</ele><time>2026-05-01T09:10:21.976Z</time></trkpt><trkpt lat="41.4511432" lon="13.181774"><ele>126.33333333333334</ele><time>2026-05-01T09:10:23.975Z</time></trkpt><trkpt lat="41.4511257" lon="13.1816477"><ele>126.66666666666667</ele><time>2026-05-01T09:10:25.975Z</time></trkpt><trkpt lat="41.4511045" lon="13.1815535"><ele>127.0</ele><time>2026-05-01T09:10:43.976Z</time></trkpt><trkpt lat="41.4511509" lon="13.1814188"><ele>128.6</ele><time>2026-05-01T09:10:46.974Z</time></trkpt><trkpt lat="41.4512002" lon="13.1812758"><ele>130.2</ele><time>2026-05-01T09:10:48.974Z</time></trkpt><trkpt lat="41.4512281" lon="13.1811736"><ele>131.8</ele><time>2026-05-01T09:10:49.975Z</time></trkpt><trkpt lat="41.4512527" lon="13.1810719"><ele>133.4</ele><time>2026-05-01T09:10:50.975Z</time></trkpt><trkpt lat="41.451284" lon="13.1809552"><ele>135.0</ele><time>2026-05-01T09:10:52.975Z</time></trkpt><trkpt lat="41.4513404" lon="13.1808749"><ele>136.66666666666666</ele><time>2026-05-01T09:10:54.974Z</time></trkpt><trkpt lat="41.4514027" lon="13.1808109"><ele>138.33333333333334</ele><time>2026-05-01T09:10:56.975Z</time></trkpt><trkpt lat="41.451456" lon="13.1807439"><ele>140.0</ele><time>2026-05-01T09:10:58.974Z</time></trkpt><trkpt lat="41.451507" lon="13.180656"><ele>141.66666666666669</ele><time>2026-05-01T09:11:00.974Z</time></trkpt><trkpt lat="41.4514966" lon="13.1805326"><ele>143.33333333333334</ele><time>2026-05-01T09:11:02.974Z</time></trkpt><trkpt lat="41.4514667" lon="13.1804316"><ele>145.0</ele><time>2026-05-01T09:11:03.975Z</time></trkpt><trkpt lat="41.4515096" lon="13.1803098"><ele>147.2</ele><time>2026-05-01T09:11:05.974Z</time></trkpt><trkpt lat="41.4515314" lon="13.1802279"><ele>149.4</ele><time>2026-05-01T09:11:06.974Z</time></trkpt><trkpt lat="41.451494" lon="13.1801032"><ele>151.6</ele><time>2026-05-01T09:11:08.974Z</time></trkpt><trkpt lat="41.4514736" lon="13.1799455"><ele>153.8</ele><time>2026-05-01T09:11:10.975Z</time></trkpt><trkpt lat="41.4514345" lon="13.1798196"><ele>156.0</ele><time>2026-05-01T09:11:12.975Z</time></trkpt><trkpt lat="41.4513899" lon="13.1796793"><ele>158.6</ele><time>2026-05-01T09:11:14.973Z</time></trkpt><trkpt lat="41.4513984" lon="13.1795117"><ele>161.2</ele><time>2026-05-01T09:11:16.974Z</time></trkpt><trkpt lat="41.4513762" lon="13.1794099"><ele>163.79999999999998</ele><time>2026-05-01T09:11:17.975Z</time></trkpt><trkpt lat="41.4513523" lon="13.1793257"><ele>166.39999999999998</ele><time>2026-05-01T09:11:18.974Z</time></trkpt><trkpt lat="41.4513315" lon="13.1792237"><ele>169.0</ele><time>2026-05-01T09:11:20.974Z</time></trkpt><trkpt lat="41.4514047" lon="13.1791274"><ele>169.0</ele><time>2026-05-01T09:11:22.974Z</time></trkpt><trkpt lat="41.4514722" lon="13.1790463"><ele>169.0</ele><time>2026-05-01T09:11:23.974Z</time></trkpt><trkpt lat="41.4515247" lon="13.1789691"><ele>169.0</ele><time>2026-05-01T09:11:24.974Z</time></trkpt><trkpt lat="41.4515735" lon="13.1789102"><ele>169.0</ele><time>2026-05-01T09:11:25.974Z</time></trkpt><trkpt lat="41.4516288" lon="13.1788683"><ele>169.0</ele><time>2026-05-01T09:11:26.974Z</time></trkpt><trkpt lat="41.4516953" lon="13.1787493"><ele>169.0</ele><time>2026-05-01T09:11:28.974Z</time></trkpt><trkpt lat="41.4516939" lon="13.1786594"><ele>170.5</ele><time>2026-05-01T09:11:29.975Z</time></trkpt><trkpt lat="41.4516861" lon="13.1785547"><ele>172.0</ele><time>2026-05-01T09:11:30.973Z</time></trkpt><trkpt lat="41.4516769" lon="13.1784696"><ele>173.5</ele><time>2026-05-01T09:11:31.975Z</time></trkpt><trkpt lat="41.4517539" lon="13.1783965"><ele>175.0</ele><time>2026-05-01T09:11:33.974Z</time></trkpt><trkpt lat="41.4517427" lon="13.1782569"><ele>176.5</ele><time>2026-05-01T09:11:35.974Z</time></trkpt><trkpt lat="41.4517358" lon="13.1781243"><ele>178.0</ele><time>2026-05-01T09:11:37.973Z</time></trkpt><trkpt lat="41.4517236" lon="13.1780409"><ele>179.33333333333334</ele><time>2026-05-01T09:11:38.974Z</time></trkpt><trkpt lat="41.4517004" lon="13.1779356"><ele>180.66666666666669</ele><time>2026-05-01T09:11:39.974Z</time></trkpt><trkpt lat="41.451679" lon="13.1778334"><ele>182.0</ele><time>2026-05-01T09:11:40.974Z</time></trkpt><trkpt lat="41.4516667" lon="13.177714"><ele>183.33333333333334</ele><time>2026-05-01T09:11:41.974Z</time></trkpt><trkpt lat="41.451653" lon="13.1775948"><ele>184.66666666666666</ele><time>2026-05-01T09:11:43.974Z</time></trkpt><trkpt lat="41.4516188" lon="13.1775105"><ele>186.0</ele><time>2026-05-01T09:11:44.974Z</time></trkpt><trkpt lat="41.4515658" lon="13.1773858"><ele>188.0</ele><time>2026-05-01T09:11:46.974Z</time></trkpt><trkpt lat="41.451537" lon="13.1772941"><ele>190.0</ele><time>2026-05-01T09:11:47.974Z</time></trkpt><trkpt lat="41.4514814" lon="13.1772355"><ele>192.0</ele><time>2026-05-01T09:11:48.974Z</time></trkpt><trkpt lat="41.4514716" lon="13.1771199"><ele>194.0</ele><time>2026-05-01T09:11:50.974Z</time></trkpt><trkpt lat="41.4515065" lon="13.1769834"><ele>196.0</ele><time>2026-05-01T09:11:52.973Z</time></trkpt><trkpt lat="41.4515664" lon="13.176851"><ele>195.99999999999997</ele><time>2026-05-01T09:11:54.973Z</time></trkpt><trkpt lat="41.4516354" lon="13.1767819"><ele>196.0</ele><time>2026-05-01T09:11:55.974Z</time></trkpt><trkpt lat="41.4517585" lon="13.1767475"><ele>196.0</ele><time>2026-05-01T09:11:57.975Z</time></trkpt><trkpt lat="41.4518232" lon="13.1767262"><ele>196.0</ele><time>2026-05-01T09:11:58.974Z</time></trkpt><trkpt lat="41.4518839" lon="13.1766774"><ele>195.99999999999997</ele><time>2026-05-01T09:11:59.974Z</time></trkpt><trkpt lat="41.4519315" lon="13.1765932"><ele>196.0</ele><time>2026-05-01T09:12:00.973Z</time></trkpt><trkpt lat="41.4519901" lon="13.1764538"><ele>197.28571428571428</ele><time>2026-05-01T09:12:02.975Z</time></trkpt><trkpt lat="41.4520039" lon="13.1763675"><ele>198.57142857142856</ele><time>2026-05-01T09:12:03.974Z</time></trkpt><trkpt lat="41.4519921" lon="13.1762795"><ele>199.85714285714286</ele><time>2026-05-01T09:12:04.975Z</time></trkpt><trkpt lat="41.4520201" lon="13.1761898"><ele>201.14285714285714</ele><time>2026-05-01T09:12:05.974Z</time></trkpt><trkpt lat="41.4520028" lon="13.1760962"><ele>202.42857142857142</ele><time>2026-05-01T09:12:06.975Z</time></trkpt><trkpt lat="41.4520045" lon="13.1759997"><ele>203.71428571428572</ele><time>2026-05-01T09:12:07.974Z</time></trkpt><trkpt lat="41.4519867" lon="13.1759097"><ele>205.0</ele><time>2026-05-01T09:12:08.974Z</time></trkpt><trkpt lat="41.4519821" lon="13.1757525"><ele>204.99999999999997</ele><time>2026-05-01T09:12:10.974Z</time></trkpt><trkpt lat="41.4520591" lon="13.1757348"><ele>205.0</ele><time>2026-05-01T09:12:11.975Z</time></trkpt><trkpt lat="41.4521186" lon="13.175652"><ele>205.0</ele><time>2026-05-01T09:12:12.973Z</time></trkpt><trkpt lat="41.4521902" lon="13.175599"><ele>205.0</ele><time>2026-05-01T09:12:13.975Z</time></trkpt><trkpt lat="41.4522746" lon="13.1755371"><ele>204.99999999999997</ele><time>2026-05-01T09:12:14.975Z</time></trkpt><trkpt lat="41.4523523" lon="13.1754821"><ele>205.0</ele><time>2026-05-01T09:12:15.974Z</time></trkpt><trkpt lat="41.4524331" lon="13.1754341"><ele>206.99999999999997</ele><time>2026-05-01T09:12:16.974Z</time></trkpt><trkpt lat="41.4524946" lon="13.1753552"><ele>209.0</ele><time>2026-05-01T09:12:18.975Z</time></trkpt><trkpt lat="41.4524918" lon="13.1752657"><ele>211.0</ele><time>2026-05-01T09:12:20.973Z</time></trkpt><trkpt lat="41.452483" lon="13.1750831"><ele>213.0</ele><time>2026-05-01T09:12:22.974Z</time></trkpt><trkpt lat="41.452463" lon="13.1749849"><ele>214.99999999999997</ele><time>2026-05-01T09:12:23.974Z</time></trkpt><trkpt lat="41.4524571" lon="13.17489"><ele>217.0</ele><time>2026-05-01T09:12:24.975Z</time></trkpt><trkpt lat="41.4524234" lon="13.174774"><ele>219.0</ele><time>2026-05-01T09:12:25.974Z</time></trkpt><trkpt lat="41.4524211" lon="13.1746104"><ele>221.0</ele><time>2026-05-01T09:12:27.974Z</time></trkpt><trkpt lat="41.4524706" lon="13.1744815"><ele>223.0</ele><time>2026-05-01T09:12:29.975Z</time></trkpt><trkpt lat="41.4524724" lon="13.1743802"><ele>225.0</ele><time>2026-05-01T09:12:30.975Z</time></trkpt><trkpt lat="41.4524843" lon="13.1742889"><ele>227.0</ele><time>2026-05-01T09:12:31.973Z</time></trkpt><trkpt lat="41.4524738" lon="13.1741748"><ele>227.00000000000003</ele><time>2026-05-01T09:12:32.974Z</time></trkpt><trkpt lat="41.4524347" lon="13.1740054"><ele>227.0</ele><time>2026-05-01T09:12:34.974Z</time></trkpt><trkpt lat="41.4523977" lon="13.1739324"><ele>227.0</ele><time>2026-05-01T09:12:37.974Z</time></trkpt><trkpt lat="41.4524513" lon="13.173998"><ele>227.0</ele><time>2026-05-01T09:12:43.974Z</time></trkpt><trkpt lat="41.4525236" lon="13.1740868"><ele>227.00000000000003</ele><time>2026-05-01T09:12:46.974Z</time></trkpt><trkpt lat="41.4525295" lon="13.1741788"><ele>227.0</ele><time>2026-05-01T09:12:48.974Z</time></trkpt><trkpt lat="41.4525242" lon="13.1743113"><ele>227.0</ele><time>2026-05-01T09:12:50.974Z</time></trkpt><trkpt lat="41.4525049" lon="13.1744629"><ele>227.0</ele><time>2026-05-01T09:12:52.974Z</time></trkpt><trkpt lat="41.4524861" lon="13.1745473"><ele>227.0</ele><time>2026-05-01T09:12:53.974Z</time></trkpt><trkpt lat="41.4524531" lon="13.1746484"><ele>227.0</ele><time>2026-05-01T09:12:54.974Z</time></trkpt><trkpt lat="41.4524351" lon="13.1748041"><ele>227.0</ele><time>2026-05-01T09:12:56.974Z</time></trkpt><trkpt lat="41.452475" lon="13.174931"><ele>225.33333333333334</ele><time>2026-05-01T09:12:59.973Z</time></trkpt><trkpt lat="41.4525102" lon="13.1750035"><ele>223.66666666666669</ele><time>2026-05-01T09:13:01.974Z</time></trkpt><trkpt lat="41.4525031" lon="13.1750979"><ele>222.0</ele><time>2026-05-01T09:13:15.974Z</time></trkpt><trkpt lat="41.4525098" lon="13.1752386"><ele>220.33333333333331</ele><time>2026-05-01T09:13:16.974Z</time></trkpt><trkpt lat="41.452508" lon="13.1753543"><ele>218.66666666666666</ele><time>2026-05-01T09:13:18.974Z</time></trkpt><trkpt lat="41.4524707" lon="13.1754286"><ele>217.0</ele><time>2026-05-01T09:13:20.974Z</time></trkpt><trkpt lat="41.4523727" lon="13.1755149"><ele>216.99999999999997</ele><time>2026-05-01T09:13:22.973Z</time></trkpt><trkpt lat="41.4523056" lon="13.1755475"><ele>217.0</ele><time>2026-05-01T09:13:23.974Z</time></trkpt><trkpt lat="41.4522194" lon="13.1755993"><ele>217.0</ele><time>2026-05-01T09:13:24.975Z</time></trkpt><trkpt lat="41.4521598" lon="13.1756595"><ele>217.0</ele><time>2026-05-01T09:13:25.973Z</time></trkpt><trkpt lat="41.4520964" lon="13.175709"><ele>216.99999999999997</ele><time>2026-05-01T09:13:26.973Z</time></trkpt><trkpt lat="41.4520577" lon="13.1757859"><ele>217.0</ele><time>2026-05-01T09:13:27.973Z</time></trkpt><trkpt lat="41.4519933" lon="13.1758846"><ele>214.99999999999997</ele><time>2026-05-01T09:13:29.974Z</time></trkpt><trkpt lat="41.4519781" lon="13.1760227"><ele>213.0</ele><time>2026-05-01T09:13:32.972Z</time></trkpt><trkpt lat="41.4519888" lon="13.1761344"><ele>211.0</ele><time>2026-05-01T09:13:33.972Z</time></trkpt><trkpt lat="41.4520384" lon="13.1762524"><ele>209.0</ele><time>2026-05-01T09:13:35.973Z</time></trkpt><trkpt lat="41.452027" lon="13.1763638"><ele>206.99999999999997</ele><time>2026-05-01T09:13:37.974Z</time></trkpt><trkpt lat="41.4520129" lon="13.1764507"><ele>205.0</ele><time>2026-05-01T09:13:38.973Z</time></trkpt><trkpt lat="41.4519648" lon="13.1765858"><ele>203.2</ele><time>2026-05-01T09:13:40.972Z</time></trkpt><trkpt lat="41.4519167" lon="13.1766524"><ele>201.4</ele><time>2026-05-01T09:13:41.973Z</time></trkpt><trkpt lat="41.4518259" lon="13.1767043"><ele>199.60000000000002</ele><time>2026-05-01T09:13:43.973Z</time></trkpt><trkpt lat="41.4517247" lon="13.1767737"><ele>197.8</ele><time>2026-05-01T09:13:45.973Z</time></trkpt><trkpt lat="41.4516314" lon="13.1768202"><ele>196.0</ele><time>2026-05-01T09:13:47.973Z</time></trkpt><trkpt lat="41.4515468" lon="13.176854"><ele>195.99999999999997</ele><time>2026-05-01T09:13:49.973Z</time></trkpt><trkpt lat="41.4514879" lon="13.1769343"><ele>196.0</ele><time>2026-05-01T09:13:51.972Z</time></trkpt><trkpt lat="41.4514462" lon="13.1770245"><ele>196.0</ele><time>2026-05-01T09:13:53.973Z</time></trkpt><trkpt lat="41.4514103" lon="13.1771333"><ele>196.0</ele><time>2026-05-01T09:13:55.974Z</time></trkpt><trkpt lat="41.4514635" lon="13.1771877"><ele>195.99999999999997</ele><time>2026-05-01T09:13:56.972Z</time></trkpt><trkpt lat="41.4515403" lon="13.1772852"><ele>196.0</ele><time>2026-05-01T09:13:58.974Z</time></trkpt><trkpt lat="41.4515828" lon="13.1774214"><ele>194.0</ele><time>2026-05-01T09:14:00.973Z</time></trkpt><trkpt lat="41.4516352" lon="13.1775513"><ele>192.0</ele><time>2026-05-01T09:14:02.972Z</time></trkpt><trkpt lat="41.4516663" lon="13.1776431"><ele>190.0</ele><time>2026-05-01T09:14:04.974Z</time></trkpt><trkpt lat="41.4516535" lon="13.1777341"><ele>188.0</ele><time>2026-05-01T09:14:06.973Z</time></trkpt><trkpt lat="41.4516675" lon="13.1778631"><ele>186.0</ele><time>2026-05-01T09:14:08.973Z</time></trkpt><trkpt lat="41.4516675" lon="13.1779982"><ele>186.0</ele><time>2026-05-01T09:14:10.972Z</time></trkpt><trkpt lat="41.4516937" lon="13.1781562"><ele>186.0</ele><time>2026-05-01T09:14:12.972Z</time></trkpt><trkpt lat="41.4516905" lon="13.1783244"><ele>186.0</ele><time>2026-05-01T09:14:14.974Z</time></trkpt><trkpt lat="41.4517031" lon="13.1784825"><ele>186.0</ele><time>2026-05-01T09:14:16.973Z</time></trkpt><trkpt lat="41.4516558" lon="13.1785725"><ele>186.0</ele><time>2026-05-01T09:14:18.973Z</time></trkpt><trkpt lat="41.4516746" lon="13.1787152"><ele>184.66666666666666</ele><time>2026-05-01T09:14:21.973Z</time></trkpt><trkpt lat="41.4516826" lon="13.1788576"><ele>183.33333333333334</ele><time>2026-05-01T09:14:23.973Z</time></trkpt><trkpt lat="41.451626" lon="13.1789249"><ele>182.0</ele><time>2026-05-01T09:14:24.973Z</time></trkpt><trkpt lat="41.4515403" lon="13.1790108"><ele>180.66666666666669</ele><time>2026-05-01T09:14:26.973Z</time></trkpt><trkpt lat="41.4514902" lon="13.1790835"><ele>179.33333333333334</ele><time>2026-05-01T09:14:27.973Z</time></trkpt><trkpt lat="41.4514426" lon="13.1791465"><ele>178.0</ele><time>2026-05-01T09:14:28.973Z</time></trkpt><trkpt lat="41.4513671" lon="13.1792339"><ele>176.2</ele><time>2026-05-01T09:14:30.973Z</time></trkpt><trkpt lat="41.451346" lon="13.1793259"><ele>174.4</ele><time>2026-05-01T09:14:33.973Z</time></trkpt><trkpt lat="41.4514064" lon="13.1794326"><ele>172.6</ele><time>2026-05-01T09:14:35.973Z</time></trkpt><trkpt lat="41.4514036" lon="13.1795739"><ele>170.79999999999998</ele><time>2026-05-01T09:14:37.973Z</time></trkpt><trkpt lat="41.4514044" lon="13.1796998"><ele>169.0</ele><time>2026-05-01T09:14:39.973Z</time></trkpt><trkpt lat="41.4514436" lon="13.1798391"><ele>166.83333333333334</ele><time>2026-05-01T09:14:41.973Z</time></trkpt><trkpt lat="41.4514791" lon="13.1799596"><ele>164.66666666666669</ele><time>2026-05-01T09:14:43.973Z</time></trkpt><trkpt lat="41.4514959" lon="13.180056"><ele>162.5</ele><time>2026-05-01T09:14:44.973Z</time></trkpt><trkpt lat="41.4515027" lon="13.1801452"><ele>160.33333333333334</ele><time>2026-05-01T09:14:45.973Z</time></trkpt><trkpt lat="41.451546" lon="13.1802238"><ele>158.16666666666666</ele><time>2026-05-01T09:14:46.973Z</time></trkpt><trkpt lat="41.4514972" lon="13.1802796"><ele>156.0</ele><time>2026-05-01T09:14:47.973Z</time></trkpt><trkpt lat="41.4514809" lon="13.1804156"><ele>156.0</ele><time>2026-05-01T09:14:49.973Z</time></trkpt><trkpt lat="41.4514488" lon="13.1805372"><ele>156.0</ele><time>2026-05-01T09:14:51.973Z</time></trkpt><trkpt lat="41.4514832" lon="13.1806547"><ele>156.0</ele><time>2026-05-01T09:14:53.973Z</time></trkpt><trkpt lat="41.4514309" lon="13.1807477"><ele>156.0</ele><time>2026-05-01T09:14:55.973Z</time></trkpt><trkpt lat="41.4513561" lon="13.1808545"><ele>156.0</ele><time>2026-05-01T09:14:57.974Z</time></trkpt><trkpt lat="41.4512955" lon="13.1809626"><ele>151.8</ele><time>2026-05-01T09:14:59.973Z</time></trkpt><trkpt lat="41.4512694" lon="13.1810627"><ele>147.6</ele><time>2026-05-01T09:15:00.973Z</time></trkpt><trkpt lat="41.4512602" lon="13.1811907"><ele>143.4</ele><time>2026-05-01T09:15:02.974Z</time></trkpt><trkpt lat="41.4512193" lon="13.1813717"><ele>139.2</ele><time>2026-05-01T09:15:04.972Z</time></trkpt><trkpt lat="41.4511722" lon="13.1814879"><ele>135.0</ele><time>2026-05-01T09:15:05.973Z</time></trkpt><trkpt lat="41.4511509" lon="13.1815691"><ele>135.0</ele><time>2026-05-01T09:15:06.973Z</time></trkpt><trkpt lat="41.4511212" lon="13.1816571"><ele>135.0</ele><time>2026-05-01T09:20:22.97Z</time></trkpt><trkpt lat="41.4511436" lon="13.1815381"><ele>135.0</ele><time>2026-05-01T09:20:29.971Z</time></trkpt><trkpt lat="41.4512192" lon="13.1815056"><ele>135.0</ele><time>2026-05-01T09:20:30.971Z</time></trkpt><trkpt lat="41.451311" lon="13.1814271"><ele>135.0</ele><time>2026-05-01T09:20:32.971Z</time></trkpt><trkpt lat="41.4513685" lon="13.1813863"><ele>135.0</ele><time>2026-05-01T09:20:33.971Z</time></trkpt><trkpt lat="41.4514456" lon="13.1813449"><ele>137.0</ele><time>2026-05-01T09:20:34.972Z</time></trkpt><trkpt lat="41.451576" lon="13.1814303"><ele>139.0</ele><time>2026-05-01T09:20:35.971Z</time></trkpt><trkpt lat="41.4516545" lon="13.1814656"><ele>141.0</ele><time>2026-05-01T09:20:36.971Z</time></trkpt><trkpt lat="41.4517289" lon="13.1814837"><ele>143.0</ele><time>2026-05-01T09:20:37.971Z</time></trkpt><trkpt lat="41.4518486" lon="13.1814356"><ele>145.0</ele><time>2026-05-01T09:20:39.971Z</time></trkpt><trkpt lat="41.4519371" lon="13.1813845"><ele>145.0</ele><time>2026-05-01T09:20:40.972Z</time></trkpt><trkpt lat="41.4520463" lon="13.1813218"><ele>145.0</ele><time>2026-05-01T09:20:41.97Z</time></trkpt><trkpt lat="41.4521562" lon="13.1812388"><ele>145.0</ele><time>2026-05-01T09:20:42.97Z</time></trkpt><trkpt lat="41.4523038" lon="13.1812075"><ele>145.0</ele><time>2026-05-01T09:20:44.971Z</time></trkpt><trkpt lat="41.4523795" lon="13.1812868"><ele>144.4</ele><time>2026-05-01T09:20:45.971Z</time></trkpt><trkpt lat="41.4524464" lon="13.1813317"><ele>143.8</ele><time>2026-05-01T09:20:46.971Z</time></trkpt><trkpt lat="41.4525118" lon="13.18139"><ele>143.2</ele><time>2026-05-01T09:20:47.971Z</time></trkpt><trkpt lat="41.4525738" lon="13.1814474"><ele>142.6</ele><time>2026-05-01T09:20:48.971Z</time></trkpt><trkpt lat="41.4526663" lon="13.1815872"><ele>142.0</ele><time>2026-05-01T09:20:50.971Z</time></trkpt><trkpt lat="41.4527447" lon="13.1817147"><ele>141.66666666666669</ele><time>2026-05-01T09:20:52.971Z</time></trkpt><trkpt lat="41.4528345" lon="13.181821"><ele>141.33333333333334</ele><time>2026-05-01T09:20:54.97Z</time></trkpt><trkpt lat="41.4529093" lon="13.1818788"><ele>141.0</ele><time>2026-05-01T09:20:55.97Z</time></trkpt><trkpt lat="41.4529754" lon="13.1819215"><ele>140.66666666666666</ele><time>2026-05-01T09:20:56.97Z</time></trkpt><trkpt lat="41.4530506" lon="13.1819701"><ele>140.33333333333331</ele><time>2026-05-01T09:20:57.97Z</time></trkpt><trkpt lat="41.4531252" lon="13.1820064"><ele>140.0</ele><time>2026-05-01T09:20:58.971Z</time></trkpt><trkpt lat="41.4531976" lon="13.1820388"><ele>140.0</ele><time>2026-05-01T09:20:59.97Z</time></trkpt><trkpt lat="41.4532573" lon="13.1820685"><ele>140.0</ele><time>2026-05-01T09:21:00.97Z</time></trkpt><trkpt lat="41.4533563" lon="13.1821353"><ele>140.0</ele><time>2026-05-01T09:21:02.969Z</time></trkpt><trkpt lat="41.4534613" lon="13.1821793"><ele>140.0</ele><time>2026-05-01T09:21:04.97Z</time></trkpt><trkpt lat="41.4535378" lon="13.1822315"><ele>140.0</ele><time>2026-05-01T09:21:06.97Z</time></trkpt><trkpt lat="41.4535983" lon="13.1822865"><ele>140.0</ele><time>2026-05-01T09:21:08.97Z</time></trkpt><trkpt lat="41.4536197" lon="13.1823908"><ele>138.0</ele><time>2026-05-01T09:21:16.97Z</time></trkpt><trkpt lat="41.453633" lon="13.1825291"><ele>136.0</ele><time>2026-05-01T09:21:18.97Z</time></trkpt><trkpt lat="41.4536267" lon="13.1826356"><ele>134.0</ele><time>2026-05-01T09:21:20.97Z</time></trkpt><trkpt lat="41.4536344" lon="13.1827421"><ele>132.0</ele><time>2026-05-01T09:21:22.97Z</time></trkpt><trkpt lat="41.4536679" lon="13.1828386"><ele>130.0</ele><time>2026-05-01T09:21:24.97Z</time></trkpt><trkpt lat="41.4536725" lon="13.1829609"><ele>128.0</ele><time>2026-05-01T09:21:26.971Z</time></trkpt><trkpt lat="41.4536354" lon="13.1830623"><ele>127.99999999999999</ele><time>2026-05-01T09:21:29.97Z</time></trkpt><trkpt lat="41.4535732" lon="13.183146"><ele>128.0</ele><time>2026-05-01T09:21:31.97Z</time></trkpt><trkpt lat="41.4535359" lon="13.1832316"><ele>128.0</ele><time>2026-05-01T09:21:33.97Z</time></trkpt><trkpt lat="41.453485" lon="13.1833048"><ele>128.0</ele><time>2026-05-01T09:21:35.971Z</time></trkpt><trkpt lat="41.4534509" lon="13.1833924"><ele>127.99999999999999</ele><time>2026-05-01T09:21:37.969Z</time></trkpt><trkpt lat="41.4533881" lon="13.1834971"><ele>128.0</ele><time>2026-05-01T09:21:39.97Z</time></trkpt><trkpt lat="41.4533151" lon="13.1835407"><ele>125.33333333333333</ele><time>2026-05-01T09:21:41.971Z</time></trkpt><trkpt lat="41.4532509" lon="13.1835934"><ele>122.66666666666666</ele><time>2026-05-01T09:21:43.97Z</time></trkpt><trkpt lat="41.4531687" lon="13.1836243"><ele>120.0</ele><time>2026-05-01T09:21:45.971Z</time></trkpt><trkpt lat="41.4530753" lon="13.1836328"><ele>117.33333333333334</ele><time>2026-05-01T09:21:47.97Z</time></trkpt><trkpt lat="41.4530113" lon="13.1836717"><ele>114.66666666666667</ele><time>2026-05-01T09:21:48.97Z</time></trkpt><trkpt lat="41.4529508" lon="13.1837003"><ele>112.0</ele><time>2026-05-01T09:21:49.969Z</time></trkpt><trkpt lat="41.4528768" lon="13.1837318"><ele>110.42857142857143</ele><time>2026-05-01T09:21:50.97Z</time></trkpt><trkpt lat="41.4528135" lon="13.1837919"><ele>108.85714285714286</ele><time>2026-05-01T09:21:51.971Z</time></trkpt><trkpt lat="41.4527362" lon="13.1838001"><ele>107.28571428571428</ele><time>2026-05-01T09:21:59.969Z</time></trkpt><trkpt lat="41.4526579" lon="13.1838324"><ele>105.71428571428572</ele><time>2026-05-01T09:22:00.97Z</time></trkpt><trkpt lat="41.4525855" lon="13.1838582"><ele>104.14285714285714</ele><time>2026-05-01T09:22:01.97Z</time></trkpt><trkpt lat="41.452524" lon="13.1838809"><ele>102.57142857142857</ele><time>2026-05-01T09:22:02.971Z</time></trkpt><trkpt lat="41.4524643" lon="13.1839091"><ele>101.0</ele><time>2026-05-01T09:22:03.97Z</time></trkpt><trkpt lat="41.4523765" lon="13.1839588"><ele>100.99999999999999</ele><time>2026-05-01T09:22:05.971Z</time></trkpt><trkpt lat="41.4523126" lon="13.1839638"><ele>101.0</ele><time>2026-05-01T09:22:10.97Z</time></trkpt><trkpt lat="41.4522488" lon="13.1839029"><ele>101.0</ele><time>2026-05-01T09:22:23.971Z</time></trkpt><trkpt lat="41.4521476" lon="13.1838025"><ele>101.0</ele><time>2026-05-01T09:22:25.971Z</time></trkpt><trkpt lat="41.4520814" lon="13.1837503"><ele>100.99999999999999</ele><time>2026-05-01T09:22:26.97Z</time></trkpt><trkpt lat="41.4520157" lon="13.1837192"><ele>101.0</ele><time>2026-05-01T09:22:27.97Z</time></trkpt><trkpt lat="41.4519078" lon="13.1837447"><ele>101.42857142857143</ele><time>2026-05-01T09:22:29.97Z</time></trkpt><trkpt lat="41.4518481" lon="13.1838052"><ele>101.85714285714286</ele><time>2026-05-01T09:22:30.97Z</time></trkpt><trkpt lat="41.4517917" lon="13.1838894"><ele>102.28571428571428</ele><time>2026-05-01T09:22:31.969Z</time></trkpt><trkpt lat="41.4517479" lon="13.1839731"><ele>102.71428571428572</ele><time>2026-05-01T09:22:32.97Z</time></trkpt><trkpt lat="41.4517241" lon="13.1840523"><ele>103.14285714285715</ele><time>2026-05-01T09:22:33.97Z</time></trkpt><trkpt lat="41.4516877" lon="13.1841417"><ele>103.57142857142857</ele><time>2026-05-01T09:22:35.97Z</time></trkpt><trkpt lat="41.4516317" lon="13.1841872"><ele>104.0</ele><time>2026-05-01T09:22:37.969Z</time></trkpt><trkpt lat="41.4515539" lon="13.1842159"><ele>104.6</ele><time>2026-05-01T09:22:39.971Z</time></trkpt><trkpt lat="41.4514545" lon="13.1842361"><ele>105.2</ele><time>2026-05-01T09:22:41.969Z</time></trkpt><trkpt lat="41.4513609" lon="13.1842902"><ele>105.79999999999998</ele><time>2026-05-01T09:22:43.97Z</time></trkpt><trkpt lat="41.4512901" lon="13.1843592"><ele>106.39999999999999</ele><time>2026-05-01T09:22:45.971Z</time></trkpt><trkpt lat="41.451234" lon="13.1844293"><ele>107.0</ele><time>2026-05-01T09:22:47.97Z</time></trkpt><trkpt lat="41.4511836" lon="13.1845451"><ele>107.0</ele><time>2026-05-01T09:22:49.969Z</time></trkpt><trkpt lat="41.4511505" lon="13.1846268"><ele>106.99999999999999</ele><time>2026-05-01T09:22:50.97Z</time></trkpt><trkpt lat="41.4511118" lon="13.1847014"><ele>106.99999999999999</ele><time>2026-05-01T09:22:51.969Z</time></trkpt><trkpt lat="41.4510264" lon="13.1848119"><ele>107.0</ele><time>2026-05-01T09:22:53.97Z</time></trkpt><trkpt lat="41.4509226" lon="13.1848802"><ele>107.0</ele><time>2026-05-01T09:22:55.969Z</time></trkpt><trkpt lat="41.4508717" lon="13.184994"><ele>105.99999999999999</ele><time>2026-05-01T09:22:57.97Z</time></trkpt><trkpt lat="41.4508388" lon="13.1850758"><ele>105.0</ele><time>2026-05-01T09:22:58.969Z</time></trkpt><trkpt lat="41.4507914" lon="13.1851753"><ele>104.0</ele><time>2026-05-01T09:22:59.97Z</time></trkpt><trkpt lat="41.4507432" lon="13.1852678"><ele>103.0</ele><time>2026-05-01T09:23:00.97Z</time></trkpt><trkpt lat="41.4506957" lon="13.1853533"><ele>101.99999999999999</ele><time>2026-05-01T09:23:01.97Z</time></trkpt><trkpt lat="41.4507328" lon="13.1854741"><ele>101.0</ele><time>2026-05-01T09:23:23.97Z</time></trkpt><trkpt lat="41.4507266" lon="13.185584"><ele>100.99999999999999</ele><time>2026-05-01T09:23:25.969Z</time></trkpt><trkpt lat="41.4506989" lon="13.1856782"><ele>101.0</ele><time>2026-05-01T09:23:27.969Z</time></trkpt><trkpt lat="41.4506296" lon="13.1856943"><ele>101.0</ele><time>2026-05-01T09:23:30.969Z</time></trkpt><trkpt lat="41.4506984" lon="13.1856621"><ele>101.0</ele><time>2026-05-01T09:23:47.97Z</time></trkpt><trkpt lat="41.4507221" lon="13.1855624"><ele>100.99999999999999</ele><time>2026-05-01T09:24:25.969Z</time></trkpt><trkpt lat="41.4507317" lon="13.1853898"><ele>101.0</ele><time>2026-05-01T09:24:29.969Z</time></trkpt><trkpt lat="41.45072" lon="13.1852692"><ele>101.0</ele><time>2026-05-01T09:24:31.969Z</time></trkpt><trkpt lat="41.4507546" lon="13.185101"><ele>101.0</ele><time>2026-05-01T09:24:34.969Z</time></trkpt><trkpt lat="41.4507972" lon="13.1849661"><ele>101.0</ele><time>2026-05-01T09:24:36.969Z</time></trkpt><trkpt lat="41.4508403" lon="13.1848555"><ele>101.0</ele><time>2026-05-01T09:24:38.969Z</time></trkpt><trkpt lat="41.4509203" lon="13.1847782"><ele>101.0</ele><time>2026-05-01T09:24:40.969Z</time></trkpt><trkpt lat="41.4510147" lon="13.1847779"><ele>102.19999999999999</ele><time>2026-05-01T09:24:42.969Z</time></trkpt><trkpt lat="41.4510909" lon="13.1847392"><ele>103.39999999999999</ele><time>2026-05-01T09:24:44.968Z</time></trkpt><trkpt lat="41.4511452" lon="13.1846259"><ele>104.6</ele><time>2026-05-01T09:24:46.969Z</time></trkpt><trkpt lat="41.4511937" lon="13.1845036"><ele>105.8</ele><time>2026-05-01T09:24:48.969Z</time></trkpt><trkpt lat="41.451238" lon="13.1843835"><ele>107.0</ele><time>2026-05-01T09:24:50.969Z</time></trkpt><trkpt lat="41.451291" lon="13.1842713"><ele>104.19999999999999</ele><time>2026-05-01T09:24:52.969Z</time></trkpt><trkpt lat="41.4513588" lon="13.1841964"><ele>101.39999999999999</ele><time>2026-05-01T09:24:54.968Z</time></trkpt><trkpt lat="41.4514459" lon="13.1841787"><ele>98.6</ele><time>2026-05-01T09:24:56.969Z</time></trkpt><trkpt lat="41.4515289" lon="13.184213"><ele>95.80000000000001</ele><time>2026-05-01T09:24:58.97Z</time></trkpt><trkpt lat="41.4516259" lon="13.1841958"><ele>93.0</ele><time>2026-05-01T09:25:00.969Z</time></trkpt><trkpt lat="41.4517018" lon="13.1841297"><ele>94.83333333333333</ele><time>2026-05-01T09:25:02.97Z</time></trkpt><trkpt lat="41.451751" lon="13.1840092"><ele>96.66666666666666</ele><time>2026-05-01T09:25:04.969Z</time></trkpt><trkpt lat="41.4517859" lon="13.1839192"><ele>98.5</ele><time>2026-05-01T09:25:05.97Z</time></trkpt><trkpt lat="41.4518384" lon="13.183848"><ele>100.33333333333333</ele><time>2026-05-01T09:25:06.969Z</time></trkpt><trkpt lat="41.4518886" lon="13.1837904"><ele>102.16666666666666</ele><time>2026-05-01T09:25:07.969Z</time></trkpt><trkpt lat="41.4519914" lon="13.1837127"><ele>104.0</ele><time>2026-05-01T09:25:09.969Z</time></trkpt><trkpt lat="41.4520908" lon="13.1837362"><ele>103.49999999999999</ele><time>2026-05-01T09:25:11.969Z</time></trkpt><trkpt lat="41.4521754" lon="13.1837858"><ele>103.0</ele><time>2026-05-01T09:25:13.97Z</time></trkpt><trkpt lat="41.4522477" lon="13.1838537"><ele>102.5</ele><time>2026-05-01T09:25:15.969Z</time></trkpt><trkpt lat="41.4523165" lon="13.1839276"><ele>102.0</ele><time>2026-05-01T09:25:17.969Z</time></trkpt><trkpt lat="41.4523759" lon="13.1840006"><ele>101.49999999999999</ele><time>2026-05-01T09:25:19.969Z</time></trkpt><trkpt lat="41.4524245" lon="13.1840565"><ele>101.0</ele><time>2026-05-01T09:25:21.969Z</time></trkpt><trkpt lat="41.4524867" lon="13.1841218"><ele>99.83333333333333</ele><time>2026-05-01T09:25:24.969Z</time></trkpt><trkpt lat="41.4525776" lon="13.1841862"><ele>98.66666666666666</ele><time>2026-05-01T09:25:26.968Z</time></trkpt><trkpt lat="41.45264" lon="13.1842351"><ele>97.5</ele><time>2026-05-01T09:25:27.969Z</time></trkpt><trkpt lat="41.4527187" lon="13.1842934"><ele>96.33333333333333</ele><time>2026-05-01T09:25:28.968Z</time></trkpt><trkpt lat="41.4527971" lon="13.184349"><ele>95.16666666666666</ele><time>2026-05-01T09:25:29.969Z</time></trkpt><trkpt lat="41.4528652" lon="13.1844122"><ele>94.0</ele><time>2026-05-01T09:25:30.969Z</time></trkpt><trkpt lat="41.4529334" lon="13.1844739"><ele>94.42857142857143</ele><time>2026-05-01T09:25:31.968Z</time></trkpt><trkpt lat="41.4530012" lon="13.1845331"><ele>94.85714285714286</ele><time>2026-05-01T09:25:32.968Z</time></trkpt><trkpt lat="41.4530609" lon="13.1845966"><ele>95.28571428571428</ele><time>2026-05-01T09:25:33.969Z</time></trkpt><trkpt lat="41.4531165" lon="13.1846604"><ele>95.71428571428572</ele><time>2026-05-01T09:25:34.969Z</time></trkpt><trkpt lat="41.4531714" lon="13.1847277"><ele>96.14285714285715</ele><time>2026-05-01T09:25:35.968Z</time></trkpt><trkpt lat="41.4532055" lon="13.1848035"><ele>96.57142857142857</ele><time>2026-05-01T09:25:36.968Z</time></trkpt><trkpt lat="41.4532414" lon="13.1848858"><ele>97.0</ele><time>2026-05-01T09:25:37.968Z</time></trkpt><trkpt lat="41.453283" lon="13.1849549"><ele>95.83333333333334</ele><time>2026-05-01T09:25:38.968Z</time></trkpt><trkpt lat="41.4533283" lon="13.1850201"><ele>94.66666666666667</ele><time>2026-05-01T09:25:39.968Z</time></trkpt><trkpt lat="41.4533633" lon="13.1850988"><ele>93.5</ele><time>2026-05-01T09:25:40.967Z</time></trkpt><trkpt lat="41.4534116" lon="13.1851778"><ele>92.33333333333334</ele><time>2026-05-01T09:25:42.968Z</time></trkpt><trkpt lat="41.4534881" lon="13.1852663"><ele>91.16666666666667</ele><time>2026-05-01T09:26:54.968Z</time></trkpt><trkpt lat="41.4535909" lon="13.1853777"><ele>90.0</ele><time>2026-05-01T09:26:56.967Z</time></trkpt><trkpt lat="41.4536545" lon="13.1854429"><ele>90.0</ele><time>2026-05-01T09:26:57.967Z</time></trkpt><trkpt lat="41.4537134" lon="13.1855504"><ele>90.0</ele><time>2026-05-01T09:26:58.969Z</time></trkpt><trkpt lat="41.4537525" lon="13.1856749"><ele>90.0</ele><time>2026-05-01T09:26:59.968Z</time></trkpt><trkpt lat="41.4537989" lon="13.1857941"><ele>90.0</ele><time>2026-05-01T09:27:00.967Z</time></trkpt><trkpt lat="41.4538249" lon="13.1859314"><ele>90.0</ele><time>2026-05-01T09:27:01.969Z</time></trkpt><trkpt lat="41.4538419" lon="13.1860707"><ele>88.5</ele><time>2026-05-01T09:27:02.967Z</time></trkpt><trkpt lat="41.4538708" lon="13.1862065"><ele>87.0</ele><time>2026-05-01T09:27:03.968Z</time></trkpt><trkpt lat="41.4539174" lon="13.1863479"><ele>85.5</ele><time>2026-05-01T09:27:04.968Z</time></trkpt><trkpt lat="41.4539707" lon="13.1864958"><ele>84.0</ele><time>2026-05-01T09:27:05.968Z</time></trkpt><trkpt lat="41.4540154" lon="13.1866345"><ele>82.25</ele><time>2026-05-01T09:27:06.968Z</time></trkpt><trkpt lat="41.4540726" lon="13.1867651"><ele>80.5</ele><time>2026-05-01T09:27:07.968Z</time></trkpt><trkpt lat="41.4541098" lon="13.1869107"><ele>78.75</ele><time>2026-05-01T09:27:08.967Z</time></trkpt><trkpt lat="41.4541505" lon="13.1870527"><ele>77.0</ele><time>2026-05-01T09:27:09.969Z</time></trkpt><trkpt lat="41.4541957" lon="13.1871965"><ele>77.0</ele><time>2026-05-01T09:27:10.969Z</time></trkpt><trkpt lat="41.454245" lon="13.187328"><ele>77.0</ele><time>2026-05-01T09:27:11.968Z</time></trkpt><trkpt lat="41.454295" lon="13.1874502"><ele>77.0</ele><time>2026-05-01T09:27:12.967Z</time></trkpt><trkpt lat="41.4543534" lon="13.1875658"><ele>77.0</ele><time>2026-05-01T09:27:13.969Z</time></trkpt><trkpt lat="41.4543974" lon="13.1876857"><ele>77.0</ele><time>2026-05-01T09:27:14.968Z</time></trkpt><trkpt lat="41.4544325" lon="13.187806"><ele>76.33333333333334</ele><time>2026-05-01T09:27:15.968Z</time></trkpt><trkpt lat="41.4544606" lon="13.1879242"><ele>75.66666666666667</ele><time>2026-05-01T09:27:16.968Z</time></trkpt><trkpt lat="41.4544776" lon="13.188039"><ele>75.0</ele><time>2026-05-01T09:27:17.968Z</time></trkpt><trkpt lat="41.4544851" lon="13.1881414"><ele>74.33333333333333</ele><time>2026-05-01T09:27:18.968Z</time></trkpt><trkpt lat="41.4544799" lon="13.188251"><ele>73.66666666666666</ele><time>2026-05-01T09:27:19.968Z</time></trkpt><trkpt lat="41.4544772" lon="13.1883688"><ele>73.0</ele><time>2026-05-01T09:27:20.968Z</time></trkpt><trkpt lat="41.4544634" lon="13.1884911"><ele>71.8</ele><time>2026-05-01T09:27:21.968Z</time></trkpt><trkpt lat="41.454445" lon="13.1886159"><ele>70.6</ele><time>2026-05-01T09:27:22.969Z</time></trkpt><trkpt lat="41.4544397" lon="13.188742"><ele>69.4</ele><time>2026-05-01T09:27:23.968Z</time></trkpt><trkpt lat="41.4544233" lon="13.1888645"><ele>68.2</ele><time>2026-05-01T09:27:24.967Z</time></trkpt><trkpt lat="41.4543875" lon="13.1889817"><ele>67.0</ele><time>2026-05-01T09:27:25.967Z</time></trkpt><trkpt lat="41.4543508" lon="13.1891027"><ele>66.2</ele><time>2026-05-01T09:27:26.968Z</time></trkpt><trkpt lat="41.4543183" lon="13.1892305"><ele>65.4</ele><time>2026-05-01T09:27:27.969Z</time></trkpt><trkpt lat="41.4543067" lon="13.1893566"><ele>64.6</ele><time>2026-05-01T09:27:28.968Z</time></trkpt><trkpt lat="41.4543029" lon="13.1894832"><ele>63.8</ele><time>2026-05-01T09:27:29.968Z</time></trkpt><trkpt lat="41.454319" lon="13.1896093"><ele>63.0</ele><time>2026-05-01T09:27:30.968Z</time></trkpt><trkpt lat="41.4543355" lon="13.1897379"><ele>61.599999999999994</ele><time>2026-05-01T09:27:31.968Z</time></trkpt><trkpt lat="41.4543403" lon="13.1898672"><ele>60.199999999999996</ele><time>2026-05-01T09:27:32.969Z</time></trkpt><trkpt lat="41.4543251" lon="13.1899912"><ele>58.8</ele><time>2026-05-01T09:27:33.968Z</time></trkpt><trkpt lat="41.4542811" lon="13.190115"><ele>57.4</ele><time>2026-05-01T09:27:34.968Z</time></trkpt><trkpt lat="41.4542484" lon="13.1902332"><ele>56.0</ele><time>2026-05-01T09:27:35.967Z</time></trkpt><trkpt lat="41.4541906" lon="13.1903613"><ele>56.0</ele><time>2026-05-01T09:27:36.969Z</time></trkpt><trkpt lat="41.4541539" lon="13.1904794"><ele>55.99999999999999</ele><time>2026-05-01T09:27:37.969Z</time></trkpt><trkpt lat="41.4541306" lon="13.1906025"><ele>55.99999999999999</ele><time>2026-05-01T09:27:38.968Z</time></trkpt><trkpt lat="41.4541306" lon="13.190724"><ele>56.0</ele><time>2026-05-01T09:27:39.967Z</time></trkpt><trkpt lat="41.4541608" lon="13.190825"><ele>56.0</ele><time>2026-05-01T09:27:40.968Z</time></trkpt><trkpt lat="41.4542203" lon="13.1909123"><ele>55.199999999999996</ele><time>2026-05-01T09:27:41.968Z</time></trkpt><trkpt lat="41.4542812" lon="13.1910012"><ele>54.39999999999999</ele><time>2026-05-01T09:27:42.968Z</time></trkpt><trkpt lat="41.4543889" lon="13.1910588"><ele>53.6</ele><time>2026-05-01T09:27:43.969Z</time></trkpt><trkpt lat="41.4544855" lon="13.1911371"><ele>52.8</ele><time>2026-05-01T09:27:44.967Z</time></trkpt><trkpt lat="41.4545884" lon="13.1912229"><ele>52.0</ele><time>2026-05-01T09:27:45.968Z</time></trkpt><trkpt lat="41.4546889" lon="13.1913043"><ele>51.8</ele><time>2026-05-01T09:27:46.967Z</time></trkpt><trkpt lat="41.4547729" lon="13.1913967"><ele>51.6</ele><time>2026-05-01T09:27:47.968Z</time></trkpt><trkpt lat="41.4548678" lon="13.191477"><ele>51.4</ele><time>2026-05-01T09:27:48.968Z</time></trkpt><trkpt lat="41.4549614" lon="13.1915653"><ele>51.199999999999996</ele><time>2026-05-01T09:27:49.967Z</time></trkpt><trkpt lat="41.4550463" lon="13.1916654"><ele>51.0</ele><time>2026-05-01T09:27:50.966Z</time></trkpt><trkpt lat="41.4551232" lon="13.191764"><ele>50.5</ele><time>2026-05-01T09:27:51.967Z</time></trkpt><trkpt lat="41.4551922" lon="13.1918631"><ele>50.0</ele><time>2026-05-01T09:27:52.968Z</time></trkpt><trkpt lat="41.4552592" lon="13.1919581"><ele>49.5</ele><time>2026-05-01T09:27:53.967Z</time></trkpt><trkpt lat="41.4553171" lon="13.1920465"><ele>49.0</ele><time>2026-05-01T09:27:54.967Z</time></trkpt><trkpt lat="41.4553625" lon="13.1921426"><ele>48.5</ele><time>2026-05-01T09:27:55.967Z</time></trkpt><trkpt lat="41.4553846" lon="13.1922401"><ele>48.0</ele><time>2026-05-01T09:27:56.967Z</time></trkpt><trkpt lat="41.4553928" lon="13.1923353"><ele>48.0</ele><time>2026-05-01T09:27:57.966Z</time></trkpt><trkpt lat="41.4554294" lon="13.1924151"><ele>48.0</ele><time>2026-05-01T09:27:58.967Z</time></trkpt><trkpt lat="41.4554886" lon="13.1924807"><ele>48.0</ele><time>2026-05-01T09:27:59.968Z</time></trkpt><trkpt lat="41.4555619" lon="13.1925369"><ele>48.0</ele><time>2026-05-01T09:28:00.967Z</time></trkpt><trkpt lat="41.4556487" lon="13.1925964"><ele>48.0</ele><time>2026-05-01T09:28:01.966Z</time></trkpt><trkpt lat="41.4557287" lon="13.1926515"><ele>48.0</ele><time>2026-05-01T09:28:02.966Z</time></trkpt><trkpt lat="41.4558055" lon="13.1927007"><ele>48.333333333333336</ele><time>2026-05-01T09:28:03.966Z</time></trkpt><trkpt lat="41.455873" lon="13.1927549"><ele>48.66666666666667</ele><time>2026-05-01T09:28:04.967Z</time></trkpt><trkpt lat="41.4559377" lon="13.1928092"><ele>49.0</ele><time>2026-05-01T09:28:05.967Z</time></trkpt><trkpt lat="41.455988" lon="13.1929282"><ele>49.333333333333336</ele><time>2026-05-01T09:28:07.968Z</time></trkpt><trkpt lat="41.4559615" lon="13.1930419"><ele>49.66666666666667</ele><time>2026-05-01T09:28:11.967Z</time></trkpt><trkpt lat="41.4558893" lon="13.1931024"><ele>50.0</ele><time>2026-05-01T09:28:13.967Z</time></trkpt><trkpt lat="41.4558345" lon="13.1931721"><ele>50.75</ele><time>2026-05-01T09:28:14.966Z</time></trkpt><trkpt lat="41.4557559" lon="13.1932445"><ele>51.5</ele><time>2026-05-01T09:28:15.967Z</time></trkpt><trkpt lat="41.4556675" lon="13.193329"><ele>52.25</ele><time>2026-05-01T09:28:16.967Z</time></trkpt><trkpt lat="41.4555792" lon="13.1934466"><ele>53.0</ele><time>2026-05-01T09:28:17.966Z</time></trkpt><trkpt lat="41.4554927" lon="13.1935973"><ele>52.0</ele><time>2026-05-01T09:28:18.967Z</time></trkpt><trkpt lat="41.4553993" lon="13.1937649"><ele>51.0</ele><time>2026-05-01T09:28:19.967Z</time></trkpt><trkpt lat="41.4553097" lon="13.1939227"><ele>50.0</ele><time>2026-05-01T09:28:20.968Z</time></trkpt><trkpt lat="41.4552099" lon="13.1940854"><ele>50.0</ele><time>2026-05-01T09:28:21.966Z</time></trkpt><trkpt lat="41.4551105" lon="13.1942488"><ele>50.0</ele><time>2026-05-01T09:28:22.966Z</time></trkpt><trkpt lat="41.4550086" lon="13.194413"><ele>50.0</ele><time>2026-05-01T09:28:23.968Z</time></trkpt><trkpt lat="41.4549075" lon="13.1945786"><ele>50.0</ele><time>2026-05-01T09:28:24.967Z</time></trkpt><trkpt lat="41.4548046" lon="13.1947457"><ele>50.0</ele><time>2026-05-01T09:28:25.967Z</time></trkpt><trkpt lat="41.4546998" lon="13.1949125"><ele>50.0</ele><time>2026-05-01T09:28:26.966Z</time></trkpt><trkpt lat="41.4545937" lon="13.1950704"><ele>48.66666666666667</ele><time>2026-05-01T09:28:27.967Z</time></trkpt><trkpt lat="41.454498" lon="13.1952322"><ele>47.333333333333336</ele><time>2026-05-01T09:28:28.968Z</time></trkpt><trkpt lat="41.4544048" lon="13.1954021"><ele>46.0</ele><time>2026-05-01T09:28:29.967Z</time></trkpt><trkpt lat="41.4543146" lon="13.1955769"><ele>46.66666666666667</ele><time>2026-05-01T09:28:30.967Z</time></trkpt><trkpt lat="41.4542228" lon="13.1957529"><ele>47.333333333333336</ele><time>2026-05-01T09:28:31.968Z</time></trkpt><trkpt lat="41.454133" lon="13.195937"><ele>48.0</ele><time>2026-05-01T09:28:32.967Z</time></trkpt><trkpt lat="41.454045" lon="13.1961196"><ele>48.0</ele><time>2026-05-01T09:28:33.967Z</time></trkpt><trkpt lat="41.453949" lon="13.1963036"><ele>48.0</ele><time>2026-05-01T09:28:34.967Z</time></trkpt><trkpt lat="41.4538499" lon="13.1964825"><ele>48.0</ele><time>2026-05-01T09:28:35.968Z</time></trkpt><trkpt lat="41.4537509" lon="13.1966501"><ele>49.0</ele><time>2026-05-01T09:28:36.966Z</time></trkpt><trkpt lat="41.4536581" lon="13.1968147"><ele>50.0</ele><time>2026-05-01T09:28:37.966Z</time></trkpt><trkpt lat="41.4535627" lon="13.1969669"><ele>51.0</ele><time>2026-05-01T09:28:38.967Z</time></trkpt><trkpt lat="41.4534622" lon="13.1971104"><ele>51.0</ele><time>2026-05-01T09:28:39.967Z</time></trkpt><trkpt lat="41.4533583" lon="13.1972502"><ele>51.0</ele><time>2026-05-01T09:28:40.967Z</time></trkpt><trkpt lat="41.4532574" lon="13.1973829"><ele>51.0</ele><time>2026-05-01T09:28:41.968Z</time></trkpt><trkpt lat="41.4531564" lon="13.1975222"><ele>51.0</ele><time>2026-05-01T09:28:42.967Z</time></trkpt><trkpt lat="41.4530513" lon="13.1976658"><ele>49.666666666666664</ele><time>2026-05-01T09:28:43.968Z</time></trkpt><trkpt lat="41.452933" lon="13.1977985"><ele>48.33333333333333</ele><time>2026-05-01T09:28:44.967Z</time></trkpt><trkpt lat="41.4528091" lon="13.197934"><ele>47.0</ele><time>2026-05-01T09:28:45.966Z</time></trkpt><trkpt lat="41.4526739" lon="13.1980709"><ele>45.33333333333333</ele><time>2026-05-01T09:28:46.968Z</time></trkpt><trkpt lat="41.4525308" lon="13.1981901"><ele>43.666666666666664</ele><time>2026-05-01T09:28:47.967Z</time></trkpt><trkpt lat="41.4523822" lon="13.1982964"><ele>42.0</ele><time>2026-05-01T09:28:48.966Z</time></trkpt><trkpt lat="41.4522328" lon="13.1984147"><ele>41.333333333333336</ele><time>2026-05-01T09:28:49.967Z</time></trkpt><trkpt lat="41.4520853" lon="13.1985359"><ele>40.66666666666667</ele><time>2026-05-01T09:28:50.967Z</time></trkpt><trkpt lat="41.4519487" lon="13.1986798"><ele>40.0</ele><time>2026-05-01T09:28:51.967Z</time></trkpt><trkpt lat="41.4518149" lon="13.1988228"><ele>40.0</ele><time>2026-05-01T09:28:52.967Z</time></trkpt><trkpt lat="41.4516805" lon="13.1989663"><ele>40.0</ele><time>2026-05-01T09:28:53.966Z</time></trkpt><trkpt lat="41.4515523" lon="13.1991074"><ele>40.0</ele><time>2026-05-01T09:28:54.967Z</time></trkpt><trkpt lat="41.4514298" lon="13.1992443"><ele>39.25</ele><time>2026-05-01T09:28:55.967Z</time></trkpt><trkpt lat="41.4513183" lon="13.1993752"><ele>38.5</ele><time>2026-05-01T09:28:56.967Z</time></trkpt><trkpt lat="41.4512118" lon="13.1994941"><ele>37.75</ele><time>2026-05-01T09:28:57.967Z</time></trkpt><trkpt lat="41.4511142" lon="13.1996072"><ele>37.0</ele><time>2026-05-01T09:28:58.967Z</time></trkpt><trkpt lat="41.4510161" lon="13.1997167"><ele>36.25</ele><time>2026-05-01T09:28:59.968Z</time></trkpt><trkpt lat="41.4509173" lon="13.19983"><ele>35.5</ele><time>2026-05-01T09:29:00.967Z</time></trkpt><trkpt lat="41.4508213" lon="13.199946"><ele>34.75</ele><time>2026-05-01T09:29:01.967Z</time></trkpt><trkpt lat="41.4507212" lon="13.2000571"><ele>34.0</ele><time>2026-05-01T09:29:02.968Z</time></trkpt><trkpt lat="41.4506232" lon="13.2001587"><ele>34.0</ele><time>2026-05-01T09:29:03.967Z</time></trkpt><trkpt lat="41.4505314" lon="13.2002568"><ele>34.0</ele><time>2026-05-01T09:29:04.967Z</time></trkpt><trkpt lat="41.4504486" lon="13.200355"><ele>34.0</ele><time>2026-05-01T09:29:05.968Z</time></trkpt><trkpt lat="41.4503668" lon="13.2004438"><ele>34.0</ele><time>2026-05-01T09:29:06.967Z</time></trkpt><trkpt lat="41.4502997" lon="13.2005186"><ele>34.0</ele><time>2026-05-01T09:29:07.966Z</time></trkpt><trkpt lat="41.4502379" lon="13.2005903"><ele>33.2</ele><time>2026-05-01T09:29:08.966Z</time></trkpt><trkpt lat="41.4501893" lon="13.2006488"><ele>32.4</ele><time>2026-05-01T09:29:09.967Z</time></trkpt><trkpt lat="41.4501171" lon="13.2007397"><ele>31.6</ele><time>2026-05-01T09:29:11.967Z</time></trkpt><trkpt lat="41.4500858" lon="13.2008363"><ele>30.8</ele><time>2026-05-01T09:29:16.967Z</time></trkpt><trkpt lat="41.4501605" lon="13.2009611"><ele>30.0</ele><time>2026-05-01T09:29:18.966Z</time></trkpt><trkpt lat="41.4502253" lon="13.2010584"><ele>29.5</ele><time>2026-05-01T09:29:19.966Z</time></trkpt><trkpt lat="41.4503007" lon="13.2011837"><ele>29.0</ele><time>2026-05-01T09:29:20.967Z</time></trkpt><trkpt lat="41.4503751" lon="13.2013049"><ele>28.5</ele><time>2026-05-01T09:29:21.967Z</time></trkpt><trkpt lat="41.4504676" lon="13.2014334"><ele>28.0</ele><time>2026-05-01T09:29:22.967Z</time></trkpt><trkpt lat="41.450559" lon="13.2015738"><ele>32.66666666666667</ele><time>2026-05-01T09:29:23.968Z</time></trkpt><trkpt lat="41.450668" lon="13.2017266"><ele>37.333333333333336</ele><time>2026-05-01T09:29:24.966Z</time></trkpt><trkpt lat="41.4507835" lon="13.2018804"><ele>42.0</ele><time>2026-05-01T09:29:25.967Z</time></trkpt><trkpt lat="41.4508933" lon="13.2020289"><ele>42.0</ele><time>2026-05-01T09:29:26.966Z</time></trkpt><trkpt lat="41.4510099" lon="13.202167"><ele>42.0</ele><time>2026-05-01T09:29:27.967Z</time></trkpt><trkpt lat="41.4511392" lon="13.2022791"><ele>42.0</ele><time>2026-05-01T09:29:28.967Z</time></trkpt><trkpt lat="41.4512759" lon="13.2023745"><ele>41.0</ele><time>2026-05-01T09:29:29.967Z</time></trkpt><trkpt lat="41.4514001" lon="13.2024636"><ele>40.0</ele><time>2026-05-01T09:29:30.967Z</time></trkpt><trkpt lat="41.4515262" lon="13.2025293"><ele>39.0</ele><time>2026-05-01T09:29:31.968Z</time></trkpt><trkpt lat="41.4516441" lon="13.2025876"><ele>38.0</ele><time>2026-05-01T09:29:32.966Z</time></trkpt><trkpt lat="41.4517677" lon="13.2026041"><ele>38.0</ele><time>2026-05-01T09:29:33.967Z</time></trkpt><trkpt lat="41.4518692" lon="13.2026282"><ele>38.0</ele><time>2026-05-01T09:29:34.968Z</time></trkpt><trkpt lat="41.4519614" lon="13.2026671"><ele>38.0</ele><time>2026-05-01T09:29:35.967Z</time></trkpt><trkpt lat="41.4520385" lon="13.2027208"><ele>38.0</ele><time>2026-05-01T09:29:36.967Z</time></trkpt><trkpt lat="41.4521048" lon="13.2027799"><ele>38.0</ele><time>2026-05-01T09:29:37.967Z</time></trkpt><trkpt lat="41.452164" lon="13.2028523"><ele>38.0</ele><time>2026-05-01T09:29:38.967Z</time></trkpt><trkpt lat="41.4522269" lon="13.2029288"><ele>37.166666666666664</ele><time>2026-05-01T09:29:39.967Z</time></trkpt><trkpt lat="41.4522857" lon="13.2030142"><ele>36.33333333333333</ele><time>2026-05-01T09:29:40.967Z</time></trkpt><trkpt lat="41.4523428" lon="13.2030977"><ele>35.5</ele><time>2026-05-01T09:29:41.967Z</time></trkpt><trkpt lat="41.4523976" lon="13.2031763"><ele>34.666666666666664</ele><time>2026-05-01T09:29:42.967Z</time></trkpt><trkpt lat="41.4524643" lon="13.2032326"><ele>33.833333333333336</ele><time>2026-05-01T09:29:43.968Z</time></trkpt><trkpt lat="41.4525398" lon="13.2032686"><ele>33.0</ele><time>2026-05-01T09:29:44.967Z</time></trkpt><trkpt lat="41.4526169" lon="13.2032805"><ele>32.14285714285714</ele><time>2026-05-01T09:29:45.967Z</time></trkpt><trkpt lat="41.4526977" lon="13.2032898"><ele>31.28571428571429</ele><time>2026-05-01T09:29:46.967Z</time></trkpt><trkpt lat="41.4527783" lon="13.2032917"><ele>30.42857142857143</ele><time>2026-05-01T09:29:47.966Z</time></trkpt><trkpt lat="41.4528517" lon="13.2033074"><ele>29.57142857142857</ele><time>2026-05-01T09:29:48.967Z</time></trkpt><trkpt lat="41.4529105" lon="13.2033389"><ele>28.714285714285715</ele><time>2026-05-01T09:29:49.967Z</time></trkpt><trkpt lat="41.4529639" lon="13.203402"><ele>27.857142857142858</ele><time>2026-05-01T09:29:50.967Z</time></trkpt><trkpt lat="41.4530005" lon="13.2034913"><ele>27.0</ele><time>2026-05-01T09:29:51.967Z</time></trkpt><trkpt lat="41.4530308" lon="13.2035998"><ele>27.0</ele><time>2026-05-01T09:29:52.967Z</time></trkpt><trkpt lat="41.4530442" lon="13.2037111"><ele>27.0</ele><time>2026-05-01T09:29:53.968Z</time></trkpt><trkpt lat="41.4530494" lon="13.2038243"><ele>27.0</ele><time>2026-05-01T09:29:54.967Z</time></trkpt><trkpt lat="41.4530352" lon="13.203936"><ele>27.0</ele><time>2026-05-01T09:29:55.967Z</time></trkpt><trkpt lat="41.4530214" lon="13.2040394"><ele>27.0</ele><time>2026-05-01T09:29:56.967Z</time></trkpt><trkpt lat="41.4530113" lon="13.204136"><ele>27.0</ele><time>2026-05-01T09:29:57.967Z</time></trkpt><trkpt lat="41.4529907" lon="13.2042281"><ele>27.0</ele><time>2026-05-01T09:29:58.967Z</time></trkpt><trkpt lat="41.4529686" lon="13.2043131"><ele>27.0</ele><time>2026-05-01T09:29:59.967Z</time></trkpt><trkpt lat="41.4530629" lon="13.2044135"><ele>27.0</ele><time>2026-05-01T09:30:01.968Z</time></trkpt><trkpt lat="41.4531337" lon="13.2044108"><ele>27.0</ele><time>2026-05-01T09:30:02.967Z</time></trkpt><trkpt lat="41.4532203" lon="13.2043758"><ele>27.0</ele><time>2026-05-01T09:30:03.967Z</time></trkpt><trkpt lat="41.4533155" lon="13.2043368"><ele>27.0</ele><time>2026-05-01T09:30:04.967Z</time></trkpt><trkpt lat="41.4534252" lon="13.204296"><ele>27.0</ele><time>2026-05-01T09:30:05.967Z</time></trkpt><trkpt lat="41.4535309" lon="13.2042562"><ele>27.000000000000004</ele><time>2026-05-01T09:30:06.966Z</time></trkpt><trkpt lat="41.4536259" lon="13.2042098"><ele>27.000000000000004</ele><time>2026-05-01T09:30:07.966Z</time></trkpt><trkpt lat="41.4537131" lon="13.2041851"><ele>27.0</ele><time>2026-05-01T09:30:08.966Z</time></trkpt><trkpt lat="41.4537964" lon="13.204196"><ele>27.0</ele><time>2026-05-01T09:30:09.965Z</time></trkpt><trkpt lat="41.4538684" lon="13.2042187"><ele>26.333333333333332</ele><time>2026-05-01T09:30:10.966Z</time></trkpt><trkpt lat="41.4539302" lon="13.2042691"><ele>25.666666666666668</ele><time>2026-05-01T09:30:11.966Z</time></trkpt><trkpt lat="41.4539913" lon="13.2043168"><ele>25.0</ele><time>2026-05-01T09:30:12.966Z</time></trkpt><trkpt lat="41.4540591" lon="13.2043325"><ele>24.333333333333336</ele><time>2026-05-01T09:30:13.966Z</time></trkpt><trkpt lat="41.4541729" lon="13.2044221"><ele>23.666666666666668</ele><time>2026-05-01T09:30:15.967Z</time></trkpt><trkpt lat="41.4542346" lon="13.2044792"><ele>23.0</ele><time>2026-05-01T09:30:16.965Z</time></trkpt><trkpt lat="41.4542969" lon="13.2045376"><ele>23.0</ele><time>2026-05-01T09:30:17.966Z</time></trkpt><trkpt lat="41.4543633" lon="13.2046031"><ele>23.0</ele><time>2026-05-01T09:30:18.966Z</time></trkpt><trkpt lat="41.4544393" lon="13.2046626"><ele>23.0</ele><time>2026-05-01T09:30:19.965Z</time></trkpt><trkpt lat="41.4545158" lon="13.2047226"><ele>23.0</ele><time>2026-05-01T09:30:20.967Z</time></trkpt><trkpt lat="41.4545879" lon="13.2047859"><ele>23.0</ele><time>2026-05-01T09:30:21.966Z</time></trkpt><trkpt lat="41.4546602" lon="13.2048506"><ele>23.0</ele><time>2026-05-01T09:30:22.966Z</time></trkpt><trkpt lat="41.4547343" lon="13.2049032"><ele>22.42857142857143</ele><time>2026-05-01T09:30:23.966Z</time></trkpt><trkpt lat="41.4548054" lon="13.204962"><ele>21.857142857142854</ele><time>2026-05-01T09:30:24.966Z</time></trkpt><trkpt lat="41.4548718" lon="13.2050054"><ele>21.285714285714285</ele><time>2026-05-01T09:30:25.966Z</time></trkpt><trkpt lat="41.4549374" lon="13.2050349"><ele>20.714285714285715</ele><time>2026-05-01T09:30:26.966Z</time></trkpt><trkpt lat="41.4550035" lon="13.2050498"><ele>20.142857142857146</ele><time>2026-05-01T09:30:27.966Z</time></trkpt><trkpt lat="41.4550702" lon="13.2050586"><ele>19.57142857142857</ele><time>2026-05-01T09:30:28.965Z</time></trkpt><trkpt lat="41.4551481" lon="13.2050665"><ele>19.0</ele><time>2026-05-01T09:30:29.966Z</time></trkpt><trkpt lat="41.4552315" lon="13.2050755"><ele>19.0</ele><time>2026-05-01T09:30:30.966Z</time></trkpt><trkpt lat="41.4553151" lon="13.2050843"><ele>19.0</ele><time>2026-05-01T09:30:31.967Z</time></trkpt><trkpt lat="41.4554011" lon="13.2050931"><ele>19.0</ele><time>2026-05-01T09:30:32.966Z</time></trkpt><trkpt lat="41.4554869" lon="13.2051033"><ele>19.0</ele><time>2026-05-01T09:30:33.965Z</time></trkpt><trkpt lat="41.4555783" lon="13.2051116"><ele>19.0</ele><time>2026-05-01T09:30:34.966Z</time></trkpt><trkpt lat="41.455667" lon="13.2051231"><ele>19.0</ele><time>2026-05-01T09:30:35.966Z</time></trkpt><trkpt lat="41.4557552" lon="13.2051356"><ele>19.4</ele><time>2026-05-01T09:30:36.967Z</time></trkpt><trkpt lat="41.4558428" lon="13.205144"><ele>19.799999999999997</ele><time>2026-05-01T09:30:37.965Z</time></trkpt><trkpt lat="41.4559133" lon="13.2051443"><ele>20.200000000000003</ele><time>2026-05-01T09:30:38.966Z</time></trkpt><trkpt lat="41.4560097" lon="13.2051102"><ele>20.6</ele><time>2026-05-01T09:30:40.966Z</time></trkpt><trkpt lat="41.456114" lon="13.2050169"><ele>21.0</ele><time>2026-05-01T09:30:42.967Z</time></trkpt><trkpt lat="41.4561775" lon="13.2049833"><ele>21.0</ele><time>2026-05-01T09:30:43.966Z</time></trkpt><trkpt lat="41.4562455" lon="13.204949"><ele>21.0</ele><time>2026-05-01T09:30:44.966Z</time></trkpt><trkpt lat="41.4563108" lon="13.2049098"><ele>21.0</ele><time>2026-05-01T09:30:45.967Z</time></trkpt><trkpt lat="41.4563777" lon="13.2048673"><ele>21.0</ele><time>2026-05-01T09:30:46.965Z</time></trkpt><trkpt lat="41.4564282" lon="13.2048111"><ele>21.0</ele><time>2026-05-01T09:30:48.965Z</time></trkpt><trkpt lat="41.4565008" lon="13.2047425"><ele>21.0</ele><time>2026-05-01T09:30:50.965Z</time></trkpt><trkpt lat="41.4565524" lon="13.2046737"><ele>21.0</ele><time>2026-05-01T09:30:51.967Z</time></trkpt><trkpt lat="41.4566087" lon="13.2045984"><ele>21.166666666666668</ele><time>2026-05-01T09:30:52.966Z</time></trkpt><trkpt lat="41.4566636" lon="13.204521"><ele>21.333333333333332</ele><time>2026-05-01T09:30:53.967Z</time></trkpt><trkpt lat="41.4567122" lon="13.2044452"><ele>21.5</ele><time>2026-05-01T09:30:54.966Z</time></trkpt><trkpt lat="41.4567622" lon="13.2043562"><ele>21.666666666666664</ele><time>2026-05-01T09:30:55.966Z</time></trkpt><trkpt lat="41.4568176" lon="13.2042612"><ele>21.833333333333332</ele><time>2026-05-01T09:30:56.966Z</time></trkpt><trkpt lat="41.456872" lon="13.2041647"><ele>22.0</ele><time>2026-05-01T09:30:57.965Z</time></trkpt><trkpt lat="41.4569205" lon="13.2040642"><ele>22.0</ele><time>2026-05-01T09:30:58.967Z</time></trkpt><trkpt lat="41.4569639" lon="13.203974"><ele>22.0</ele><time>2026-05-01T09:30:59.965Z</time></trkpt><trkpt lat="41.4570203" lon="13.2038889"><ele>22.0</ele><time>2026-05-01T09:31:00.966Z</time></trkpt><trkpt lat="41.4570741" lon="13.2038013"><ele>22.0</ele><time>2026-05-01T09:31:01.967Z</time></trkpt><trkpt lat="41.4571209" lon="13.203706"><ele>22.0</ele><time>2026-05-01T09:31:02.966Z</time></trkpt><trkpt lat="41.4571616" lon="13.2036085"><ele>22.0</ele><time>2026-05-01T09:31:03.966Z</time></trkpt><trkpt lat="41.4572074" lon="13.2035195"><ele>22.0</ele><time>2026-05-01T09:31:04.966Z</time></trkpt><trkpt lat="41.4572542" lon="13.2034341"><ele>22.0</ele><time>2026-05-01T09:31:05.966Z</time></trkpt><trkpt lat="41.4572994" lon="13.2033496"><ele>22.0</ele><time>2026-05-01T09:31:06.966Z</time></trkpt><trkpt lat="41.4573467" lon="13.2032601"><ele>22.0</ele><time>2026-05-01T09:31:07.966Z</time></trkpt><trkpt lat="41.4573842" lon="13.2031863"><ele>22.0</ele><time>2026-05-01T09:31:08.965Z</time></trkpt><trkpt lat="41.4574512" lon="13.2030673"><ele>22.0</ele><time>2026-05-01T09:31:10.967Z</time></trkpt><trkpt lat="41.4574936" lon="13.2029866"><ele>22.0</ele><time>2026-05-01T09:31:11.966Z</time></trkpt><trkpt lat="41.4575412" lon="13.2028976"><ele>22.0</ele><time>2026-05-01T09:31:12.965Z</time></trkpt><trkpt lat="41.4575897" lon="13.2028035"><ele>22.0</ele><time>2026-05-01T09:31:13.966Z</time></trkpt><trkpt lat="41.4576396" lon="13.2027158"><ele>22.0</ele><time>2026-05-01T09:31:14.966Z</time></trkpt><trkpt lat="41.4576915" lon="13.2026353"><ele>22.0</ele><time>2026-05-01T09:31:15.966Z</time></trkpt><trkpt lat="41.4577371" lon="13.2025474"><ele>22.0</ele><time>2026-05-01T09:31:16.967Z</time></trkpt><trkpt lat="41.4577784" lon="13.2024492"><ele>22.0</ele><time>2026-05-01T09:31:17.966Z</time></trkpt><trkpt lat="41.4578248" lon="13.2023506"><ele>22.0</ele><time>2026-05-01T09:31:18.966Z</time></trkpt><trkpt lat="41.457872" lon="13.2022612"><ele>22.0</ele><time>2026-05-01T09:31:19.967Z</time></trkpt><trkpt lat="41.4579201" lon="13.2021714"><ele>22.0</ele><time>2026-05-01T09:31:20.966Z</time></trkpt><trkpt lat="41.457977" lon="13.2020707"><ele>22.0</ele><time>2026-05-01T09:31:21.966Z</time></trkpt><trkpt lat="41.4580417" lon="13.201952"><ele>22.200000000000003</ele><time>2026-05-01T09:31:22.966Z</time></trkpt><trkpt lat="41.4580969" lon="13.2018433"><ele>22.4</ele><time>2026-05-01T09:31:23.967Z</time></trkpt><trkpt lat="41.4581493" lon="13.2017511"><ele>22.6</ele><time>2026-05-01T09:31:24.966Z</time></trkpt><trkpt lat="41.4582044" lon="13.2016627"><ele>22.799999999999997</ele><time>2026-05-01T09:31:25.966Z</time></trkpt><trkpt lat="41.4582637" lon="13.2015692"><ele>23.0</ele><time>2026-05-01T09:31:26.967Z</time></trkpt><trkpt lat="41.4583197" lon="13.2014756"><ele>23.0</ele><time>2026-05-01T09:31:27.967Z</time></trkpt><trkpt lat="41.4583642" lon="13.2013905"><ele>23.0</ele><time>2026-05-01T09:31:28.965Z</time></trkpt><trkpt lat="41.4584005" lon="13.2013171"><ele>23.0</ele><time>2026-05-01T09:31:29.965Z</time></trkpt><trkpt lat="41.4584926" lon="13.201202"><ele>23.0</ele><time>2026-05-01T09:31:31.966Z</time></trkpt><trkpt lat="41.4585525" lon="13.2011295"><ele>23.0</ele><time>2026-05-01T09:31:32.966Z</time></trkpt><trkpt lat="41.4586129" lon="13.2010548"><ele>23.0</ele><time>2026-05-01T09:31:33.966Z</time></trkpt><trkpt lat="41.4586777" lon="13.200991"><ele>23.0</ele><time>2026-05-01T09:31:34.965Z</time></trkpt><trkpt lat="41.4587494" lon="13.2009358"><ele>23.0</ele><time>2026-05-01T09:31:35.965Z</time></trkpt><trkpt lat="41.4588177" lon="13.2008783"><ele>23.0</ele><time>2026-05-01T09:31:36.966Z</time></trkpt><trkpt lat="41.4588831" lon="13.2008343"><ele>23.0</ele><time>2026-05-01T09:31:37.966Z</time></trkpt><trkpt lat="41.4589465" lon="13.2008168"><ele>23.0</ele><time>2026-05-01T09:31:38.967Z</time></trkpt><trkpt lat="41.4590602" lon="13.2008194"><ele>23.0</ele><time>2026-05-01T09:31:40.966Z</time></trkpt><trkpt lat="41.4591513" lon="13.2007777"><ele>23.0</ele><time>2026-05-01T09:31:42.966Z</time></trkpt><trkpt lat="41.4592241" lon="13.2007499"><ele>23.0</ele><time>2026-05-01T09:31:44.966Z</time></trkpt><trkpt lat="41.4593028" lon="13.2007236"><ele>23.0</ele><time>2026-05-01T09:31:47.966Z</time></trkpt><trkpt lat="41.4593851" lon="13.2007124"><ele>23.0</ele><time>2026-05-01T09:31:52.965Z</time></trkpt><trkpt lat="41.4594418" lon="13.2007759"><ele>23.0</ele><time>2026-05-01T09:31:54.966Z</time></trkpt><trkpt lat="41.4595304" lon="13.2008008"><ele>23.0</ele><time>2026-05-01T09:32:04.966Z</time></trkpt><trkpt lat="41.459623" lon="13.200751"><ele>22.833333333333336</ele><time>2026-05-01T09:32:06.966Z</time></trkpt><trkpt lat="41.4597267" lon="13.2006656"><ele>22.666666666666668</ele><time>2026-05-01T09:32:08.965Z</time></trkpt><trkpt lat="41.4597919" lon="13.2006365"><ele>22.5</ele><time>2026-05-01T09:32:09.967Z</time></trkpt><trkpt lat="41.4598637" lon="13.2006165"><ele>22.333333333333332</ele><time>2026-05-01T09:32:10.966Z</time></trkpt><trkpt lat="41.4599463" lon="13.2005932"><ele>22.166666666666664</ele><time>2026-05-01T09:32:11.966Z</time></trkpt><trkpt lat="41.4600181" lon="13.2005752"><ele>22.0</ele><time>2026-05-01T09:32:12.967Z</time></trkpt><trkpt lat="41.4601022" lon="13.2005576"><ele>22.0</ele><time>2026-05-01T09:32:13.966Z</time></trkpt><trkpt lat="41.4601858" lon="13.2005374"><ele>22.0</ele><time>2026-05-01T09:32:14.966Z</time></trkpt><trkpt lat="41.4602738" lon="13.2005161"><ele>22.0</ele><time>2026-05-01T09:32:15.966Z</time></trkpt><trkpt lat="41.4603602" lon="13.2004944"><ele>22.0</ele><time>2026-05-01T09:32:16.965Z</time></trkpt><trkpt lat="41.4604499" lon="13.2004761"><ele>22.0</ele><time>2026-05-01T09:32:17.966Z</time></trkpt><trkpt lat="41.4605343" lon="13.2004576"><ele>22.0</ele><time>2026-05-01T09:32:18.967Z</time></trkpt><trkpt lat="41.4606211" lon="13.2004397"><ele>22.0</ele><time>2026-05-01T09:32:19.966Z</time></trkpt><trkpt lat="41.4607124" lon="13.2004167"><ele>22.0</ele><time>2026-05-01T09:32:20.966Z</time></trkpt><trkpt lat="41.4608008" lon="13.2003921"><ele>22.0</ele><time>2026-05-01T09:32:21.967Z</time></trkpt><trkpt lat="41.4608904" lon="13.2003689"><ele>22.0</ele><time>2026-05-01T09:32:22.965Z</time></trkpt><trkpt lat="41.4609697" lon="13.2003545"><ele>22.0</ele><time>2026-05-01T09:32:23.965Z</time></trkpt><trkpt lat="41.4610581" lon="13.2003358"><ele>22.0</ele><time>2026-05-01T09:32:24.965Z</time></trkpt><trkpt lat="41.4611296" lon="13.2003175"><ele>22.0</ele><time>2026-05-01T09:32:25.967Z</time></trkpt><trkpt lat="41.461205" lon="13.2002964"><ele>22.0</ele><time>2026-05-01T09:32:26.966Z</time></trkpt><trkpt lat="41.4612821" lon="13.2002724"><ele>22.0</ele><time>2026-05-01T09:32:27.966Z</time></trkpt><trkpt lat="41.46136" lon="13.2002392"><ele>22.0</ele><time>2026-05-01T09:32:28.967Z</time></trkpt><trkpt lat="41.4614333" lon="13.2002058"><ele>22.0</ele><time>2026-05-01T09:32:29.966Z</time></trkpt><trkpt lat="41.4615124" lon="13.2001585"><ele>22.0</ele><time>2026-05-01T09:32:30.965Z</time></trkpt><trkpt lat="41.4615841" lon="13.2001178"><ele>22.0</ele><time>2026-05-01T09:32:31.964Z</time></trkpt><trkpt lat="41.4616581" lon="13.200064"><ele>22.0</ele><time>2026-05-01T09:32:32.965Z</time></trkpt><trkpt lat="41.4617295" lon="13.2000045"><ele>22.0</ele><time>2026-05-01T09:32:33.965Z</time></trkpt><trkpt lat="41.4618013" lon="13.199943"><ele>22.0</ele><time>2026-05-01T09:32:34.965Z</time></trkpt><trkpt lat="41.4618687" lon="13.1998816"><ele>22.0</ele><time>2026-05-01T09:32:35.965Z</time></trkpt><trkpt lat="41.4619377" lon="13.1998156"><ele>22.0</ele><time>2026-05-01T09:32:36.966Z</time></trkpt><trkpt lat="41.4620037" lon="13.1997442"><ele>22.0</ele><time>2026-05-01T09:32:37.965Z</time></trkpt><trkpt lat="41.4620729" lon="13.199656"><ele>22.0</ele><time>2026-05-01T09:32:38.965Z</time></trkpt><trkpt lat="41.4621345" lon="13.1995678"><ele>22.0</ele><time>2026-05-01T09:32:39.965Z</time></trkpt><trkpt lat="41.4621952" lon="13.199478"><ele>22.0</ele><time>2026-05-01T09:32:40.965Z</time></trkpt><trkpt lat="41.4622555" lon="13.1993875"><ele>22.0</ele><time>2026-05-01T09:32:41.965Z</time></trkpt><trkpt lat="41.4623125" lon="13.1992967"><ele>22.166666666666664</ele><time>2026-05-01T09:32:42.965Z</time></trkpt><trkpt lat="41.4623654" lon="13.1992079"><ele>22.333333333333332</ele><time>2026-05-01T09:32:43.966Z</time></trkpt><trkpt lat="41.4624172" lon="13.1991235"><ele>22.5</ele><time>2026-05-01T09:32:44.965Z</time></trkpt><trkpt lat="41.4624724" lon="13.1990392"><ele>22.666666666666668</ele><time>2026-05-01T09:32:45.965Z</time></trkpt><trkpt lat="41.4625265" lon="13.1989482"><ele>22.833333333333336</ele><time>2026-05-01T09:32:46.966Z</time></trkpt><trkpt lat="41.4625948" lon="13.1988395"><ele>23.0</ele><time>2026-05-01T09:32:47.964Z</time></trkpt><trkpt lat="41.4626488" lon="13.198754"><ele>23.0</ele><time>2026-05-01T09:32:48.965Z</time></trkpt><trkpt lat="41.4627056" lon="13.1986671"><ele>23.0</ele><time>2026-05-01T09:32:49.966Z</time></trkpt><trkpt lat="41.4627633" lon="13.1985768"><ele>23.0</ele><time>2026-05-01T09:32:50.965Z</time></trkpt><trkpt lat="41.4628233" lon="13.1984856"><ele>23.0</ele><time>2026-05-01T09:32:51.964Z</time></trkpt><trkpt lat="41.4628779" lon="13.1983955"><ele>23.0</ele><time>2026-05-01T09:32:52.964Z</time></trkpt><trkpt lat="41.4629367" lon="13.1983028"><ele>23.0</ele><time>2026-05-01T09:32:53.965Z</time></trkpt><trkpt lat="41.4629974" lon="13.198213"><ele>22.833333333333336</ele><time>2026-05-01T09:32:54.964Z</time></trkpt><trkpt lat="41.4630586" lon="13.1981244"><ele>22.666666666666668</ele><time>2026-05-01T09:32:55.965Z</time></trkpt><trkpt lat="41.4631181" lon="13.1980334"><ele>22.5</ele><time>2026-05-01T09:32:56.965Z</time></trkpt><trkpt lat="41.4631743" lon="13.1979449"><ele>22.333333333333332</ele><time>2026-05-01T09:32:57.966Z</time></trkpt><trkpt lat="41.4632267" lon="13.1978694"><ele>22.166666666666664</ele><time>2026-05-01T09:32:58.964Z</time></trkpt><trkpt lat="41.4632754" lon="13.1977896"><ele>22.0</ele><time>2026-05-01T09:32:59.965Z</time></trkpt><trkpt lat="41.4633275" lon="13.1977143"><ele>22.0</ele><time>2026-05-01T09:33:00.964Z</time></trkpt><trkpt lat="41.4633801" lon="13.1976356"><ele>22.0</ele><time>2026-05-01T09:33:01.965Z</time></trkpt><trkpt lat="41.4634352" lon="13.1975595"><ele>22.0</ele><time>2026-05-01T09:33:02.965Z</time></trkpt><trkpt lat="41.4634862" lon="13.1974782"><ele>22.0</ele><time>2026-05-01T09:33:03.966Z</time></trkpt><trkpt lat="41.4635329" lon="13.1973979"><ele>22.0</ele><time>2026-05-01T09:33:04.965Z</time></trkpt><trkpt lat="41.4635904" lon="13.1973119"><ele>22.0</ele><time>2026-05-01T09:33:05.965Z</time></trkpt><trkpt lat="41.4636429" lon="13.197224"><ele>22.333333333333332</ele><time>2026-05-01T09:33:06.966Z</time></trkpt><trkpt lat="41.4636964" lon="13.1971402"><ele>22.666666666666664</ele><time>2026-05-01T09:33:07.966Z</time></trkpt><trkpt lat="41.463751" lon="13.1970555"><ele>23.0</ele><time>2026-05-01T09:33:08.964Z</time></trkpt><trkpt lat="41.4638104" lon="13.1969777"><ele>23.333333333333332</ele><time>2026-05-01T09:33:09.964Z</time></trkpt><trkpt lat="41.4638776" lon="13.1969036"><ele>23.666666666666668</ele><time>2026-05-01T09:33:10.965Z</time></trkpt><trkpt lat="41.463945" lon="13.1968373"><ele>24.0</ele><time>2026-05-01T09:33:11.965Z</time></trkpt><trkpt lat="41.4640095" lon="13.196785"><ele>23.999999999999996</ele><time>2026-05-01T09:33:12.965Z</time></trkpt><trkpt lat="41.4640765" lon="13.1967313"><ele>24.0</ele><time>2026-05-01T09:33:13.965Z</time></trkpt><trkpt lat="41.4641515" lon="13.1966872"><ele>24.0</ele><time>2026-05-01T09:33:14.964Z</time></trkpt><trkpt lat="41.4642206" lon="13.1966485"><ele>24.0</ele><time>2026-05-01T09:33:15.965Z</time></trkpt><trkpt lat="41.4642851" lon="13.1966171"><ele>24.0</ele><time>2026-05-01T09:33:16.965Z</time></trkpt><trkpt lat="41.4643558" lon="13.1965944"><ele>23.999999999999996</ele><time>2026-05-01T09:33:17.965Z</time></trkpt><trkpt lat="41.4644257" lon="13.1965732"><ele>24.0</ele><time>2026-05-01T09:33:18.965Z</time></trkpt><trkpt lat="41.4644971" lon="13.1965604"><ele>24.0</ele><time>2026-05-01T09:33:19.965Z</time></trkpt><trkpt lat="41.4645718" lon="13.1965577"><ele>24.0</ele><time>2026-05-01T09:33:20.965Z</time></trkpt><trkpt lat="41.4646474" lon="13.1965665"><ele>24.0</ele><time>2026-05-01T09:33:21.966Z</time></trkpt><trkpt lat="41.4647303" lon="13.1965812"><ele>24.0</ele><time>2026-05-01T09:33:22.965Z</time></trkpt><trkpt lat="41.46481" lon="13.1966044"><ele>24.0</ele><time>2026-05-01T09:33:23.964Z</time></trkpt><trkpt lat="41.4648855" lon="13.1966354"><ele>24.0</ele><time>2026-05-01T09:33:24.965Z</time></trkpt><trkpt lat="41.4649637" lon="13.1966642"><ele>24.0</ele><time>2026-05-01T09:33:25.965Z</time></trkpt><trkpt lat="41.4650371" lon="13.1967044"><ele>24.0</ele><time>2026-05-01T09:33:26.964Z</time></trkpt><trkpt lat="41.4651083" lon="13.1967434"><ele>24.0</ele><time>2026-05-01T09:33:27.965Z</time></trkpt><trkpt lat="41.4651788" lon="13.1967817"><ele>24.0</ele><time>2026-05-01T09:33:28.965Z</time></trkpt><trkpt lat="41.4652389" lon="13.1968244"><ele>24.0</ele><time>2026-05-01T09:33:29.965Z</time></trkpt><trkpt lat="41.4653449" lon="13.196886"><ele>24.0</ele><time>2026-05-01T09:33:31.965Z</time></trkpt><trkpt lat="41.4654475" lon="13.1969459"><ele>24.0</ele><time>2026-05-01T09:33:33.965Z</time></trkpt><trkpt lat="41.4655299" lon="13.1969997"><ele>24.0</ele><time>2026-05-01T09:33:35.965Z</time></trkpt><trkpt lat="41.4656135" lon="13.197055"><ele>24.0</ele><time>2026-05-01T09:33:37.965Z</time></trkpt><trkpt lat="41.46568" lon="13.1970963"><ele>24.0</ele><time>2026-05-01T09:33:39.966Z</time></trkpt><trkpt lat="41.465741" lon="13.19714"><ele>24.0</ele><time>2026-05-01T09:33:41.965Z</time></trkpt><trkpt lat="41.4657958" lon="13.197187"><ele>24.0</ele><time>2026-05-01T09:33:43.966Z</time></trkpt><trkpt lat="41.4658701" lon="13.1972243"><ele>24.0</ele><time>2026-05-01T09:33:46.965Z</time></trkpt><trkpt lat="41.465949" lon="13.1972764"><ele>24.0</ele><time>2026-05-01T09:33:48.965Z</time></trkpt><trkpt lat="41.4660397" lon="13.1973309"><ele>24.0</ele><time>2026-05-01T09:33:50.966Z</time></trkpt><trkpt lat="41.4661628" lon="13.1973949"><ele>24.0</ele><time>2026-05-01T09:33:52.965Z</time></trkpt><trkpt lat="41.4662243" lon="13.1974315"><ele>24.0</ele><time>2026-05-01T09:33:53.965Z</time></trkpt><trkpt lat="41.4662915" lon="13.1974616"><ele>24.166666666666668</ele><time>2026-05-01T09:33:54.965Z</time></trkpt><trkpt lat="41.4663557" lon="13.1974888"><ele>24.333333333333336</ele><time>2026-05-01T09:33:55.965Z</time></trkpt><trkpt lat="41.4664285" lon="13.1975161"><ele>24.5</ele><time>2026-05-01T09:33:56.965Z</time></trkpt><trkpt lat="41.4665008" lon="13.1975312"><ele>24.666666666666668</ele><time>2026-05-01T09:33:57.966Z</time></trkpt><trkpt lat="41.4665813" lon="13.1975566"><ele>24.833333333333336</ele><time>2026-05-01T09:33:58.966Z</time></trkpt><trkpt lat="41.4666584" lon="13.1975697"><ele>25.0</ele><time>2026-05-01T09:33:59.965Z</time></trkpt><trkpt lat="41.4667393" lon="13.1975834"><ele>25.000000000000004</ele><time>2026-05-01T09:34:00.965Z</time></trkpt><trkpt lat="41.4668126" lon="13.1975938"><ele>25.0</ele><time>2026-05-01T09:34:01.966Z</time></trkpt><trkpt lat="41.4668876" lon="13.1975993"><ele>25.0</ele><time>2026-05-01T09:34:02.965Z</time></trkpt><trkpt lat="41.4669518" lon="13.1975964"><ele>25.0</ele><time>2026-05-01T09:34:03.965Z</time></trkpt><trkpt lat="41.4670152" lon="13.1975912"><ele>25.000000000000004</ele><time>2026-05-01T09:34:04.965Z</time></trkpt><trkpt lat="41.467128" lon="13.1975742"><ele>25.0</ele><time>2026-05-01T09:34:06.964Z</time></trkpt><trkpt lat="41.4671974" lon="13.1975634"><ele>24.833333333333336</ele><time>2026-05-01T09:34:07.966Z</time></trkpt><trkpt lat="41.4672719" lon="13.1975553"><ele>24.666666666666668</ele><time>2026-05-01T09:34:08.965Z</time></trkpt><trkpt lat="41.4673491" lon="13.197548"><ele>24.5</ele><time>2026-05-01T09:34:09.964Z</time></trkpt><trkpt lat="41.4674313" lon="13.1975388"><ele>24.333333333333336</ele><time>2026-05-01T09:34:10.965Z</time></trkpt><trkpt lat="41.46751" lon="13.1975339"><ele>24.166666666666668</ele><time>2026-05-01T09:34:11.965Z</time></trkpt><trkpt lat="41.4675902" lon="13.1975262"><ele>24.0</ele><time>2026-05-01T09:34:12.965Z</time></trkpt><trkpt lat="41.467675" lon="13.1975164"><ele>24.0</ele><time>2026-05-01T09:34:13.964Z</time></trkpt><trkpt lat="41.467757" lon="13.1975149"><ele>24.0</ele><time>2026-05-01T09:34:14.965Z</time></trkpt><trkpt lat="41.4678323" lon="13.197505"><ele>24.0</ele><time>2026-05-01T09:34:15.965Z</time></trkpt><trkpt lat="41.4679092" lon="13.1974983"><ele>24.0</ele><time>2026-05-01T09:34:16.966Z</time></trkpt><trkpt lat="41.4679845" lon="13.1974934"><ele>24.0</ele><time>2026-05-01T09:34:17.965Z</time></trkpt><trkpt lat="41.4680636" lon="13.1974845"><ele>24.0</ele><time>2026-05-01T09:34:18.964Z</time></trkpt><trkpt lat="41.4681459" lon="13.1974705"><ele>24.166666666666668</ele><time>2026-05-01T09:34:19.965Z</time></trkpt><trkpt lat="41.4682364" lon="13.1974583"><ele>24.333333333333336</ele><time>2026-05-01T09:34:20.964Z</time></trkpt><trkpt lat="41.4683159" lon="13.1974508"><ele>24.5</ele><time>2026-05-01T09:34:21.965Z</time></trkpt><trkpt lat="41.4683953" lon="13.1974392"><ele>24.666666666666668</ele><time>2026-05-01T09:34:22.964Z</time></trkpt><trkpt lat="41.4684736" lon="13.1974282"><ele>24.833333333333336</ele><time>2026-05-01T09:34:23.965Z</time></trkpt><trkpt lat="41.4685496" lon="13.1974142"><ele>25.0</ele><time>2026-05-01T09:34:24.964Z</time></trkpt><trkpt lat="41.4686209" lon="13.1974082"><ele>25.000000000000004</ele><time>2026-05-01T09:34:25.965Z</time></trkpt><trkpt lat="41.4686912" lon="13.1973998"><ele>25.0</ele><time>2026-05-01T09:34:26.965Z</time></trkpt><trkpt lat="41.4687546" lon="13.1973992"><ele>25.0</ele><time>2026-05-01T09:34:27.965Z</time></trkpt><trkpt lat="41.4688294" lon="13.1973919"><ele>25.0</ele><time>2026-05-01T09:34:28.966Z</time></trkpt><trkpt lat="41.4688976" lon="13.1973859"><ele>25.0</ele><time>2026-05-01T09:34:29.965Z</time></trkpt><trkpt lat="41.4689732" lon="13.197376"><ele>25.000000000000004</ele><time>2026-05-01T09:34:30.965Z</time></trkpt><trkpt lat="41.4690506" lon="13.1973681"><ele>25.0</ele><time>2026-05-01T09:34:31.965Z</time></trkpt><trkpt lat="41.4691244" lon="13.1973586"><ele>25.000000000000004</ele><time>2026-05-01T09:34:32.965Z</time></trkpt><trkpt lat="41.4691958" lon="13.1973463"><ele>25.0</ele><time>2026-05-01T09:34:33.965Z</time></trkpt><trkpt lat="41.4693238" lon="13.1973388"><ele>25.0</ele><time>2026-05-01T09:34:35.965Z</time></trkpt><trkpt lat="41.4693874" lon="13.1973385"><ele>25.0</ele><time>2026-05-01T09:34:36.965Z</time></trkpt><trkpt lat="41.4694546" lon="13.1973282"><ele>25.000000000000004</ele><time>2026-05-01T09:34:37.965Z</time></trkpt><trkpt lat="41.469526" lon="13.1973197"><ele>25.0</ele><time>2026-05-01T09:34:38.965Z</time></trkpt><trkpt lat="41.46966" lon="13.1973074"><ele>25.000000000000004</ele><time>2026-05-01T09:34:40.965Z</time></trkpt><trkpt lat="41.469735" lon="13.1973019"><ele>25.0</ele><time>2026-05-01T09:34:41.964Z</time></trkpt><trkpt lat="41.4698161" lon="13.1972946"><ele>25.0</ele><time>2026-05-01T09:34:42.964Z</time></trkpt><trkpt lat="41.4699001" lon="13.1972898"><ele>25.0</ele><time>2026-05-01T09:34:43.965Z</time></trkpt><trkpt lat="41.469978" lon="13.1972844"><ele>25.000000000000004</ele><time>2026-05-01T09:34:44.965Z</time></trkpt><trkpt lat="41.4700463" lon="13.1972851"><ele>25.0</ele><time>2026-05-01T09:34:45.966Z</time></trkpt><trkpt lat="41.4701142" lon="13.19729"><ele>25.0</ele><time>2026-05-01T09:34:46.965Z</time></trkpt><trkpt lat="41.4702327" lon="13.1972753"><ele>25.0</ele><time>2026-05-01T09:34:48.966Z</time></trkpt><trkpt lat="41.4703444" lon="13.1972598"><ele>25.0</ele><time>2026-05-01T09:34:50.965Z</time></trkpt><trkpt lat="41.4704463" lon="13.1972532"><ele>25.0</ele><time>2026-05-01T09:34:52.966Z</time></trkpt><trkpt lat="41.4705367" lon="13.1972409"><ele>25.0</ele><time>2026-05-01T09:34:54.965Z</time></trkpt><trkpt lat="41.4706211" lon="13.1972476"><ele>25.000000000000004</ele><time>2026-05-01T09:34:56.965Z</time></trkpt><trkpt lat="41.4706853" lon="13.1973007"><ele>25.0</ele><time>2026-05-01T09:34:59.966Z</time></trkpt><trkpt lat="41.4707796" lon="13.1972973"><ele>25.0</ele><time>2026-05-01T09:35:10.964Z</time></trkpt><trkpt lat="41.470841" lon="13.1973286"><ele>25.0</ele><time>2026-05-01T09:35:14.964Z</time></trkpt><trkpt lat="41.4708166" lon="13.1972487"><ele>25.000000000000004</ele><time>2026-05-01T09:35:18.963Z</time></trkpt><trkpt lat="41.4708081" lon="13.1971456"><ele>25.0</ele><time>2026-05-01T09:35:20.963Z</time></trkpt><trkpt lat="41.470796" lon="13.1970197"><ele>25.0</ele><time>2026-05-01T09:35:22.963Z</time></trkpt><trkpt lat="41.4707821" lon="13.1968839"><ele>25.0</ele><time>2026-05-01T09:35:24.963Z</time></trkpt><trkpt lat="41.470783" lon="13.1967396"><ele>25.0</ele><time>2026-05-01T09:35:26.965Z</time></trkpt><trkpt lat="41.4707759" lon="13.1965962"><ele>25.0</ele><time>2026-05-01T09:35:28.964Z</time></trkpt><trkpt lat="41.4707827" lon="13.1964791"><ele>25.0</ele><time>2026-05-01T09:35:30.964Z</time></trkpt><trkpt lat="41.4708375" lon="13.1964109"><ele>25.2</ele><time>2026-05-01T09:35:32.964Z</time></trkpt><trkpt lat="41.4709172" lon="13.196384"><ele>25.4</ele><time>2026-05-01T09:35:34.964Z</time></trkpt><trkpt lat="41.4710064" lon="13.1963769"><ele>25.6</ele><time>2026-05-01T09:35:36.965Z</time></trkpt><trkpt lat="41.4711033" lon="13.196372"><ele>25.8</ele><time>2026-05-01T09:35:38.964Z</time></trkpt><trkpt lat="41.4712136" lon="13.1963559"><ele>26.0</ele><time>2026-05-01T09:35:40.965Z</time></trkpt><trkpt lat="41.4713438" lon="13.1963316"><ele>25.999999999999996</ele><time>2026-05-01T09:35:42.965Z</time></trkpt><trkpt lat="41.4714142" lon="13.196321"><ele>26.0</ele><time>2026-05-01T09:35:43.964Z</time></trkpt><trkpt lat="41.4714848" lon="13.1963116"><ele>26.0</ele><time>2026-05-01T09:35:44.964Z</time></trkpt><trkpt lat="41.4715609" lon="13.1963073"><ele>26.0</ele><time>2026-05-01T09:35:45.965Z</time></trkpt><trkpt lat="41.4716378" lon="13.1963045"><ele>25.999999999999996</ele><time>2026-05-01T09:35:46.964Z</time></trkpt><trkpt lat="41.4717176" lon="13.1962945"><ele>26.0</ele><time>2026-05-01T09:35:47.964Z</time></trkpt><trkpt lat="41.4718027" lon="13.1962855"><ele>25.999999999999996</ele><time>2026-05-01T09:35:48.964Z</time></trkpt><trkpt lat="41.4718874" lon="13.1962745"><ele>26.0</ele><time>2026-05-01T09:35:49.965Z</time></trkpt><trkpt lat="41.471966" lon="13.1962704"><ele>26.0</ele><time>2026-05-01T09:35:50.963Z</time></trkpt><trkpt lat="41.4720426" lon="13.1962668"><ele>26.0</ele><time>2026-05-01T09:35:51.964Z</time></trkpt><trkpt lat="41.4721189" lon="13.1962629"><ele>25.999999999999996</ele><time>2026-05-01T09:35:52.965Z</time></trkpt><trkpt lat="41.4721996" lon="13.1962675"><ele>26.0</ele><time>2026-05-01T09:35:53.964Z</time></trkpt><trkpt lat="41.4722783" lon="13.1962771"><ele>25.833333333333332</ele><time>2026-05-01T09:35:54.964Z</time></trkpt><trkpt lat="41.4723598" lon="13.1962681"><ele>25.666666666666664</ele><time>2026-05-01T09:35:55.965Z</time></trkpt><trkpt lat="41.4724362" lon="13.1962682"><ele>25.5</ele><time>2026-05-01T09:35:56.964Z</time></trkpt><trkpt lat="41.4725176" lon="13.1962625"><ele>25.333333333333336</ele><time>2026-05-01T09:35:57.964Z</time></trkpt><trkpt lat="41.4726007" lon="13.1962541"><ele>25.166666666666668</ele><time>2026-05-01T09:35:58.963Z</time></trkpt><trkpt lat="41.4726852" lon="13.1962468"><ele>25.0</ele><time>2026-05-01T09:35:59.964Z</time></trkpt><trkpt lat="41.4727704" lon="13.1962354"><ele>25.000000000000004</ele><time>2026-05-01T09:36:00.963Z</time></trkpt><trkpt lat="41.4728549" lon="13.1962287"><ele>25.0</ele><time>2026-05-01T09:36:01.964Z</time></trkpt><trkpt lat="41.4729444" lon="13.1962162"><ele>25.0</ele><time>2026-05-01T09:36:02.963Z</time></trkpt><trkpt lat="41.4730286" lon="13.196213"><ele>25.0</ele><time>2026-05-01T09:36:03.964Z</time></trkpt><trkpt lat="41.4731167" lon="13.1962"><ele>25.000000000000004</ele><time>2026-05-01T09:36:04.964Z</time></trkpt><trkpt lat="41.4732021" lon="13.1961826"><ele>25.0</ele><time>2026-05-01T09:36:05.964Z</time></trkpt><trkpt lat="41.473283" lon="13.1961575"><ele>25.2</ele><time>2026-05-01T09:36:06.964Z</time></trkpt><trkpt lat="41.4733577" lon="13.1961175"><ele>25.4</ele><time>2026-05-01T09:36:07.964Z</time></trkpt><trkpt lat="41.4734375" lon="13.1960716"><ele>25.6</ele><time>2026-05-01T09:36:08.964Z</time></trkpt><trkpt lat="41.4735257" lon="13.196039"><ele>25.8</ele><time>2026-05-01T09:36:09.964Z</time></trkpt><trkpt lat="41.4736154" lon="13.1959941"><ele>26.0</ele><time>2026-05-01T09:36:10.965Z</time></trkpt><trkpt lat="41.473701" lon="13.1959297"><ele>25.8</ele><time>2026-05-01T09:36:11.964Z</time></trkpt><trkpt lat="41.4737769" lon="13.1958589"><ele>25.6</ele><time>2026-05-01T09:36:12.965Z</time></trkpt><trkpt lat="41.4738515" lon="13.1957814"><ele>25.4</ele><time>2026-05-01T09:36:13.964Z</time></trkpt><trkpt lat="41.473929" lon="13.1957028"><ele>25.2</ele><time>2026-05-01T09:36:14.964Z</time></trkpt><trkpt lat="41.4740111" lon="13.1956328"><ele>25.0</ele><time>2026-05-01T09:36:15.964Z</time></trkpt><trkpt lat="41.4740875" lon="13.1955506"><ele>25.0</ele><time>2026-05-01T09:36:16.964Z</time></trkpt><trkpt lat="41.474161" lon="13.1954652"><ele>25.0</ele><time>2026-05-01T09:36:17.965Z</time></trkpt><trkpt lat="41.4742344" lon="13.1953789"><ele>25.0</ele><time>2026-05-01T09:36:18.964Z</time></trkpt><trkpt lat="41.4743098" lon="13.1952893"><ele>25.0</ele><time>2026-05-01T09:36:19.964Z</time></trkpt><trkpt lat="41.4743849" lon="13.19521"><ele>25.0</ele><time>2026-05-01T09:36:20.965Z</time></trkpt><trkpt lat="41.4744569" lon="13.1951196"><ele>25.0</ele><time>2026-05-01T09:36:21.963Z</time></trkpt><trkpt lat="41.4745285" lon="13.1950306"><ele>25.0</ele><time>2026-05-01T09:36:22.963Z</time></trkpt><trkpt lat="41.4745925" lon="13.1949471"><ele>25.0</ele><time>2026-05-01T09:36:23.964Z</time></trkpt><trkpt lat="41.474656" lon="13.1948705"><ele>25.0</ele><time>2026-05-01T09:36:24.964Z</time></trkpt><trkpt lat="41.4747152" lon="13.1947811"><ele>25.0</ele><time>2026-05-01T09:36:25.964Z</time></trkpt><trkpt lat="41.4747936" lon="13.1946992"><ele>25.4</ele><time>2026-05-01T09:36:26.964Z</time></trkpt><trkpt lat="41.4748789" lon="13.1946195"><ele>25.8</ele><time>2026-05-01T09:36:27.965Z</time></trkpt><trkpt lat="41.4749492" lon="13.1945258"><ele>26.200000000000003</ele><time>2026-05-01T09:36:28.964Z</time></trkpt><trkpt lat="41.4750146" lon="13.1944202"><ele>26.6</ele><time>2026-05-01T09:36:29.964Z</time></trkpt><trkpt lat="41.4750676" lon="13.1942646"><ele>27.0</ele><time>2026-05-01T09:36:30.964Z</time></trkpt><trkpt lat="41.4751318" lon="13.1940665"><ele>27.0</ele><time>2026-05-01T09:36:31.964Z</time></trkpt><trkpt lat="41.4752216" lon="13.1938377"><ele>27.0</ele><time>2026-05-01T09:36:32.963Z</time></trkpt><trkpt lat="41.4753004" lon="13.193598"><ele>27.0</ele><time>2026-05-01T09:36:33.965Z</time></trkpt><trkpt lat="41.4753785" lon="13.1933633"><ele>27.333333333333336</ele><time>2026-05-01T09:36:34.964Z</time></trkpt><trkpt lat="41.4754567" lon="13.1931302"><ele>27.666666666666668</ele><time>2026-05-01T09:36:35.963Z</time></trkpt><trkpt lat="41.4755286" lon="13.1929242"><ele>28.0</ele><time>2026-05-01T09:36:36.965Z</time></trkpt><trkpt lat="41.4755972" lon="13.1927292"><ele>28.0</ele><time>2026-05-01T09:36:37.964Z</time></trkpt><trkpt lat="41.4756604" lon="13.1925511"><ele>28.0</ele><time>2026-05-01T09:36:38.964Z</time></trkpt><trkpt lat="41.4757149" lon="13.1923817"><ele>28.0</ele><time>2026-05-01T09:36:39.963Z</time></trkpt><trkpt lat="41.4757685" lon="13.1922272"><ele>28.0</ele><time>2026-05-01T09:36:40.963Z</time></trkpt><trkpt lat="41.4758217" lon="13.1920864"><ele>27.799999999999997</ele><time>2026-05-01T09:36:41.963Z</time></trkpt><trkpt lat="41.4758708" lon="13.1919537"><ele>27.599999999999998</ele><time>2026-05-01T09:36:42.964Z</time></trkpt><trkpt lat="41.4759152" lon="13.1918337"><ele>27.400000000000002</ele><time>2026-05-01T09:36:43.964Z</time></trkpt><trkpt lat="41.4759397" lon="13.1917128"><ele>27.200000000000003</ele><time>2026-05-01T09:36:44.964Z</time></trkpt><trkpt lat="41.4759803" lon="13.1916077"><ele>27.0</ele><time>2026-05-01T09:36:45.964Z</time></trkpt><trkpt lat="41.476022" lon="13.1915106"><ele>27.166666666666668</ele><time>2026-05-01T09:36:46.964Z</time></trkpt><trkpt lat="41.4760595" lon="13.1914248"><ele>27.333333333333336</ele><time>2026-05-01T09:36:47.965Z</time></trkpt><trkpt lat="41.476087" lon="13.1913391"><ele>27.5</ele><time>2026-05-01T09:36:48.964Z</time></trkpt><trkpt lat="41.4761118" lon="13.1912582"><ele>27.666666666666668</ele><time>2026-05-01T09:36:49.964Z</time></trkpt><trkpt lat="41.4761628" lon="13.191115"><ele>27.833333333333336</ele><time>2026-05-01T09:36:51.965Z</time></trkpt><trkpt lat="41.4762035" lon="13.1909834"><ele>28.0</ele><time>2026-05-01T09:36:53.963Z</time></trkpt><trkpt lat="41.4762346" lon="13.190904"><ele>28.0</ele><time>2026-05-01T09:36:54.964Z</time></trkpt><trkpt lat="41.4762675" lon="13.1908082"><ele>27.999999999999996</ele><time>2026-05-01T09:36:55.963Z</time></trkpt><trkpt lat="41.4763065" lon="13.1907024"><ele>27.999999999999996</ele><time>2026-05-01T09:36:56.964Z</time></trkpt><trkpt lat="41.4763475" lon="13.1905833"><ele>28.0</ele><time>2026-05-01T09:36:57.965Z</time></trkpt><trkpt lat="41.4763941" lon="13.1904486"><ele>28.0</ele><time>2026-05-01T09:36:58.964Z</time></trkpt><trkpt lat="41.4764471" lon="13.1903075"><ele>28.0</ele><time>2026-05-01T09:36:59.963Z</time></trkpt><trkpt lat="41.4764936" lon="13.1901732"><ele>27.999999999999996</ele><time>2026-05-01T09:37:00.964Z</time></trkpt><trkpt lat="41.4765382" lon="13.1900536"><ele>27.999999999999996</ele><time>2026-05-01T09:37:01.964Z</time></trkpt><trkpt lat="41.4765813" lon="13.1899436"><ele>28.0</ele><time>2026-05-01T09:37:02.964Z</time></trkpt><trkpt lat="41.4766199" lon="13.1898401"><ele>28.0</ele><time>2026-05-01T09:37:03.964Z</time></trkpt><trkpt lat="41.4766585" lon="13.1897377"><ele>28.000000000000004</ele><time>2026-05-01T09:37:04.964Z</time></trkpt><trkpt lat="41.4766969" lon="13.1896376"><ele>28.0</ele><time>2026-05-01T09:37:05.963Z</time></trkpt><trkpt lat="41.4767369" lon="13.1895424"><ele>28.0</ele><time>2026-05-01T09:37:06.964Z</time></trkpt><trkpt lat="41.4767739" lon="13.189465"><ele>28.0</ele><time>2026-05-01T09:37:07.964Z</time></trkpt><trkpt lat="41.4768051" lon="13.1893805"><ele>28.000000000000004</ele><time>2026-05-01T09:37:08.963Z</time></trkpt><trkpt lat="41.4768103" lon="13.1892939"><ele>28.0</ele><time>2026-05-01T09:37:10.964Z</time></trkpt><trkpt lat="41.476845" lon="13.189173"><ele>28.0</ele><time>2026-05-01T09:37:13.963Z</time></trkpt><trkpt lat="41.4768936" lon="13.1890397"><ele>28.0</ele><time>2026-05-01T09:37:15.964Z</time></trkpt><trkpt lat="41.4769401" lon="13.1889191"><ele>28.0</ele><time>2026-05-01T09:37:16.964Z</time></trkpt><trkpt lat="41.4769915" lon="13.1887708"><ele>28.0</ele><time>2026-05-01T09:37:17.964Z</time></trkpt><trkpt lat="41.4770507" lon="13.1886047"><ele>28.0</ele><time>2026-05-01T09:37:18.963Z</time></trkpt><trkpt lat="41.4771138" lon="13.1884292"><ele>28.0</ele><time>2026-05-01T09:37:19.964Z</time></trkpt><trkpt lat="41.4771712" lon="13.1882682"><ele>28.0</ele><time>2026-05-01T09:37:20.964Z</time></trkpt><trkpt lat="41.4772284" lon="13.1881005"><ele>28.0</ele><time>2026-05-01T09:37:21.964Z</time></trkpt><trkpt lat="41.4772853" lon="13.1879323"><ele>28.333333333333336</ele><time>2026-05-01T09:37:22.964Z</time></trkpt><trkpt lat="41.477347" lon="13.1877648"><ele>28.666666666666664</ele><time>2026-05-01T09:37:23.963Z</time></trkpt><trkpt lat="41.4774107" lon="13.1875819"><ele>29.0</ele><time>2026-05-01T09:37:24.963Z</time></trkpt><trkpt lat="41.4774758" lon="13.1873886"><ele>29.0</ele><time>2026-05-01T09:37:25.963Z</time></trkpt><trkpt lat="41.4775457" lon="13.1871795"><ele>29.0</ele><time>2026-05-01T09:37:26.964Z</time></trkpt><trkpt lat="41.4776206" lon="13.1869736"><ele>29.0</ele><time>2026-05-01T09:37:27.964Z</time></trkpt><trkpt lat="41.4776889" lon="13.1867671"><ele>29.0</ele><time>2026-05-01T09:37:28.965Z</time></trkpt><trkpt lat="41.4777525" lon="13.1865754"><ele>29.0</ele><time>2026-05-01T09:37:29.964Z</time></trkpt><trkpt lat="41.4778154" lon="13.1863936"><ele>29.0</ele><time>2026-05-01T09:37:30.964Z</time></trkpt><trkpt lat="41.4778785" lon="13.1862126"><ele>29.333333333333332</ele><time>2026-05-01T09:37:31.965Z</time></trkpt><trkpt lat="41.477939" lon="13.1860288"><ele>29.666666666666664</ele><time>2026-05-01T09:37:32.964Z</time></trkpt><trkpt lat="41.4780064" lon="13.1858445"><ele>30.0</ele><time>2026-05-01T09:37:33.964Z</time></trkpt><trkpt lat="41.4780755" lon="13.1856595"><ele>30.25</ele><time>2026-05-01T09:37:34.964Z</time></trkpt><trkpt lat="41.4781418" lon="13.1854715"><ele>30.5</ele><time>2026-05-01T09:37:35.964Z</time></trkpt><trkpt lat="41.4782072" lon="13.1852928"><ele>30.75</ele><time>2026-05-01T09:37:36.964Z</time></trkpt><trkpt lat="41.4782687" lon="13.1851236"><ele>31.0</ele><time>2026-05-01T09:37:37.964Z</time></trkpt><trkpt lat="41.4783272" lon="13.1849645"><ele>31.25</ele><time>2026-05-01T09:37:38.964Z</time></trkpt><trkpt lat="41.4783848" lon="13.1848147"><ele>31.5</ele><time>2026-05-01T09:37:39.965Z</time></trkpt><trkpt lat="41.4784356" lon="13.184674"><ele>31.75</ele><time>2026-05-01T09:37:40.964Z</time></trkpt><trkpt lat="41.4784817" lon="13.1845403"><ele>32.0</ele><time>2026-05-01T09:37:41.963Z</time></trkpt><trkpt lat="41.4785244" lon="13.1844153"><ele>32.0</ele><time>2026-05-01T09:37:42.963Z</time></trkpt><trkpt lat="41.4785623" lon="13.1842972"><ele>32.0</ele><time>2026-05-01T09:37:43.963Z</time></trkpt><trkpt lat="41.4786091" lon="13.184184"><ele>32.0</ele><time>2026-05-01T09:37:44.962Z</time></trkpt><trkpt lat="41.4786464" lon="13.184061"><ele>32.0</ele><time>2026-05-01T09:37:45.963Z</time></trkpt><trkpt lat="41.4786847" lon="13.1839379"><ele>32.0</ele><time>2026-05-01T09:37:46.963Z</time></trkpt><trkpt lat="41.4787315" lon="13.1838198"><ele>31.8</ele><time>2026-05-01T09:37:47.963Z</time></trkpt><trkpt lat="41.478766" lon="13.1837058"><ele>31.6</ele><time>2026-05-01T09:37:48.962Z</time></trkpt><trkpt lat="41.4788009" lon="13.1835874"><ele>31.400000000000002</ele><time>2026-05-01T09:37:49.963Z</time></trkpt><trkpt lat="41.478836" lon="13.1834665"><ele>31.200000000000003</ele><time>2026-05-01T09:37:50.963Z</time></trkpt><trkpt lat="41.4788755" lon="13.1833444"><ele>31.0</ele><time>2026-05-01T09:37:51.963Z</time></trkpt><trkpt lat="41.4789236" lon="13.1832299"><ele>31.000000000000004</ele><time>2026-05-01T09:37:52.963Z</time></trkpt><trkpt lat="41.478966" lon="13.1831308"><ele>31.0</ele><time>2026-05-01T09:37:53.963Z</time></trkpt><trkpt lat="41.4790018" lon="13.1830404"><ele>31.0</ele><time>2026-05-01T09:37:54.963Z</time></trkpt><trkpt lat="41.4790409" lon="13.182949"><ele>31.0</ele><time>2026-05-01T09:37:55.962Z</time></trkpt><trkpt lat="41.4790797" lon="13.182856"><ele>31.000000000000004</ele><time>2026-05-01T09:37:56.964Z</time></trkpt><trkpt lat="41.4791167" lon="13.182759"><ele>31.0</ele><time>2026-05-01T09:37:57.963Z</time></trkpt><trkpt lat="41.4791529" lon="13.1826496"><ele>31.0</ele><time>2026-05-01T09:37:58.962Z</time></trkpt><trkpt lat="41.4791951" lon="13.1825421"><ele>31.0</ele><time>2026-05-01T09:37:59.963Z</time></trkpt><trkpt lat="41.4792371" lon="13.1824233"><ele>31.0</ele><time>2026-05-01T09:38:00.964Z</time></trkpt><trkpt lat="41.4792848" lon="13.1822931"><ele>31.0</ele><time>2026-05-01T09:38:01.962Z</time></trkpt><trkpt lat="41.4793239" lon="13.1821559"><ele>31.0</ele><time>2026-05-01T09:38:02.963Z</time></trkpt><trkpt lat="41.4793695" lon="13.1820199"><ele>31.200000000000003</ele><time>2026-05-01T09:38:03.963Z</time></trkpt><trkpt lat="41.4794171" lon="13.1818808"><ele>31.400000000000002</ele><time>2026-05-01T09:38:04.964Z</time></trkpt><trkpt lat="41.4794678" lon="13.1817495"><ele>31.6</ele><time>2026-05-01T09:38:05.963Z</time></trkpt><trkpt lat="41.4795191" lon="13.1816279"><ele>31.8</ele><time>2026-05-01T09:38:06.962Z</time></trkpt><trkpt lat="41.4795627" lon="13.1815135"><ele>32.0</ele><time>2026-05-01T09:38:07.964Z</time></trkpt><trkpt lat="41.4796073" lon="13.1814139"><ele>32.0</ele><time>2026-05-01T09:38:08.963Z</time></trkpt><trkpt lat="41.4796507" lon="13.1813249"><ele>32.0</ele><time>2026-05-01T09:38:09.963Z</time></trkpt><trkpt lat="41.4796954" lon="13.1812007"><ele>32.0</ele><time>2026-05-01T09:38:11.964Z</time></trkpt><trkpt lat="41.4797755" lon="13.1811524"><ele>32.0</ele><time>2026-05-01T09:38:14.963Z</time></trkpt><trkpt lat="41.4798507" lon="13.1812351"><ele>32.0</ele><time>2026-05-01T09:38:16.964Z</time></trkpt><trkpt lat="41.4799462" lon="13.1813458"><ele>31.999999999999996</ele><time>2026-05-01T09:38:18.963Z</time></trkpt><trkpt lat="41.4800332" lon="13.1814313"><ele>32.0</ele><time>2026-05-01T09:38:20.963Z</time></trkpt><trkpt lat="41.4801259" lon="13.1813699"><ele>32.0</ele><time>2026-05-01T09:38:22.962Z</time></trkpt><trkpt lat="41.4801669" lon="13.1813045"><ele>32.0</ele><time>2026-05-01T09:38:23.963Z</time></trkpt><trkpt lat="41.4802078" lon="13.1812297"><ele>31.999999999999996</ele><time>2026-05-01T09:38:24.963Z</time></trkpt><trkpt lat="41.4802723" lon="13.1811455"><ele>32.0</ele><time>2026-05-01T09:38:25.963Z</time></trkpt><trkpt lat="41.4803377" lon="13.181052"><ele>32.0</ele><time>2026-05-01T09:38:26.964Z</time></trkpt><trkpt lat="41.4804125" lon="13.1809306"><ele>32.0</ele><time>2026-05-01T09:38:27.963Z</time></trkpt><trkpt lat="41.4805018" lon="13.1808037"><ele>32.0</ele><time>2026-05-01T09:38:28.963Z</time></trkpt><trkpt lat="41.4805943" lon="13.1806682"><ele>32.0</ele><time>2026-05-01T09:38:29.964Z</time></trkpt><trkpt lat="41.480686" lon="13.1805125"><ele>32.0</ele><time>2026-05-01T09:38:30.963Z</time></trkpt><trkpt lat="41.4807831" lon="13.1803511"><ele>32.0</ele><time>2026-05-01T09:38:31.963Z</time></trkpt><trkpt lat="41.4808911" lon="13.1801906"><ele>32.0</ele><time>2026-05-01T09:38:32.963Z</time></trkpt><trkpt lat="41.4809982" lon="13.1800187"><ele>32.0</ele><time>2026-05-01T09:38:33.962Z</time></trkpt><trkpt lat="41.4811042" lon="13.1798449"><ele>32.0</ele><time>2026-05-01T09:38:34.963Z</time></trkpt><trkpt lat="41.4812191" lon="13.1796626"><ele>32.0</ele><time>2026-05-01T09:38:35.962Z</time></trkpt><trkpt lat="41.4813324" lon="13.1794888"><ele>32.25</ele><time>2026-05-01T09:38:36.963Z</time></trkpt><trkpt lat="41.4814354" lon="13.1793256"><ele>32.5</ele><time>2026-05-01T09:38:37.964Z</time></trkpt><trkpt lat="41.4815286" lon="13.1791717"><ele>32.75</ele><time>2026-05-01T09:38:38.962Z</time></trkpt><trkpt lat="41.4816177" lon="13.1790273"><ele>33.0</ele><time>2026-05-01T09:38:39.963Z</time></trkpt><trkpt lat="41.4817084" lon="13.1788917"><ele>33.0</ele><time>2026-05-01T09:38:40.964Z</time></trkpt><trkpt lat="41.4817954" lon="13.178753"><ele>33.0</ele><time>2026-05-01T09:38:41.962Z</time></trkpt><trkpt lat="41.4818845" lon="13.1786149"><ele>33.0</ele><time>2026-05-01T09:38:42.962Z</time></trkpt><trkpt lat="41.4819784" lon="13.1784656"><ele>33.0</ele><time>2026-05-01T09:38:43.963Z</time></trkpt><trkpt lat="41.4820804" lon="13.1783018"><ele>33.666666666666664</ele><time>2026-05-01T09:38:44.964Z</time></trkpt><trkpt lat="41.4821906" lon="13.1781398"><ele>34.33333333333333</ele><time>2026-05-01T09:38:45.962Z</time></trkpt><trkpt lat="41.4822995" lon="13.1779664"><ele>35.0</ele><time>2026-05-01T09:38:46.962Z</time></trkpt><trkpt lat="41.4824113" lon="13.1777918"><ele>35.0</ele><time>2026-05-01T09:38:47.964Z</time></trkpt><trkpt lat="41.4825131" lon="13.1776262"><ele>35.0</ele><time>2026-05-01T09:38:48.962Z</time></trkpt><trkpt lat="41.4826145" lon="13.1774583"><ele>35.0</ele><time>2026-05-01T09:38:49.963Z</time></trkpt><trkpt lat="41.4827089" lon="13.1773052"><ele>35.0</ele><time>2026-05-01T09:38:50.963Z</time></trkpt><trkpt lat="41.4827952" lon="13.1771655"><ele>35.0</ele><time>2026-05-01T09:38:51.963Z</time></trkpt><trkpt lat="41.4828683" lon="13.1770524"><ele>35.0</ele><time>2026-05-01T09:38:52.964Z</time></trkpt><trkpt lat="41.4829246" lon="13.1769745"><ele>35.0</ele><time>2026-05-01T09:38:53.963Z</time></trkpt><trkpt lat="41.4830209" lon="13.1769269"><ele>35.0</ele><time>2026-05-01T09:38:55.964Z</time></trkpt><trkpt lat="41.4831126" lon="13.176957"><ele>35.0</ele><time>2026-05-01T09:38:57.963Z</time></trkpt><trkpt lat="41.4832368" lon="13.1770243"><ele>35.0</ele><time>2026-05-01T09:38:59.963Z</time></trkpt><trkpt lat="41.4833091" lon="13.1770637"><ele>35.0</ele><time>2026-05-01T09:39:00.963Z</time></trkpt><trkpt lat="41.4833867" lon="13.1771106"><ele>35.0</ele><time>2026-05-01T09:39:01.963Z</time></trkpt><trkpt lat="41.4834683" lon="13.1771744"><ele>35.0</ele><time>2026-05-01T09:39:02.962Z</time></trkpt><trkpt lat="41.4835589" lon="13.1772069"><ele>35.0</ele><time>2026-05-01T09:39:03.963Z</time></trkpt><trkpt lat="41.4836413" lon="13.1772614"><ele>35.0</ele><time>2026-05-01T09:39:04.964Z</time></trkpt><trkpt lat="41.4837131" lon="13.177313"><ele>35.0</ele><time>2026-05-01T09:39:05.964Z</time></trkpt><trkpt lat="41.4837992" lon="13.1773504"><ele>35.0</ele><time>2026-05-01T09:39:06.963Z</time></trkpt><trkpt lat="41.4838721" lon="13.1774115"><ele>35.0</ele><time>2026-05-01T09:39:07.963Z</time></trkpt><trkpt lat="41.4839544" lon="13.1774459"><ele>35.0</ele><time>2026-05-01T09:39:08.964Z</time></trkpt><trkpt lat="41.4840362" lon="13.1775042"><ele>35.2</ele><time>2026-05-01T09:39:09.963Z</time></trkpt><trkpt lat="41.4841195" lon="13.177541"><ele>35.4</ele><time>2026-05-01T09:39:10.962Z</time></trkpt><trkpt lat="41.4841979" lon="13.1776005"><ele>35.6</ele><time>2026-05-01T09:39:11.963Z</time></trkpt><trkpt lat="41.4842818" lon="13.1776454"><ele>35.8</ele><time>2026-05-01T09:39:12.964Z</time></trkpt><trkpt lat="41.4843511" lon="13.1777252"><ele>36.0</ele><time>2026-05-01T09:39:13.962Z</time></trkpt><trkpt lat="41.4844446" lon="13.1777803"><ele>36.0</ele><time>2026-05-01T09:39:14.963Z</time></trkpt><trkpt lat="41.4845408" lon="13.1778423"><ele>36.0</ele><time>2026-05-01T09:39:15.963Z</time></trkpt><trkpt lat="41.4846542" lon="13.1778938"><ele>36.0</ele><time>2026-05-01T09:39:16.962Z</time></trkpt><trkpt lat="41.484801" lon="13.1779538"><ele>36.0</ele><time>2026-05-01T09:39:17.964Z</time></trkpt><trkpt lat="41.4849218" lon="13.1780008"><ele>36.0</ele><time>2026-05-01T09:39:18.963Z</time></trkpt><trkpt lat="41.485041" lon="13.1780338"><ele>36.0</ele><time>2026-05-01T09:39:19.963Z</time></trkpt><trkpt lat="41.4851493" lon="13.1780477"><ele>36.0</ele><time>2026-05-01T09:39:20.964Z</time></trkpt><trkpt lat="41.485263" lon="13.1780382"><ele>36.0</ele><time>2026-05-01T09:39:21.963Z</time></trkpt><trkpt lat="41.4853668" lon="13.1780169"><ele>36.0</ele><time>2026-05-01T09:39:22.962Z</time></trkpt><trkpt lat="41.4854708" lon="13.1779845"><ele>36.0</ele><time>2026-05-01T09:39:23.962Z</time></trkpt><trkpt lat="41.4855763" lon="13.1779133"><ele>36.0</ele><time>2026-05-01T09:39:24.963Z</time></trkpt><trkpt lat="41.4856832" lon="13.1778198"><ele>36.0</ele><time>2026-05-01T09:39:25.963Z</time></trkpt><trkpt lat="41.4857981" lon="13.177737"><ele>36.0</ele><time>2026-05-01T09:39:26.963Z</time></trkpt><trkpt lat="41.4859123" lon="13.1776544"><ele>36.0</ele><time>2026-05-01T09:39:27.963Z</time></trkpt><trkpt lat="41.4860223" lon="13.1775646"><ele>36.0</ele><time>2026-05-01T09:39:28.963Z</time></trkpt><trkpt lat="41.4861353" lon="13.1774815"><ele>36.0</ele><time>2026-05-01T09:39:29.963Z</time></trkpt><trkpt lat="41.486249" lon="13.1774099"><ele>36.0</ele><time>2026-05-01T09:39:30.963Z</time></trkpt><trkpt lat="41.4863529" lon="13.1773192"><ele>36.5</ele><time>2026-05-01T09:39:31.963Z</time></trkpt><trkpt lat="41.4864549" lon="13.1772256"><ele>37.0</ele><time>2026-05-01T09:39:32.963Z</time></trkpt><trkpt lat="41.4865439" lon="13.1771341"><ele>37.5</ele><time>2026-05-01T09:39:33.963Z</time></trkpt><trkpt lat="41.4866284" lon="13.1770388"><ele>38.0</ele><time>2026-05-01T09:39:34.963Z</time></trkpt><trkpt lat="41.486716" lon="13.176925"><ele>38.0</ele><time>2026-05-01T09:39:35.963Z</time></trkpt><trkpt lat="41.486797" lon="13.1767952"><ele>38.0</ele><time>2026-05-01T09:39:36.963Z</time></trkpt><trkpt lat="41.4868658" lon="13.1766489"><ele>38.0</ele><time>2026-05-01T09:39:37.962Z</time></trkpt><trkpt lat="41.4869465" lon="13.1764999"><ele>38.0</ele><time>2026-05-01T09:39:38.962Z</time></trkpt><trkpt lat="41.4870421" lon="13.1763547"><ele>37.75</ele><time>2026-05-01T09:39:39.963Z</time></trkpt><trkpt lat="41.4871468" lon="13.1762288"><ele>37.5</ele><time>2026-05-01T09:39:40.962Z</time></trkpt><trkpt lat="41.4872469" lon="13.1761022"><ele>37.25</ele><time>2026-05-01T09:39:41.962Z</time></trkpt><trkpt lat="41.4873429" lon="13.1759667"><ele>37.0</ele><time>2026-05-01T09:39:42.962Z</time></trkpt><trkpt lat="41.4874377" lon="13.1758516"><ele>37.0</ele><time>2026-05-01T09:39:43.964Z</time></trkpt><trkpt lat="41.4875136" lon="13.1757467"><ele>37.0</ele><time>2026-05-01T09:39:44.963Z</time></trkpt><trkpt lat="41.4875787" lon="13.1756503"><ele>37.0</ele><time>2026-05-01T09:39:45.963Z</time></trkpt><trkpt lat="41.4876353" lon="13.1755689"><ele>37.0</ele><time>2026-05-01T09:39:46.962Z</time></trkpt><trkpt lat="41.4876793" lon="13.1755031"><ele>37.0</ele><time>2026-05-01T09:39:47.962Z</time></trkpt><trkpt lat="41.4877017" lon="13.175418"><ele>37.0</ele><time>2026-05-01T09:39:49.962Z</time></trkpt><trkpt lat="41.4876706" lon="13.1753365"><ele>37.4</ele><time>2026-05-01T09:39:52.963Z</time></trkpt><trkpt lat="41.4875506" lon="13.1753227"><ele>37.800000000000004</ele><time>2026-05-01T09:39:54.963Z</time></trkpt><trkpt lat="41.4874598" lon="13.1753234"><ele>38.2</ele><time>2026-05-01T09:39:55.963Z</time></trkpt><trkpt lat="41.4873578" lon="13.175318"><ele>38.6</ele><time>2026-05-01T09:39:56.963Z</time></trkpt><trkpt lat="41.4872621" lon="13.1753162"><ele>39.0</ele><time>2026-05-01T09:39:57.962Z</time></trkpt><trkpt lat="41.4871478" lon="13.1753183"><ele>38.5</ele><time>2026-05-01T09:39:58.964Z</time></trkpt><trkpt lat="41.4870234" lon="13.175309"><ele>38.0</ele><time>2026-05-01T09:39:59.963Z</time></trkpt><trkpt lat="41.4868864" lon="13.1753041"><ele>37.5</ele><time>2026-05-01T09:40:00.962Z</time></trkpt><trkpt lat="41.486738" lon="13.1752993"><ele>37.0</ele><time>2026-05-01T09:40:01.964Z</time></trkpt><trkpt lat="41.4865931" lon="13.175291"><ele>37.0</ele><time>2026-05-01T09:40:02.962Z</time></trkpt><trkpt lat="41.4864463" lon="13.1752917"><ele>37.0</ele><time>2026-05-01T09:40:03.963Z</time></trkpt><trkpt lat="41.4862976" lon="13.1752857"><ele>37.0</ele><time>2026-05-01T09:40:04.964Z</time></trkpt><trkpt lat="41.4861471" lon="13.1752765"><ele>37.0</ele><time>2026-05-01T09:40:05.963Z</time></trkpt><trkpt lat="41.4860043" lon="13.1752664"><ele>37.0</ele><time>2026-05-01T09:40:06.963Z</time></trkpt><trkpt lat="41.4858617" lon="13.1752584"><ele>37.0</ele><time>2026-05-01T09:40:07.962Z</time></trkpt><trkpt lat="41.4857184" lon="13.1752533"><ele>37.0</ele><time>2026-05-01T09:40:08.963Z</time></trkpt><trkpt lat="41.4855817" lon="13.1752507"><ele>37.0</ele><time>2026-05-01T09:40:09.964Z</time></trkpt><trkpt lat="41.4854419" lon="13.1752447"><ele>36.75</ele><time>2026-05-01T09:40:10.963Z</time></trkpt><trkpt lat="41.4853051" lon="13.1752366"><ele>36.5</ele><time>2026-05-01T09:40:11.963Z</time></trkpt><trkpt lat="41.4851701" lon="13.1752279"><ele>36.25</ele><time>2026-05-01T09:40:12.963Z</time></trkpt><trkpt lat="41.4850294" lon="13.1752236"><ele>36.0</ele><time>2026-05-01T09:40:13.964Z</time></trkpt><trkpt lat="41.4848848" lon="13.1752212"><ele>36.0</ele><time>2026-05-01T09:40:14.963Z</time></trkpt><trkpt lat="41.4847377" lon="13.17521"><ele>36.0</ele><time>2026-05-01T09:40:15.963Z</time></trkpt><trkpt lat="41.4845914" lon="13.1751952"><ele>36.0</ele><time>2026-05-01T09:40:16.963Z</time></trkpt><trkpt lat="41.4844553" lon="13.1751923"><ele>36.0</ele><time>2026-05-01T09:40:17.963Z</time></trkpt><trkpt lat="41.4843335" lon="13.1751902"><ele>36.0</ele><time>2026-05-01T09:40:18.964Z</time></trkpt><trkpt lat="41.4842284" lon="13.1751849"><ele>36.0</ele><time>2026-05-01T09:40:19.962Z</time></trkpt><trkpt lat="41.4841335" lon="13.1751789"><ele>36.0</ele><time>2026-05-01T09:40:20.963Z</time></trkpt><trkpt lat="41.4840512" lon="13.1751692"><ele>36.0</ele><time>2026-05-01T09:40:21.964Z</time></trkpt><trkpt lat="41.4839756" lon="13.1751637"><ele>36.0</ele><time>2026-05-01T09:40:22.963Z</time></trkpt><trkpt lat="41.4838912" lon="13.1751569"><ele>36.0</ele><time>2026-05-01T09:40:23.963Z</time></trkpt><trkpt lat="41.4838123" lon="13.1751653"><ele>36.0</ele><time>2026-05-01T09:40:24.964Z</time></trkpt><trkpt lat="41.483743" lon="13.1751602"><ele>36.0</ele><time>2026-05-01T09:40:25.963Z</time></trkpt><trkpt lat="41.4836604" lon="13.1751159"><ele>36.0</ele><time>2026-05-01T09:40:27.963Z</time></trkpt><trkpt lat="41.4837783" lon="13.175187"><ele>36.0</ele><time>2026-05-01T09:40:34.961Z</time></trkpt><trkpt lat="41.483871" lon="13.1751951"><ele>36.0</ele><time>2026-05-01T09:40:35.962Z</time></trkpt><trkpt lat="41.4839527" lon="13.1751994"><ele>36.0</ele><time>2026-05-01T09:40:36.962Z</time></trkpt><trkpt lat="41.4840161" lon="13.1751804"><ele>36.0</ele><time>2026-05-01T09:40:37.962Z</time></trkpt><trkpt lat="41.4840652" lon="13.175126"><ele>36.0</ele><time>2026-05-01T09:40:38.961Z</time></trkpt><trkpt lat="41.4841186" lon="13.1750368"><ele>36.0</ele><time>2026-05-01T09:40:39.961Z</time></trkpt><trkpt lat="41.4841982" lon="13.1749291"><ele>36.0</ele><time>2026-05-01T09:40:40.963Z</time></trkpt><trkpt lat="41.484295" lon="13.1747956"><ele>36.0</ele><time>2026-05-01T09:40:41.962Z</time></trkpt><trkpt lat="41.4843956" lon="13.1746764"><ele>36.0</ele><time>2026-05-01T09:40:42.962Z</time></trkpt><trkpt lat="41.4844945" lon="13.1745834"><ele>36.0</ele><time>2026-05-01T09:40:43.962Z</time></trkpt><trkpt lat="41.4845938" lon="13.1745085"><ele>36.0</ele><time>2026-05-01T09:40:44.963Z</time></trkpt><trkpt lat="41.4846719" lon="13.1744373"><ele>36.0</ele><time>2026-05-01T09:40:45.961Z</time></trkpt><trkpt lat="41.4847481" lon="13.1743559"><ele>36.0</ele><time>2026-05-01T09:40:46.962Z</time></trkpt><trkpt lat="41.4847788" lon="13.1742603"><ele>36.0</ele><time>2026-05-01T09:40:47.962Z</time></trkpt><trkpt lat="41.4848135" lon="13.1741404"><ele>36.0</ele><time>2026-05-01T09:40:48.961Z</time></trkpt><trkpt lat="41.4848482" lon="13.1740356"><ele>36.0</ele><time>2026-05-01T09:40:49.961Z</time></trkpt><trkpt lat="41.4848732" lon="13.1739494"><ele>36.0</ele><time>2026-05-01T09:40:50.962Z</time></trkpt><trkpt lat="41.4849334" lon="13.1738354"><ele>36.0</ele><time>2026-05-01T09:40:52.962Z</time></trkpt><trkpt lat="41.4849911" lon="13.173792"><ele>36.0</ele><time>2026-05-01T09:40:53.961Z</time></trkpt><trkpt lat="41.4850547" lon="13.1737549"><ele>36.0</ele><time>2026-05-01T09:40:54.963Z</time></trkpt><trkpt lat="41.4851723" lon="13.1736807"><ele>36.0</ele><time>2026-05-01T09:40:56.962Z</time></trkpt><trkpt lat="41.4852505" lon="13.1736328"><ele>36.0</ele><time>2026-05-01T09:40:57.962Z</time></trkpt><trkpt lat="41.4853224" lon="13.1735851"><ele>36.0</ele><time>2026-05-01T09:40:58.962Z</time></trkpt><trkpt lat="41.4853969" lon="13.1735386"><ele>36.166666666666664</ele><time>2026-05-01T09:40:59.962Z</time></trkpt><trkpt lat="41.4854669" lon="13.1734882"><ele>36.333333333333336</ele><time>2026-05-01T09:41:00.962Z</time></trkpt><trkpt lat="41.4855432" lon="13.1734326"><ele>36.5</ele><time>2026-05-01T09:41:01.961Z</time></trkpt><trkpt lat="41.4856299" lon="13.1733745"><ele>36.66666666666667</ele><time>2026-05-01T09:41:02.962Z</time></trkpt><trkpt lat="41.485712" lon="13.1733242"><ele>36.833333333333336</ele><time>2026-05-01T09:41:03.961Z</time></trkpt><trkpt lat="41.4857896" lon="13.1732688"><ele>37.0</ele><time>2026-05-01T09:41:04.962Z</time></trkpt><trkpt lat="41.4858649" lon="13.1732143"><ele>36.833333333333336</ele><time>2026-05-01T09:41:05.962Z</time></trkpt><trkpt lat="41.4859442" lon="13.1731631"><ele>36.66666666666667</ele><time>2026-05-01T09:41:06.962Z</time></trkpt><trkpt lat="41.4860158" lon="13.1731147"><ele>36.5</ele><time>2026-05-01T09:41:07.961Z</time></trkpt><trkpt lat="41.4860835" lon="13.1730681"><ele>36.333333333333336</ele><time>2026-05-01T09:41:08.962Z</time></trkpt><trkpt lat="41.4861507" lon="13.1730205"><ele>36.166666666666664</ele><time>2026-05-01T09:41:09.962Z</time></trkpt><trkpt lat="41.4862184" lon="13.1729744"><ele>36.0</ele><time>2026-05-01T09:41:10.962Z</time></trkpt><trkpt lat="41.4862869" lon="13.1729282"><ele>36.5</ele><time>2026-05-01T09:41:11.962Z</time></trkpt><trkpt lat="41.4863583" lon="13.1728802"><ele>37.0</ele><time>2026-05-01T09:41:12.963Z</time></trkpt><trkpt lat="41.4864312" lon="13.1728326"><ele>37.5</ele><time>2026-05-01T09:41:13.962Z</time></trkpt><trkpt lat="41.4864962" lon="13.1727932"><ele>38.0</ele><time>2026-05-01T09:41:14.961Z</time></trkpt><trkpt lat="41.4865628" lon="13.1727461"><ele>38.5</ele><time>2026-05-01T09:41:15.962Z</time></trkpt><trkpt lat="41.4866343" lon="13.1726947"><ele>39.0</ele><time>2026-05-01T09:41:16.962Z</time></trkpt><trkpt lat="41.4866979" lon="13.1726401"><ele>39.0</ele><time>2026-05-01T09:41:17.962Z</time></trkpt><trkpt lat="41.4867615" lon="13.1725852"><ele>39.0</ele><time>2026-05-01T09:41:18.962Z</time></trkpt><trkpt lat="41.4868325" lon="13.1725017"><ele>39.0</ele><time>2026-05-01T09:41:20.961Z</time></trkpt><trkpt lat="41.486814" lon="13.1723925"><ele>39.0</ele><time>2026-05-01T09:41:22.962Z</time></trkpt><trkpt lat="41.4867918" lon="13.1723123"><ele>39.0</ele><time>2026-05-01T09:41:23.962Z</time></trkpt><trkpt lat="41.4867739" lon="13.1722172"><ele>39.0</ele><time>2026-05-01T09:41:24.962Z</time></trkpt><trkpt lat="41.4867469" lon="13.1721076"><ele>38.666666666666664</ele><time>2026-05-01T09:41:25.962Z</time></trkpt><trkpt lat="41.4867215" lon="13.1719969"><ele>38.333333333333336</ele><time>2026-05-01T09:41:26.963Z</time></trkpt><trkpt lat="41.4866942" lon="13.1718931"><ele>38.0</ele><time>2026-05-01T09:41:27.962Z</time></trkpt><trkpt lat="41.4866693" lon="13.1717901"><ele>37.66666666666667</ele><time>2026-05-01T09:41:28.961Z</time></trkpt><trkpt lat="41.4866437" lon="13.1717012"><ele>37.333333333333336</ele><time>2026-05-01T09:41:29.962Z</time></trkpt><trkpt lat="41.4866197" lon="13.1716179"><ele>37.0</ele><time>2026-05-01T09:41:30.962Z</time></trkpt><trkpt lat="41.4865837" lon="13.1714601"><ele>37.0</ele><time>2026-05-01T09:41:32.963Z</time></trkpt><trkpt lat="41.4865371" lon="13.1713102"><ele>37.0</ele><time>2026-05-01T09:41:34.962Z</time></trkpt><trkpt lat="41.4865118" lon="13.171233"><ele>37.0</ele><time>2026-05-01T09:41:35.962Z</time></trkpt><trkpt lat="41.4864544" lon="13.1710908"><ele>37.0</ele><time>2026-05-01T09:41:37.961Z</time></trkpt><trkpt lat="41.4863915" lon="13.1709919"><ele>37.0</ele><time>2026-05-01T09:41:39.962Z</time></trkpt><trkpt lat="41.4863104" lon="13.1709321"><ele>37.0</ele><time>2026-05-01T09:41:41.962Z</time></trkpt><trkpt lat="41.4862395" lon="13.1709468"><ele>37.0</ele><time>2026-05-01T09:41:42.962Z</time></trkpt><trkpt lat="41.4861433" lon="13.1709101"><ele>37.0</ele><time>2026-05-01T09:41:44.962Z</time></trkpt><trkpt lat="41.4861147" lon="13.1707707"><ele>37.0</ele><time>2026-05-01T09:41:46.961Z</time></trkpt><trkpt lat="41.486122" lon="13.1706085"><ele>37.0</ele><time>2026-05-01T09:41:48.961Z</time></trkpt><trkpt lat="41.4861292" lon="13.17051"><ele>37.4</ele><time>2026-05-01T09:41:49.961Z</time></trkpt><trkpt lat="41.4861351" lon="13.1703955"><ele>37.800000000000004</ele><time>2026-05-01T09:41:50.962Z</time></trkpt><trkpt lat="41.4861389" lon="13.1702743"><ele>38.2</ele><time>2026-05-01T09:41:51.962Z</time></trkpt><trkpt lat="41.4861455" lon="13.1701426"><ele>38.6</ele><time>2026-05-01T09:41:52.962Z</time></trkpt><trkpt lat="41.4861496" lon="13.1700024"><ele>39.0</ele><time>2026-05-01T09:41:53.961Z</time></trkpt><trkpt lat="41.4861515" lon="13.1698236"><ele>39.0</ele><time>2026-05-01T09:41:54.963Z</time></trkpt><trkpt lat="41.4861548" lon="13.1696002"><ele>39.0</ele><time>2026-05-01T09:41:55.962Z</time></trkpt><trkpt lat="41.4861535" lon="13.1694111"><ele>39.0</ele><time>2026-05-01T09:41:56.962Z</time></trkpt><trkpt lat="41.4861533" lon="13.1692334"><ele>39.0</ele><time>2026-05-01T09:41:57.962Z</time></trkpt><trkpt lat="41.4861544" lon="13.1690606"><ele>39.0</ele><time>2026-05-01T09:41:58.962Z</time></trkpt><trkpt lat="41.4861592" lon="13.1688673"><ele>39.0</ele><time>2026-05-01T09:41:59.961Z</time></trkpt><trkpt lat="41.4861683" lon="13.1686547"><ele>39.0</ele><time>2026-05-01T09:42:00.962Z</time></trkpt><trkpt lat="41.4861753" lon="13.1684383"><ele>39.0</ele><time>2026-05-01T09:42:01.963Z</time></trkpt><trkpt lat="41.4861805" lon="13.168241"><ele>39.0</ele><time>2026-05-01T09:42:02.962Z</time></trkpt><trkpt lat="41.486185" lon="13.1680302"><ele>39.0</ele><time>2026-05-01T09:42:03.962Z</time></trkpt><trkpt lat="41.4861895" lon="13.1677986"><ele>39.0</ele><time>2026-05-01T09:42:04.962Z</time></trkpt><trkpt lat="41.4861954" lon="13.1675934"><ele>39.0</ele><time>2026-05-01T09:42:05.962Z</time></trkpt><trkpt lat="41.4862042" lon="13.1674158"><ele>39.0</ele><time>2026-05-01T09:42:06.963Z</time></trkpt><trkpt lat="41.4862098" lon="13.167242"><ele>39.0</ele><time>2026-05-01T09:42:07.962Z</time></trkpt><trkpt lat="41.4862138" lon="13.1670815"><ele>39.0</ele><time>2026-05-01T09:42:08.962Z</time></trkpt><trkpt lat="41.4862187" lon="13.1669336"><ele>39.0</ele><time>2026-05-01T09:42:09.962Z</time></trkpt><trkpt lat="41.4862225" lon="13.1667989"><ele>39.0</ele><time>2026-05-01T09:42:10.962Z</time></trkpt><trkpt lat="41.4862256" lon="13.1666729"><ele>39.0</ele><time>2026-05-01T09:42:11.962Z</time></trkpt><trkpt lat="41.4862271" lon="13.1665557"><ele>39.0</ele><time>2026-05-01T09:42:12.962Z</time></trkpt><trkpt lat="41.4862225" lon="13.1664433"><ele>39.333333333333336</ele><time>2026-05-01T09:42:13.962Z</time></trkpt><trkpt lat="41.486221" lon="13.1663286"><ele>39.666666666666664</ele><time>2026-05-01T09:42:14.961Z</time></trkpt><trkpt lat="41.486217" lon="13.1662113"><ele>40.0</ele><time>2026-05-01T09:42:15.962Z</time></trkpt><trkpt lat="41.4862072" lon="13.1660943"><ele>40.33333333333333</ele><time>2026-05-01T09:42:16.961Z</time></trkpt><trkpt lat="41.4862025" lon="13.1659792"><ele>40.666666666666664</ele><time>2026-05-01T09:42:17.962Z</time></trkpt><trkpt lat="41.4862058" lon="13.1658808"><ele>41.0</ele><time>2026-05-01T09:42:18.961Z</time></trkpt><trkpt lat="41.486215" lon="13.1657617"><ele>41.0</ele><time>2026-05-01T09:42:20.962Z</time></trkpt><trkpt lat="41.4861985" lon="13.1656797"><ele>41.0</ele><time>2026-05-01T09:42:32.962Z</time></trkpt><trkpt lat="41.4860941" lon="13.1656893"><ele>41.0</ele><time>2026-05-01T09:42:34.962Z</time></trkpt><trkpt lat="41.4860222" lon="13.165712"><ele>41.0</ele><time>2026-05-01T09:42:35.961Z</time></trkpt><trkpt lat="41.4859601" lon="13.16573"><ele>41.0</ele><time>2026-05-01T09:42:36.963Z</time></trkpt><trkpt lat="41.4858885" lon="13.1656712"><ele>41.0</ele><time>2026-05-01T09:42:38.962Z</time></trkpt><trkpt lat="41.4858658" lon="13.1654984"><ele>40.857142857142854</ele><time>2026-05-01T09:42:40.963Z</time></trkpt><trkpt lat="41.4858672" lon="13.1654084"><ele>40.714285714285715</ele><time>2026-05-01T09:42:41.962Z</time></trkpt><trkpt lat="41.4858715" lon="13.1653121"><ele>40.57142857142857</ele><time>2026-05-01T09:42:42.962Z</time></trkpt><trkpt lat="41.4858712" lon="13.1652191"><ele>40.42857142857143</ele><time>2026-05-01T09:42:43.962Z</time></trkpt><trkpt lat="41.4858738" lon="13.1651242"><ele>40.285714285714285</ele><time>2026-05-01T09:42:44.962Z</time></trkpt><trkpt lat="41.4858747" lon="13.1650251"><ele>40.14285714285714</ele><time>2026-05-01T09:42:45.963Z</time></trkpt><trkpt lat="41.4858768" lon="13.1649273"><ele>40.0</ele><time>2026-05-01T09:42:46.961Z</time></trkpt><trkpt lat="41.4858762" lon="13.1648291"><ele>39.833333333333336</ele><time>2026-05-01T09:42:47.962Z</time></trkpt><trkpt lat="41.485881" lon="13.164731"><ele>39.66666666666667</ele><time>2026-05-01T09:42:48.962Z</time></trkpt><trkpt lat="41.4858842" lon="13.1646265"><ele>39.5</ele><time>2026-05-01T09:42:49.962Z</time></trkpt><trkpt lat="41.4858856" lon="13.1645185"><ele>39.333333333333336</ele><time>2026-05-01T09:42:50.962Z</time></trkpt><trkpt lat="41.4858891" lon="13.1644152"><ele>39.166666666666664</ele><time>2026-05-01T09:42:51.961Z</time></trkpt><trkpt lat="41.4858895" lon="13.1643079"><ele>39.0</ele><time>2026-05-01T09:42:52.962Z</time></trkpt><trkpt lat="41.4858842" lon="13.164202"><ele>39.0</ele><time>2026-05-01T09:42:53.962Z</time></trkpt><trkpt lat="41.4858756" lon="13.1640866"><ele>39.0</ele><time>2026-05-01T09:42:54.961Z</time></trkpt><trkpt lat="41.485887" lon="13.1639637"><ele>39.0</ele><time>2026-05-01T09:42:55.962Z</time></trkpt><trkpt lat="41.4858929" lon="13.1638533"><ele>39.0</ele><time>2026-05-01T09:42:56.961Z</time></trkpt><trkpt lat="41.4858939" lon="13.1637487"><ele>39.0</ele><time>2026-05-01T09:42:57.962Z</time></trkpt><trkpt lat="41.4858927" lon="13.1636526"><ele>39.0</ele><time>2026-05-01T09:42:58.962Z</time></trkpt><trkpt lat="41.4858896" lon="13.1635615"><ele>39.0</ele><time>2026-05-01T09:42:59.962Z</time></trkpt><trkpt lat="41.485888" lon="13.1634012"><ele>39.0</ele><time>2026-05-01T09:43:01.962Z</time></trkpt><trkpt lat="41.4858904" lon="13.1633144"><ele>39.0</ele><time>2026-05-01T09:43:02.962Z</time></trkpt><trkpt lat="41.4858927" lon="13.1631464"><ele>39.0</ele><time>2026-05-01T09:43:04.962Z</time></trkpt><trkpt lat="41.4858956" lon="13.1629879"><ele>39.0</ele><time>2026-05-01T09:43:06.962Z</time></trkpt><trkpt lat="41.485897" lon="13.1628325"><ele>38.75</ele><time>2026-05-01T09:43:08.962Z</time></trkpt><trkpt lat="41.4858977" lon="13.1626824"><ele>38.5</ele><time>2026-05-01T09:43:10.96Z</time></trkpt><trkpt lat="41.4859055" lon="13.1625056"><ele>38.25</ele><time>2026-05-01T09:43:12.961Z</time></trkpt><trkpt lat="41.4859101" lon="13.1623231"><ele>38.0</ele><time>2026-05-01T09:43:13.96Z</time></trkpt><trkpt lat="41.4859163" lon="13.1621284"><ele>39.0</ele><time>2026-05-01T09:43:14.961Z</time></trkpt><trkpt lat="41.4859227" lon="13.161898"><ele>40.0</ele><time>2026-05-01T09:43:15.961Z</time></trkpt><trkpt lat="41.4859284" lon="13.1616417"><ele>41.0</ele><time>2026-05-01T09:43:16.962Z</time></trkpt><trkpt lat="41.4859318" lon="13.1613813"><ele>41.0</ele><time>2026-05-01T09:43:17.961Z</time></trkpt><trkpt lat="41.485936" lon="13.1610775"><ele>41.0</ele><time>2026-05-01T09:43:18.961Z</time></trkpt><trkpt lat="41.4859449" lon="13.1607776"><ele>40.666666666666664</ele><time>2026-05-01T09:43:19.961Z</time></trkpt><trkpt lat="41.4859537" lon="13.1604941"><ele>40.333333333333336</ele><time>2026-05-01T09:43:20.962Z</time></trkpt><trkpt lat="41.485957" lon="13.1602136"><ele>40.0</ele><time>2026-05-01T09:43:21.961Z</time></trkpt><trkpt lat="41.4859597" lon="13.1599556"><ele>40.333333333333336</ele><time>2026-05-01T09:43:22.96Z</time></trkpt><trkpt lat="41.4859654" lon="13.1597185"><ele>40.666666666666664</ele><time>2026-05-01T09:43:23.961Z</time></trkpt><trkpt lat="41.4859744" lon="13.1595094"><ele>41.0</ele><time>2026-05-01T09:43:24.962Z</time></trkpt><trkpt lat="41.4859814" lon="13.1593175"><ele>41.0</ele><time>2026-05-01T09:43:25.961Z</time></trkpt><trkpt lat="41.4859853" lon="13.1591361"><ele>41.0</ele><time>2026-05-01T09:43:26.961Z</time></trkpt><trkpt lat="41.485987" lon="13.1589644"><ele>41.0</ele><time>2026-05-01T09:43:27.962Z</time></trkpt><trkpt lat="41.4859903" lon="13.1588016"><ele>41.0</ele><time>2026-05-01T09:43:28.961Z</time></trkpt><trkpt lat="41.4859931" lon="13.1586482"><ele>40.599999999999994</ele><time>2026-05-01T09:43:29.961Z</time></trkpt><trkpt lat="41.4859953" lon="13.1585021"><ele>40.199999999999996</ele><time>2026-05-01T09:43:30.961Z</time></trkpt><trkpt lat="41.4859985" lon="13.1583729"><ele>39.8</ele><time>2026-05-01T09:43:31.961Z</time></trkpt><trkpt lat="41.4860016" lon="13.1582527"><ele>39.4</ele><time>2026-05-01T09:43:32.961Z</time></trkpt><trkpt lat="41.4860049" lon="13.1581377"><ele>39.0</ele><time>2026-05-01T09:43:33.961Z</time></trkpt><trkpt lat="41.4860095" lon="13.1580203"><ele>39.0</ele><time>2026-05-01T09:43:34.961Z</time></trkpt><trkpt lat="41.4860121" lon="13.1578889"><ele>39.0</ele><time>2026-05-01T09:43:35.961Z</time></trkpt><trkpt lat="41.4860149" lon="13.1577753"><ele>39.0</ele><time>2026-05-01T09:43:36.961Z</time></trkpt><trkpt lat="41.4860156" lon="13.157668"><ele>39.0</ele><time>2026-05-01T09:43:37.961Z</time></trkpt><trkpt lat="41.4860206" lon="13.1575562"><ele>39.0</ele><time>2026-05-01T09:43:38.962Z</time></trkpt><trkpt lat="41.4860236" lon="13.1574369"><ele>39.0</ele><time>2026-05-01T09:43:39.961Z</time></trkpt><trkpt lat="41.4860275" lon="13.1572968"><ele>39.0</ele><time>2026-05-01T09:43:40.961Z</time></trkpt><trkpt lat="41.4860314" lon="13.1571192"><ele>39.0</ele><time>2026-05-01T09:43:41.962Z</time></trkpt><trkpt lat="41.4860393" lon="13.1569066"><ele>39.0</ele><time>2026-05-01T09:43:42.961Z</time></trkpt><trkpt lat="41.486043" lon="13.1567137"><ele>39.0</ele><time>2026-05-01T09:43:43.961Z</time></trkpt><trkpt lat="41.4860488" lon="13.1565298"><ele>39.5</ele><time>2026-05-01T09:43:44.961Z</time></trkpt><trkpt lat="41.4860528" lon="13.1563598"><ele>40.0</ele><time>2026-05-01T09:43:45.961Z</time></trkpt><trkpt lat="41.4860523" lon="13.1562029"><ele>40.5</ele><time>2026-05-01T09:43:46.961Z</time></trkpt><trkpt lat="41.486055" lon="13.1560511"><ele>41.0</ele><time>2026-05-01T09:43:47.961Z</time></trkpt><trkpt lat="41.4860608" lon="13.155905"><ele>41.0</ele><time>2026-05-01T09:43:48.961Z</time></trkpt><trkpt lat="41.4860626" lon="13.1557513"><ele>41.0</ele><time>2026-05-01T09:43:49.961Z</time></trkpt><trkpt lat="41.4860678" lon="13.1556022"><ele>41.0</ele><time>2026-05-01T09:43:50.962Z</time></trkpt><trkpt lat="41.486072" lon="13.1554528"><ele>41.0</ele><time>2026-05-01T09:43:51.961Z</time></trkpt><trkpt lat="41.4860742" lon="13.1553025"><ele>41.0</ele><time>2026-05-01T09:43:52.96Z</time></trkpt><trkpt lat="41.4860756" lon="13.1551497"><ele>41.0</ele><time>2026-05-01T09:43:53.961Z</time></trkpt><trkpt lat="41.4860785" lon="13.1549844"><ele>41.0</ele><time>2026-05-01T09:43:54.96Z</time></trkpt><trkpt lat="41.4860864" lon="13.1548183"><ele>41.0</ele><time>2026-05-01T09:43:55.962Z</time></trkpt><trkpt lat="41.4861007" lon="13.1546532"><ele>40.75</ele><time>2026-05-01T09:43:56.96Z</time></trkpt><trkpt lat="41.4861008" lon="13.1544831"><ele>40.5</ele><time>2026-05-01T09:43:57.961Z</time></trkpt><trkpt lat="41.4861042" lon="13.154312"><ele>40.25</ele><time>2026-05-01T09:43:58.962Z</time></trkpt><trkpt lat="41.4861095" lon="13.1541389"><ele>40.0</ele><time>2026-05-01T09:43:59.961Z</time></trkpt><trkpt lat="41.4861136" lon="13.1539815"><ele>39.8</ele><time>2026-05-01T09:44:00.96Z</time></trkpt><trkpt lat="41.4861179" lon="13.1538303"><ele>39.6</ele><time>2026-05-01T09:44:01.961Z</time></trkpt><trkpt lat="41.4861216" lon="13.1536886"><ele>39.4</ele><time>2026-05-01T09:44:02.962Z</time></trkpt><trkpt lat="41.4861213" lon="13.1535562"><ele>39.2</ele><time>2026-05-01T09:44:03.96Z</time></trkpt><trkpt lat="41.4861257" lon="13.1534203"><ele>39.0</ele><time>2026-05-01T09:44:04.961Z</time></trkpt><trkpt lat="41.4861295" lon="13.1532782"><ele>38.8</ele><time>2026-05-01T09:44:05.96Z</time></trkpt><trkpt lat="41.4861308" lon="13.1531388"><ele>38.599999999999994</ele><time>2026-05-01T09:44:06.961Z</time></trkpt><trkpt lat="41.4861301" lon="13.1530059"><ele>38.4</ele><time>2026-05-01T09:44:07.961Z</time></trkpt><trkpt lat="41.48613" lon="13.1528807"><ele>38.199999999999996</ele><time>2026-05-01T09:44:08.96Z</time></trkpt><trkpt lat="41.48613" lon="13.152753"><ele>38.0</ele><time>2026-05-01T09:44:09.962Z</time></trkpt><trkpt lat="41.4861288" lon="13.1526285"><ele>38.0</ele><time>2026-05-01T09:44:10.961Z</time></trkpt><trkpt lat="41.4861293" lon="13.1525038"><ele>38.0</ele><time>2026-05-01T09:44:11.96Z</time></trkpt><trkpt lat="41.4861197" lon="13.1523855"><ele>38.0</ele><time>2026-05-01T09:44:12.961Z</time></trkpt><trkpt lat="41.4861184" lon="13.1522627"><ele>38.0</ele><time>2026-05-01T09:44:13.962Z</time></trkpt><trkpt lat="41.4861252" lon="13.1521216"><ele>38.0</ele><time>2026-05-01T09:44:14.962Z</time></trkpt><trkpt lat="41.4861308" lon="13.1519764"><ele>38.0</ele><time>2026-05-01T09:44:15.962Z</time></trkpt><trkpt lat="41.4861322" lon="13.1518281"><ele>38.0</ele><time>2026-05-01T09:44:16.961Z</time></trkpt><trkpt lat="41.486127" lon="13.1516776"><ele>38.0</ele><time>2026-05-01T09:44:17.961Z</time></trkpt><trkpt lat="41.4861301" lon="13.15152"><ele>38.0</ele><time>2026-05-01T09:44:18.961Z</time></trkpt><trkpt lat="41.4861331" lon="13.1513734"><ele>38.0</ele><time>2026-05-01T09:44:19.962Z</time></trkpt><trkpt lat="41.48613" lon="13.1512282"><ele>38.0</ele><time>2026-05-01T09:44:20.961Z</time></trkpt><trkpt lat="41.4861256" lon="13.1510716"><ele>38.0</ele><time>2026-05-01T09:44:21.96Z</time></trkpt><trkpt lat="41.4861204" lon="13.1509041"><ele>38.0</ele><time>2026-05-01T09:44:22.961Z</time></trkpt><trkpt lat="41.4861115" lon="13.1507251"><ele>38.5</ele><time>2026-05-01T09:44:23.961Z</time></trkpt><trkpt lat="41.4861076" lon="13.1505431"><ele>39.0</ele><time>2026-05-01T09:44:24.961Z</time></trkpt><trkpt lat="41.4861046" lon="13.1503658"><ele>39.5</ele><time>2026-05-01T09:44:25.961Z</time></trkpt><trkpt lat="41.4860999" lon="13.1502075"><ele>40.0</ele><time>2026-05-01T09:44:26.961Z</time></trkpt><trkpt lat="41.4860971" lon="13.150054"><ele>40.0</ele><time>2026-05-01T09:44:27.961Z</time></trkpt><trkpt lat="41.4860954" lon="13.1499086"><ele>40.0</ele><time>2026-05-01T09:44:28.961Z</time></trkpt><trkpt lat="41.4860918" lon="13.1497696"><ele>40.0</ele><time>2026-05-01T09:44:29.961Z</time></trkpt><trkpt lat="41.4860875" lon="13.149633"><ele>40.0</ele><time>2026-05-01T09:44:30.961Z</time></trkpt><trkpt lat="41.4860835" lon="13.1494808"><ele>40.0</ele><time>2026-05-01T09:44:31.961Z</time></trkpt><trkpt lat="41.4860801" lon="13.1493309"><ele>40.0</ele><time>2026-05-01T09:44:32.961Z</time></trkpt><trkpt lat="41.4860785" lon="13.1491798"><ele>40.0</ele><time>2026-05-01T09:44:33.961Z</time></trkpt><trkpt lat="41.4860764" lon="13.149022"><ele>40.0</ele><time>2026-05-01T09:44:34.962Z</time></trkpt><trkpt lat="41.4860756" lon="13.1488623"><ele>40.0</ele><time>2026-05-01T09:44:35.961Z</time></trkpt><trkpt lat="41.4860682" lon="13.1487025"><ele>39.75</ele><time>2026-05-01T09:44:36.96Z</time></trkpt><trkpt lat="41.4860673" lon="13.1485333"><ele>39.5</ele><time>2026-05-01T09:44:37.961Z</time></trkpt><trkpt lat="41.4860673" lon="13.1483595"><ele>39.25</ele><time>2026-05-01T09:44:38.961Z</time></trkpt><trkpt lat="41.4860623" lon="13.1481915"><ele>39.0</ele><time>2026-05-01T09:44:39.962Z</time></trkpt><trkpt lat="41.4860594" lon="13.1480211"><ele>39.0</ele><time>2026-05-01T09:44:40.961Z</time></trkpt><trkpt lat="41.4860603" lon="13.1478501"><ele>39.0</ele><time>2026-05-01T09:44:41.961Z</time></trkpt><trkpt lat="41.4860612" lon="13.1476844"><ele>39.0</ele><time>2026-05-01T09:44:42.961Z</time></trkpt><trkpt lat="41.486058" lon="13.1475135"><ele>39.0</ele><time>2026-05-01T09:44:43.961Z</time></trkpt><trkpt lat="41.4860534" lon="13.1473357"><ele>39.5</ele><time>2026-05-01T09:44:44.961Z</time></trkpt><trkpt lat="41.4860514" lon="13.1471592"><ele>40.0</ele><time>2026-05-01T09:44:45.96Z</time></trkpt><trkpt lat="41.4860489" lon="13.146981"><ele>40.5</ele><time>2026-05-01T09:44:46.961Z</time></trkpt><trkpt lat="41.4860459" lon="13.1468081"><ele>41.0</ele><time>2026-05-01T09:44:47.961Z</time></trkpt><trkpt lat="41.4860421" lon="13.146648"><ele>41.0</ele><time>2026-05-01T09:44:48.96Z</time></trkpt><trkpt lat="41.4860363" lon="13.1464907"><ele>41.0</ele><time>2026-05-01T09:44:49.96Z</time></trkpt><trkpt lat="41.4860346" lon="13.1463375"><ele>41.0</ele><time>2026-05-01T09:44:50.961Z</time></trkpt><trkpt lat="41.4860329" lon="13.1461763"><ele>41.0</ele><time>2026-05-01T09:44:51.962Z</time></trkpt><trkpt lat="41.48603" lon="13.1460133"><ele>41.0</ele><time>2026-05-01T09:44:52.961Z</time></trkpt><trkpt lat="41.4860279" lon="13.1458544"><ele>41.0</ele><time>2026-05-01T09:44:53.961Z</time></trkpt><trkpt lat="41.4860236" lon="13.1456983"><ele>41.0</ele><time>2026-05-01T09:44:54.961Z</time></trkpt><trkpt lat="41.4860216" lon="13.1455546"><ele>41.0</ele><time>2026-05-01T09:44:55.961Z</time></trkpt><trkpt lat="41.4860211" lon="13.145413"><ele>40.8</ele><time>2026-05-01T09:44:56.961Z</time></trkpt><trkpt lat="41.4860177" lon="13.1452704"><ele>40.599999999999994</ele><time>2026-05-01T09:44:57.962Z</time></trkpt><trkpt lat="41.486015" lon="13.1451291"><ele>40.4</ele><time>2026-05-01T09:44:58.96Z</time></trkpt><trkpt lat="41.4860113" lon="13.144996"><ele>40.2</ele><time>2026-05-01T09:44:59.961Z</time></trkpt><trkpt lat="41.4860089" lon="13.1448774"><ele>40.0</ele><time>2026-05-01T09:45:00.961Z</time></trkpt><trkpt lat="41.4860029" lon="13.1447509"><ele>40.4</ele><time>2026-05-01T09:45:01.961Z</time></trkpt><trkpt lat="41.4860018" lon="13.1446162"><ele>40.8</ele><time>2026-05-01T09:45:02.962Z</time></trkpt><trkpt lat="41.4859927" lon="13.1444752"><ele>41.2</ele><time>2026-05-01T09:45:03.961Z</time></trkpt><trkpt lat="41.4859875" lon="13.1443369"><ele>41.6</ele><time>2026-05-01T09:45:04.961Z</time></trkpt><trkpt lat="41.4859833" lon="13.144206"><ele>42.0</ele><time>2026-05-01T09:45:05.961Z</time></trkpt><trkpt lat="41.4859817" lon="13.1440556"><ele>41.75</ele><time>2026-05-01T09:45:06.961Z</time></trkpt><trkpt lat="41.4859739" lon="13.1438766"><ele>41.5</ele><time>2026-05-01T09:45:07.962Z</time></trkpt><trkpt lat="41.4859701" lon="13.1436818"><ele>41.25</ele><time>2026-05-01T09:45:08.961Z</time></trkpt><trkpt lat="41.4859671" lon="13.1434744"><ele>41.0</ele><time>2026-05-01T09:45:09.961Z</time></trkpt><trkpt lat="41.4859646" lon="13.1432269"><ele>40.33333333333333</ele><time>2026-05-01T09:45:10.961Z</time></trkpt><trkpt lat="41.4859651" lon="13.1430045"><ele>39.666666666666664</ele><time>2026-05-01T09:45:11.962Z</time></trkpt><trkpt lat="41.4859622" lon="13.1427902"><ele>39.0</ele><time>2026-05-01T09:45:12.961Z</time></trkpt><trkpt lat="41.4859598" lon="13.14259"><ele>39.0</ele><time>2026-05-01T09:45:13.96Z</time></trkpt><trkpt lat="41.4859599" lon="13.1424046"><ele>39.0</ele><time>2026-05-01T09:45:14.961Z</time></trkpt><trkpt lat="41.485957" lon="13.1422262"><ele>39.0</ele><time>2026-05-01T09:45:15.961Z</time></trkpt><trkpt lat="41.4859539" lon="13.1420576"><ele>39.0</ele><time>2026-05-01T09:45:16.961Z</time></trkpt><trkpt lat="41.4859547" lon="13.1418985"><ele>39.0</ele><time>2026-05-01T09:45:17.961Z</time></trkpt><trkpt lat="41.4859517" lon="13.1417476"><ele>39.0</ele><time>2026-05-01T09:45:18.96Z</time></trkpt><trkpt lat="41.4859493" lon="13.1415885"><ele>39.0</ele><time>2026-05-01T09:45:19.962Z</time></trkpt><trkpt lat="41.4859476" lon="13.1414304"><ele>39.0</ele><time>2026-05-01T09:45:20.961Z</time></trkpt><trkpt lat="41.4859425" lon="13.1412755"><ele>39.0</ele><time>2026-05-01T09:45:21.96Z</time></trkpt><trkpt lat="41.4859361" lon="13.1411338"><ele>39.0</ele><time>2026-05-01T09:45:22.961Z</time></trkpt><trkpt lat="41.4859291" lon="13.1410065"><ele>39.0</ele><time>2026-05-01T09:45:23.961Z</time></trkpt><trkpt lat="41.4859278" lon="13.1408951"><ele>39.0</ele><time>2026-05-01T09:45:24.962Z</time></trkpt><trkpt lat="41.4859206" lon="13.1407656"><ele>39.0</ele><time>2026-05-01T09:45:26.961Z</time></trkpt><trkpt lat="41.4859569" lon="13.1406911"><ele>39.0</ele><time>2026-05-01T09:45:39.959Z</time></trkpt><trkpt lat="41.4860883" lon="13.1406959"><ele>39.166666666666664</ele><time>2026-05-01T09:45:41.96Z</time></trkpt><trkpt lat="41.4861693" lon="13.1406879"><ele>39.333333333333336</ele><time>2026-05-01T09:45:42.96Z</time></trkpt><trkpt lat="41.486239" lon="13.1406815"><ele>39.5</ele><time>2026-05-01T09:45:43.961Z</time></trkpt><trkpt lat="41.4863142" lon="13.1406751"><ele>39.66666666666667</ele><time>2026-05-01T09:45:44.96Z</time></trkpt><trkpt lat="41.4863836" lon="13.1406715"><ele>39.833333333333336</ele><time>2026-05-01T09:45:45.96Z</time></trkpt><trkpt lat="41.4864485" lon="13.1406669"><ele>40.0</ele><time>2026-05-01T09:45:46.96Z</time></trkpt><trkpt lat="41.4865589" lon="13.1406493"><ele>40.0</ele><time>2026-05-01T09:45:48.96Z</time></trkpt><trkpt lat="41.4866223" lon="13.1406337"><ele>40.0</ele><time>2026-05-01T09:45:50.959Z</time></trkpt><trkpt lat="41.4867257" lon="13.1406002"><ele>40.0</ele><time>2026-05-01T09:46:21.96Z</time></trkpt><trkpt lat="41.4867928" lon="13.1405324"><ele>40.0</ele><time>2026-05-01T09:46:23.96Z</time></trkpt><trkpt lat="41.4868125" lon="13.1403691"><ele>40.0</ele><time>2026-05-01T09:46:25.96Z</time></trkpt><trkpt lat="41.4868036" lon="13.1402623"><ele>40.0</ele><time>2026-05-01T09:46:26.961Z</time></trkpt><trkpt lat="41.4867889" lon="13.140143"><ele>40.0</ele><time>2026-05-01T09:46:27.959Z</time></trkpt><trkpt lat="41.4867776" lon="13.1400115"><ele>40.0</ele><time>2026-05-01T09:46:28.96Z</time></trkpt><trkpt lat="41.4867662" lon="13.1398726"><ele>40.0</ele><time>2026-05-01T09:46:29.96Z</time></trkpt><trkpt lat="41.4867572" lon="13.1397453"><ele>40.0</ele><time>2026-05-01T09:46:30.961Z</time></trkpt><trkpt lat="41.4867457" lon="13.1396257"><ele>40.0</ele><time>2026-05-01T09:46:31.961Z</time></trkpt><trkpt lat="41.486734" lon="13.1395123"><ele>40.0</ele><time>2026-05-01T09:46:32.959Z</time></trkpt><trkpt lat="41.486723" lon="13.1394073"><ele>40.0</ele><time>2026-05-01T09:46:33.959Z</time></trkpt><trkpt lat="41.48672" lon="13.139315"><ele>40.0</ele><time>2026-05-01T09:46:34.96Z</time></trkpt><trkpt lat="41.486714" lon="13.1392283"><ele>40.0</ele><time>2026-05-01T09:46:35.96Z</time></trkpt><trkpt lat="41.4867066" lon="13.1391407"><ele>40.0</ele><time>2026-05-01T09:46:36.96Z</time></trkpt><trkpt lat="41.4866852" lon="13.1389774"><ele>40.0</ele><time>2026-05-01T09:46:38.96Z</time></trkpt><trkpt lat="41.4866713" lon="13.1388132"><ele>40.0</ele><time>2026-05-01T09:46:40.96Z</time></trkpt><trkpt lat="41.4866618" lon="13.138721"><ele>40.0</ele><time>2026-05-01T09:46:41.96Z</time></trkpt><trkpt lat="41.4866559" lon="13.1386148"><ele>40.0</ele><time>2026-05-01T09:46:42.96Z</time></trkpt><trkpt lat="41.4866451" lon="13.1384963"><ele>40.0</ele><time>2026-05-01T09:46:43.96Z</time></trkpt><trkpt lat="41.4866309" lon="13.1383731"><ele>40.0</ele><time>2026-05-01T09:46:44.961Z</time></trkpt><trkpt lat="41.4866155" lon="13.1382534"><ele>40.0</ele><time>2026-05-01T09:46:45.959Z</time></trkpt><trkpt lat="41.4866015" lon="13.13813"><ele>40.0</ele><time>2026-05-01T09:46:46.96Z</time></trkpt><trkpt lat="41.4865952" lon="13.1380221"><ele>40.0</ele><time>2026-05-01T09:46:47.96Z</time></trkpt><trkpt lat="41.4866583" lon="13.1378824"><ele>40.0</ele><time>2026-05-01T09:46:49.959Z</time></trkpt><trkpt lat="41.4867262" lon="13.137833"><ele>40.2</ele><time>2026-05-01T09:46:50.96Z</time></trkpt><trkpt lat="41.486803" lon="13.1377893"><ele>40.4</ele><time>2026-05-01T09:46:51.96Z</time></trkpt><trkpt lat="41.4868851" lon="13.1377414"><ele>40.599999999999994</ele><time>2026-05-01T09:46:52.96Z</time></trkpt><trkpt lat="41.4869673" lon="13.137678"><ele>40.8</ele><time>2026-05-01T09:46:53.96Z</time></trkpt><trkpt lat="41.4870468" lon="13.1376042"><ele>41.0</ele><time>2026-05-01T09:46:54.96Z</time></trkpt><trkpt lat="41.4871181" lon="13.1375021"><ele>41.0</ele><time>2026-05-01T09:46:55.961Z</time></trkpt><trkpt lat="41.4871821" lon="13.1373962"><ele>41.0</ele><time>2026-05-01T09:46:56.96Z</time></trkpt><trkpt lat="41.4872247" lon="13.1372815"><ele>41.0</ele><time>2026-05-01T09:46:57.96Z</time></trkpt><trkpt lat="41.4872585" lon="13.1371736"><ele>41.0</ele><time>2026-05-01T09:46:58.96Z</time></trkpt><trkpt lat="41.4872775" lon="13.1370648"><ele>41.0</ele><time>2026-05-01T09:46:59.96Z</time></trkpt><trkpt lat="41.4872873" lon="13.1369593"><ele>41.0</ele><time>2026-05-01T09:47:00.96Z</time></trkpt><trkpt lat="41.4872934" lon="13.1368356"><ele>40.8</ele><time>2026-05-01T09:47:01.96Z</time></trkpt><trkpt lat="41.4872882" lon="13.1367044"><ele>40.599999999999994</ele><time>2026-05-01T09:47:02.96Z</time></trkpt><trkpt lat="41.4872894" lon="13.1365599"><ele>40.4</ele><time>2026-05-01T09:47:03.96Z</time></trkpt><trkpt lat="41.4872897" lon="13.1364043"><ele>40.2</ele><time>2026-05-01T09:47:04.959Z</time></trkpt><trkpt lat="41.4872856" lon="13.136236"><ele>40.0</ele><time>2026-05-01T09:47:05.961Z</time></trkpt><trkpt lat="41.4872801" lon="13.1360674"><ele>40.5</ele><time>2026-05-01T09:47:06.959Z</time></trkpt><trkpt lat="41.4872683" lon="13.1358896"><ele>41.0</ele><time>2026-05-01T09:47:07.96Z</time></trkpt><trkpt lat="41.4872553" lon="13.1357021"><ele>41.5</ele><time>2026-05-01T09:47:08.96Z</time></trkpt><trkpt lat="41.4872526" lon="13.1355325"><ele>42.0</ele><time>2026-05-01T09:47:09.961Z</time></trkpt><trkpt lat="41.4872526" lon="13.1353572"><ele>42.0</ele><time>2026-05-01T09:47:10.961Z</time></trkpt><trkpt lat="41.4872473" lon="13.1351804"><ele>42.0</ele><time>2026-05-01T09:47:11.96Z</time></trkpt><trkpt lat="41.4872416" lon="13.1349977"><ele>42.0</ele><time>2026-05-01T09:47:12.96Z</time></trkpt><trkpt lat="41.4872404" lon="13.1348202"><ele>42.0</ele><time>2026-05-01T09:47:13.959Z</time></trkpt><trkpt lat="41.4872411" lon="13.134638"><ele>42.0</ele><time>2026-05-01T09:47:14.96Z</time></trkpt><trkpt lat="41.4872355" lon="13.134443"><ele>42.0</ele><time>2026-05-01T09:47:15.96Z</time></trkpt><trkpt lat="41.4872078" lon="13.1342441"><ele>42.0</ele><time>2026-05-01T09:47:16.96Z</time></trkpt><trkpt lat="41.4871634" lon="13.134041"><ele>42.0</ele><time>2026-05-01T09:47:17.96Z</time></trkpt><trkpt lat="41.4871232" lon="13.1338182"><ele>42.0</ele><time>2026-05-01T09:47:18.961Z</time></trkpt><trkpt lat="41.4870789" lon="13.1335911"><ele>42.0</ele><time>2026-05-01T09:47:19.959Z</time></trkpt><trkpt lat="41.4870313" lon="13.1333724"><ele>42.333333333333336</ele><time>2026-05-01T09:47:20.96Z</time></trkpt><trkpt lat="41.4869789" lon="13.1331417"><ele>42.66666666666667</ele><time>2026-05-01T09:47:21.96Z</time></trkpt><trkpt lat="41.4869275" lon="13.1329045"><ele>43.0</ele><time>2026-05-01T09:47:22.96Z</time></trkpt><trkpt lat="41.4868795" lon="13.1326593"><ele>43.0</ele><time>2026-05-01T09:47:23.96Z</time></trkpt><trkpt lat="41.4868312" lon="13.1324259"><ele>43.0</ele><time>2026-05-01T09:47:24.96Z</time></trkpt><trkpt lat="41.4867825" lon="13.1321954"><ele>43.0</ele><time>2026-05-01T09:47:25.96Z</time></trkpt><trkpt lat="41.486744" lon="13.1319728"><ele>43.0</ele><time>2026-05-01T09:47:26.96Z</time></trkpt><trkpt lat="41.4866998" lon="13.131755"><ele>43.0</ele><time>2026-05-01T09:47:27.959Z</time></trkpt><trkpt lat="41.4866528" lon="13.1315361"><ele>43.0</ele><time>2026-05-01T09:47:28.96Z</time></trkpt><trkpt lat="41.4866059" lon="13.1313269"><ele>43.0</ele><time>2026-05-01T09:47:29.96Z</time></trkpt><trkpt lat="41.4865561" lon="13.1311153"><ele>43.0</ele><time>2026-05-01T09:47:30.96Z</time></trkpt><trkpt lat="41.4865155" lon="13.13091"><ele>43.0</ele><time>2026-05-01T09:47:31.96Z</time></trkpt><trkpt lat="41.4864786" lon="13.1306983"><ele>43.66666666666667</ele><time>2026-05-01T09:47:32.96Z</time></trkpt><trkpt lat="41.4864448" lon="13.1304909"><ele>44.333333333333336</ele><time>2026-05-01T09:47:33.961Z</time></trkpt><trkpt lat="41.4864112" lon="13.1302829"><ele>45.0</ele><time>2026-05-01T09:47:34.959Z</time></trkpt><trkpt lat="41.4863615" lon="13.1300937"><ele>45.0</ele><time>2026-05-01T09:47:35.96Z</time></trkpt><trkpt lat="41.4863126" lon="13.1299076"><ele>45.0</ele><time>2026-05-01T09:47:36.959Z</time></trkpt><trkpt lat="41.4862706" lon="13.1297109"><ele>45.0</ele><time>2026-05-01T09:47:37.961Z</time></trkpt><trkpt lat="41.4862257" lon="13.1295158"><ele>45.25</ele><time>2026-05-01T09:47:38.96Z</time></trkpt><trkpt lat="41.4861887" lon="13.1293239"><ele>45.5</ele><time>2026-05-01T09:47:39.96Z</time></trkpt><trkpt lat="41.4861535" lon="13.1291436"><ele>45.75</ele><time>2026-05-01T09:47:40.96Z</time></trkpt><trkpt lat="41.4861206" lon="13.1289769"><ele>46.0</ele><time>2026-05-01T09:47:41.961Z</time></trkpt><trkpt lat="41.4860851" lon="13.1288213"><ele>46.0</ele><time>2026-05-01T09:47:42.96Z</time></trkpt><trkpt lat="41.4860426" lon="13.1286775"><ele>46.0</ele><time>2026-05-01T09:47:43.96Z</time></trkpt><trkpt lat="41.485992" lon="13.128547"><ele>46.0</ele><time>2026-05-01T09:47:44.959Z</time></trkpt><trkpt lat="41.4859387" lon="13.1284373"><ele>46.0</ele><time>2026-05-01T09:47:45.96Z</time></trkpt><trkpt lat="41.4859008" lon="13.1283522"><ele>46.0</ele><time>2026-05-01T09:47:46.96Z</time></trkpt><trkpt lat="41.4858759" lon="13.1282321"><ele>46.16666666666667</ele><time>2026-05-01T09:47:48.959Z</time></trkpt><trkpt lat="41.4859431" lon="13.1281446"><ele>46.333333333333336</ele><time>2026-05-01T09:47:51.96Z</time></trkpt><trkpt lat="41.4860286" lon="13.1280699"><ele>46.5</ele><time>2026-05-01T09:47:53.96Z</time></trkpt><trkpt lat="41.4860569" lon="13.1279944"><ele>46.666666666666664</ele><time>2026-05-01T09:47:54.959Z</time></trkpt><trkpt lat="41.4860636" lon="13.1279063"><ele>46.83333333333333</ele><time>2026-05-01T09:47:55.959Z</time></trkpt><trkpt lat="41.4860659" lon="13.127809"><ele>47.0</ele><time>2026-05-01T09:47:56.959Z</time></trkpt><trkpt lat="41.4860726" lon="13.1277039"><ele>47.0</ele><time>2026-05-01T09:47:57.96Z</time></trkpt><trkpt lat="41.486081" lon="13.1275934"><ele>47.0</ele><time>2026-05-01T09:47:58.959Z</time></trkpt><trkpt lat="41.4860819" lon="13.1274771"><ele>47.0</ele><time>2026-05-01T09:47:59.959Z</time></trkpt><trkpt lat="41.4860744" lon="13.1273548"><ele>47.0</ele><time>2026-05-01T09:48:00.959Z</time></trkpt><trkpt lat="41.4860662" lon="13.1272204"><ele>47.0</ele><time>2026-05-01T09:48:01.959Z</time></trkpt><trkpt lat="41.4860642" lon="13.1270852"><ele>47.2</ele><time>2026-05-01T09:48:02.958Z</time></trkpt><trkpt lat="41.4860602" lon="13.1269494"><ele>47.400000000000006</ele><time>2026-05-01T09:48:03.958Z</time></trkpt><trkpt lat="41.4860528" lon="13.1268246"><ele>47.599999999999994</ele><time>2026-05-01T09:48:04.959Z</time></trkpt><trkpt lat="41.4860478" lon="13.1266889"><ele>47.8</ele><time>2026-05-01T09:48:05.958Z</time></trkpt><trkpt lat="41.4860349" lon="13.1265402"><ele>48.0</ele><time>2026-05-01T09:48:06.958Z</time></trkpt><trkpt lat="41.4860292" lon="13.1263937"><ele>48.0</ele><time>2026-05-01T09:48:07.96Z</time></trkpt><trkpt lat="41.4860227" lon="13.1262424"><ele>48.0</ele><time>2026-05-01T09:48:08.96Z</time></trkpt><trkpt lat="41.4860168" lon="13.1260898"><ele>48.0</ele><time>2026-05-01T09:48:09.959Z</time></trkpt><trkpt lat="41.4860077" lon="13.1259355"><ele>48.0</ele><time>2026-05-01T09:48:10.959Z</time></trkpt><trkpt lat="41.4859991" lon="13.1257798"><ele>48.599999999999994</ele><time>2026-05-01T09:48:11.959Z</time></trkpt><trkpt lat="41.4859936" lon="13.1256339"><ele>49.199999999999996</ele><time>2026-05-01T09:48:12.959Z</time></trkpt><trkpt lat="41.4859976" lon="13.1254928"><ele>49.8</ele><time>2026-05-01T09:48:13.958Z</time></trkpt><trkpt lat="41.4859966" lon="13.1253554"><ele>50.4</ele><time>2026-05-01T09:48:14.959Z</time></trkpt><trkpt lat="41.4860085" lon="13.1252126"><ele>51.0</ele><time>2026-05-01T09:48:15.959Z</time></trkpt><trkpt lat="41.4860341" lon="13.1250751"><ele>51.0</ele><time>2026-05-01T09:48:16.959Z</time></trkpt><trkpt lat="41.4860588" lon="13.1249256"><ele>51.0</ele><time>2026-05-01T09:48:17.958Z</time></trkpt><trkpt lat="41.4860924" lon="13.1247734"><ele>51.0</ele><time>2026-05-01T09:48:18.959Z</time></trkpt><trkpt lat="41.4861328" lon="13.1246258"><ele>51.0</ele><time>2026-05-01T09:48:19.959Z</time></trkpt><trkpt lat="41.4861693" lon="13.1244826"><ele>51.4</ele><time>2026-05-01T09:48:20.959Z</time></trkpt><trkpt lat="41.4862074" lon="13.1243579"><ele>51.8</ele><time>2026-05-01T09:48:21.959Z</time></trkpt><trkpt lat="41.4862453" lon="13.1242354"><ele>52.199999999999996</ele><time>2026-05-01T09:48:22.96Z</time></trkpt><trkpt lat="41.4862815" lon="13.1241082"><ele>52.599999999999994</ele><time>2026-05-01T09:48:23.959Z</time></trkpt><trkpt lat="41.4863237" lon="13.1239842"><ele>53.0</ele><time>2026-05-01T09:48:24.959Z</time></trkpt><trkpt lat="41.486369" lon="13.1238536"><ele>54.0</ele><time>2026-05-01T09:48:25.96Z</time></trkpt><trkpt lat="41.4864184" lon="13.1237268"><ele>55.0</ele><time>2026-05-01T09:48:26.959Z</time></trkpt><trkpt lat="41.4864662" lon="13.1235968"><ele>56.0</ele><time>2026-05-01T09:48:27.959Z</time></trkpt><trkpt lat="41.4865192" lon="13.123469"><ele>57.0</ele><time>2026-05-01T09:48:28.959Z</time></trkpt><trkpt lat="41.4865589" lon="13.1233356"><ele>58.0</ele><time>2026-05-01T09:48:29.958Z</time></trkpt><trkpt lat="41.4865677" lon="13.1231896"><ele>59.5</ele><time>2026-05-01T09:48:30.958Z</time></trkpt><trkpt lat="41.4865437" lon="13.1230297"><ele>61.0</ele><time>2026-05-01T09:48:31.96Z</time></trkpt><trkpt lat="41.4865192" lon="13.1228668"><ele>62.5</ele><time>2026-05-01T09:48:32.959Z</time></trkpt><trkpt lat="41.4864896" lon="13.1227134"><ele>64.0</ele><time>2026-05-01T09:48:33.958Z</time></trkpt><trkpt lat="41.4864656" lon="13.1225683"><ele>64.0</ele><time>2026-05-01T09:48:34.959Z</time></trkpt><trkpt lat="41.4864431" lon="13.1224278"><ele>64.0</ele><time>2026-05-01T09:48:35.958Z</time></trkpt><trkpt lat="41.4864236" lon="13.1222901"><ele>64.0</ele><time>2026-05-01T09:48:36.959Z</time></trkpt><trkpt lat="41.4864139" lon="13.1221413"><ele>64.0</ele><time>2026-05-01T09:48:37.96Z</time></trkpt><trkpt lat="41.4864084" lon="13.1220011"><ele>64.0</ele><time>2026-05-01T09:48:38.959Z</time></trkpt><trkpt lat="41.4864102" lon="13.1218553"><ele>65.4</ele><time>2026-05-01T09:48:39.959Z</time></trkpt><trkpt lat="41.4864175" lon="13.121709"><ele>66.80000000000001</ele><time>2026-05-01T09:48:40.958Z</time></trkpt><trkpt lat="41.4864244" lon="13.1215633"><ele>68.19999999999999</ele><time>2026-05-01T09:48:41.959Z</time></trkpt><trkpt lat="41.486442" lon="13.1214247"><ele>69.6</ele><time>2026-05-01T09:48:42.959Z</time></trkpt><trkpt lat="41.4864682" lon="13.1212741"><ele>71.0</ele><time>2026-05-01T09:48:43.959Z</time></trkpt><trkpt lat="41.4864908" lon="13.1211194"><ele>70.75</ele><time>2026-05-01T09:48:44.959Z</time></trkpt><trkpt lat="41.4865035" lon="13.1209511"><ele>70.5</ele><time>2026-05-01T09:48:45.96Z</time></trkpt><trkpt lat="41.4864968" lon="13.1207675"><ele>70.25</ele><time>2026-05-01T09:48:46.959Z</time></trkpt><trkpt lat="41.4864847" lon="13.1205845"><ele>70.0</ele><time>2026-05-01T09:48:47.959Z</time></trkpt><trkpt lat="41.4864711" lon="13.1204174"><ele>70.0</ele><time>2026-05-01T09:48:48.959Z</time></trkpt><trkpt lat="41.486459" lon="13.1202495"><ele>70.0</ele><time>2026-05-01T09:48:49.96Z</time></trkpt><trkpt lat="41.4864473" lon="13.1200875"><ele>70.0</ele><time>2026-05-01T09:48:50.959Z</time></trkpt><trkpt lat="41.4864346" lon="13.1199272"><ele>70.0</ele><time>2026-05-01T09:48:51.959Z</time></trkpt><trkpt lat="41.4864176" lon="13.1197787"><ele>69.66666666666666</ele><time>2026-05-01T09:48:52.959Z</time></trkpt><trkpt lat="41.4863848" lon="13.1196445"><ele>69.33333333333333</ele><time>2026-05-01T09:48:53.959Z</time></trkpt><trkpt lat="41.486354" lon="13.1195164"><ele>69.0</ele><time>2026-05-01T09:48:54.96Z</time></trkpt><trkpt lat="41.4863497" lon="13.1193982"><ele>68.66666666666667</ele><time>2026-05-01T09:48:55.959Z</time></trkpt><trkpt lat="41.4863669" lon="13.1192992"><ele>68.33333333333334</ele><time>2026-05-01T09:48:56.959Z</time></trkpt><trkpt lat="41.4864061" lon="13.1192216"><ele>68.0</ele><time>2026-05-01T09:48:57.958Z</time></trkpt><trkpt lat="41.4865024" lon="13.1191384"><ele>68.0</ele><time>2026-05-01T09:48:59.96Z</time></trkpt><trkpt lat="41.4865484" lon="13.1190691"><ele>68.0</ele><time>2026-05-01T09:49:00.959Z</time></trkpt><trkpt lat="41.4866077" lon="13.1189879"><ele>68.0</ele><time>2026-05-01T09:49:01.959Z</time></trkpt><trkpt lat="41.4866794" lon="13.1189027"><ele>68.0</ele><time>2026-05-01T09:49:02.959Z</time></trkpt><trkpt lat="41.4867481" lon="13.1188214"><ele>68.0</ele><time>2026-05-01T09:49:03.959Z</time></trkpt><trkpt lat="41.4868015" lon="13.1187553"><ele>68.0</ele><time>2026-05-01T09:49:04.959Z</time></trkpt><trkpt lat="41.4868385" lon="13.118595"><ele>68.5</ele><time>2026-05-01T09:49:06.959Z</time></trkpt><trkpt lat="41.4868427" lon="13.1185093"><ele>69.0</ele><time>2026-05-01T09:49:07.959Z</time></trkpt><trkpt lat="41.4868201" lon="13.1184226"><ele>69.5</ele><time>2026-05-01T09:49:08.959Z</time></trkpt><trkpt lat="41.4868092" lon="13.1183362"><ele>70.0</ele><time>2026-05-01T09:49:09.959Z</time></trkpt><trkpt lat="41.4868002" lon="13.1182162"><ele>70.5</ele><time>2026-05-01T09:49:10.959Z</time></trkpt><trkpt lat="41.4868105" lon="13.1180914"><ele>71.0</ele><time>2026-05-01T09:49:11.959Z</time></trkpt><trkpt lat="41.4868311" lon="13.1179541"><ele>71.8</ele><time>2026-05-01T09:49:12.959Z</time></trkpt><trkpt lat="41.4868684" lon="13.1178132"><ele>72.6</ele><time>2026-05-01T09:49:13.959Z</time></trkpt><trkpt lat="41.4869027" lon="13.1176687"><ele>73.4</ele><time>2026-05-01T09:49:14.96Z</time></trkpt><trkpt lat="41.4869284" lon="13.1175245"><ele>74.2</ele><time>2026-05-01T09:49:15.96Z</time></trkpt><trkpt lat="41.4869574" lon="13.1173838"><ele>75.0</ele><time>2026-05-01T09:49:16.959Z</time></trkpt><trkpt lat="41.4869805" lon="13.1172385"><ele>75.6</ele><time>2026-05-01T09:49:17.959Z</time></trkpt><trkpt lat="41.4869992" lon="13.1170881"><ele>76.2</ele><time>2026-05-01T09:49:18.959Z</time></trkpt><trkpt lat="41.4870152" lon="13.1169379"><ele>76.8</ele><time>2026-05-01T09:49:19.959Z</time></trkpt><trkpt lat="41.4870309" lon="13.1167876"><ele>77.4</ele><time>2026-05-01T09:49:20.959Z</time></trkpt><trkpt lat="41.4870538" lon="13.1166538"><ele>78.0</ele><time>2026-05-01T09:49:21.959Z</time></trkpt><trkpt lat="41.487091" lon="13.116522"><ele>79.0</ele><time>2026-05-01T09:49:22.959Z</time></trkpt><trkpt lat="41.4871388" lon="13.1163944"><ele>80.0</ele><time>2026-05-01T09:49:23.959Z</time></trkpt><trkpt lat="41.4871755" lon="13.1162552"><ele>81.0</ele><time>2026-05-01T09:49:24.959Z</time></trkpt><trkpt lat="41.4872041" lon="13.1161149"><ele>82.0</ele><time>2026-05-01T09:49:25.959Z</time></trkpt><trkpt lat="41.4872248" lon="13.1159801"><ele>83.0</ele><time>2026-05-01T09:49:26.958Z</time></trkpt><trkpt lat="41.4872476" lon="13.1158648"><ele>83.0</ele><time>2026-05-01T09:49:27.959Z</time></trkpt><trkpt lat="41.4872687" lon="13.1157548"><ele>83.0</ele><time>2026-05-01T09:49:28.96Z</time></trkpt><trkpt lat="41.4872821" lon="13.1156517"><ele>83.0</ele><time>2026-05-01T09:49:29.959Z</time></trkpt><trkpt lat="41.4872912" lon="13.1155447"><ele>83.0</ele><time>2026-05-01T09:49:30.959Z</time></trkpt><trkpt lat="41.4872958" lon="13.1154306"><ele>83.0</ele><time>2026-05-01T09:49:31.959Z</time></trkpt><trkpt lat="41.4873093" lon="13.115315"><ele>83.0</ele><time>2026-05-01T09:49:32.959Z</time></trkpt><trkpt lat="41.4873263" lon="13.115185"><ele>83.25</ele><time>2026-05-01T09:49:33.959Z</time></trkpt><trkpt lat="41.4873421" lon="13.1150436"><ele>83.5</ele><time>2026-05-01T09:49:34.959Z</time></trkpt><trkpt lat="41.487357" lon="13.1148905"><ele>83.75</ele><time>2026-05-01T09:49:35.958Z</time></trkpt><trkpt lat="41.487378" lon="13.1147385"><ele>84.0</ele><time>2026-05-01T09:49:36.96Z</time></trkpt><trkpt lat="41.4873953" lon="13.1145844"><ele>84.2</ele><time>2026-05-01T09:49:37.959Z</time></trkpt><trkpt lat="41.4874146" lon="13.1144509"><ele>84.4</ele><time>2026-05-01T09:49:38.959Z</time></trkpt><trkpt lat="41.4874266" lon="13.1143257"><ele>84.6</ele><time>2026-05-01T09:49:39.959Z</time></trkpt><trkpt lat="41.487443" lon="13.1142136"><ele>84.8</ele><time>2026-05-01T09:49:40.96Z</time></trkpt><trkpt lat="41.4874757" lon="13.1141062"><ele>85.0</ele><time>2026-05-01T09:49:41.959Z</time></trkpt><trkpt lat="41.4875168" lon="13.1140029"><ele>86.0</ele><time>2026-05-01T09:49:42.959Z</time></trkpt><trkpt lat="41.4875598" lon="13.1138926"><ele>87.0</ele><time>2026-05-01T09:49:43.959Z</time></trkpt><trkpt lat="41.4876119" lon="13.1137724"><ele>88.0</ele><time>2026-05-01T09:49:44.96Z</time></trkpt><trkpt lat="41.4876776" lon="13.1136495"><ele>89.0</ele><time>2026-05-01T09:49:45.959Z</time></trkpt><trkpt lat="41.4877485" lon="13.113524"><ele>90.0</ele><time>2026-05-01T09:49:46.959Z</time></trkpt><trkpt lat="41.4878081" lon="13.1134012"><ele>90.0</ele><time>2026-05-01T09:49:47.96Z</time></trkpt><trkpt lat="41.487856" lon="13.1132629"><ele>90.0</ele><time>2026-05-01T09:49:48.958Z</time></trkpt><trkpt lat="41.4879005" lon="13.1131156"><ele>90.0</ele><time>2026-05-01T09:49:49.959Z</time></trkpt><trkpt lat="41.4879445" lon="13.1129597"><ele>90.0</ele><time>2026-05-01T09:49:50.959Z</time></trkpt><trkpt lat="41.4879964" lon="13.1128048"><ele>90.75</ele><time>2026-05-01T09:49:51.959Z</time></trkpt><trkpt lat="41.4880439" lon="13.1126408"><ele>91.5</ele><time>2026-05-01T09:49:52.959Z</time></trkpt><trkpt lat="41.4880948" lon="13.1124833"><ele>92.25</ele><time>2026-05-01T09:49:53.959Z</time></trkpt><trkpt lat="41.4881392" lon="13.1123188"><ele>93.0</ele><time>2026-05-01T09:49:54.959Z</time></trkpt><trkpt lat="41.4881811" lon="13.1121475"><ele>94.5</ele><time>2026-05-01T09:49:55.958Z</time></trkpt><trkpt lat="41.4882219" lon="13.111971"><ele>96.0</ele><time>2026-05-01T09:49:56.96Z</time></trkpt><trkpt lat="41.4882602" lon="13.1117943"><ele>97.5</ele><time>2026-05-01T09:49:57.959Z</time></trkpt><trkpt lat="41.4882974" lon="13.1116157"><ele>99.0</ele><time>2026-05-01T09:49:58.959Z</time></trkpt><trkpt lat="41.488335" lon="13.1114209"><ele>99.25</ele><time>2026-05-01T09:49:59.959Z</time></trkpt><trkpt lat="41.4883708" lon="13.111233"><ele>99.5</ele><time>2026-05-01T09:50:00.959Z</time></trkpt><trkpt lat="41.4884096" lon="13.1110417"><ele>99.75</ele><time>2026-05-01T09:50:01.959Z</time></trkpt><trkpt lat="41.4884472" lon="13.1108454"><ele>100.0</ele><time>2026-05-01T09:50:02.96Z</time></trkpt><trkpt lat="41.4884849" lon="13.1106504"><ele>100.25</ele><time>2026-05-01T09:50:03.958Z</time></trkpt><trkpt lat="41.4885171" lon="13.1104729"><ele>100.5</ele><time>2026-05-01T09:50:04.959Z</time></trkpt><trkpt lat="41.4885533" lon="13.110305"><ele>100.75</ele><time>2026-05-01T09:50:05.959Z</time></trkpt><trkpt lat="41.488588" lon="13.1101405"><ele>101.0</ele><time>2026-05-01T09:50:06.959Z</time></trkpt><trkpt lat="41.4886202" lon="13.1099888"><ele>101.25</ele><time>2026-05-01T09:50:07.958Z</time></trkpt><trkpt lat="41.4886421" lon="13.1098477"><ele>101.5</ele><time>2026-05-01T09:50:08.959Z</time></trkpt><trkpt lat="41.4886639" lon="13.1097105"><ele>101.75</ele><time>2026-05-01T09:50:09.958Z</time></trkpt><trkpt lat="41.4886971" lon="13.1095439"><ele>102.0</ele><time>2026-05-01T09:50:10.959Z</time></trkpt><trkpt lat="41.4887316" lon="13.1093672"><ele>103.0</ele><time>2026-05-01T09:50:11.96Z</time></trkpt><trkpt lat="41.4887648" lon="13.1091869"><ele>104.0</ele><time>2026-05-01T09:50:12.959Z</time></trkpt><trkpt lat="41.4887991" lon="13.1090243"><ele>105.0</ele><time>2026-05-01T09:50:13.959Z</time></trkpt><trkpt lat="41.4888402" lon="13.108861"><ele>106.0</ele><time>2026-05-01T09:50:14.958Z</time></trkpt><trkpt lat="41.4888661" lon="13.1087125"><ele>106.0</ele><time>2026-05-01T09:50:15.959Z</time></trkpt><trkpt lat="41.4889" lon="13.1085704"><ele>106.0</ele><time>2026-05-01T09:50:16.958Z</time></trkpt><trkpt lat="41.4889588" lon="13.1084347"><ele>106.0</ele><time>2026-05-01T09:50:17.958Z</time></trkpt><trkpt lat="41.4890255" lon="13.1083133"><ele>106.0</ele><time>2026-05-01T09:50:18.958Z</time></trkpt><trkpt lat="41.4890977" lon="13.1082085"><ele>106.0</ele><time>2026-05-01T09:50:19.959Z</time></trkpt><trkpt lat="41.4891713" lon="13.108109"><ele>105.4</ele><time>2026-05-01T09:50:20.958Z</time></trkpt><trkpt lat="41.4892486" lon="13.1080064"><ele>104.8</ele><time>2026-05-01T09:50:21.958Z</time></trkpt><trkpt lat="41.4893343" lon="13.10791"><ele>104.2</ele><time>2026-05-01T09:50:22.958Z</time></trkpt><trkpt lat="41.4894179" lon="13.1078112"><ele>103.60000000000001</ele><time>2026-05-01T09:50:23.958Z</time></trkpt><trkpt lat="41.4895031" lon="13.1077069"><ele>103.0</ele><time>2026-05-01T09:50:24.958Z</time></trkpt><trkpt lat="41.4895891" lon="13.1076034"><ele>103.50000000000001</ele><time>2026-05-01T09:50:25.958Z</time></trkpt><trkpt lat="41.4896648" lon="13.107494"><ele>104.0</ele><time>2026-05-01T09:50:26.958Z</time></trkpt><trkpt lat="41.4897101" lon="13.1073891"><ele>104.5</ele><time>2026-05-01T09:50:27.958Z</time></trkpt><trkpt lat="41.489737" lon="13.1073099"><ele>105.0</ele><time>2026-05-01T09:50:28.958Z</time></trkpt><trkpt lat="41.4897893" lon="13.107189"><ele>105.50000000000001</ele><time>2026-05-01T09:50:30.958Z</time></trkpt><trkpt lat="41.4898373" lon="13.107119"><ele>106.0</ele><time>2026-05-01T09:50:31.958Z</time></trkpt><trkpt lat="41.4898978" lon="13.1070501"><ele>106.0</ele><time>2026-05-01T09:50:32.957Z</time></trkpt><trkpt lat="41.4899756" lon="13.1069729"><ele>106.0</ele><time>2026-05-01T09:50:33.959Z</time></trkpt><trkpt lat="41.4900665" lon="13.1069083"><ele>106.0</ele><time>2026-05-01T09:50:34.958Z</time></trkpt><trkpt lat="41.4901713" lon="13.1068463"><ele>106.0</ele><time>2026-05-01T09:50:35.957Z</time></trkpt><trkpt lat="41.4902858" lon="13.1067951"><ele>106.0</ele><time>2026-05-01T09:50:36.958Z</time></trkpt><trkpt lat="41.490407" lon="13.1067448"><ele>108.25</ele><time>2026-05-01T09:50:37.958Z</time></trkpt><trkpt lat="41.4905264" lon="13.1067111"><ele>110.5</ele><time>2026-05-01T09:50:38.959Z</time></trkpt><trkpt lat="41.490651" lon="13.1067052"><ele>112.75</ele><time>2026-05-01T09:50:39.958Z</time></trkpt><trkpt lat="41.4907784" lon="13.1067174"><ele>115.0</ele><time>2026-05-01T09:50:40.958Z</time></trkpt><trkpt lat="41.4909086" lon="13.1067463"><ele>115.0</ele><time>2026-05-01T09:50:41.959Z</time></trkpt><trkpt lat="41.4910255" lon="13.1067524"><ele>115.0</ele><time>2026-05-01T09:50:42.959Z</time></trkpt><trkpt lat="41.4911323" lon="13.1067388"><ele>115.0</ele><time>2026-05-01T09:50:43.958Z</time></trkpt><trkpt lat="41.491221" lon="13.1067027"><ele>115.0</ele><time>2026-05-01T09:50:44.958Z</time></trkpt><trkpt lat="41.4912992" lon="13.1066596"><ele>115.0</ele><time>2026-05-01T09:50:45.958Z</time></trkpt><trkpt lat="41.4913846" lon="13.1066663"><ele>117.0</ele><time>2026-05-01T09:50:46.958Z</time></trkpt><trkpt lat="41.4914671" lon="13.1067131"><ele>119.0</ele><time>2026-05-01T09:50:47.958Z</time></trkpt><trkpt lat="41.4915495" lon="13.1067912"><ele>121.0</ele><time>2026-05-01T09:50:48.958Z</time></trkpt><trkpt lat="41.491641" lon="13.1068698"><ele>123.0</ele><time>2026-05-01T09:50:49.958Z</time></trkpt><trkpt lat="41.4917379" lon="13.106957"><ele>125.0</ele><time>2026-05-01T09:50:50.958Z</time></trkpt><trkpt lat="41.4918372" lon="13.1070473"><ele>125.0</ele><time>2026-05-01T09:50:51.958Z</time></trkpt><trkpt lat="41.4919542" lon="13.1071221"><ele>125.0</ele><time>2026-05-01T09:50:52.958Z</time></trkpt><trkpt lat="41.4920821" lon="13.107189"><ele>125.0</ele><time>2026-05-01T09:50:53.957Z</time></trkpt><trkpt lat="41.4922271" lon="13.1072415"><ele>125.0</ele><time>2026-05-01T09:50:54.958Z</time></trkpt><trkpt lat="41.4923765" lon="13.1072684"><ele>129.33333333333331</ele><time>2026-05-01T09:50:55.958Z</time></trkpt><trkpt lat="41.4925362" lon="13.107272"><ele>133.66666666666666</ele><time>2026-05-01T09:50:56.959Z</time></trkpt><trkpt lat="41.4927025" lon="13.1072591"><ele>138.0</ele><time>2026-05-01T09:50:57.959Z</time></trkpt><trkpt lat="41.4928784" lon="13.1072445"><ele>142.0</ele><time>2026-05-01T09:50:58.958Z</time></trkpt><trkpt lat="41.4930615" lon="13.1072108"><ele>146.0</ele><time>2026-05-01T09:50:59.958Z</time></trkpt><trkpt lat="41.4932531" lon="13.1071672"><ele>150.0</ele><time>2026-05-01T09:51:00.958Z</time></trkpt><trkpt lat="41.4934464" lon="13.1071174"><ele>150.0</ele><time>2026-05-01T09:51:01.957Z</time></trkpt><trkpt lat="41.4936226" lon="13.1070627"><ele>150.0</ele><time>2026-05-01T09:51:02.958Z</time></trkpt><trkpt lat="41.4938023" lon="13.1070149"><ele>150.0</ele><time>2026-05-01T09:51:03.957Z</time></trkpt><trkpt lat="41.4939862" lon="13.1069786"><ele>151.33333333333334</ele><time>2026-05-01T09:51:04.958Z</time></trkpt><trkpt lat="41.4941736" lon="13.1069661"><ele>152.66666666666669</ele><time>2026-05-01T09:51:05.958Z</time></trkpt><trkpt lat="41.4943648" lon="13.1069604"><ele>154.0</ele><time>2026-05-01T09:51:06.957Z</time></trkpt><trkpt lat="41.4945545" lon="13.1069715"><ele>156.0</ele><time>2026-05-01T09:51:07.957Z</time></trkpt><trkpt lat="41.4947479" lon="13.107005"><ele>158.0</ele><time>2026-05-01T09:51:08.958Z</time></trkpt><trkpt lat="41.4949388" lon="13.1070504"><ele>160.0</ele><time>2026-05-01T09:51:09.958Z</time></trkpt><trkpt lat="41.4951319" lon="13.107099"><ele>160.0</ele><time>2026-05-01T09:51:10.958Z</time></trkpt><trkpt lat="41.4953284" lon="13.1071423"><ele>160.0</ele><time>2026-05-01T09:51:11.958Z</time></trkpt><trkpt lat="41.4955139" lon="13.1071785"><ele>160.0</ele><time>2026-05-01T09:51:12.958Z</time></trkpt><trkpt lat="41.4956923" lon="13.1072093"><ele>164.66666666666669</ele><time>2026-05-01T09:51:13.959Z</time></trkpt><trkpt lat="41.4958678" lon="13.1072315"><ele>169.33333333333334</ele><time>2026-05-01T09:51:14.958Z</time></trkpt><trkpt lat="41.4960406" lon="13.1072399"><ele>174.0</ele><time>2026-05-01T09:51:15.958Z</time></trkpt><trkpt lat="41.4962139" lon="13.1072333"><ele>177.66666666666666</ele><time>2026-05-01T09:51:16.959Z</time></trkpt><trkpt lat="41.4963931" lon="13.1072401"><ele>181.33333333333331</ele><time>2026-05-01T09:51:17.958Z</time></trkpt><trkpt lat="41.4965698" lon="13.1072637"><ele>185.0</ele><time>2026-05-01T09:51:18.957Z</time></trkpt><trkpt lat="41.4967466" lon="13.1073069"><ele>185.0</ele><time>2026-05-01T09:51:19.959Z</time></trkpt><trkpt lat="41.4969275" lon="13.1073527"><ele>185.0</ele><time>2026-05-01T09:51:20.958Z</time></trkpt><trkpt lat="41.4971116" lon="13.1074043"><ele>185.0</ele><time>2026-05-01T09:51:21.958Z</time></trkpt><trkpt lat="41.4972871" lon="13.1074613"><ele>176.33333333333331</ele><time>2026-05-01T09:51:22.959Z</time></trkpt><trkpt lat="41.4974522" lon="13.1075197"><ele>167.66666666666666</ele><time>2026-05-01T09:51:23.958Z</time></trkpt><trkpt lat="41.4976015" lon="13.1075676"><ele>159.0</ele><time>2026-05-01T09:51:24.959Z</time></trkpt><trkpt lat="41.4977328" lon="13.1075931"><ele>159.0</ele><time>2026-05-01T09:51:25.958Z</time></trkpt><trkpt lat="41.4978438" lon="13.1076027"><ele>159.0</ele><time>2026-05-01T09:51:26.959Z</time></trkpt><trkpt lat="41.4979358" lon="13.107637"><ele>159.0</ele><time>2026-05-01T09:51:27.957Z</time></trkpt><trkpt lat="41.4980063" lon="13.1077079"><ele>159.0</ele><time>2026-05-01T09:51:28.958Z</time></trkpt><trkpt lat="41.4980677" lon="13.1078184"><ele>159.0</ele><time>2026-05-01T09:51:29.959Z</time></trkpt><trkpt lat="41.4981211" lon="13.1079498"><ele>158.25</ele><time>2026-05-01T09:51:30.958Z</time></trkpt><trkpt lat="41.498173" lon="13.1080961"><ele>157.5</ele><time>2026-05-01T09:51:31.958Z</time></trkpt><trkpt lat="41.498227" lon="13.1082533"><ele>156.75</ele><time>2026-05-01T09:51:32.957Z</time></trkpt><trkpt lat="41.4982924" lon="13.108415"><ele>156.0</ele><time>2026-05-01T09:51:33.958Z</time></trkpt><trkpt lat="41.4983762" lon="13.1085824"><ele>156.0</ele><time>2026-05-01T09:51:34.959Z</time></trkpt><trkpt lat="41.4984749" lon="13.1087357"><ele>156.0</ele><time>2026-05-01T09:51:35.958Z</time></trkpt><trkpt lat="41.4985887" lon="13.1088756"><ele>156.0</ele><time>2026-05-01T09:51:36.959Z</time></trkpt><trkpt lat="41.4987086" lon="13.1089884"><ele>158.33333333333334</ele><time>2026-05-01T09:51:37.958Z</time></trkpt><trkpt lat="41.4988364" lon="13.1090896"><ele>160.66666666666669</ele><time>2026-05-01T09:51:38.958Z</time></trkpt><trkpt lat="41.4989752" lon="13.1091861"><ele>163.0</ele><time>2026-05-01T09:51:39.958Z</time></trkpt><trkpt lat="41.4991104" lon="13.1093007"><ele>163.0</ele><time>2026-05-01T09:51:40.958Z</time></trkpt><trkpt lat="41.4992406" lon="13.1094297"><ele>163.0</ele><time>2026-05-01T09:51:41.958Z</time></trkpt><trkpt lat="41.4993668" lon="13.10956"><ele>163.0</ele><time>2026-05-01T09:51:42.958Z</time></trkpt><trkpt lat="41.4994895" lon="13.109702"><ele>166.0</ele><time>2026-05-01T09:51:43.958Z</time></trkpt><trkpt lat="41.4996122" lon="13.109852"><ele>169.0</ele><time>2026-05-01T09:51:44.958Z</time></trkpt><trkpt lat="41.4997238" lon="13.1100117"><ele>172.0</ele><time>2026-05-01T09:51:45.958Z</time></trkpt><trkpt lat="41.4998127" lon="13.1101892"><ele>172.0</ele><time>2026-05-01T09:51:46.958Z</time></trkpt><trkpt lat="41.4998887" lon="13.1103805"><ele>172.0</ele><time>2026-05-01T09:51:47.959Z</time></trkpt><trkpt lat="41.499968" lon="13.1105581"><ele>172.0</ele><time>2026-05-01T09:51:48.958Z</time></trkpt><trkpt lat="41.5000682" lon="13.1107256"><ele>168.33333333333334</ele><time>2026-05-01T09:51:49.958Z</time></trkpt><trkpt lat="41.5001887" lon="13.1108768"><ele>164.66666666666666</ele><time>2026-05-01T09:51:50.958Z</time></trkpt><trkpt lat="41.5003098" lon="13.1110182"><ele>161.0</ele><time>2026-05-01T09:51:51.958Z</time></trkpt><trkpt lat="41.500426" lon="13.1111648"><ele>169.66666666666666</ele><time>2026-05-01T09:51:52.957Z</time></trkpt><trkpt lat="41.5005431" lon="13.1113137"><ele>178.33333333333334</ele><time>2026-05-01T09:51:53.957Z</time></trkpt><trkpt lat="41.5006734" lon="13.111439"><ele>187.0</ele><time>2026-05-01T09:51:54.959Z</time></trkpt><trkpt lat="41.5008213" lon="13.1115471"><ele>188.33333333333334</ele><time>2026-05-01T09:51:55.959Z</time></trkpt><trkpt lat="41.5009801" lon="13.1116395"><ele>189.66666666666666</ele><time>2026-05-01T09:51:56.958Z</time></trkpt><trkpt lat="41.5011354" lon="13.1117374"><ele>191.0</ele><time>2026-05-01T09:51:57.958Z</time></trkpt><trkpt lat="41.5012992" lon="13.1118389"><ele>191.0</ele><time>2026-05-01T09:51:58.958Z</time></trkpt><trkpt lat="41.5014657" lon="13.111946"><ele>191.0</ele><time>2026-05-01T09:51:59.957Z</time></trkpt><trkpt lat="41.5016369" lon="13.1120436"><ele>191.0</ele><time>2026-05-01T09:52:00.957Z</time></trkpt><trkpt lat="41.5018195" lon="13.1121294"><ele>191.0</ele><time>2026-05-01T09:52:01.958Z</time></trkpt><trkpt lat="41.502004" lon="13.1122069"><ele>191.0</ele><time>2026-05-01T09:52:02.957Z</time></trkpt><trkpt lat="41.502189" lon="13.1122921"><ele>191.0</ele><time>2026-05-01T09:52:03.959Z</time></trkpt><trkpt lat="41.502371" lon="13.1123817"><ele>190.0</ele><time>2026-05-01T09:52:04.957Z</time></trkpt><trkpt lat="41.5025509" lon="13.1124685"><ele>189.0</ele><time>2026-05-01T09:52:05.958Z</time></trkpt><trkpt lat="41.5027156" lon="13.1125483"><ele>188.0</ele><time>2026-05-01T09:52:06.958Z</time></trkpt><trkpt lat="41.5028669" lon="13.1126176"><ele>194.33333333333331</ele><time>2026-05-01T09:52:07.959Z</time></trkpt><trkpt lat="41.5030192" lon="13.112683"><ele>200.66666666666666</ele><time>2026-05-01T09:52:08.958Z</time></trkpt><trkpt lat="41.5031736" lon="13.1126889"><ele>207.0</ele><time>2026-05-01T09:52:09.958Z</time></trkpt><trkpt lat="41.5033248" lon="13.1127151"><ele>207.0</ele><time>2026-05-01T09:52:10.958Z</time></trkpt><trkpt lat="41.5034891" lon="13.1127301"><ele>207.0</ele><time>2026-05-01T09:52:11.959Z</time></trkpt><trkpt lat="41.5036018" lon="13.1126824"><ele>207.0</ele><time>2026-05-01T09:52:12.958Z</time></trkpt><trkpt lat="41.5037102" lon="13.112709"><ele>207.0</ele><time>2026-05-01T09:52:13.957Z</time></trkpt><trkpt lat="41.5038125" lon="13.1127459"><ele>207.75</ele><time>2026-05-01T09:52:14.958Z</time></trkpt><trkpt lat="41.5038925" lon="13.1128397"><ele>208.5</ele><time>2026-05-01T09:52:15.958Z</time></trkpt><trkpt lat="41.5039654" lon="13.1129691"><ele>209.25</ele><time>2026-05-01T09:52:16.958Z</time></trkpt><trkpt lat="41.5040401" lon="13.113109"><ele>210.0</ele><time>2026-05-01T09:52:17.958Z</time></trkpt><trkpt lat="41.5041009" lon="13.1132634"><ele>210.0</ele><time>2026-05-01T09:52:18.957Z</time></trkpt><trkpt lat="41.5041751" lon="13.113387"><ele>210.0</ele><time>2026-05-01T09:52:19.958Z</time></trkpt><trkpt lat="41.5042597" lon="13.1134744"><ele>210.0</ele><time>2026-05-01T09:52:20.959Z</time></trkpt><trkpt lat="41.5043614" lon="13.113516"><ele>210.0</ele><time>2026-05-01T09:52:21.958Z</time></trkpt><trkpt lat="41.5044602" lon="13.1135467"><ele>210.0</ele><time>2026-05-01T09:52:22.958Z</time></trkpt><trkpt lat="41.5045963" lon="13.1135572"><ele>212.25</ele><time>2026-05-01T09:52:23.958Z</time></trkpt><trkpt lat="41.5047247" lon="13.1135682"><ele>214.5</ele><time>2026-05-01T09:52:24.958Z</time></trkpt><trkpt lat="41.5048744" lon="13.1135785"><ele>216.75</ele><time>2026-05-01T09:52:25.958Z</time></trkpt><trkpt lat="41.5050304" lon="13.1135798"><ele>219.0</ele><time>2026-05-01T09:52:26.958Z</time></trkpt><trkpt lat="41.5051992" lon="13.1135757"><ele>219.0</ele><time>2026-05-01T09:52:27.958Z</time></trkpt><trkpt lat="41.5053541" lon="13.1135689"><ele>219.0</ele><time>2026-05-01T09:52:28.958Z</time></trkpt><trkpt lat="41.505499" lon="13.1135592"><ele>219.0</ele><time>2026-05-01T09:52:29.958Z</time></trkpt><trkpt lat="41.5056333" lon="13.1135512"><ele>219.0</ele><time>2026-05-01T09:52:30.958Z</time></trkpt><trkpt lat="41.5057609" lon="13.1135441"><ele>218.79999999999998</ele><time>2026-05-01T09:52:31.957Z</time></trkpt><trkpt lat="41.5058857" lon="13.1135283"><ele>218.59999999999997</ele><time>2026-05-01T09:52:32.958Z</time></trkpt><trkpt lat="41.5059995" lon="13.1134869"><ele>218.4</ele><time>2026-05-01T09:52:33.958Z</time></trkpt><trkpt lat="41.5060876" lon="13.113432"><ele>218.2</ele><time>2026-05-01T09:52:34.959Z</time></trkpt><trkpt lat="41.5061716" lon="13.1134113"><ele>218.0</ele><time>2026-05-01T09:52:35.959Z</time></trkpt><trkpt lat="41.5062354" lon="13.1134359"><ele>218.00000000000003</ele><time>2026-05-01T09:52:36.958Z</time></trkpt><trkpt lat="41.5062822" lon="13.1134934"><ele>218.0</ele><time>2026-05-01T09:52:37.958Z</time></trkpt><trkpt lat="41.5063034" lon="13.1135809"><ele>218.0</ele><time>2026-05-01T09:52:38.958Z</time></trkpt><trkpt lat="41.5062958" lon="13.1136887"><ele>218.0</ele><time>2026-05-01T09:52:39.958Z</time></trkpt><trkpt lat="41.5062561" lon="13.1138072"><ele>218.00000000000003</ele><time>2026-05-01T09:52:40.959Z</time></trkpt><trkpt lat="41.5061911" lon="13.1139348"><ele>218.0</ele><time>2026-05-01T09:52:41.959Z</time></trkpt><trkpt lat="41.5061184" lon="13.1140751"><ele>218.25</ele><time>2026-05-01T09:52:42.958Z</time></trkpt><trkpt lat="41.5060453" lon="13.1142355"><ele>218.5</ele><time>2026-05-01T09:52:43.958Z</time></trkpt><trkpt lat="41.5059772" lon="13.1143894"><ele>218.75</ele><time>2026-05-01T09:52:44.959Z</time></trkpt><trkpt lat="41.5059124" lon="13.1145431"><ele>219.0</ele><time>2026-05-01T09:52:45.959Z</time></trkpt><trkpt lat="41.5058558" lon="13.1146758"><ele>219.0</ele><time>2026-05-01T09:52:46.958Z</time></trkpt><trkpt lat="41.5058465" lon="13.1147714"><ele>218.99999999999997</ele><time>2026-05-01T09:52:47.958Z</time></trkpt><trkpt lat="41.5058585" lon="13.1148609"><ele>218.99999999999997</ele><time>2026-05-01T09:52:48.957Z</time></trkpt><trkpt lat="41.5059499" lon="13.1149656"><ele>219.0</ele><time>2026-05-01T09:52:50.958Z</time></trkpt><trkpt lat="41.5060551" lon="13.1149919"><ele>219.0</ele><time>2026-05-01T09:52:51.956Z</time></trkpt><trkpt lat="41.5061463" lon="13.1150081"><ele>223.75</ele><time>2026-05-01T09:52:52.957Z</time></trkpt><trkpt lat="41.5062704" lon="13.1150167"><ele>228.5</ele><time>2026-05-01T09:52:53.958Z</time></trkpt><trkpt lat="41.506409" lon="13.115011"><ele>233.25</ele><time>2026-05-01T09:52:54.957Z</time></trkpt><trkpt lat="41.5065202" lon="13.1150229"><ele>238.0</ele><time>2026-05-01T09:52:55.957Z</time></trkpt><trkpt lat="41.5066348" lon="13.1150407"><ele>238.0</ele><time>2026-05-01T09:52:56.956Z</time></trkpt><trkpt lat="41.5067454" lon="13.115103"><ele>238.0</ele><time>2026-05-01T09:52:57.958Z</time></trkpt><trkpt lat="41.5068484" lon="13.1151753"><ele>238.0</ele><time>2026-05-01T09:52:58.958Z</time></trkpt><trkpt lat="41.506932" lon="13.1152584"><ele>238.0</ele><time>2026-05-01T09:52:59.956Z</time></trkpt><trkpt lat="41.5070122" lon="13.1153454"><ele>238.0</ele><time>2026-05-01T09:53:00.956Z</time></trkpt><trkpt lat="41.5071003" lon="13.1154493"><ele>239.0</ele><time>2026-05-01T09:53:01.957Z</time></trkpt><trkpt lat="41.5071847" lon="13.1155688"><ele>240.0</ele><time>2026-05-01T09:53:02.957Z</time></trkpt><trkpt lat="41.507276" lon="13.115701"><ele>241.0</ele><time>2026-05-01T09:53:03.957Z</time></trkpt><trkpt lat="41.507381" lon="13.115821"><ele>242.0</ele><time>2026-05-01T09:53:04.957Z</time></trkpt><trkpt lat="41.5075134" lon="13.1159188"><ele>241.0</ele><time>2026-05-01T09:53:05.957Z</time></trkpt><trkpt lat="41.50767" lon="13.1160006"><ele>240.0</ele><time>2026-05-01T09:53:06.958Z</time></trkpt><trkpt lat="41.5078187" lon="13.1160773"><ele>239.0</ele><time>2026-05-01T09:53:07.957Z</time></trkpt><trkpt lat="41.5079589" lon="13.1161297"><ele>239.0</ele><time>2026-05-01T09:53:08.957Z</time></trkpt><trkpt lat="41.5080879" lon="13.1161649"><ele>239.0</ele><time>2026-05-01T09:53:09.957Z</time></trkpt><trkpt lat="41.5082164" lon="13.1161835"><ele>239.0</ele><time>2026-05-01T09:53:10.956Z</time></trkpt><trkpt lat="41.508341" lon="13.1161628"><ele>239.0</ele><time>2026-05-01T09:53:11.957Z</time></trkpt><trkpt lat="41.5084562" lon="13.1161235"><ele>239.0</ele><time>2026-05-01T09:53:12.958Z</time></trkpt><trkpt lat="41.508542" lon="13.116044"><ele>239.0</ele><time>2026-05-01T09:53:13.956Z</time></trkpt><trkpt lat="41.5086093" lon="13.1159226"><ele>239.0</ele><time>2026-05-01T09:53:14.957Z</time></trkpt><trkpt lat="41.5086584" lon="13.1157717"><ele>239.0</ele><time>2026-05-01T09:53:15.958Z</time></trkpt><trkpt lat="41.5087148" lon="13.1155993"><ele>242.0</ele><time>2026-05-01T09:53:16.956Z</time></trkpt><trkpt lat="41.5087846" lon="13.1154213"><ele>245.0</ele><time>2026-05-01T09:53:17.957Z</time></trkpt><trkpt lat="41.5088444" lon="13.1152254"><ele>248.0</ele><time>2026-05-01T09:53:18.956Z</time></trkpt><trkpt lat="41.508908" lon="13.1150239"><ele>249.75</ele><time>2026-05-01T09:53:19.956Z</time></trkpt><trkpt lat="41.5089697" lon="13.1148291"><ele>251.5</ele><time>2026-05-01T09:53:20.958Z</time></trkpt><trkpt lat="41.5090279" lon="13.1146488"><ele>253.25</ele><time>2026-05-01T09:53:21.957Z</time></trkpt><trkpt lat="41.5090837" lon="13.1144815"><ele>255.0</ele><time>2026-05-01T09:53:22.957Z</time></trkpt><trkpt lat="41.509138" lon="13.114312"><ele>255.0</ele><time>2026-05-01T09:53:23.956Z</time></trkpt><trkpt lat="41.5091914" lon="13.1141502"><ele>255.0</ele><time>2026-05-01T09:53:24.957Z</time></trkpt><trkpt lat="41.5092248" lon="13.1140101"><ele>255.0</ele><time>2026-05-01T09:53:25.956Z</time></trkpt><trkpt lat="41.5092859" lon="13.1139104"><ele>255.0</ele><time>2026-05-01T09:53:26.957Z</time></trkpt><trkpt lat="41.5093645" lon="13.1138581"><ele>255.0</ele><time>2026-05-01T09:53:27.957Z</time></trkpt><trkpt lat="41.5094586" lon="13.1138534"><ele>257.0</ele><time>2026-05-01T09:53:28.958Z</time></trkpt><trkpt lat="41.5095589" lon="13.1138982"><ele>259.0</ele><time>2026-05-01T09:53:29.957Z</time></trkpt><trkpt lat="41.5096635" lon="13.1139497"><ele>261.0</ele><time>2026-05-01T09:53:30.957Z</time></trkpt><trkpt lat="41.509773" lon="13.1140047"><ele>263.0</ele><time>2026-05-01T09:53:31.957Z</time></trkpt><trkpt lat="41.5099233" lon="13.1140438"><ele>263.5</ele><time>2026-05-01T09:53:32.957Z</time></trkpt><trkpt lat="41.5100565" lon="13.1140915"><ele>264.0</ele><time>2026-05-01T09:53:33.957Z</time></trkpt><trkpt lat="41.5101987" lon="13.1141613"><ele>264.5</ele><time>2026-05-01T09:53:34.956Z</time></trkpt><trkpt lat="41.510327" lon="13.11425"><ele>265.0</ele><time>2026-05-01T09:53:35.957Z</time></trkpt><trkpt lat="41.5104635" lon="13.1143029"><ele>265.0</ele><time>2026-05-01T09:53:36.957Z</time></trkpt><trkpt lat="41.5105992" lon="13.1143483"><ele>265.0</ele><time>2026-05-01T09:53:37.957Z</time></trkpt><trkpt lat="41.5107451" lon="13.114393"><ele>265.0</ele><time>2026-05-01T09:53:38.957Z</time></trkpt><trkpt lat="41.5108843" lon="13.1144275"><ele>265.0</ele><time>2026-05-01T09:53:39.958Z</time></trkpt><trkpt lat="41.5110229" lon="13.1144508"><ele>265.0</ele><time>2026-05-01T09:53:40.958Z</time></trkpt><trkpt lat="41.5111711" lon="13.1144636"><ele>265.0</ele><time>2026-05-01T09:53:41.957Z</time></trkpt><trkpt lat="41.5112889" lon="13.1144328"><ele>265.0</ele><time>2026-05-01T09:53:42.957Z</time></trkpt><trkpt lat="41.511408" lon="13.1143483"><ele>265.0</ele><time>2026-05-01T09:53:43.958Z</time></trkpt><trkpt lat="41.5115166" lon="13.1142668"><ele>267.75</ele><time>2026-05-01T09:53:44.956Z</time></trkpt><trkpt lat="41.5116371" lon="13.1141663"><ele>270.5</ele><time>2026-05-01T09:53:45.957Z</time></trkpt><trkpt lat="41.5117201" lon="13.1140245"><ele>273.25</ele><time>2026-05-01T09:53:46.958Z</time></trkpt><trkpt lat="41.5117833" lon="13.1138925"><ele>276.0</ele><time>2026-05-01T09:53:47.957Z</time></trkpt><trkpt lat="41.5118576" lon="13.113742"><ele>277.25</ele><time>2026-05-01T09:53:48.957Z</time></trkpt><trkpt lat="41.5119285" lon="13.1135963"><ele>278.5</ele><time>2026-05-01T09:53:49.957Z</time></trkpt><trkpt lat="41.5120059" lon="13.1134534"><ele>279.75</ele><time>2026-05-01T09:53:50.957Z</time></trkpt><trkpt lat="41.5120791" lon="13.1132763"><ele>281.0</ele><time>2026-05-01T09:53:51.957Z</time></trkpt><trkpt lat="41.512154" lon="13.113109"><ele>284.33333333333337</ele><time>2026-05-01T09:53:52.957Z</time></trkpt><trkpt lat="41.5122299" lon="13.1129436"><ele>287.6666666666667</ele><time>2026-05-01T09:53:53.957Z</time></trkpt><trkpt lat="41.5123097" lon="13.1127544"><ele>291.0</ele><time>2026-05-01T09:53:54.957Z</time></trkpt><trkpt lat="41.5123883" lon="13.1125557"><ele>294.0</ele><time>2026-05-01T09:53:55.957Z</time></trkpt><trkpt lat="41.5124745" lon="13.1123651"><ele>297.0</ele><time>2026-05-01T09:53:56.958Z</time></trkpt><trkpt lat="41.5125493" lon="13.1121879"><ele>300.0</ele><time>2026-05-01T09:53:57.956Z</time></trkpt><trkpt lat="41.512613" lon="13.1119998"><ele>300.0</ele><time>2026-05-01T09:53:58.957Z</time></trkpt><trkpt lat="41.5126828" lon="13.1118215"><ele>300.0</ele><time>2026-05-01T09:53:59.956Z</time></trkpt><trkpt lat="41.5127874" lon="13.111653"><ele>300.0</ele><time>2026-05-01T09:54:00.957Z</time></trkpt><trkpt lat="41.5128794" lon="13.1114696"><ele>302.6666666666667</ele><time>2026-05-01T09:54:01.957Z</time></trkpt><trkpt lat="41.5129812" lon="13.1112898"><ele>305.33333333333337</ele><time>2026-05-01T09:54:02.957Z</time></trkpt><trkpt lat="41.5130726" lon="13.1111255"><ele>308.0</ele><time>2026-05-01T09:54:03.958Z</time></trkpt><trkpt lat="41.5131689" lon="13.1109858"><ele>308.0</ele><time>2026-05-01T09:54:04.957Z</time></trkpt><trkpt lat="41.5132694" lon="13.1108787"><ele>308.0</ele><time>2026-05-01T09:54:05.956Z</time></trkpt><trkpt lat="41.5133913" lon="13.1107921"><ele>308.0</ele><time>2026-05-01T09:54:06.957Z</time></trkpt><trkpt lat="41.5135209" lon="13.1107237"><ele>308.0</ele><time>2026-05-01T09:54:07.957Z</time></trkpt><trkpt lat="41.5136395" lon="13.1106707"><ele>309.0</ele><time>2026-05-01T09:54:08.957Z</time></trkpt><trkpt lat="41.5137417" lon="13.1106126"><ele>310.0</ele><time>2026-05-01T09:54:09.957Z</time></trkpt><trkpt lat="41.5138298" lon="13.1105336"><ele>311.0</ele><time>2026-05-01T09:54:10.958Z</time></trkpt><trkpt lat="41.5139115" lon="13.1104442"><ele>312.0</ele><time>2026-05-01T09:54:11.957Z</time></trkpt><trkpt lat="41.5139808" lon="13.1103595"><ele>313.0</ele><time>2026-05-01T09:54:12.957Z</time></trkpt><trkpt lat="41.5140246" lon="13.1102265"><ele>313.0</ele><time>2026-05-01T09:54:13.958Z</time></trkpt><trkpt lat="41.5140885" lon="13.1101062"><ele>313.0</ele><time>2026-05-01T09:54:14.957Z</time></trkpt><trkpt lat="41.5141736" lon="13.1100061"><ele>313.0</ele><time>2026-05-01T09:54:15.956Z</time></trkpt><trkpt lat="41.5142578" lon="13.1099055"><ele>313.0</ele><time>2026-05-01T09:54:16.957Z</time></trkpt><trkpt lat="41.5143263" lon="13.1097746"><ele>313.0</ele><time>2026-05-01T09:54:17.958Z</time></trkpt><trkpt lat="41.5144074" lon="13.1096241"><ele>313.0</ele><time>2026-05-01T09:54:18.957Z</time></trkpt><trkpt lat="41.5144574" lon="13.1094782"><ele>313.0</ele><time>2026-05-01T09:54:19.956Z</time></trkpt><trkpt lat="41.514522" lon="13.1093466"><ele>313.0</ele><time>2026-05-01T09:54:20.957Z</time></trkpt><trkpt lat="41.5145812" lon="13.1092174"><ele>313.0</ele><time>2026-05-01T09:54:21.958Z</time></trkpt><trkpt lat="41.5146295" lon="13.1090955"><ele>313.0</ele><time>2026-05-01T09:54:22.957Z</time></trkpt><trkpt lat="41.5146727" lon="13.1089743"><ele>313.0</ele><time>2026-05-01T09:54:23.957Z</time></trkpt><trkpt lat="41.5146954" lon="13.1088595"><ele>313.0</ele><time>2026-05-01T09:54:24.958Z</time></trkpt><trkpt lat="41.5147103" lon="13.1087605"><ele>313.0</ele><time>2026-05-01T09:54:25.957Z</time></trkpt><trkpt lat="41.5146974" lon="13.1086772"><ele>313.0</ele><time>2026-05-01T09:54:26.958Z</time></trkpt><trkpt lat="41.5145962" lon="13.1085811"><ele>313.16666666666663</ele><time>2026-05-01T09:54:28.957Z</time></trkpt><trkpt lat="41.5145177" lon="13.1085622"><ele>313.3333333333333</ele><time>2026-05-01T09:54:29.957Z</time></trkpt><trkpt lat="41.5144301" lon="13.108554"><ele>313.5</ele><time>2026-05-01T09:54:30.958Z</time></trkpt><trkpt lat="41.5143468" lon="13.108542"><ele>313.6666666666667</ele><time>2026-05-01T09:54:31.957Z</time></trkpt><trkpt lat="41.5142684" lon="13.1085334"><ele>313.83333333333337</ele><time>2026-05-01T09:54:32.957Z</time></trkpt><trkpt lat="41.5142078" lon="13.1084852"><ele>314.0</ele><time>2026-05-01T09:54:33.957Z</time></trkpt><trkpt lat="41.5141672" lon="13.1084055"><ele>314.0</ele><time>2026-05-01T09:54:34.958Z</time></trkpt><trkpt lat="41.5141582" lon="13.1083016"><ele>314.0</ele><time>2026-05-01T09:54:35.957Z</time></trkpt><trkpt lat="41.5141581" lon="13.1081766"><ele>314.0</ele><time>2026-05-01T09:54:36.956Z</time></trkpt><trkpt lat="41.5141666" lon="13.1080372"><ele>314.0</ele><time>2026-05-01T09:54:37.958Z</time></trkpt><trkpt lat="41.5141786" lon="13.1078991"><ele>314.0</ele><time>2026-05-01T09:54:38.957Z</time></trkpt><trkpt lat="41.5141911" lon="13.10776"><ele>314.2</ele><time>2026-05-01T09:54:39.957Z</time></trkpt><trkpt lat="41.5142363" lon="13.1076414"><ele>314.4</ele><time>2026-05-01T09:54:40.957Z</time></trkpt><trkpt lat="41.5143083" lon="13.1075342"><ele>314.6</ele><time>2026-05-01T09:54:41.957Z</time></trkpt><trkpt lat="41.5143952" lon="13.1074316"><ele>314.8</ele><time>2026-05-01T09:54:42.957Z</time></trkpt><trkpt lat="41.514488" lon="13.1073223"><ele>315.0</ele><time>2026-05-01T09:54:43.957Z</time></trkpt><trkpt lat="41.5145733" lon="13.1071923"><ele>315.75</ele><time>2026-05-01T09:54:44.957Z</time></trkpt><trkpt lat="41.5146479" lon="13.1070464"><ele>316.5</ele><time>2026-05-01T09:54:45.957Z</time></trkpt><trkpt lat="41.5147156" lon="13.1068913"><ele>317.25</ele><time>2026-05-01T09:54:46.958Z</time></trkpt><trkpt lat="41.5147701" lon="13.106715"><ele>318.0</ele><time>2026-05-01T09:54:47.957Z</time></trkpt><trkpt lat="41.5148292" lon="13.1065273"><ele>318.0</ele><time>2026-05-01T09:54:48.957Z</time></trkpt><trkpt lat="41.5148881" lon="13.1063379"><ele>318.0</ele><time>2026-05-01T09:54:49.958Z</time></trkpt><trkpt lat="41.5149592" lon="13.1061757"><ele>318.0</ele><time>2026-05-01T09:54:50.957Z</time></trkpt><trkpt lat="41.5150042" lon="13.1060125"><ele>318.0</ele><time>2026-05-01T09:54:51.957Z</time></trkpt><trkpt lat="41.5150327" lon="13.1058522"><ele>318.75</ele><time>2026-05-01T09:54:52.957Z</time></trkpt><trkpt lat="41.5150345" lon="13.1056849"><ele>319.5</ele><time>2026-05-01T09:54:53.958Z</time></trkpt><trkpt lat="41.5150071" lon="13.105511"><ele>320.25</ele><time>2026-05-01T09:54:54.957Z</time></trkpt><trkpt lat="41.5149619" lon="13.1053338"><ele>321.0</ele><time>2026-05-01T09:54:55.956Z</time></trkpt><trkpt lat="41.5149074" lon="13.1051755"><ele>321.0</ele><time>2026-05-01T09:54:56.957Z</time></trkpt><trkpt lat="41.514881" lon="13.1050242"><ele>321.0</ele><time>2026-05-01T09:54:57.957Z</time></trkpt><trkpt lat="41.5148702" lon="13.1048809"><ele>321.0</ele><time>2026-05-01T09:54:58.958Z</time></trkpt><trkpt lat="41.514877" lon="13.104739"><ele>321.0</ele><time>2026-05-01T09:54:59.958Z</time></trkpt><trkpt lat="41.514907" lon="13.1045813"><ele>321.25</ele><time>2026-05-01T09:55:00.957Z</time></trkpt><trkpt lat="41.514948" lon="13.1044149"><ele>321.5</ele><time>2026-05-01T09:55:01.957Z</time></trkpt><trkpt lat="41.5149871" lon="13.1042362"><ele>321.75</ele><time>2026-05-01T09:55:02.958Z</time></trkpt><trkpt lat="41.5150329" lon="13.1040449"><ele>322.0</ele><time>2026-05-01T09:55:03.957Z</time></trkpt><trkpt lat="41.5150854" lon="13.1038493"><ele>323.3333333333333</ele><time>2026-05-01T09:55:04.957Z</time></trkpt><trkpt lat="41.5151357" lon="13.1036475"><ele>324.6666666666667</ele><time>2026-05-01T09:55:05.957Z</time></trkpt><trkpt lat="41.5151911" lon="13.1034473"><ele>326.0</ele><time>2026-05-01T09:55:06.958Z</time></trkpt><trkpt lat="41.515249" lon="13.1032478"><ele>325.33333333333337</ele><time>2026-05-01T09:55:07.957Z</time></trkpt><trkpt lat="41.5153053" lon="13.1030406"><ele>324.6666666666667</ele><time>2026-05-01T09:55:08.957Z</time></trkpt><trkpt lat="41.5153605" lon="13.102836"><ele>324.0</ele><time>2026-05-01T09:55:09.958Z</time></trkpt><trkpt lat="41.5154128" lon="13.102649"><ele>324.0</ele><time>2026-05-01T09:55:10.957Z</time></trkpt><trkpt lat="41.5154616" lon="13.1024736"><ele>324.0</ele><time>2026-05-01T09:55:11.957Z</time></trkpt><trkpt lat="41.5154985" lon="13.1023183"><ele>324.0</ele><time>2026-05-01T09:55:12.957Z</time></trkpt><trkpt lat="41.5155341" lon="13.1021946"><ele>324.0</ele><time>2026-05-01T09:55:13.957Z</time></trkpt><trkpt lat="41.5155588" lon="13.1020906"><ele>324.0</ele><time>2026-05-01T09:55:14.956Z</time></trkpt><trkpt lat="41.5155817" lon="13.1020023"><ele>324.2</ele><time>2026-05-01T09:55:15.957Z</time></trkpt><trkpt lat="41.5156105" lon="13.101889"><ele>324.4</ele><time>2026-05-01T09:55:17.957Z</time></trkpt><trkpt lat="41.5156528" lon="13.1017611"><ele>324.6</ele><time>2026-05-01T09:55:21.957Z</time></trkpt><trkpt lat="41.5156671" lon="13.1016698"><ele>324.8</ele><time>2026-05-01T09:55:22.958Z</time></trkpt><trkpt lat="41.515698" lon="13.1015551"><ele>325.0</ele><time>2026-05-01T09:55:23.956Z</time></trkpt><trkpt lat="41.515722" lon="13.1014044"><ele>325.5</ele><time>2026-05-01T09:55:24.957Z</time></trkpt><trkpt lat="41.5157469" lon="13.1012286"><ele>326.0</ele><time>2026-05-01T09:55:25.956Z</time></trkpt><trkpt lat="41.5157724" lon="13.1010377"><ele>326.5</ele><time>2026-05-01T09:55:26.957Z</time></trkpt><trkpt lat="41.515798" lon="13.1008343"><ele>327.0</ele><time>2026-05-01T09:55:27.957Z</time></trkpt><trkpt lat="41.5158248" lon="13.1006151"><ele>327.25</ele><time>2026-05-01T09:55:28.958Z</time></trkpt><trkpt lat="41.5158371" lon="13.1004127"><ele>327.5</ele><time>2026-05-01T09:55:29.957Z</time></trkpt><trkpt lat="41.5158459" lon="13.1002216"><ele>327.75</ele><time>2026-05-01T09:55:30.957Z</time></trkpt><trkpt lat="41.5158469" lon="13.1000185"><ele>328.0</ele><time>2026-05-01T09:55:31.957Z</time></trkpt><trkpt lat="41.515838" lon="13.0997997"><ele>328.0</ele><time>2026-05-01T09:55:32.957Z</time></trkpt><trkpt lat="41.5158362" lon="13.0995675"><ele>328.0</ele><time>2026-05-01T09:55:33.956Z</time></trkpt><trkpt lat="41.515849" lon="13.0993272"><ele>328.0</ele><time>2026-05-01T09:55:34.956Z</time></trkpt><trkpt lat="41.515851" lon="13.0991039"><ele>327.66666666666663</ele><time>2026-05-01T09:55:35.955Z</time></trkpt><trkpt lat="41.5158423" lon="13.0988843"><ele>327.3333333333333</ele><time>2026-05-01T09:55:36.956Z</time></trkpt><trkpt lat="41.5158323" lon="13.0986869"><ele>327.0</ele><time>2026-05-01T09:55:37.955Z</time></trkpt><trkpt lat="41.5158217" lon="13.0984898"><ele>327.0</ele><time>2026-05-01T09:55:38.956Z</time></trkpt><trkpt lat="41.5157995" lon="13.0983073"><ele>327.0</ele><time>2026-05-01T09:55:39.956Z</time></trkpt><trkpt lat="41.51577" lon="13.0981421"><ele>327.0</ele><time>2026-05-01T09:55:40.956Z</time></trkpt><trkpt lat="41.515741" lon="13.0979866"><ele>327.0</ele><time>2026-05-01T09:55:41.955Z</time></trkpt><trkpt lat="41.5157231" lon="13.0978449"><ele>326.8333333333333</ele><time>2026-05-01T09:55:42.956Z</time></trkpt><trkpt lat="41.5157053" lon="13.0977191"><ele>326.6666666666667</ele><time>2026-05-01T09:55:43.955Z</time></trkpt><trkpt lat="41.5156911" lon="13.0975996"><ele>326.5</ele><time>2026-05-01T09:55:44.955Z</time></trkpt><trkpt lat="41.5156733" lon="13.0974815"><ele>326.33333333333337</ele><time>2026-05-01T09:55:45.957Z</time></trkpt><trkpt lat="41.5156538" lon="13.097373"><ele>326.1666666666667</ele><time>2026-05-01T09:55:46.955Z</time></trkpt><trkpt lat="41.5156337" lon="13.0972722"><ele>326.0</ele><time>2026-05-01T09:55:47.955Z</time></trkpt><trkpt lat="41.5156729" lon="13.0971604"><ele>325.0</ele><time>2026-05-01T09:55:49.956Z</time></trkpt><trkpt lat="41.5157392" lon="13.0971815"><ele>325.0</ele><time>2026-05-01T09:55:51.955Z</time></trkpt><trkpt lat="41.5157103" lon="13.0972684"><ele>325.0</ele><time>2026-05-01T09:55:54.956Z</time></trkpt></trkseg></trk></gpx>